<?xml version='1.0' encoding='UTF-8'?><gpx version="1.1" creator="JPX - https://github.com/jenetics/jpx" xmlns="http://www.topografix.com/GPX/1/1"><trk><trkseg><trkpt lat="42.10760877981101" lon="13.394253971219959"><ele>855.0</ele><time>2026-04-29T12:24:36.18Z</time></trkpt><trkpt lat="42.107666358006604" lon="13.394299040982279"><ele>855.0</ele><time>2026-04-29T12:24:37.18Z</time></trkpt><trkpt lat="42.1077312649274" lon="13.394343931726036"><ele>855.0</ele><time>2026-04-29T12:24:44.181Z</time></trkpt><trkpt lat="42.10780034703297" lon="13.394394801799661"><ele>855.0</ele><time>2026-04-29T12:24:48.181Z</time></trkpt><trkpt lat="42.10788371854781" lon="13.394458184227748"><ele>855.0</ele><time>2026-04-29T12:24:49.181Z</time></trkpt><trkpt lat="42.10794856168154" lon="13.394507480624343"><ele>855.0</ele><time>2026-04-29T12:24:54.181Z</time></trkpt><trkpt lat="42.108016887156545" lon="13.394499888418691"><ele>855.0</ele><time>2026-04-29T12:29:12Z</time></trkpt><trkpt lat="42.107972085347996" lon="13.394562003567861"><ele>855.0</ele><time>2026-04-29T12:29:21Z</time></trkpt><trkpt lat="42.10791374995597" lon="13.39466671413108"><ele>855.0</ele><time>2026-04-29T12:29:23.999Z</time></trkpt><trkpt lat="42.10788500240052" lon="13.394744052564885"><ele>855.0</ele><time>2026-04-29T12:29:25.999Z</time></trkpt><trkpt lat="42.10782773805005" lon="13.394877759422712"><ele>855.0</ele><time>2026-04-29T12:29:27.999Z</time></trkpt><trkpt lat="42.10777316747735" lon="13.394997791633843"><ele>855.0</ele><time>2026-04-29T12:29:29.999Z</time></trkpt><trkpt lat="42.107681896285044" lon="13.39510482359633"><ele>854.1428571428572</ele><time>2026-04-29T12:29:31.999Z</time></trkpt><trkpt lat="42.107624249247024" lon="13.395141400157382"><ele>853.2857142857142</ele><time>2026-04-29T12:29:32.999Z</time></trkpt><trkpt lat="42.10758509834315" lon="13.39521723508068"><ele>852.4285714285714</ele><time>2026-04-29T12:29:33.999Z</time></trkpt><trkpt lat="42.10752881938278" lon="13.395264746144417"><ele>851.5714285714287</ele><time>2026-04-29T12:29:34.999Z</time></trkpt><trkpt lat="42.1074754951381" lon="13.3953144506092"><ele>850.7142857142858</ele><time>2026-04-29T12:29:35.999Z</time></trkpt><trkpt lat="42.10741688377462" lon="13.395353423990965"><ele>849.8571428571429</ele><time>2026-04-29T12:29:36.999Z</time></trkpt><trkpt lat="42.10735197375206" lon="13.395382497832742"><ele>849.0</ele><time>2026-04-29T12:29:37.999Z</time></trkpt><trkpt lat="42.10727957065411" lon="13.395410820288213"><ele>848.6666666666666</ele><time>2026-04-29T12:29:38.999Z</time></trkpt><trkpt lat="42.107194883182075" lon="13.395435931889137"><ele>848.3333333333333</ele><time>2026-04-29T12:29:39.999Z</time></trkpt><trkpt lat="42.107124458215665" lon="13.39547290425629"><ele>848.0</ele><time>2026-04-29T12:29:40.999Z</time></trkpt><trkpt lat="42.10705946643179" lon="13.395511781465961"><ele>847.6666666666666</ele><time>2026-04-29T12:29:41.999Z</time></trkpt><trkpt lat="42.107005298565355" lon="13.395564050178479"><ele>847.3333333333333</ele><time>2026-04-29T12:29:42.999Z</time></trkpt><trkpt lat="42.10695340382497" lon="13.395636811020491"><ele>847.0</ele><time>2026-04-29T12:29:43.999Z</time></trkpt><trkpt lat="42.10689499874383" lon="13.39570131921924"><ele>846.3333333333333</ele><time>2026-04-29T12:29:44.999Z</time></trkpt><trkpt lat="42.10682476063858" lon="13.395738256119946"><ele>845.6666666666666</ele><time>2026-04-29T12:29:45.999Z</time></trkpt><trkpt lat="42.10672051962524" lon="13.39572420661124"><ele>845.0</ele><time>2026-04-29T12:29:47.999Z</time></trkpt><trkpt lat="42.10665206888076" lon="13.395598061047822"><ele>844.3333333333333</ele><time>2026-04-29T12:29:49.999Z</time></trkpt><trkpt lat="42.10661402704765" lon="13.395513353309141"><ele>843.6666666666666</ele><time>2026-04-29T12:29:50.999Z</time></trkpt><trkpt lat="42.10656898092894" lon="13.395431662137126"><ele>843.0</ele><time>2026-04-29T12:29:51.999Z</time></trkpt><trkpt lat="42.10652773368809" lon="13.395321203975074"><ele>842.8</ele><time>2026-04-29T12:29:52.999Z</time></trkpt><trkpt lat="42.10647268410114" lon="13.39519790707746"><ele>842.5999999999999</ele><time>2026-04-29T12:29:53.999Z</time></trkpt><trkpt lat="42.106413628766354" lon="13.395085431586608"><ele>842.4000000000001</ele><time>2026-04-29T12:29:54.999Z</time></trkpt><trkpt lat="42.106359742750726" lon="13.394963870402822"><ele>842.2</ele><time>2026-04-29T12:29:55.999Z</time></trkpt><trkpt lat="42.10631218550063" lon="13.394850227766845"><ele>842.0</ele><time>2026-04-29T12:29:56.999Z</time></trkpt><trkpt lat="42.106264274419395" lon="13.394735539577036"><ele>842.1666666666667</ele><time>2026-04-29T12:29:57.999Z</time></trkpt><trkpt lat="42.106211467739804" lon="13.394623587694426"><ele>842.3333333333334</ele><time>2026-04-29T12:29:58.999Z</time></trkpt><trkpt lat="42.106162957436766" lon="13.39451751764326"><ele>842.5</ele><time>2026-04-29T12:29:59.999Z</time></trkpt><trkpt lat="42.10612295214357" lon="13.394430911697416"><ele>842.6666666666667</ele><time>2026-04-29T12:30:00.999Z</time></trkpt><trkpt lat="42.10608899851297" lon="13.394356202125564"><ele>842.8333333333334</ele><time>2026-04-29T12:30:01.999Z</time></trkpt><trkpt lat="42.106050637058026" lon="13.394282436521621"><ele>843.0</ele><time>2026-04-29T12:30:02.999Z</time></trkpt><trkpt lat="42.10603098984699" lon="13.394187329139548"><ele>843.0</ele><time>2026-04-29T12:30:03.999Z</time></trkpt><trkpt lat="42.1059084598373" lon="13.394155622721414"><ele>843.0</ele><time>2026-04-29T12:30:04.999Z</time></trkpt><trkpt lat="42.105826351833635" lon="13.394119344474928"><ele>843.0</ele><time>2026-04-29T12:30:05.999Z</time></trkpt><trkpt lat="42.10575594002273" lon="13.394095414544818"><ele>843.0</ele><time>2026-04-29T12:30:06.999Z</time></trkpt><trkpt lat="42.1056556262359" lon="13.394028420790915"><ele>843.0</ele><time>2026-04-29T12:30:08.999Z</time></trkpt><trkpt lat="42.105569867786585" lon="13.393943848161038"><ele>840.75</ele><time>2026-04-29T12:30:11.999Z</time></trkpt><trkpt lat="42.10547599847028" lon="13.393934286417437"><ele>838.5</ele><time>2026-04-29T12:30:12.999Z</time></trkpt><trkpt lat="42.10536022408426" lon="13.39395991267018"><ele>836.25</ele><time>2026-04-29T12:30:13.999Z</time></trkpt><trkpt lat="42.10524291707921" lon="13.39403797312053"><ele>834.0</ele><time>2026-04-29T12:30:14.999Z</time></trkpt><trkpt lat="42.10511711439743" lon="13.394165820421534"><ele>834.0</ele><time>2026-04-29T12:30:15.999Z</time></trkpt><trkpt lat="42.10499897172452" lon="13.394336470324914"><ele>834.0</ele><time>2026-04-29T12:30:16.999Z</time></trkpt><trkpt lat="42.104892968749226" lon="13.394492422409341"><ele>834.0</ele><time>2026-04-29T12:30:17.999Z</time></trkpt><trkpt lat="42.10479351106408" lon="13.394625958434313"><ele>832.0</ele><time>2026-04-29T12:30:18.999Z</time></trkpt><trkpt lat="42.1046893242268" lon="13.394741141420159"><ele>830.0</ele><time>2026-04-29T12:30:19.999Z</time></trkpt><trkpt lat="42.104576976450915" lon="13.394831622296381"><ele>828.0</ele><time>2026-04-29T12:30:20.999Z</time></trkpt><trkpt lat="42.10444703091228" lon="13.394885578583857"><ele>826.0</ele><time>2026-04-29T12:30:21.999Z</time></trkpt><trkpt lat="42.10429887248522" lon="13.39492928117902"><ele>826.0</ele><time>2026-04-29T12:30:22.999Z</time></trkpt><trkpt lat="42.10413610594652" lon="13.394967364874857"><ele>826.0</ele><time>2026-04-29T12:30:23.999Z</time></trkpt><trkpt lat="42.103967172847454" lon="13.395028454673692"><ele>826.0</ele><time>2026-04-29T12:30:24.999Z</time></trkpt><trkpt lat="42.103804562326886" lon="13.395067956054572"><ele>825.25</ele><time>2026-04-29T12:30:25.999Z</time></trkpt><trkpt lat="42.103654799422635" lon="13.39511291498803"><ele>824.5</ele><time>2026-04-29T12:30:26.999Z</time></trkpt><trkpt lat="42.103515718613295" lon="13.395146934189334"><ele>823.75</ele><time>2026-04-29T12:30:27.999Z</time></trkpt><trkpt lat="42.103385789313364" lon="13.395162766912627"><ele>823.0</ele><time>2026-04-29T12:30:28.999Z</time></trkpt><trkpt lat="42.10324690236425" lon="13.39513086105474"><ele>822.0</ele><time>2026-04-29T12:30:29.999Z</time></trkpt><trkpt lat="42.10309323413337" lon="13.395071513692814"><ele>821.0</ele><time>2026-04-29T12:30:30.999Z</time></trkpt><trkpt lat="42.102917114954344" lon="13.395033279053306"><ele>820.0</ele><time>2026-04-29T12:30:31.999Z</time></trkpt><trkpt lat="42.102759797743936" lon="13.394841185930098"><ele>820.0</ele><time>2026-04-29T12:30:32.999Z</time></trkpt><trkpt lat="42.10260564827921" lon="13.394673530546166"><ele>820.0</ele><time>2026-04-29T12:30:33.999Z</time></trkpt><trkpt lat="42.10245779892133" lon="13.39448265502133"><ele>820.0</ele><time>2026-04-29T12:30:34.999Z</time></trkpt><trkpt lat="42.10227672733719" lon="13.394305118350527"><ele>819.0</ele><time>2026-04-29T12:30:35.999Z</time></trkpt><trkpt lat="42.10207385582853" lon="13.394091273813439"><ele>818.0</ele><time>2026-04-29T12:30:36.999Z</time></trkpt><trkpt lat="42.1018740239295" lon="13.393881737804575"><ele>817.5</ele><time>2026-04-29T12:30:37.999Z</time></trkpt><trkpt lat="42.10166565518976" lon="13.393669285110313"><ele>817.0</ele><time>2026-04-29T12:30:38.999Z</time></trkpt><trkpt lat="42.101455212621815" lon="13.393455048660412"><ele>817.0</ele><time>2026-04-29T12:30:39.999Z</time></trkpt><trkpt lat="42.101240519946586" lon="13.393233219809714"><ele>817.0</ele><time>2026-04-29T12:30:40.999Z</time></trkpt><trkpt lat="42.1010185676651" lon="13.392999890512096"><ele>815.5</ele><time>2026-04-29T12:30:41.999Z</time></trkpt><trkpt lat="42.10078559016519" lon="13.392755679828433"><ele>814.0</ele><time>2026-04-29T12:30:42.999Z</time></trkpt><trkpt lat="42.10054775012862" lon="13.392504577681892"><ele>814.0</ele><time>2026-04-29T12:30:43.999Z</time></trkpt><trkpt lat="42.10031407716603" lon="13.39225919365378"><ele>814.0</ele><time>2026-04-29T12:30:44.999Z</time></trkpt><trkpt lat="42.10008738752535" lon="13.392022716158284"><ele>814.0</ele><time>2026-04-29T12:30:45.999Z</time></trkpt><trkpt lat="42.09986802123421" lon="13.39179119367856"><ele>814.0</ele><time>2026-04-29T12:30:46.999Z</time></trkpt><trkpt lat="42.099653270761074" lon="13.391565273877477"><ele>814.0</ele><time>2026-04-29T12:30:47.999Z</time></trkpt><trkpt lat="42.09944429804227" lon="13.39134609577969"><ele>814.0</ele><time>2026-04-29T12:30:48.999Z</time></trkpt><trkpt lat="42.099241001051155" lon="13.391134630274696"><ele>812.5</ele><time>2026-04-29T12:30:49.999Z</time></trkpt><trkpt lat="42.099043374169376" lon="13.390927250786499"><ele>811.0</ele><time>2026-04-29T12:30:50.998Z</time></trkpt><trkpt lat="42.098838008518804" lon="13.390721415434873"><ele>811.0</ele><time>2026-04-29T12:30:51.998Z</time></trkpt><trkpt lat="42.09862260601466" lon="13.39051187048028"><ele>811.0</ele><time>2026-04-29T12:30:52.998Z</time></trkpt><trkpt lat="42.098419902053244" lon="13.390275477896614"><ele>810.0</ele><time>2026-04-29T12:30:53.998Z</time></trkpt><trkpt lat="42.09821327156547" lon="13.390060256313262"><ele>809.0</ele><time>2026-04-29T12:30:55Z</time></trkpt><trkpt lat="42.098020246952096" lon="13.389874260643275"><ele>809.0</ele><time>2026-04-29T12:30:56Z</time></trkpt><trkpt lat="42.09784780462711" lon="13.389680791444276"><ele>809.0</ele><time>2026-04-29T12:30:57Z</time></trkpt><trkpt lat="42.097681762514114" lon="13.389501916632325"><ele>809.0</ele><time>2026-04-29T12:30:58Z</time></trkpt><trkpt lat="42.09752332896028" lon="13.389333084453202"><ele>807.3333333333334</ele><time>2026-04-29T12:30:59Z</time></trkpt><trkpt lat="42.09737386129911" lon="13.389173214161234"><ele>805.6666666666667</ele><time>2026-04-29T12:31:00Z</time></trkpt><trkpt lat="42.09723985573979" lon="13.389006899547585"><ele>804.0</ele><time>2026-04-29T12:31:01Z</time></trkpt><trkpt lat="42.097131676244906" lon="13.388813919439452"><ele>803.6666666666667</ele><time>2026-04-29T12:31:02Z</time></trkpt><trkpt lat="42.097053998372694" lon="13.388590997395266"><ele>803.3333333333334</ele><time>2026-04-29T12:31:03Z</time></trkpt><trkpt lat="42.09700687449536" lon="13.38834330244621"><ele>803.0</ele><time>2026-04-29T12:31:04Z</time></trkpt><trkpt lat="42.09697576046193" lon="13.388078072616414"><ele>802.0</ele><time>2026-04-29T12:31:05Z</time></trkpt><trkpt lat="42.096942720772894" lon="13.38780674805137"><ele>801.0</ele><time>2026-04-29T12:31:06Z</time></trkpt><trkpt lat="42.09690122888857" lon="13.387526537200591"><ele>800.0</ele><time>2026-04-29T12:31:07Z</time></trkpt><trkpt lat="42.096854551536886" lon="13.387238523390074"><ele>796.0</ele><time>2026-04-29T12:31:08Z</time></trkpt><trkpt lat="42.09680799177125" lon="13.386944686446858"><ele>792.0</ele><time>2026-04-29T12:31:09Z</time></trkpt><trkpt lat="42.0967709016435" lon="13.386642871592729"><ele>790.5</ele><time>2026-04-29T12:31:10Z</time></trkpt><trkpt lat="42.09675416417159" lon="13.386334298658726"><ele>789.0</ele><time>2026-04-29T12:31:11Z</time></trkpt><trkpt lat="42.09677006665815" lon="13.386015844263056"><ele>789.0</ele><time>2026-04-29T12:31:12Z</time></trkpt><trkpt lat="42.09679802054786" lon="13.385708038731691"><ele>789.0</ele><time>2026-04-29T12:31:13Z</time></trkpt><trkpt lat="42.09683359965373" lon="13.385420893199107"><ele>789.0</ele><time>2026-04-29T12:31:14Z</time></trkpt><trkpt lat="42.096861187126215" lon="13.385141692202964"><ele>788.0</ele><time>2026-04-29T12:31:15Z</time></trkpt><trkpt lat="42.09687965151465" lon="13.384865293950291"><ele>787.0</ele><time>2026-04-29T12:31:16Z</time></trkpt><trkpt lat="42.09686863491045" lon="13.384603815992447"><ele>786.0</ele><time>2026-04-29T12:31:17Z</time></trkpt><trkpt lat="42.09682531079692" lon="13.38435466627057"><ele>785.6666666666667</ele><time>2026-04-29T12:31:18Z</time></trkpt><trkpt lat="42.09675743163914" lon="13.38411808322145"><ele>785.3333333333334</ele><time>2026-04-29T12:31:19Z</time></trkpt><trkpt lat="42.096662524826854" lon="13.383877387080133"><ele>785.0</ele><time>2026-04-29T12:31:20Z</time></trkpt><trkpt lat="42.096569704912035" lon="13.383606677057156"><ele>783.0</ele><time>2026-04-29T12:31:21Z</time></trkpt><trkpt lat="42.09649718015783" lon="13.383306197594608"><ele>781.0</ele><time>2026-04-29T12:31:22Z</time></trkpt><trkpt lat="42.09640699621633" lon="13.38300220606762"><ele>780.0</ele><time>2026-04-29T12:31:23Z</time></trkpt><trkpt lat="42.09631481291507" lon="13.38269147534906"><ele>779.0</ele><time>2026-04-29T12:31:24Z</time></trkpt><trkpt lat="42.09620781090273" lon="13.38238063128777"><ele>778.0</ele><time>2026-04-29T12:31:25Z</time></trkpt><trkpt lat="42.09612768638081" lon="13.382046482711132"><ele>777.0</ele><time>2026-04-29T12:31:26Z</time></trkpt><trkpt lat="42.09604731417212" lon="13.381701109851031"><ele>777.0</ele><time>2026-04-29T12:31:26.999Z</time></trkpt><trkpt lat="42.09597205785719" lon="13.381351576684931"><ele>777.0</ele><time>2026-04-29T12:31:27.999Z</time></trkpt><trkpt lat="42.095896139962186" lon="13.38099059277128"><ele>776.0</ele><time>2026-04-29T12:31:28.999Z</time></trkpt><trkpt lat="42.0958187988579" lon="13.380622849933026"><ele>775.0</ele><time>2026-04-29T12:31:29.999Z</time></trkpt><trkpt lat="42.09573918442637" lon="13.38025079541288"><ele>768.0</ele><time>2026-04-29T12:31:30.999Z</time></trkpt><trkpt lat="42.09565916286665" lon="13.379874243435564"><ele>761.0</ele><time>2026-04-29T12:31:31.999Z</time></trkpt><trkpt lat="42.09557725264323" lon="13.37949465156234"><ele>761.0</ele><time>2026-04-29T12:31:32.999Z</time></trkpt><trkpt lat="42.095496185113475" lon="13.379114209928568"><ele>761.0</ele><time>2026-04-29T12:31:33.999Z</time></trkpt><trkpt lat="42.095417694782725" lon="13.378750180778836"><ele>762.0</ele><time>2026-04-29T12:31:34.999Z</time></trkpt><trkpt lat="42.09534375129587" lon="13.378405877169644"><ele>763.0</ele><time>2026-04-29T12:31:35.999Z</time></trkpt><trkpt lat="42.09527653112762" lon="13.378086893494439"><ele>764.0</ele><time>2026-04-29T12:31:36.999Z</time></trkpt><trkpt lat="42.09520933469565" lon="13.377785417741249"><ele>765.0</ele><time>2026-04-29T12:31:37.999Z</time></trkpt><trkpt lat="42.095149010985736" lon="13.377483884446063"><ele>765.5</ele><time>2026-04-29T12:31:38.999Z</time></trkpt><trkpt lat="42.095081185571836" lon="13.377163644577296"><ele>766.0</ele><time>2026-04-29T12:31:39.999Z</time></trkpt><trkpt lat="42.09500921268707" lon="13.376826310086063"><ele>766.0</ele><time>2026-04-29T12:31:40.999Z</time></trkpt><trkpt lat="42.09493013035342" lon="13.376484305160558"><ele>766.0</ele><time>2026-04-29T12:31:41.999Z</time></trkpt><trkpt lat="42.09484662248769" lon="13.376133939731737"><ele>763.5</ele><time>2026-04-29T12:31:42.999Z</time></trkpt><trkpt lat="42.094768293182746" lon="13.375770193964717"><ele>761.0</ele><time>2026-04-29T12:31:43.999Z</time></trkpt><trkpt lat="42.09469647618668" lon="13.375393770769854"><ele>760.0</ele><time>2026-04-29T12:31:44.999Z</time></trkpt><trkpt lat="42.09462345365118" lon="13.375018711147176"><ele>759.0</ele><time>2026-04-29T12:31:45.999Z</time></trkpt><trkpt lat="42.09454503471009" lon="13.374641966010406"><ele>757.5</ele><time>2026-04-29T12:31:46.999Z</time></trkpt><trkpt lat="42.094467098933606" lon="13.374270966551752"><ele>756.0</ele><time>2026-04-29T12:31:47.999Z</time></trkpt><trkpt lat="42.09440290851985" lon="13.373902457884773"><ele>754.0</ele><time>2026-04-29T12:31:48.999Z</time></trkpt><trkpt lat="42.09436940280392" lon="13.373532839882213"><ele>752.0</ele><time>2026-04-29T12:31:49.999Z</time></trkpt><trkpt lat="42.09436129402469" lon="13.373154101440226"><ele>751.0</ele><time>2026-04-29T12:31:50.999Z</time></trkpt><trkpt lat="42.09435821365573" lon="13.37275469717576"><ele>750.0</ele><time>2026-04-29T12:31:51.999Z</time></trkpt><trkpt lat="42.094347530857505" lon="13.372341028858381"><ele>748.0</ele><time>2026-04-29T12:31:52.999Z</time></trkpt><trkpt lat="42.094333107476" lon="13.371946747600903"><ele>746.0</ele><time>2026-04-29T12:31:53.999Z</time></trkpt><trkpt lat="42.094322237736" lon="13.371592628786816"><ele>744.5</ele><time>2026-04-29T12:31:54.999Z</time></trkpt><trkpt lat="42.09431226501509" lon="13.371253288198305"><ele>743.0</ele><time>2026-04-29T12:31:55.999Z</time></trkpt><trkpt lat="42.094304023483275" lon="13.370924124682778"><ele>743.0</ele><time>2026-04-29T12:31:56.999Z</time></trkpt><trkpt lat="42.09429823202612" lon="13.37060335087444"><ele>743.0</ele><time>2026-04-29T12:31:57.999Z</time></trkpt><trkpt lat="42.09429173476965" lon="13.370292361443276"><ele>742.6666666666666</ele><time>2026-04-29T12:31:58.999Z</time></trkpt><trkpt lat="42.09428508124912" lon="13.369995352260053"><ele>742.3333333333334</ele><time>2026-04-29T12:31:59.999Z</time></trkpt><trkpt lat="42.09427855796132" lon="13.369704097698573"><ele>742.0</ele><time>2026-04-29T12:32:00.999Z</time></trkpt><trkpt lat="42.0942710138141" lon="13.369413782313048"><ele>741.6666666666667</ele><time>2026-04-29T12:32:01.999Z</time></trkpt><trkpt lat="42.094258098062355" lon="13.369132233004716"><ele>741.3333333333334</ele><time>2026-04-29T12:32:02.999Z</time></trkpt><trkpt lat="42.094240730756226" lon="13.368860504062393"><ele>741.0</ele><time>2026-04-29T12:32:03.999Z</time></trkpt><trkpt lat="42.0942011803553" lon="13.368585652168985"><ele>739.6666666666666</ele><time>2026-04-29T12:32:04.999Z</time></trkpt><trkpt lat="42.094143763614575" lon="13.36830473328207"><ele>738.3333333333333</ele><time>2026-04-29T12:32:05.999Z</time></trkpt><trkpt lat="42.09408356204018" lon="13.368011511748694"><ele>737.0</ele><time>2026-04-29T12:32:06.999Z</time></trkpt><trkpt lat="42.09405626840417" lon="13.367740359281122"><ele>735.6666666666666</ele><time>2026-04-29T12:32:07.999Z</time></trkpt><trkpt lat="42.09403957174676" lon="13.367483362896339"><ele>734.3333333333334</ele><time>2026-04-29T12:32:08.999Z</time></trkpt><trkpt lat="42.09402996888566" lon="13.367237635021208"><ele>733.0</ele><time>2026-04-29T12:32:09.999Z</time></trkpt><trkpt lat="42.09402250765581" lon="13.367008485604716"><ele>732.75</ele><time>2026-04-29T12:32:10.999Z</time></trkpt><trkpt lat="42.0940173757406" lon="13.366790068504157"><ele>732.5</ele><time>2026-04-29T12:32:11.999Z</time></trkpt><trkpt lat="42.09401316515591" lon="13.366586321103146"><ele>732.25</ele><time>2026-04-29T12:32:12.999Z</time></trkpt><trkpt lat="42.09401697434761" lon="13.366403385606574"><ele>732.0</ele><time>2026-04-29T12:32:13.999Z</time></trkpt><trkpt lat="42.094023311298784" lon="13.366235708582757"><ele>731.8</ele><time>2026-04-29T12:32:14.999Z</time></trkpt><trkpt lat="42.09402709209513" lon="13.366091076658808"><ele>731.6</ele><time>2026-04-29T12:32:15.999Z</time></trkpt><trkpt lat="42.09403137592954" lon="13.365952824039436"><ele>731.4</ele><time>2026-04-29T12:32:16.999Z</time></trkpt><trkpt lat="42.09401294479275" lon="13.365822801590284"><ele>731.1999999999999</ele><time>2026-04-29T12:32:17.999Z</time></trkpt><trkpt lat="42.09395067234581" lon="13.365744661331334"><ele>731.0</ele><time>2026-04-29T12:32:18.999Z</time></trkpt><trkpt lat="42.09387998620962" lon="13.365659913628035"><ele>731.0</ele><time>2026-04-29T12:32:19.999Z</time></trkpt><trkpt lat="42.09379085899578" lon="13.365574780692679"><ele>731.0</ele><time>2026-04-29T12:32:20.999Z</time></trkpt><trkpt lat="42.09368452670798" lon="13.365479428669323"><ele>731.0</ele><time>2026-04-29T12:32:21.999Z</time></trkpt><trkpt lat="42.09357906406807" lon="13.36536355276185"><ele>731.0</ele><time>2026-04-29T12:32:22.999Z</time></trkpt><trkpt lat="42.093474247327165" lon="13.36524437001929"><ele>731.25</ele><time>2026-04-29T12:32:23.999Z</time></trkpt><trkpt lat="42.09337583070929" lon="13.365123308338047"><ele>731.5</ele><time>2026-04-29T12:32:24.999Z</time></trkpt><trkpt lat="42.0932704942907" lon="13.365007611242534"><ele>731.75</ele><time>2026-04-29T12:32:25.999Z</time></trkpt><trkpt lat="42.09317042844203" lon="13.364901077132139"><ele>732.0</ele><time>2026-04-29T12:32:26.999Z</time></trkpt><trkpt lat="42.0930857756081" lon="13.364801499166669"><ele>731.6</ele><time>2026-04-29T12:32:27.999Z</time></trkpt><trkpt lat="42.09300629910667" lon="13.364716360317596"><ele>731.2</ele><time>2026-04-29T12:32:28.999Z</time></trkpt><trkpt lat="42.09293060122116" lon="13.364642267234053"><ele>730.8</ele><time>2026-04-29T12:32:29.999Z</time></trkpt><trkpt lat="42.092864115331864" lon="13.364579890199884"><ele>730.4</ele><time>2026-04-29T12:32:30.999Z</time></trkpt><trkpt lat="42.09280000137738" lon="13.364474969992127"><ele>730.0</ele><time>2026-04-29T12:32:32.999Z</time></trkpt><trkpt lat="42.092808911517075" lon="13.364283786735065"><ele>730.0</ele><time>2026-04-29T12:32:34.999Z</time></trkpt><trkpt lat="42.0927470346683" lon="13.364194401535295"><ele>730.0</ele><time>2026-04-29T12:32:35.999Z</time></trkpt><trkpt lat="42.09265470669548" lon="13.364092086768041"><ele>730.0</ele><time>2026-04-29T12:32:36.999Z</time></trkpt><trkpt lat="42.09259473376852" lon="13.363960028456258"><ele>730.0</ele><time>2026-04-29T12:32:37.999Z</time></trkpt><trkpt lat="42.09252344388719" lon="13.363804189972095"><ele>729.0</ele><time>2026-04-29T12:32:38.999Z</time></trkpt><trkpt lat="42.09250290383314" lon="13.363612455041453"><ele>728.0</ele><time>2026-04-29T12:32:39.999Z</time></trkpt><trkpt lat="42.09244203816762" lon="13.363452358860002"><ele>727.0</ele><time>2026-04-29T12:32:40.999Z</time></trkpt><trkpt lat="42.09238712359307" lon="13.363307277556112"><ele>726.0</ele><time>2026-04-29T12:32:41.999Z</time></trkpt><trkpt lat="42.09233866583197" lon="13.363173833766046"><ele>725.8</ele><time>2026-04-29T12:32:42.999Z</time></trkpt><trkpt lat="42.092290996253475" lon="13.363042922369171"><ele>725.5999999999999</ele><time>2026-04-29T12:32:43.999Z</time></trkpt><trkpt lat="42.09225533392537" lon="13.362926930981368"><ele>725.4</ele><time>2026-04-29T12:32:44.999Z</time></trkpt><trkpt lat="42.092221365411106" lon="13.362819820049364"><ele>725.2</ele><time>2026-04-29T12:32:45.999Z</time></trkpt><trkpt lat="42.09217626422841" lon="13.362723399397344"><ele>725.0</ele><time>2026-04-29T12:32:46.999Z</time></trkpt><trkpt lat="42.09215368751973" lon="13.362621008967887"><ele>724.5</ele><time>2026-04-29T12:32:47.999Z</time></trkpt><trkpt lat="42.092140520273205" lon="13.362528430599584"><ele>724.0</ele><time>2026-04-29T12:32:48.999Z</time></trkpt><trkpt lat="42.0921344741862" lon="13.362440155359767"><ele>723.5</ele><time>2026-04-29T12:32:49.999Z</time></trkpt><trkpt lat="42.09212585474526" lon="13.362347488222687"><ele>723.0</ele><time>2026-04-29T12:32:50.998Z</time></trkpt><trkpt lat="42.092101974826285" lon="13.362248764180954"><ele>722.5</ele><time>2026-04-29T12:32:51.998Z</time></trkpt><trkpt lat="42.09213579744231" lon="13.362114252219794"><ele>722.0</ele><time>2026-04-29T12:32:52.998Z</time></trkpt><trkpt lat="42.0921560252137" lon="13.361969052274043"><ele>721.25</ele><time>2026-04-29T12:32:53.998Z</time></trkpt><trkpt lat="42.09218203262562" lon="13.3618100384963"><ele>720.5</ele><time>2026-04-29T12:32:54.998Z</time></trkpt><trkpt lat="42.09222093055654" lon="13.361635350225601"><ele>719.75</ele><time>2026-04-29T12:32:55.998Z</time></trkpt><trkpt lat="42.09227832747062" lon="13.36145712963012"><ele>719.0</ele><time>2026-04-29T12:32:56.998Z</time></trkpt><trkpt lat="42.092336268410556" lon="13.36127359880574"><ele>718.6666666666666</ele><time>2026-04-29T12:32:57.998Z</time></trkpt><trkpt lat="42.09239892478239" lon="13.361072084029061"><ele>718.3333333333334</ele><time>2026-04-29T12:32:58.998Z</time></trkpt><trkpt lat="42.092464162791096" lon="13.36085761281126"><ele>718.0</ele><time>2026-04-29T12:32:59.998Z</time></trkpt><trkpt lat="42.09253344079981" lon="13.360640337818198"><ele>717.0</ele><time>2026-04-29T12:33:01Z</time></trkpt><trkpt lat="42.09260066878372" lon="13.36041938429955"><ele>716.0</ele><time>2026-04-29T12:33:02Z</time></trkpt><trkpt lat="42.09266608629168" lon="13.360204687593573"><ele>715.0</ele><time>2026-04-29T12:33:03Z</time></trkpt><trkpt lat="42.092719883213455" lon="13.359999937450906"><ele>715.0</ele><time>2026-04-29T12:33:04Z</time></trkpt><trkpt lat="42.092776772921304" lon="13.359797649466294"><ele>715.0</ele><time>2026-04-29T12:33:05Z</time></trkpt><trkpt lat="42.09283678063857" lon="13.359590722494318"><ele>715.0</ele><time>2026-04-29T12:33:06Z</time></trkpt><trkpt lat="42.09289896652699" lon="13.359378356131954"><ele>714.0</ele><time>2026-04-29T12:33:07Z</time></trkpt><trkpt lat="42.09296362468571" lon="13.359169460766172"><ele>713.0</ele><time>2026-04-29T12:33:08Z</time></trkpt><trkpt lat="42.09302740371388" lon="13.358977476957744"><ele>712.0</ele><time>2026-04-29T12:33:09Z</time></trkpt><trkpt lat="42.093101883646945" lon="13.358797579595807"><ele>711.3333333333334</ele><time>2026-04-29T12:33:10Z</time></trkpt><trkpt lat="42.09318713606188" lon="13.358623330773229"><ele>710.6666666666666</ele><time>2026-04-29T12:33:11Z</time></trkpt><trkpt lat="42.093288679920626" lon="13.358450172640667"><ele>710.0</ele><time>2026-04-29T12:33:12Z</time></trkpt><trkpt lat="42.09339630887054" lon="13.358273967025877"><ele>710.0</ele><time>2026-04-29T12:33:13Z</time></trkpt><trkpt lat="42.093504301429874" lon="13.358090656241824"><ele>710.0</ele><time>2026-04-29T12:33:14Z</time></trkpt><trkpt lat="42.09361595935496" lon="13.357892344859607"><ele>710.0</ele><time>2026-04-29T12:33:15Z</time></trkpt><trkpt lat="42.093726003958615" lon="13.357690241234065"><ele>709.0</ele><time>2026-04-29T12:33:16Z</time></trkpt><trkpt lat="42.09383614426209" lon="13.357498382360301"><ele>708.0</ele><time>2026-04-29T12:33:17Z</time></trkpt><trkpt lat="42.09394808560171" lon="13.35729460781472"><ele>707.0</ele><time>2026-04-29T12:33:18Z</time></trkpt><trkpt lat="42.09406936970367" lon="13.357077312156292"><ele>706.0</ele><time>2026-04-29T12:33:19Z</time></trkpt><trkpt lat="42.094196042098496" lon="13.35683865299823"><ele>705.0</ele><time>2026-04-29T12:33:20Z</time></trkpt><trkpt lat="42.09432169612157" lon="13.356577411625324"><ele>704.0</ele><time>2026-04-29T12:33:21Z</time></trkpt><trkpt lat="42.094440597286216" lon="13.356266915229904"><ele>704.0</ele><time>2026-04-29T12:33:22Z</time></trkpt><trkpt lat="42.094553964356315" lon="13.355941298940497"><ele>704.0</ele><time>2026-04-29T12:33:23Z</time></trkpt><trkpt lat="42.09466864092944" lon="13.355607891967333"><ele>702.0</ele><time>2026-04-29T12:33:24Z</time></trkpt><trkpt lat="42.094786360693796" lon="13.355263114674997"><ele>700.0</ele><time>2026-04-29T12:33:25Z</time></trkpt><trkpt lat="42.09491378278574" lon="13.354894016505247"><ele>700.5</ele><time>2026-04-29T12:33:26Z</time></trkpt><trkpt lat="42.09504561586873" lon="13.354506624313162"><ele>701.0</ele><time>2026-04-29T12:33:27Z</time></trkpt><trkpt lat="42.09520202492339" lon="13.354118547411009"><ele>700.5</ele><time>2026-04-29T12:33:27.999Z</time></trkpt><trkpt lat="42.09534978575138" lon="13.353706819846273"><ele>700.0</ele><time>2026-04-29T12:33:28.999Z</time></trkpt><trkpt lat="42.09550074590866" lon="13.353287538799195"><ele>700.0</ele><time>2026-04-29T12:33:29.999Z</time></trkpt><trkpt lat="42.09565441880273" lon="13.3528619228603"><ele>700.0</ele><time>2026-04-29T12:33:30.999Z</time></trkpt><trkpt lat="42.09581074037159" lon="13.352425633066703"><ele>699.5</ele><time>2026-04-29T12:33:31.999Z</time></trkpt><trkpt lat="42.095971304712535" lon="13.351977501767456"><ele>699.0</ele><time>2026-04-29T12:33:32.999Z</time></trkpt><trkpt lat="42.0961268452314" lon="13.351515122774947"><ele>699.0</ele><time>2026-04-29T12:33:33.999Z</time></trkpt><trkpt lat="42.09630000999054" lon="13.351055611298857"><ele>699.0</ele><time>2026-04-29T12:33:34.999Z</time></trkpt><trkpt lat="42.09646610779056" lon="13.35059627285129"><ele>699.5</ele><time>2026-04-29T12:33:35.999Z</time></trkpt><trkpt lat="42.09662245456297" lon="13.350155291391589"><ele>700.0</ele><time>2026-04-29T12:33:36.999Z</time></trkpt><trkpt lat="42.0967750458686" lon="13.34973166953108"><ele>700.5</ele><time>2026-04-29T12:33:37.999Z</time></trkpt><trkpt lat="42.096922111539975" lon="13.349317307570619"><ele>701.0</ele><time>2026-04-29T12:33:38.999Z</time></trkpt><trkpt lat="42.09706549394201" lon="13.34891672296874"><ele>701.5</ele><time>2026-04-29T12:33:39.999Z</time></trkpt><trkpt lat="42.09720740560565" lon="13.34851626265527"><ele>702.0</ele><time>2026-04-29T12:33:40.999Z</time></trkpt><trkpt lat="42.097341947070994" lon="13.348148181320513"><ele>703.0</ele><time>2026-04-29T12:33:41.999Z</time></trkpt><trkpt lat="42.0974789624928" lon="13.347771586254897"><ele>704.0</ele><time>2026-04-29T12:33:42.999Z</time></trkpt><trkpt lat="42.09761707389188" lon="13.347385017769616"><ele>704.5</ele><time>2026-04-29T12:33:43.999Z</time></trkpt><trkpt lat="42.09775611518715" lon="13.34699554016418"><ele>705.0</ele><time>2026-04-29T12:33:44.999Z</time></trkpt><trkpt lat="42.097892915055745" lon="13.34661005000148"><ele>704.5</ele><time>2026-04-29T12:33:45.999Z</time></trkpt><trkpt lat="42.098029688118814" lon="13.346228277687398"><ele>704.0</ele><time>2026-04-29T12:33:46.999Z</time></trkpt><trkpt lat="42.098167179334354" lon="13.34584566550673"><ele>704.5</ele><time>2026-04-29T12:33:47.999Z</time></trkpt><trkpt lat="42.09830667250053" lon="13.345461861449776"><ele>705.0</ele><time>2026-04-29T12:33:48.999Z</time></trkpt><trkpt lat="42.09844196222384" lon="13.345085205449646"><ele>705.0</ele><time>2026-04-29T12:33:49.999Z</time></trkpt><trkpt lat="42.098565371060666" lon="13.344741621110893"><ele>705.0</ele><time>2026-04-29T12:33:50.999Z</time></trkpt><trkpt lat="42.09868009168489" lon="13.344424486300321"><ele>703.0</ele><time>2026-04-29T12:33:51.999Z</time></trkpt><trkpt lat="42.098786903360725" lon="13.34413390516586"><ele>701.0</ele><time>2026-04-29T12:33:52.999Z</time></trkpt><trkpt lat="42.09887895083725" lon="13.34386050942672"><ele>699.5</ele><time>2026-04-29T12:33:53.999Z</time></trkpt><trkpt lat="42.0989479002393" lon="13.343567566756342"><ele>698.0</ele><time>2026-04-29T12:33:54.999Z</time></trkpt><trkpt lat="42.09898303505029" lon="13.343249645595316"><ele>700.0</ele><time>2026-04-29T12:33:55.999Z</time></trkpt><trkpt lat="42.09900095731402" lon="13.342909800927417"><ele>702.0</ele><time>2026-04-29T12:33:56.999Z</time></trkpt><trkpt lat="42.09901581194862" lon="13.342557179413872"><ele>702.0</ele><time>2026-04-29T12:33:57.999Z</time></trkpt><trkpt lat="42.09903387761573" lon="13.342236668418488"><ele>702.0</ele><time>2026-04-29T12:33:58.999Z</time></trkpt><trkpt lat="42.099061379776685" lon="13.341913026138355"><ele>705.0</ele><time>2026-04-29T12:33:59.999Z</time></trkpt><trkpt lat="42.09910417998599" lon="13.341593859106691"><ele>708.0</ele><time>2026-04-29T12:34:00.999Z</time></trkpt><trkpt lat="42.09916160881988" lon="13.341280417407974"><ele>708.0</ele><time>2026-04-29T12:34:01.999Z</time></trkpt><trkpt lat="42.09924061083344" lon="13.340993472012535"><ele>708.0</ele><time>2026-04-29T12:34:02.999Z</time></trkpt><trkpt lat="42.09933073695976" lon="13.340703221330081"><ele>704.5</ele><time>2026-04-29T12:34:03.999Z</time></trkpt><trkpt lat="42.09944037936242" lon="13.3404265590956"><ele>701.0</ele><time>2026-04-29T12:34:04.999Z</time></trkpt><trkpt lat="42.0995606536654" lon="13.340145159525692"><ele>701.0</ele><time>2026-04-29T12:34:05.999Z</time></trkpt><trkpt lat="42.099686693250305" lon="13.33985412501044"><ele>701.0</ele><time>2026-04-29T12:34:06.999Z</time></trkpt><trkpt lat="42.09981911203586" lon="13.339563672378022"><ele>705.0</ele><time>2026-04-29T12:34:07.999Z</time></trkpt><trkpt lat="42.09995727480302" lon="13.339261947992442"><ele>709.0</ele><time>2026-04-29T12:34:08.999Z</time></trkpt><trkpt lat="42.10009524647212" lon="13.338950921272795"><ele>704.0</ele><time>2026-04-29T12:34:09.999Z</time></trkpt><trkpt lat="42.1002317901751" lon="13.338649091264214"><ele>699.0</ele><time>2026-04-29T12:34:10.999Z</time></trkpt><trkpt lat="42.10037034124751" lon="13.338343451893666"><ele>698.5</ele><time>2026-04-29T12:34:11.999Z</time></trkpt><trkpt lat="42.10052401197245" lon="13.338034014235168"><ele>698.0</ele><time>2026-04-29T12:34:12.999Z</time></trkpt><trkpt lat="42.10071552791416" lon="13.337744096992983"><ele>697.0</ele><time>2026-04-29T12:34:13.999Z</time></trkpt><trkpt lat="42.10093406816568" lon="13.337463250147641"><ele>696.0</ele><time>2026-04-29T12:34:14.999Z</time></trkpt><trkpt lat="42.10116603753803" lon="13.337176920829762"><ele>696.0</ele><time>2026-04-29T12:34:15.999Z</time></trkpt><trkpt lat="42.101415055967784" lon="13.336872925711035"><ele>696.0</ele><time>2026-04-29T12:34:16.999Z</time></trkpt><trkpt lat="42.1016610128937" lon="13.336563066142014"><ele>697.5</ele><time>2026-04-29T12:34:17.999Z</time></trkpt><trkpt lat="42.101912348827014" lon="13.336244602691808"><ele>699.0</ele><time>2026-04-29T12:34:18.999Z</time></trkpt><trkpt lat="42.102176120209805" lon="13.33592101547411"><ele>697.5</ele><time>2026-04-29T12:34:19.999Z</time></trkpt><trkpt lat="42.102444213928194" lon="13.335600406151242"><ele>696.0</ele><time>2026-04-29T12:34:20.999Z</time></trkpt><trkpt lat="42.10270533110189" lon="13.335287965648517"><ele>696.0</ele><time>2026-04-29T12:34:21.999Z</time></trkpt><trkpt lat="42.10296032298989" lon="13.334978757478948"><ele>696.0</ele><time>2026-04-29T12:34:22.999Z</time></trkpt><trkpt lat="42.10321387955604" lon="13.334670811083315"><ele>698.0</ele><time>2026-04-29T12:34:23.999Z</time></trkpt><trkpt lat="42.10346353498391" lon="13.33436562059092"><ele>700.0</ele><time>2026-04-29T12:34:24.999Z</time></trkpt><trkpt lat="42.103710998673925" lon="13.334076431254616"><ele>699.5</ele><time>2026-04-29T12:34:25.999Z</time></trkpt><trkpt lat="42.10394561778784" lon="13.333802130274355"><ele>699.0</ele><time>2026-04-29T12:34:26.999Z</time></trkpt><trkpt lat="42.10416787587062" lon="13.333535116466164"><ele>698.5</ele><time>2026-04-29T12:34:27.999Z</time></trkpt><trkpt lat="42.104368960189596" lon="13.3332568395808"><ele>698.0</ele><time>2026-04-29T12:34:28.999Z</time></trkpt><trkpt lat="42.104527823944316" lon="13.332975946904599"><ele>697.0</ele><time>2026-04-29T12:34:29.999Z</time></trkpt><trkpt lat="42.10466834287619" lon="13.332676646953905"><ele>696.0</ele><time>2026-04-29T12:34:30.999Z</time></trkpt><trkpt lat="42.10478213186214" lon="13.332350501098391"><ele>695.5</ele><time>2026-04-29T12:34:31.999Z</time></trkpt><trkpt lat="42.104866067447205" lon="13.332026170549678"><ele>695.0</ele><time>2026-04-29T12:34:32.999Z</time></trkpt><trkpt lat="42.10493376553263" lon="13.331723151539308"><ele>698.0</ele><time>2026-04-29T12:34:33.999Z</time></trkpt><trkpt lat="42.105021334672536" lon="13.331422969987807"><ele>701.0</ele><time>2026-04-29T12:34:34.999Z</time></trkpt><trkpt lat="42.10514138029129" lon="13.331110991725497"><ele>701.0</ele><time>2026-04-29T12:34:35.999Z</time></trkpt><trkpt lat="42.10528829268919" lon="13.330801425449808"><ele>701.0</ele><time>2026-04-29T12:34:36.999Z</time></trkpt><trkpt lat="42.10545141049965" lon="13.330517213254085"><ele>700.5</ele><time>2026-04-29T12:34:37.999Z</time></trkpt><trkpt lat="42.10564356831504" lon="13.330233368932122"><ele>700.0</ele><time>2026-04-29T12:34:38.999Z</time></trkpt><trkpt lat="42.10585670218197" lon="13.329980053424435"><ele>700.0</ele><time>2026-04-29T12:34:39.999Z</time></trkpt><trkpt lat="42.10605551706971" lon="13.329764468960684"><ele>700.0</ele><time>2026-04-29T12:34:40.999Z</time></trkpt><trkpt lat="42.106245572804504" lon="13.32957181217629"><ele>698.6666666666667</ele><time>2026-04-29T12:34:41.999Z</time></trkpt><trkpt lat="42.10642139589134" lon="13.329385936228476"><ele>697.3333333333334</ele><time>2026-04-29T12:34:42.999Z</time></trkpt><trkpt lat="42.10657434372542" lon="13.329184457779569"><ele>696.0</ele><time>2026-04-29T12:34:43.999Z</time></trkpt><trkpt lat="42.106696541123426" lon="13.32894819770235"><ele>698.5</ele><time>2026-04-29T12:34:44.999Z</time></trkpt><trkpt lat="42.106783060903666" lon="13.328670291836817"><ele>701.0</ele><time>2026-04-29T12:34:45.999Z</time></trkpt><trkpt lat="42.10686753976644" lon="13.328330821370947"><ele>699.5</ele><time>2026-04-29T12:34:46.999Z</time></trkpt><trkpt lat="42.10696242295047" lon="13.327981886905832"><ele>698.0</ele><time>2026-04-29T12:34:47.999Z</time></trkpt><trkpt lat="42.10706470316133" lon="13.327626253806159"><ele>698.0</ele><time>2026-04-29T12:34:48.999Z</time></trkpt><trkpt lat="42.10716862661172" lon="13.327308304493657"><ele>698.0</ele><time>2026-04-29T12:34:49.999Z</time></trkpt><trkpt lat="42.10728927407296" lon="13.327024196559531"><ele>703.0</ele><time>2026-04-29T12:34:50.999Z</time></trkpt><trkpt lat="42.10741164363769" lon="13.326758940463922"><ele>708.0</ele><time>2026-04-29T12:34:51.999Z</time></trkpt><trkpt lat="42.10749884441376" lon="13.326477221854327"><ele>703.5</ele><time>2026-04-29T12:34:52.998Z</time></trkpt><trkpt lat="42.10754929487488" lon="13.326167046217266"><ele>699.0</ele><time>2026-04-29T12:34:53.998Z</time></trkpt><trkpt lat="42.10755903831209" lon="13.325820839748255"><ele>699.5</ele><time>2026-04-29T12:34:54.998Z</time></trkpt><trkpt lat="42.107561862324594" lon="13.325438724841202"><ele>700.0</ele><time>2026-04-29T12:34:55.998Z</time></trkpt><trkpt lat="42.10757625266376" lon="13.325040404910018"><ele>699.5</ele><time>2026-04-29T12:34:56.998Z</time></trkpt><trkpt lat="42.10762254800067" lon="13.324625914798773"><ele>699.0</ele><time>2026-04-29T12:34:57.998Z</time></trkpt><trkpt lat="42.10769155052922" lon="13.324192204944792"><ele>698.5</ele><time>2026-04-29T12:34:58.998Z</time></trkpt><trkpt lat="42.10775864469967" lon="13.32375076149438"><ele>698.0</ele><time>2026-04-29T12:34:59.998Z</time></trkpt><trkpt lat="42.10781861417047" lon="13.3233188672081"><ele>697.5</ele><time>2026-04-29T12:35:00.998Z</time></trkpt><trkpt lat="42.107887555997195" lon="13.32292055601729"><ele>697.0</ele><time>2026-04-29T12:35:01.998Z</time></trkpt><trkpt lat="42.10793781138017" lon="13.322540775881462"><ele>697.0</ele><time>2026-04-29T12:35:02.998Z</time></trkpt><trkpt lat="42.1079934945985" lon="13.322176341843493"><ele>697.0</ele><time>2026-04-29T12:35:03.998Z</time></trkpt><trkpt lat="42.10809926613265" lon="13.321846485832666"><ele>697.0</ele><time>2026-04-29T12:35:04.998Z</time></trkpt><trkpt lat="42.1082099408961" lon="13.321517688895781"><ele>697.0</ele><time>2026-04-29T12:35:05.998Z</time></trkpt><trkpt lat="42.108339954501574" lon="13.321150235337054"><ele>697.5</ele><time>2026-04-29T12:35:07Z</time></trkpt><trkpt lat="42.108462107875" lon="13.32080427816798"><ele>698.0</ele><time>2026-04-29T12:35:08Z</time></trkpt><trkpt lat="42.108577676984005" lon="13.320463303786838"><ele>698.0</ele><time>2026-04-29T12:35:09Z</time></trkpt><trkpt lat="42.10868776924016" lon="13.320101541098973"><ele>698.0</ele><time>2026-04-29T12:35:10Z</time></trkpt><trkpt lat="42.10877484465902" lon="13.319729061045559"><ele>698.0</ele><time>2026-04-29T12:35:11Z</time></trkpt><trkpt lat="42.10883543805384" lon="13.319331231408597"><ele>698.0</ele><time>2026-04-29T12:35:12Z</time></trkpt><trkpt lat="42.10887929738466" lon="13.318884040483299"><ele>697.0</ele><time>2026-04-29T12:35:13Z</time></trkpt><trkpt lat="42.1089220504147" lon="13.318413234632946"><ele>696.0</ele><time>2026-04-29T12:35:14Z</time></trkpt><trkpt lat="42.108957928695155" lon="13.318009324947353"><ele>695.0</ele><time>2026-04-29T12:35:15Z</time></trkpt><trkpt lat="42.1089909605512" lon="13.317640428431472"><ele>694.0</ele><time>2026-04-29T12:35:16Z</time></trkpt><trkpt lat="42.109024691451424" lon="13.317268183841131"><ele>695.0</ele><time>2026-04-29T12:35:17Z</time></trkpt><trkpt lat="42.10905544203622" lon="13.316939064598392"><ele>696.0</ele><time>2026-04-29T12:35:18Z</time></trkpt><trkpt lat="42.10908777173077" lon="13.316701966311468"><ele>697.0</ele><time>2026-04-29T12:35:19Z</time></trkpt><trkpt lat="42.10914770436052" lon="13.316448680777242"><ele>698.0</ele><time>2026-04-29T12:35:20Z</time></trkpt><trkpt lat="42.10924235012153" lon="13.31617859132256"><ele>699.0</ele><time>2026-04-29T12:35:21Z</time></trkpt><trkpt lat="42.109337925684635" lon="13.315914200563109"><ele>700.0</ele><time>2026-04-29T12:35:22Z</time></trkpt><trkpt lat="42.10944552005614" lon="13.315622137402581"><ele>698.5</ele><time>2026-04-29T12:35:23Z</time></trkpt><trkpt lat="42.109557429543926" lon="13.31533101695917"><ele>697.0</ele><time>2026-04-29T12:35:24Z</time></trkpt><trkpt lat="42.10968201132922" lon="13.315021325522157"><ele>695.5</ele><time>2026-04-29T12:35:25Z</time></trkpt><trkpt lat="42.10981325064163" lon="13.314707923441771"><ele>694.0</ele><time>2026-04-29T12:35:26Z</time></trkpt><trkpt lat="42.10994998469767" lon="13.314381399783125"><ele>695.5</ele><time>2026-04-29T12:35:27Z</time></trkpt><trkpt lat="42.110092770785094" lon="13.314042459911338"><ele>697.0</ele><time>2026-04-29T12:35:27.999Z</time></trkpt><trkpt lat="42.11023302307503" lon="13.313703380225528"><ele>697.0</ele><time>2026-04-29T12:35:28.999Z</time></trkpt><trkpt lat="42.11035666889443" lon="13.313403965043582"><ele>697.0</ele><time>2026-04-29T12:35:29.999Z</time></trkpt><trkpt lat="42.11047469907972" lon="13.313118148430972"><ele>696.5</ele><time>2026-04-29T12:35:30.999Z</time></trkpt><trkpt lat="42.110594764201856" lon="13.312839972430307"><ele>696.0</ele><time>2026-04-29T12:35:31.999Z</time></trkpt><trkpt lat="42.110737102564414" lon="13.312579240060584"><ele>697.0</ele><time>2026-04-29T12:35:32.999Z</time></trkpt><trkpt lat="42.11089645962513" lon="13.312323030627045"><ele>698.0</ele><time>2026-04-29T12:35:33.999Z</time></trkpt><trkpt lat="42.1110652613963" lon="13.312060173922593"><ele>698.0</ele><time>2026-04-29T12:35:34.999Z</time></trkpt><trkpt lat="42.111226560197416" lon="13.311809001184507"><ele>698.0</ele><time>2026-04-29T12:35:35.999Z</time></trkpt><trkpt lat="42.11137964920826" lon="13.31157209314088"><ele>697.0</ele><time>2026-04-29T12:35:36.999Z</time></trkpt><trkpt lat="42.11152710803576" lon="13.311345348308306"><ele>696.0</ele><time>2026-04-29T12:35:37.999Z</time></trkpt><trkpt lat="42.11166573663174" lon="13.311133791605814"><ele>695.0</ele><time>2026-04-29T12:35:38.999Z</time></trkpt><trkpt lat="42.11178722436072" lon="13.310948679734508"><ele>695.6666666666666</ele><time>2026-04-29T12:35:39.999Z</time></trkpt><trkpt lat="42.11190433898944" lon="13.31077230906624"><ele>696.3333333333334</ele><time>2026-04-29T12:35:40.999Z</time></trkpt><trkpt lat="42.11203115990174" lon="13.31060155720653"><ele>697.0</ele><time>2026-04-29T12:35:41.999Z</time></trkpt><trkpt lat="42.11218243337837" lon="13.310447475072987"><ele>697.0</ele><time>2026-04-29T12:35:42.999Z</time></trkpt><trkpt lat="42.11236184001279" lon="13.310309668303223"><ele>697.0</ele><time>2026-04-29T12:35:43.999Z</time></trkpt><trkpt lat="42.11255631264832" lon="13.310174703317983"><ele>697.0</ele><time>2026-04-29T12:35:44.999Z</time></trkpt><trkpt lat="42.11274865710083" lon="13.310027571250693"><ele>696.5</ele><time>2026-04-29T12:35:45.999Z</time></trkpt><trkpt lat="42.112942010296436" lon="13.309818636264026"><ele>696.0</ele><time>2026-04-29T12:35:46.999Z</time></trkpt><trkpt lat="42.113126282316806" lon="13.30955195939475"><ele>699.5</ele><time>2026-04-29T12:35:47.999Z</time></trkpt><trkpt lat="42.11332322917312" lon="13.309247170274263"><ele>703.0</ele><time>2026-04-29T12:35:48.999Z</time></trkpt><trkpt lat="42.11352770299495" lon="13.308927509851282"><ele>699.5</ele><time>2026-04-29T12:35:49.999Z</time></trkpt><trkpt lat="42.11373222957649" lon="13.308576660902832"><ele>696.0</ele><time>2026-04-29T12:35:50.999Z</time></trkpt><trkpt lat="42.113955164726335" lon="13.308235965962588"><ele>697.5</ele><time>2026-04-29T12:35:51.999Z</time></trkpt><trkpt lat="42.114183658075746" lon="13.30788652389431"><ele>699.0</ele><time>2026-04-29T12:35:52.999Z</time></trkpt><trkpt lat="42.1144226176175" lon="13.307514117402727"><ele>697.5</ele><time>2026-04-29T12:35:53.999Z</time></trkpt><trkpt lat="42.11467341035651" lon="13.307145579251344"><ele>696.0</ele><time>2026-04-29T12:35:54.999Z</time></trkpt><trkpt lat="42.114900745171326" lon="13.306803309059756"><ele>697.0</ele><time>2026-04-29T12:35:55.999Z</time></trkpt><trkpt lat="42.11511159624571" lon="13.306479581804787"><ele>698.0</ele><time>2026-04-29T12:35:56.999Z</time></trkpt><trkpt lat="42.11529192953901" lon="13.306165282852383"><ele>698.0</ele><time>2026-04-29T12:35:57.999Z</time></trkpt><trkpt lat="42.1154511066351" lon="13.305865875350557"><ele>698.0</ele><time>2026-04-29T12:35:58.999Z</time></trkpt><trkpt lat="42.11559781507465" lon="13.305594346421943"><ele>696.5</ele><time>2026-04-29T12:35:59.999Z</time></trkpt><trkpt lat="42.11573025375477" lon="13.305331700192813"><ele>695.0</ele><time>2026-04-29T12:36:00.999Z</time></trkpt><trkpt lat="42.11584916484188" lon="13.30508597771444"><ele>696.6666666666666</ele><time>2026-04-29T12:36:01.999Z</time></trkpt><trkpt lat="42.11595314438771" lon="13.304859677123801"><ele>698.3333333333334</ele><time>2026-04-29T12:36:02.999Z</time></trkpt><trkpt lat="42.11602505045353" lon="13.304626618766719"><ele>700.0</ele><time>2026-04-29T12:36:03.999Z</time></trkpt><trkpt lat="42.116063598525926" lon="13.30435857761094"><ele>700.0</ele><time>2026-04-29T12:36:04.999Z</time></trkpt><trkpt lat="42.116074546392866" lon="13.304046492144295"><ele>700.0</ele><time>2026-04-29T12:36:05.999Z</time></trkpt><trkpt lat="42.11609088585518" lon="13.303706430381437"><ele>700.0</ele><time>2026-04-29T12:36:06.999Z</time></trkpt><trkpt lat="42.116143509287056" lon="13.303356950691866"><ele>700.0</ele><time>2026-04-29T12:36:07.999Z</time></trkpt><trkpt lat="42.116227888988334" lon="13.303018160335252"><ele>700.0</ele><time>2026-04-29T12:36:08.999Z</time></trkpt><trkpt lat="42.11632387325837" lon="13.302739155082264"><ele>700.0</ele><time>2026-04-29T12:36:09.999Z</time></trkpt><trkpt lat="42.116429132418226" lon="13.30249429103838"><ele>700.0</ele><time>2026-04-29T12:36:10.999Z</time></trkpt><trkpt lat="42.11655908199109" lon="13.302267582406376"><ele>701.0</ele><time>2026-04-29T12:36:11.999Z</time></trkpt><trkpt lat="42.11672855030731" lon="13.302011751596735"><ele>702.0</ele><time>2026-04-29T12:36:12.999Z</time></trkpt><trkpt lat="42.11693381872599" lon="13.301771797595812"><ele>702.0</ele><time>2026-04-29T12:36:13.999Z</time></trkpt><trkpt lat="42.11713834631759" lon="13.301570774753358"><ele>702.0</ele><time>2026-04-29T12:36:14.999Z</time></trkpt><trkpt lat="42.117335893667935" lon="13.301393414553338"><ele>701.3333333333334</ele><time>2026-04-29T12:36:15.999Z</time></trkpt><trkpt lat="42.117514368213996" lon="13.301242044849754"><ele>700.6666666666667</ele><time>2026-04-29T12:36:16.999Z</time></trkpt><trkpt lat="42.117695312049136" lon="13.301146738657442"><ele>700.0</ele><time>2026-04-29T12:36:17.999Z</time></trkpt><trkpt lat="42.117877294173596" lon="13.301086505183328"><ele>700.0</ele><time>2026-04-29T12:36:18.999Z</time></trkpt><trkpt lat="42.118094426357565" lon="13.301085284985177"><ele>700.0</ele><time>2026-04-29T12:36:19.999Z</time></trkpt><trkpt lat="42.11828882555214" lon="13.30109760067969"><ele>700.0</ele><time>2026-04-29T12:36:20.999Z</time></trkpt><trkpt lat="42.11846048696406" lon="13.301101585893864"><ele>700.6666666666667</ele><time>2026-04-29T12:36:21.999Z</time></trkpt><trkpt lat="42.118626358741764" lon="13.301113811994064"><ele>701.3333333333334</ele><time>2026-04-29T12:36:22.999Z</time></trkpt><trkpt lat="42.118780424314195" lon="13.301157464339383"><ele>702.0</ele><time>2026-04-29T12:36:23.999Z</time></trkpt><trkpt lat="42.11892678659042" lon="13.301181950825063"><ele>701.6666666666666</ele><time>2026-04-29T12:36:24.999Z</time></trkpt><trkpt lat="42.119083599040096" lon="13.301221460515269"><ele>701.3333333333333</ele><time>2026-04-29T12:36:25.999Z</time></trkpt><trkpt lat="42.11924905532937" lon="13.301285086655335"><ele>701.0</ele><time>2026-04-29T12:36:26.999Z</time></trkpt><trkpt lat="42.119401779149456" lon="13.30136280810948"><ele>703.5</ele><time>2026-04-29T12:36:27.999Z</time></trkpt><trkpt lat="42.119532812643705" lon="13.301457023485247"><ele>706.0</ele><time>2026-04-29T12:36:28.999Z</time></trkpt><trkpt lat="42.11965689592258" lon="13.301528627036408"><ele>708.5</ele><time>2026-04-29T12:36:29.999Z</time></trkpt><trkpt lat="42.11978243491369" lon="13.301582615385856"><ele>711.0</ele><time>2026-04-29T12:36:30.999Z</time></trkpt><trkpt lat="42.11992346186403" lon="13.301594661492906"><ele>711.3333333333334</ele><time>2026-04-29T12:36:31.999Z</time></trkpt><trkpt lat="42.1200910368582" lon="13.301547562846633"><ele>711.6666666666667</ele><time>2026-04-29T12:36:32.999Z</time></trkpt><trkpt lat="42.12026362038692" lon="13.30142761340261"><ele>712.0</ele><time>2026-04-29T12:36:33.999Z</time></trkpt><trkpt lat="42.12044438891577" lon="13.301287922076348"><ele>708.0</ele><time>2026-04-29T12:36:34.999Z</time></trkpt><trkpt lat="42.12068037344963" lon="13.301168920541853"><ele>704.0</ele><time>2026-04-29T12:36:35.999Z</time></trkpt><trkpt lat="42.12092762305896" lon="13.301031699237056"><ele>704.0</ele><time>2026-04-29T12:36:36.999Z</time></trkpt><trkpt lat="42.121182219560644" lon="13.300815621311317"><ele>704.0</ele><time>2026-04-29T12:36:37.999Z</time></trkpt><trkpt lat="42.121433527757745" lon="13.300537960956243"><ele>704.0</ele><time>2026-04-29T12:36:38.999Z</time></trkpt><trkpt lat="42.12168245351822" lon="13.30018643680755"><ele>704.0</ele><time>2026-04-29T12:36:39.999Z</time></trkpt><trkpt lat="42.1219412519427" lon="13.29983122819135"><ele>703.0</ele><time>2026-04-29T12:36:40.999Z</time></trkpt><trkpt lat="42.122216595855946" lon="13.299476289862026"><ele>702.0</ele><time>2026-04-29T12:36:41.999Z</time></trkpt><trkpt lat="42.12248595857513" lon="13.29912181896873"><ele>699.5</ele><time>2026-04-29T12:36:42.999Z</time></trkpt><trkpt lat="42.12278103652866" lon="13.298764966534073"><ele>697.0</ele><time>2026-04-29T12:36:43.999Z</time></trkpt><trkpt lat="42.123064876707886" lon="13.29841429540074"><ele>697.5</ele><time>2026-04-29T12:36:44.999Z</time></trkpt><trkpt lat="42.12333143534901" lon="13.298095363380323"><ele>698.0</ele><time>2026-04-29T12:36:45.999Z</time></trkpt><trkpt lat="42.123583111354726" lon="13.297771247743363"><ele>698.0</ele><time>2026-04-29T12:36:46.999Z</time></trkpt><trkpt lat="42.12385804209261" lon="13.297430932070824"><ele>698.0</ele><time>2026-04-29T12:36:47.999Z</time></trkpt><trkpt lat="42.1241409671799" lon="13.297076042329678"><ele>698.0</ele><time>2026-04-29T12:36:48.999Z</time></trkpt><trkpt lat="42.124436001894665" lon="13.296718921619703"><ele>698.0</ele><time>2026-04-29T12:36:49.999Z</time></trkpt><trkpt lat="42.12473243822894" lon="13.296356298683692"><ele>698.5</ele><time>2026-04-29T12:36:50.999Z</time></trkpt><trkpt lat="42.125002980944295" lon="13.296007181177508"><ele>699.0</ele><time>2026-04-29T12:36:51.999Z</time></trkpt><trkpt lat="42.12524454880225" lon="13.29569274582193"><ele>696.5</ele><time>2026-04-29T12:36:52.999Z</time></trkpt><trkpt lat="42.12546818034605" lon="13.29541101032683"><ele>694.0</ele><time>2026-04-29T12:36:53.999Z</time></trkpt><trkpt lat="42.125681975310094" lon="13.295149266154398"><ele>696.0</ele><time>2026-04-29T12:36:54.999Z</time></trkpt><trkpt lat="42.12588692844587" lon="13.294891566939372"><ele>698.0</ele><time>2026-04-29T12:36:55.999Z</time></trkpt><trkpt lat="42.12609174569045" lon="13.294634846831775"><ele>698.0</ele><time>2026-04-29T12:36:56.999Z</time></trkpt><trkpt lat="42.126282386517175" lon="13.294404223925621"><ele>698.0</ele><time>2026-04-29T12:36:57.998Z</time></trkpt><trkpt lat="42.12646230589193" lon="13.294181388876943"><ele>698.0</ele><time>2026-04-29T12:36:58.998Z</time></trkpt><trkpt lat="42.12662832263184" lon="13.293974069136896"><ele>698.0</ele><time>2026-04-29T12:36:59.998Z</time></trkpt><trkpt lat="42.126786491092005" lon="13.293776392933214"><ele>698.0</ele><time>2026-04-29T12:37:00.998Z</time></trkpt><trkpt lat="42.126945691795456" lon="13.29358246392939"><ele>698.0</ele><time>2026-04-29T12:37:01.998Z</time></trkpt><trkpt lat="42.12708547750124" lon="13.293378825918927"><ele>698.0</ele><time>2026-04-29T12:37:02.998Z</time></trkpt><trkpt lat="42.12721330467401" lon="13.293186030782232"><ele>698.0</ele><time>2026-04-29T12:37:03.998Z</time></trkpt><trkpt lat="42.12732582133717" lon="13.292996022452332"><ele>699.6666666666666</ele><time>2026-04-29T12:37:04.998Z</time></trkpt><trkpt lat="42.12742390856782" lon="13.29281016280882"><ele>701.3333333333334</ele><time>2026-04-29T12:37:05.998Z</time></trkpt><trkpt lat="42.12751631691019" lon="13.292616861342706"><ele>703.0</ele><time>2026-04-29T12:37:06.998Z</time></trkpt><trkpt lat="42.12760723863027" lon="13.292423726842223"><ele>701.6666666666667</ele><time>2026-04-29T12:37:07.998Z</time></trkpt><trkpt lat="42.12768942052672" lon="13.292223470256868"><ele>700.3333333333334</ele><time>2026-04-29T12:37:08.998Z</time></trkpt><trkpt lat="42.12775065114851" lon="13.29200388053505"><ele>699.0</ele><time>2026-04-29T12:37:09.998Z</time></trkpt><trkpt lat="42.127780081012446" lon="13.291777327681936"><ele>699.0</ele><time>2026-04-29T12:37:10.998Z</time></trkpt><trkpt lat="42.12780208021129" lon="13.291564963668003"><ele>699.0</ele><time>2026-04-29T12:37:11.998Z</time></trkpt><trkpt lat="42.12781548503822" lon="13.291358147302622"><ele>699.0</ele><time>2026-04-29T12:37:13Z</time></trkpt><trkpt lat="42.12782502369775" lon="13.291138301275227"><ele>699.0</ele><time>2026-04-29T12:37:14Z</time></trkpt><trkpt lat="42.127824900804974" lon="13.290879729139094"><ele>699.0</ele><time>2026-04-29T12:37:15Z</time></trkpt><trkpt lat="42.12785066266225" lon="13.29057346293859"><ele>699.0</ele><time>2026-04-29T12:37:16Z</time></trkpt><trkpt lat="42.12786133935103" lon="13.290232391616593"><ele>699.0</ele><time>2026-04-29T12:37:17Z</time></trkpt><trkpt lat="42.12789759484562" lon="13.289858671786865"><ele>699.0</ele><time>2026-04-29T12:37:18Z</time></trkpt><trkpt lat="42.1279211812765" lon="13.289531495655348"><ele>698.0</ele><time>2026-04-29T12:37:19Z</time></trkpt><trkpt lat="42.127951161573876" lon="13.289213945239602"><ele>697.0</ele><time>2026-04-29T12:37:20Z</time></trkpt><trkpt lat="42.12801350852628" lon="13.288895843988701"><ele>696.5</ele><time>2026-04-29T12:37:21Z</time></trkpt><trkpt lat="42.12811873711632" lon="13.288565125068677"><ele>696.0</ele><time>2026-04-29T12:37:22Z</time></trkpt><trkpt lat="42.12827923907886" lon="13.288206219427181"><ele>696.5</ele><time>2026-04-29T12:37:23Z</time></trkpt><trkpt lat="42.128447362151576" lon="13.287826175121726"><ele>697.0</ele><time>2026-04-29T12:37:24Z</time></trkpt><trkpt lat="42.128641751357776" lon="13.287447364034833"><ele>696.5</ele><time>2026-04-29T12:37:25Z</time></trkpt><trkpt lat="42.12881794661678" lon="13.287082502442445"><ele>696.0</ele><time>2026-04-29T12:37:26Z</time></trkpt><trkpt lat="42.128978148039955" lon="13.286751829145786"><ele>695.5</ele><time>2026-04-29T12:37:27Z</time></trkpt><trkpt lat="42.12913789232853" lon="13.286422875988281"><ele>695.0</ele><time>2026-04-29T12:37:28Z</time></trkpt><trkpt lat="42.12930459851165" lon="13.286076350201903"><ele>695.0</ele><time>2026-04-29T12:37:29Z</time></trkpt><trkpt lat="42.129469348069" lon="13.285733891581847"><ele>695.0</ele><time>2026-04-29T12:37:30Z</time></trkpt><trkpt lat="42.12963786571131" lon="13.285383600387949"><ele>695.0</ele><time>2026-04-29T12:37:31Z</time></trkpt><trkpt lat="42.129815797605474" lon="13.285015608268376"><ele>695.0</ele><time>2026-04-29T12:37:32Z</time></trkpt><trkpt lat="42.130000293493154" lon="13.284636551910703"><ele>695.0</ele><time>2026-04-29T12:37:33Z</time></trkpt><trkpt lat="42.130173362514924" lon="13.284284808136766"><ele>695.0</ele><time>2026-04-29T12:37:34Z</time></trkpt><trkpt lat="42.13033410859074" lon="13.283959011705557"><ele>693.5</ele><time>2026-04-29T12:37:35Z</time></trkpt><trkpt lat="42.130483063637776" lon="13.283657478368982"><ele>692.0</ele><time>2026-04-29T12:37:35.999Z</time></trkpt><trkpt lat="42.13062081369748" lon="13.283379669936448"><ele>693.0</ele><time>2026-04-29T12:37:36.999Z</time></trkpt><trkpt lat="42.130759173294855" lon="13.283102518836507"><ele>694.0</ele><time>2026-04-29T12:37:37.999Z</time></trkpt><trkpt lat="42.130895141640835" lon="13.2828316228985"><ele>694.0</ele><time>2026-04-29T12:37:38.999Z</time></trkpt><trkpt lat="42.131022461969636" lon="13.282577795615959"><ele>694.0</ele><time>2026-04-29T12:37:39.999Z</time></trkpt><trkpt lat="42.13114033498727" lon="13.282342929279297"><ele>694.0</ele><time>2026-04-29T12:37:40.999Z</time></trkpt><trkpt lat="42.131264707332335" lon="13.282128823046312"><ele>693.3333333333334</ele><time>2026-04-29T12:37:41.999Z</time></trkpt><trkpt lat="42.131415161547245" lon="13.281923503403128"><ele>692.6666666666666</ele><time>2026-04-29T12:37:42.999Z</time></trkpt><trkpt lat="42.13158652978123" lon="13.281707450159907"><ele>692.0</ele><time>2026-04-29T12:37:43.999Z</time></trkpt><trkpt lat="42.13176888142648" lon="13.281501862373082"><ele>691.5</ele><time>2026-04-29T12:37:44.999Z</time></trkpt><trkpt lat="42.13197707834663" lon="13.281299726421215"><ele>691.0</ele><time>2026-04-29T12:37:45.999Z</time></trkpt><trkpt lat="42.132194644404706" lon="13.281104961107392"><ele>695.0</ele><time>2026-04-29T12:37:46.999Z</time></trkpt><trkpt lat="42.13241444478363" lon="13.280919638186786"><ele>699.0</ele><time>2026-04-29T12:37:47.999Z</time></trkpt><trkpt lat="42.13265684235259" lon="13.280757126682236"><ele>699.0</ele><time>2026-04-29T12:37:48.999Z</time></trkpt><trkpt lat="42.13292985050469" lon="13.28061087261523"><ele>699.0</ele><time>2026-04-29T12:37:49.999Z</time></trkpt><trkpt lat="42.1332265959225" lon="13.280464425102869"><ele>695.5</ele><time>2026-04-29T12:37:50.999Z</time></trkpt><trkpt lat="42.13352906772208" lon="13.280294384530396"><ele>692.0</ele><time>2026-04-29T12:37:51.999Z</time></trkpt><trkpt lat="42.13384892051553" lon="13.280162244254141"><ele>695.5</ele><time>2026-04-29T12:37:52.999Z</time></trkpt><trkpt lat="42.13417541118345" lon="13.28000531543634"><ele>699.0</ele><time>2026-04-29T12:37:53.999Z</time></trkpt><trkpt lat="42.134500546265166" lon="13.279841529247195"><ele>697.0</ele><time>2026-04-29T12:37:54.999Z</time></trkpt><trkpt lat="42.134839322727096" lon="13.279673652930448"><ele>695.0</ele><time>2026-04-29T12:37:55.999Z</time></trkpt><trkpt lat="42.135202709037024" lon="13.279495106450526"><ele>695.0</ele><time>2026-04-29T12:37:56.999Z</time></trkpt><trkpt lat="42.135559068969336" lon="13.279318649089136"><ele>695.0</ele><time>2026-04-29T12:37:57.999Z</time></trkpt><trkpt lat="42.13590881666185" lon="13.279145831453997"><ele>696.0</ele><time>2026-04-29T12:37:58.999Z</time></trkpt><trkpt lat="42.13622266120629" lon="13.278963911834767"><ele>697.0</ele><time>2026-04-29T12:37:59.999Z</time></trkpt><trkpt lat="42.13652385550176" lon="13.27881701891053"><ele>697.0</ele><time>2026-04-29T12:38:00.999Z</time></trkpt><trkpt lat="42.13680395335633" lon="13.278681323977187"><ele>697.0</ele><time>2026-04-29T12:38:01.999Z</time></trkpt><trkpt lat="42.13707664057244" lon="13.278534282007087"><ele>697.0</ele><time>2026-04-29T12:38:02.999Z</time></trkpt><trkpt lat="42.13735252442903" lon="13.278337423174259"><ele>697.0</ele><time>2026-04-29T12:38:03.999Z</time></trkpt><trkpt lat="42.13761645903772" lon="13.278088633753804"><ele>697.0</ele><time>2026-04-29T12:38:04.999Z</time></trkpt><trkpt lat="42.137868671566864" lon="13.277830731309596"><ele>697.0</ele><time>2026-04-29T12:38:05.999Z</time></trkpt><trkpt lat="42.138096533126685" lon="13.27760047905262"><ele>697.5</ele><time>2026-04-29T12:38:06.999Z</time></trkpt><trkpt lat="42.13831971414447" lon="13.277384054411751"><ele>698.0</ele><time>2026-04-29T12:38:07.999Z</time></trkpt><trkpt lat="42.13854156067546" lon="13.27716153524582"><ele>698.0</ele><time>2026-04-29T12:38:08.999Z</time></trkpt><trkpt lat="42.13876126269866" lon="13.276941938056124"><ele>698.0</ele><time>2026-04-29T12:38:09.999Z</time></trkpt><trkpt lat="42.13896931883013" lon="13.276738256128874"><ele>697.5</ele><time>2026-04-29T12:38:10.999Z</time></trkpt><trkpt lat="42.1391942613372" lon="13.276546371180714"><ele>697.0</ele><time>2026-04-29T12:38:11.999Z</time></trkpt><trkpt lat="42.13944878144749" lon="13.276379961055296"><ele>697.0</ele><time>2026-04-29T12:38:12.999Z</time></trkpt><trkpt lat="42.13972550489927" lon="13.276246776162882"><ele>697.0</ele><time>2026-04-29T12:38:13.999Z</time></trkpt><trkpt lat="42.14001831077712" lon="13.276134134919554"><ele>699.0</ele><time>2026-04-29T12:38:14.999Z</time></trkpt><trkpt lat="42.14032940290916" lon="13.276008085694718"><ele>701.0</ele><time>2026-04-29T12:38:15.999Z</time></trkpt><trkpt lat="42.14064138231157" lon="13.275880468648813"><ele>703.5</ele><time>2026-04-29T12:38:16.999Z</time></trkpt><trkpt lat="42.14097197709739" lon="13.275742905059552"><ele>706.0</ele><time>2026-04-29T12:38:17.999Z</time></trkpt><trkpt lat="42.14130889036614" lon="13.275609138833783"><ele>704.0</ele><time>2026-04-29T12:38:18.999Z</time></trkpt><trkpt lat="42.1416538784206" lon="13.275473993090921"><ele>702.0</ele><time>2026-04-29T12:38:19.999Z</time></trkpt><trkpt lat="42.14200176268136" lon="13.275337494563528"><ele>702.0</ele><time>2026-04-29T12:38:20.999Z</time></trkpt><trkpt lat="42.142349964797944" lon="13.275199700559652"><ele>702.0</ele><time>2026-04-29T12:38:21.999Z</time></trkpt><trkpt lat="42.142695176400125" lon="13.275061769129891"><ele>705.0</ele><time>2026-04-29T12:38:22.999Z</time></trkpt><trkpt lat="42.143039451633705" lon="13.274925980335198"><ele>708.0</ele><time>2026-04-29T12:38:23.999Z</time></trkpt><trkpt lat="42.14337807415204" lon="13.274791871238882"><ele>706.5</ele><time>2026-04-29T12:38:24.999Z</time></trkpt><trkpt lat="42.14368298731793" lon="13.274671955177688"><ele>705.0</ele><time>2026-04-29T12:38:25.999Z</time></trkpt><trkpt lat="42.143952122702615" lon="13.274573042951744"><ele>706.5</ele><time>2026-04-29T12:38:26.999Z</time></trkpt><trkpt lat="42.14420099609487" lon="13.274499092421122"><ele>708.0</ele><time>2026-04-29T12:38:27.999Z</time></trkpt><trkpt lat="42.14443242317702" lon="13.274452259022269"><ele>708.0</ele><time>2026-04-29T12:38:28.999Z</time></trkpt><trkpt lat="42.144646962021845" lon="13.274431481763536"><ele>708.0</ele><time>2026-04-29T12:38:29.999Z</time></trkpt><trkpt lat="42.14483799182773" lon="13.274429573042154"><ele>708.0</ele><time>2026-04-29T12:38:30.999Z</time></trkpt><trkpt lat="42.14500896103874" lon="13.27445778489771"><ele>710.0</ele><time>2026-04-29T12:38:31.999Z</time></trkpt><trkpt lat="42.145166547583756" lon="13.274532465645327"><ele>712.0</ele><time>2026-04-29T12:38:32.999Z</time></trkpt><trkpt lat="42.145350004414546" lon="13.274668586546433"><ele>714.0</ele><time>2026-04-29T12:38:33.999Z</time></trkpt><trkpt lat="42.14555434962279" lon="13.274833859558967"><ele>714.0</ele><time>2026-04-29T12:38:34.999Z</time></trkpt><trkpt lat="42.14578860506537" lon="13.27501660317528"><ele>714.0</ele><time>2026-04-29T12:38:35.999Z</time></trkpt><trkpt lat="42.14603772116758" lon="13.275199213126463"><ele>714.0</ele><time>2026-04-29T12:38:36.999Z</time></trkpt><trkpt lat="42.14628698729675" lon="13.275388638864356"><ele>714.0</ele><time>2026-04-29T12:38:37.999Z</time></trkpt><trkpt lat="42.14650921938662" lon="13.275563650903429"><ele>716.0</ele><time>2026-04-29T12:38:38.999Z</time></trkpt><trkpt lat="42.14670755705132" lon="13.275727792594095"><ele>718.0</ele><time>2026-04-29T12:38:39.999Z</time></trkpt><trkpt lat="42.146899549802114" lon="13.275871009769142"><ele>718.0</ele><time>2026-04-29T12:38:40.999Z</time></trkpt><trkpt lat="42.147094057170776" lon="13.275981109534127"><ele>718.0</ele><time>2026-04-29T12:38:41.999Z</time></trkpt><trkpt lat="42.147329119520336" lon="13.2760395408668"><ele>719.0</ele><time>2026-04-29T12:38:42.999Z</time></trkpt><trkpt lat="42.14758788224564" lon="13.276047541204475"><ele>720.0</ele><time>2026-04-29T12:38:43.999Z</time></trkpt><trkpt lat="42.147866955925586" lon="13.27601626943053"><ele>720.0</ele><time>2026-04-29T12:38:44.999Z</time></trkpt><trkpt lat="42.14816288679873" lon="13.275971531575363"><ele>720.0</ele><time>2026-04-29T12:38:45.999Z</time></trkpt><trkpt lat="42.14847377055165" lon="13.275929436277352"><ele>721.5</ele><time>2026-04-29T12:38:46.999Z</time></trkpt><trkpt lat="42.14878317666615" lon="13.275899687899914"><ele>723.0</ele><time>2026-04-29T12:38:47.999Z</time></trkpt><trkpt lat="42.14909084213354" lon="13.275868239721405"><ele>723.5</ele><time>2026-04-29T12:38:48.999Z</time></trkpt><trkpt lat="42.1493637925981" lon="13.275839866523214"><ele>724.0</ele><time>2026-04-29T12:38:49.999Z</time></trkpt><trkpt lat="42.149614877940266" lon="13.275814406270532"><ele>724.0</ele><time>2026-04-29T12:38:50.999Z</time></trkpt><trkpt lat="42.14984833205631" lon="13.275789945425089"><ele>724.0</ele><time>2026-04-29T12:38:51.999Z</time></trkpt><trkpt lat="42.1500695278322" lon="13.275766737307038"><ele>725.0</ele><time>2026-04-29T12:38:52.999Z</time></trkpt><trkpt lat="42.15027508511931" lon="13.275742479591969"><ele>726.0</ele><time>2026-04-29T12:38:53.999Z</time></trkpt><trkpt lat="42.150465066862495" lon="13.275706536308704"><ele>727.0</ele><time>2026-04-29T12:38:54.999Z</time></trkpt><trkpt lat="42.150642318805815" lon="13.275648393270938"><ele>727.3333333333334</ele><time>2026-04-29T12:38:55.999Z</time></trkpt><trkpt lat="42.15082567792917" lon="13.275562036557133"><ele>727.6666666666666</ele><time>2026-04-29T12:38:56.999Z</time></trkpt><trkpt lat="42.151037466058824" lon="13.275453117186165"><ele>728.0</ele><time>2026-04-29T12:38:57.999Z</time></trkpt><trkpt lat="42.15127522533972" lon="13.275335340767098"><ele>728.0</ele><time>2026-04-29T12:38:58.999Z</time></trkpt><trkpt lat="42.151531520358695" lon="13.275213556743422"><ele>728.0</ele><time>2026-04-29T12:38:59.999Z</time></trkpt><trkpt lat="42.15178585306125" lon="13.275090114441511"><ele>728.0</ele><time>2026-04-29T12:39:00.999Z</time></trkpt><trkpt lat="42.152059497497454" lon="13.274952825020138"><ele>728.0</ele><time>2026-04-29T12:39:01.999Z</time></trkpt><trkpt lat="42.152346999821226" lon="13.274818211604451"><ele>729.0</ele><time>2026-04-29T12:39:02.999Z</time></trkpt><trkpt lat="42.1526421153715" lon="13.274678711907464"><ele>730.0</ele><time>2026-04-29T12:39:03.999Z</time></trkpt><trkpt lat="42.15294001958957" lon="13.274531766686318"><ele>728.5</ele><time>2026-04-29T12:39:04.998Z</time></trkpt><trkpt lat="42.153245328465275" lon="13.274381581251815"><ele>727.0</ele><time>2026-04-29T12:39:05.998Z</time></trkpt><trkpt lat="42.15355405315818" lon="13.274232415475215"><ele>727.0</ele><time>2026-04-29T12:39:06.998Z</time></trkpt><trkpt lat="42.15387395916017" lon="13.274076169752364"><ele>727.0</ele><time>2026-04-29T12:39:07.998Z</time></trkpt><trkpt lat="42.15420134214423" lon="13.273914904723249"><ele>724.0</ele><time>2026-04-29T12:39:08.998Z</time></trkpt><trkpt lat="42.15453555059382" lon="13.273754259467205"><ele>721.0</ele><time>2026-04-29T12:39:09.998Z</time></trkpt><trkpt lat="42.154867078632826" lon="13.273595860899249"><ele>724.5</ele><time>2026-04-29T12:39:10.998Z</time></trkpt><trkpt lat="42.15519335974633" lon="13.2734417481629"><ele>728.0</ele><time>2026-04-29T12:39:11.998Z</time></trkpt><trkpt lat="42.15549684912817" lon="13.273292669894765"><ele>729.5</ele><time>2026-04-29T12:39:12.998Z</time></trkpt><trkpt lat="42.15579047682691" lon="13.273149115461125"><ele>731.0</ele><time>2026-04-29T12:39:13.998Z</time></trkpt><trkpt lat="42.15608322039495" lon="13.273011835038163"><ele>732.0</ele><time>2026-04-29T12:39:14.998Z</time></trkpt><trkpt lat="42.156356896490855" lon="13.272883067763122"><ele>733.0</ele><time>2026-04-29T12:39:15.998Z</time></trkpt><trkpt lat="42.15662883117585" lon="13.272759932046933"><ele>734.0</ele><time>2026-04-29T12:39:16.998Z</time></trkpt><trkpt lat="42.156889861528896" lon="13.272635722540409"><ele>735.0</ele><time>2026-04-29T12:39:18Z</time></trkpt><trkpt lat="42.15713787996539" lon="13.272521478419678"><ele>738.0</ele><time>2026-04-29T12:39:19Z</time></trkpt><trkpt lat="42.157397165187206" lon="13.272397329463178"><ele>741.0</ele><time>2026-04-29T12:39:20Z</time></trkpt><trkpt lat="42.15762983200848" lon="13.27227312680218"><ele>744.0</ele><time>2026-04-29T12:39:21Z</time></trkpt><trkpt lat="42.15784909021567" lon="13.272162234095461"><ele>747.0</ele><time>2026-04-29T12:39:22Z</time></trkpt><trkpt lat="42.158083253152945" lon="13.272034765111203"><ele>745.6666666666666</ele><time>2026-04-29T12:39:23Z</time></trkpt><trkpt lat="42.15828763653147" lon="13.271899253926124"><ele>744.3333333333333</ele><time>2026-04-29T12:39:24Z</time></trkpt><trkpt lat="42.15844407344856" lon="13.271713025081006"><ele>743.0</ele><time>2026-04-29T12:39:25Z</time></trkpt><trkpt lat="42.15857770895713" lon="13.271440966044246"><ele>746.5</ele><time>2026-04-29T12:39:26Z</time></trkpt><trkpt lat="42.15876520562239" lon="13.271170738659086"><ele>750.0</ele><time>2026-04-29T12:39:27Z</time></trkpt><trkpt lat="42.15894250333167" lon="13.27093936862396"><ele>749.3333333333334</ele><time>2026-04-29T12:39:28Z</time></trkpt><trkpt lat="42.15908106942043" lon="13.270687880196515"><ele>748.6666666666667</ele><time>2026-04-29T12:39:29Z</time></trkpt><trkpt lat="42.15917798830385" lon="13.27043354475083"><ele>748.0</ele><time>2026-04-29T12:39:30Z</time></trkpt><trkpt lat="42.159256371126325" lon="13.270196642164837"><ele>748.0</ele><time>2026-04-29T12:39:31Z</time></trkpt><trkpt lat="42.159343952481706" lon="13.269985865943005"><ele>748.0</ele><time>2026-04-29T12:39:32Z</time></trkpt><trkpt lat="42.159465568857286" lon="13.269813676302315"><ele>748.0</ele><time>2026-04-29T12:39:33Z</time></trkpt><trkpt lat="42.15963312771611" lon="13.269641382838653"><ele>748.3333333333334</ele><time>2026-04-29T12:39:34Z</time></trkpt><trkpt lat="42.1598072397592" lon="13.269508316668958"><ele>748.6666666666666</ele><time>2026-04-29T12:39:35Z</time></trkpt><trkpt lat="42.159990504504634" lon="13.269412329021108"><ele>749.0</ele><time>2026-04-29T12:39:36Z</time></trkpt><trkpt lat="42.16020518380591" lon="13.269366036453683"><ele>750.0</ele><time>2026-04-29T12:39:37Z</time></trkpt><trkpt lat="42.16043493128353" lon="13.269351961296568"><ele>751.0</ele><time>2026-04-29T12:39:38Z</time></trkpt><trkpt lat="42.16065193144388" lon="13.269417250391557"><ele>752.0</ele><time>2026-04-29T12:39:39Z</time></trkpt><trkpt lat="42.16085217497517" lon="13.26952539675066"><ele>753.0</ele><time>2026-04-29T12:39:40Z</time></trkpt><trkpt lat="42.16109878952113" lon="13.269659983477249"><ele>754.0</ele><time>2026-04-29T12:39:41Z</time></trkpt><trkpt lat="42.1613731102898" lon="13.269798130024899"><ele>755.0</ele><time>2026-04-29T12:39:42Z</time></trkpt><trkpt lat="42.16166709623378" lon="13.269951745140082"><ele>756.0</ele><time>2026-04-29T12:39:42.999Z</time></trkpt><trkpt lat="42.1619704317326" lon="13.270121878770139"><ele>757.0</ele><time>2026-04-29T12:39:43.999Z</time></trkpt><trkpt lat="42.162290798922626" lon="13.270292264735753"><ele>759.0</ele><time>2026-04-29T12:39:44.999Z</time></trkpt><trkpt lat="42.16262544486538" lon="13.270472038183314"><ele>761.0</ele><time>2026-04-29T12:39:45.999Z</time></trkpt><trkpt lat="42.16296536374585" lon="13.270658041692668"><ele>764.0</ele><time>2026-04-29T12:39:46.999Z</time></trkpt><trkpt lat="42.16331317272059" lon="13.270847006598316"><ele>767.0</ele><time>2026-04-29T12:39:47.999Z</time></trkpt><trkpt lat="42.163671833123615" lon="13.271043375032539"><ele>767.0</ele><time>2026-04-29T12:39:48.999Z</time></trkpt><trkpt lat="42.16403746418163" lon="13.27124340676912"><ele>767.0</ele><time>2026-04-29T12:39:49.999Z</time></trkpt><trkpt lat="42.16440083811744" lon="13.271439797829093"><ele>768.0</ele><time>2026-04-29T12:39:50.999Z</time></trkpt><trkpt lat="42.16476558666933" lon="13.271639934424707"><ele>769.0</ele><time>2026-04-29T12:39:51.999Z</time></trkpt><trkpt lat="42.16513919989793" lon="13.271845720566205"><ele>770.0</ele><time>2026-04-29T12:39:52.999Z</time></trkpt><trkpt lat="42.16551031675736" lon="13.272049039880239"><ele>771.0</ele><time>2026-04-29T12:39:53.999Z</time></trkpt><trkpt lat="42.165872958283366" lon="13.272246314592964"><ele>772.0</ele><time>2026-04-29T12:39:54.999Z</time></trkpt><trkpt lat="42.16623154829757" lon="13.272438848612804"><ele>773.0</ele><time>2026-04-29T12:39:55.999Z</time></trkpt><trkpt lat="42.166583667897115" lon="13.272632264820366"><ele>776.0</ele><time>2026-04-29T12:39:56.999Z</time></trkpt><trkpt lat="42.16692499465203" lon="13.272823264523886"><ele>779.0</ele><time>2026-04-29T12:39:57.999Z</time></trkpt><trkpt lat="42.16726199698838" lon="13.273008871050141"><ele>781.0</ele><time>2026-04-29T12:39:58.999Z</time></trkpt><trkpt lat="42.167595365247664" lon="13.273189351012423"><ele>783.0</ele><time>2026-04-29T12:39:59.999Z</time></trkpt><trkpt lat="42.16792628767202" lon="13.27336476513067"><ele>784.5</ele><time>2026-04-29T12:40:00.999Z</time></trkpt><trkpt lat="42.168249344309075" lon="13.273542661664019"><ele>786.0</ele><time>2026-04-29T12:40:01.999Z</time></trkpt><trkpt lat="42.16857499369307" lon="13.273717635890343"><ele>786.0</ele><time>2026-04-29T12:40:02.999Z</time></trkpt><trkpt lat="42.16888003947916" lon="13.27388473368241"><ele>786.0</ele><time>2026-04-29T12:40:03.999Z</time></trkpt><trkpt lat="42.16915903752441" lon="13.274035727472597"><ele>787.0</ele><time>2026-04-29T12:40:04.999Z</time></trkpt><trkpt lat="42.16941757078997" lon="13.274173870465928"><ele>788.0</ele><time>2026-04-29T12:40:05.999Z</time></trkpt><trkpt lat="42.16966024593639" lon="13.274300783847137"><ele>789.0</ele><time>2026-04-29T12:40:06.999Z</time></trkpt><trkpt lat="42.16988102555146" lon="13.274413602333361"><ele>790.0</ele><time>2026-04-29T12:40:07.999Z</time></trkpt><trkpt lat="42.17006976184814" lon="13.274532656824233"><ele>791.0</ele><time>2026-04-29T12:40:08.999Z</time></trkpt><trkpt lat="42.170241298703765" lon="13.274690431823167"><ele>792.0</ele><time>2026-04-29T12:40:09.999Z</time></trkpt><trkpt lat="42.17038307687594" lon="13.274925428292184"><ele>793.0</ele><time>2026-04-29T12:40:10.999Z</time></trkpt><trkpt lat="42.17055822041454" lon="13.275186957222369"><ele>795.0</ele><time>2026-04-29T12:40:11.999Z</time></trkpt><trkpt lat="42.17073032373956" lon="13.27548662491144"><ele>797.0</ele><time>2026-04-29T12:40:12.999Z</time></trkpt><trkpt lat="42.170918322380665" lon="13.2757963037861"><ele>798.5</ele><time>2026-04-29T12:40:13.999Z</time></trkpt><trkpt lat="42.171095333086065" lon="13.276126070362585"><ele>800.0</ele><time>2026-04-29T12:40:14.999Z</time></trkpt><trkpt lat="42.171291139871684" lon="13.276454267416248"><ele>800.0</ele><time>2026-04-29T12:40:15.999Z</time></trkpt><trkpt lat="42.17147323994585" lon="13.276728353518992"><ele>800.0</ele><time>2026-04-29T12:40:16.999Z</time></trkpt><trkpt lat="42.171631864779435" lon="13.277007592158505"><ele>801.5</ele><time>2026-04-29T12:40:17.999Z</time></trkpt><trkpt lat="42.17178511542696" lon="13.277256690942032"><ele>803.0</ele><time>2026-04-29T12:40:18.999Z</time></trkpt><trkpt lat="42.17192522511359" lon="13.27749026944166"><ele>803.3333333333334</ele><time>2026-04-29T12:40:19.999Z</time></trkpt><trkpt lat="42.17205396636357" lon="13.277711170706349"><ele>803.6666666666667</ele><time>2026-04-29T12:40:20.999Z</time></trkpt><trkpt lat="42.17216706395423" lon="13.277908259076304"><ele>804.0</ele><time>2026-04-29T12:40:21.999Z</time></trkpt><trkpt lat="42.17226660600592" lon="13.278078715696806"><ele>806.0</ele><time>2026-04-29T12:40:22.999Z</time></trkpt><trkpt lat="42.17235970215615" lon="13.278216485106865"><ele>808.0</ele><time>2026-04-29T12:40:23.999Z</time></trkpt><trkpt lat="42.17246394921296" lon="13.278312485311968"><ele>810.0</ele><time>2026-04-29T12:40:24.999Z</time></trkpt><trkpt lat="42.1725816906525" lon="13.278361343442036"><ele>812.0</ele><time>2026-04-29T12:40:25.999Z</time></trkpt><trkpt lat="42.17270821124346" lon="13.27834895374766"><ele>812.0</ele><time>2026-04-29T12:40:26.999Z</time></trkpt><trkpt lat="42.17281426742194" lon="13.278240726372886"><ele>812.0</ele><time>2026-04-29T12:40:27.999Z</time></trkpt><trkpt lat="42.17290369993365" lon="13.278080026771885"><ele>812.0</ele><time>2026-04-29T12:40:28.999Z</time></trkpt><trkpt lat="42.17297611049761" lon="13.277843107274904"><ele>811.0</ele><time>2026-04-29T12:40:29.999Z</time></trkpt><trkpt lat="42.173065257503815" lon="13.277582314740895"><ele>810.0</ele><time>2026-04-29T12:40:30.999Z</time></trkpt><trkpt lat="42.17315285583863" lon="13.277335799323714"><ele>809.0</ele><time>2026-04-29T12:40:31.999Z</time></trkpt><trkpt lat="42.173235777076734" lon="13.277108162845979"><ele>811.3333333333334</ele><time>2026-04-29T12:40:32.999Z</time></trkpt><trkpt lat="42.17330792521889" lon="13.276888491988633"><ele>813.6666666666667</ele><time>2026-04-29T12:40:33.999Z</time></trkpt><trkpt lat="42.173398886475916" lon="13.276691150341664"><ele>816.0</ele><time>2026-04-29T12:40:34.999Z</time></trkpt><trkpt lat="42.17349699336369" lon="13.276531908864252"><ele>814.6666666666667</ele><time>2026-04-29T12:40:35.999Z</time></trkpt><trkpt lat="42.17360614352604" lon="13.276383275539503"><ele>813.3333333333334</ele><time>2026-04-29T12:40:36.999Z</time></trkpt><trkpt lat="42.17374302307625" lon="13.276269660713337"><ele>812.0</ele><time>2026-04-29T12:40:37.999Z</time></trkpt><trkpt lat="42.17390219509928" lon="13.276199339076918"><ele>814.75</ele><time>2026-04-29T12:40:38.999Z</time></trkpt><trkpt lat="42.174042391367315" lon="13.276170101431823"><ele>817.5</ele><time>2026-04-29T12:40:39.999Z</time></trkpt><trkpt lat="42.174167332701444" lon="13.276176643333546"><ele>820.25</ele><time>2026-04-29T12:40:40.999Z</time></trkpt><trkpt lat="42.1743027006752" lon="13.2762263080779"><ele>823.0</ele><time>2026-04-29T12:40:41.999Z</time></trkpt><trkpt lat="42.174406437312385" lon="13.276313949324276"><ele>823.0</ele><time>2026-04-29T12:40:42.999Z</time></trkpt><trkpt lat="42.17448701120032" lon="13.276426564618028"><ele>823.0</ele><time>2026-04-29T12:40:43.999Z</time></trkpt><trkpt lat="42.17459327056753" lon="13.276509488651207"><ele>823.0</ele><time>2026-04-29T12:40:44.999Z</time></trkpt><trkpt lat="42.174706524841646" lon="13.276578548374214"><ele>823.0</ele><time>2026-04-29T12:40:45.999Z</time></trkpt><trkpt lat="42.174810269431944" lon="13.276620718648434"><ele>824.2</ele><time>2026-04-29T12:40:46.999Z</time></trkpt><trkpt lat="42.1749144091368" lon="13.276625005811582"><ele>825.4</ele><time>2026-04-29T12:40:47.999Z</time></trkpt><trkpt lat="42.17502164560162" lon="13.276599259775175"><ele>826.6</ele><time>2026-04-29T12:40:48.999Z</time></trkpt><trkpt lat="42.1751245277984" lon="13.276531097706986"><ele>827.8000000000001</ele><time>2026-04-29T12:40:49.999Z</time></trkpt><trkpt lat="42.17520659243494" lon="13.276414214100011"><ele>829.0</ele><time>2026-04-29T12:40:50.999Z</time></trkpt><trkpt lat="42.175278814147525" lon="13.276284708608612"><ele>829.25</ele><time>2026-04-29T12:40:51.999Z</time></trkpt><trkpt lat="42.175344737458666" lon="13.276143552748094"><ele>829.5</ele><time>2026-04-29T12:40:52.999Z</time></trkpt><trkpt lat="42.17540972732101" lon="13.276000367217458"><ele>829.75</ele><time>2026-04-29T12:40:53.999Z</time></trkpt><trkpt lat="42.1754772707407" lon="13.275850178262411"><ele>830.0</ele><time>2026-04-29T12:40:54.999Z</time></trkpt><trkpt lat="42.17553360926944" lon="13.275719200864211"><ele>830.0</ele><time>2026-04-29T12:40:55.999Z</time></trkpt><trkpt lat="42.17558879371564" lon="13.27559308803711"><ele>830.0</ele><time>2026-04-29T12:40:56.999Z</time></trkpt><trkpt lat="42.17564250390314" lon="13.27548907211434"><ele>830.0</ele><time>2026-04-29T12:40:57.999Z</time></trkpt><trkpt lat="42.175710181877214" lon="13.275422114443527"><ele>830.0</ele><time>2026-04-29T12:40:58.999Z</time></trkpt><trkpt lat="42.175800620109825" lon="13.275378954268664"><ele>830.0</ele><time>2026-04-29T12:40:59.999Z</time></trkpt><trkpt lat="42.175905768989445" lon="13.275355983745632"><ele>830.0</ele><time>2026-04-29T12:41:00.999Z</time></trkpt><trkpt lat="42.17602155750165" lon="13.275334983893949"><ele>830.0</ele><time>2026-04-29T12:41:01.999Z</time></trkpt><trkpt lat="42.17614185239962" lon="13.275307718985575"><ele>830.0</ele><time>2026-04-29T12:41:02.999Z</time></trkpt><trkpt lat="42.176260924235265" lon="13.275275111210709"><ele>830.0</ele><time>2026-04-29T12:41:03.999Z</time></trkpt><trkpt lat="42.17637500193386" lon="13.275240485608622"><ele>830.0</ele><time>2026-04-29T12:41:04.999Z</time></trkpt><trkpt lat="42.176488271215135" lon="13.275209266596544"><ele>830.0</ele><time>2026-04-29T12:41:05.999Z</time></trkpt><trkpt lat="42.17659568755882" lon="13.275178837794824"><ele>830.0</ele><time>2026-04-29T12:41:06.999Z</time></trkpt><trkpt lat="42.17669971533938" lon="13.275145238521233"><ele>830.0</ele><time>2026-04-29T12:41:07.999Z</time></trkpt><trkpt lat="42.17679877230672" lon="13.275110918323652"><ele>830.0</ele><time>2026-04-29T12:41:08.999Z</time></trkpt><trkpt lat="42.17688699267056" lon="13.275078640912964"><ele>828.4</ele><time>2026-04-29T12:41:09.999Z</time></trkpt><trkpt lat="42.17696843492357" lon="13.275047096812575"><ele>826.8</ele><time>2026-04-29T12:41:10.999Z</time></trkpt><trkpt lat="42.177038821097874" lon="13.275022780527074"><ele>825.2</ele><time>2026-04-29T12:41:11.998Z</time></trkpt><trkpt lat="42.17715861765379" lon="13.275000021171222"><ele>823.6</ele><time>2026-04-29T12:41:13.998Z</time></trkpt><trkpt lat="42.177277146531424" lon="13.275039969330939"><ele>822.0</ele><time>2026-04-29T12:41:15.998Z</time></trkpt><trkpt lat="42.17732786362829" lon="13.275111698586253"><ele>821.8</ele><time>2026-04-29T12:41:16.998Z</time></trkpt><trkpt lat="42.17735728575392" lon="13.275218612189965"><ele>821.6</ele><time>2026-04-29T12:41:17.998Z</time></trkpt><trkpt lat="42.17735953843802" lon="13.275346427162168"><ele>821.4</ele><time>2026-04-29T12:41:18.998Z</time></trkpt><trkpt lat="42.177355196588174" lon="13.275481388174216"><ele>821.1999999999999</ele><time>2026-04-29T12:41:19.998Z</time></trkpt><trkpt lat="42.177332116906285" lon="13.275607874794112"><ele>821.0</ele><time>2026-04-29T12:41:20.998Z</time></trkpt><trkpt lat="42.17733792245536" lon="13.275762850024865"><ele>821.0000000000001</ele><time>2026-04-29T12:41:21.998Z</time></trkpt><trkpt lat="42.17733423223453" lon="13.275905944507503"><ele>821.0</ele><time>2026-04-29T12:41:22.998Z</time></trkpt><trkpt lat="42.177337597737065" lon="13.276021609140473"><ele>821.0</ele><time>2026-04-29T12:41:24Z</time></trkpt><trkpt lat="42.17734247621027" lon="13.276120780953303"><ele>821.0</ele><time>2026-04-29T12:41:25Z</time></trkpt><trkpt lat="42.17734195536697" lon="13.276218550921588"><ele>821.0000000000001</ele><time>2026-04-29T12:41:26Z</time></trkpt><trkpt lat="42.17734099848709" lon="13.276305502138142"><ele>821.0</ele><time>2026-04-29T12:41:27Z</time></trkpt><trkpt lat="42.177349005391406" lon="13.276438685047625"><ele>821.3333333333334</ele><time>2026-04-29T12:41:29Z</time></trkpt><trkpt lat="42.17733710230352" lon="13.276746368094084"><ele>821.6666666666667</ele><time>2026-04-29T12:41:52.999Z</time></trkpt><trkpt lat="42.17734816934197" lon="13.276910904908538"><ele>822.0</ele><time>2026-04-29T12:41:53.999Z</time></trkpt><trkpt lat="42.17735862023094" lon="13.277061753795723"><ele>822.0</ele><time>2026-04-29T12:41:54.999Z</time></trkpt><trkpt lat="42.17737104333042" lon="13.277235832895597"><ele>822.0</ele><time>2026-04-29T12:41:55.999Z</time></trkpt><trkpt lat="42.17738667059511" lon="13.277417674580414"><ele>822.0</ele><time>2026-04-29T12:41:56.999Z</time></trkpt><trkpt lat="42.17739335280374" lon="13.277612690937772"><ele>822.0</ele><time>2026-04-29T12:41:57.999Z</time></trkpt><trkpt lat="42.17738463304732" lon="13.277796844816109"><ele>822.5</ele><time>2026-04-29T12:41:58.999Z</time></trkpt><trkpt lat="42.17735300179067" lon="13.277958412010658"><ele>823.0</ele><time>2026-04-29T12:41:59.999Z</time></trkpt><trkpt lat="42.177299744232506" lon="13.278088630339463"><ele>823.5</ele><time>2026-04-29T12:42:00.999Z</time></trkpt><trkpt lat="42.17722295047269" lon="13.278191181475734"><ele>824.0</ele><time>2026-04-29T12:42:01.999Z</time></trkpt><trkpt lat="42.17711511271985" lon="13.27825297714446"><ele>825.0</ele><time>2026-04-29T12:42:02.999Z</time></trkpt><trkpt lat="42.17698368465461" lon="13.278257249073793"><ele>826.0</ele><time>2026-04-29T12:42:03.999Z</time></trkpt><trkpt lat="42.17684729236248" lon="13.278203730071334"><ele>827.0</ele><time>2026-04-29T12:42:04.999Z</time></trkpt><trkpt lat="42.17673111788968" lon="13.278072382374368"><ele>828.0</ele><time>2026-04-29T12:42:05.999Z</time></trkpt><trkpt lat="42.17662626562855" lon="13.277862148478656"><ele>829.6666666666667</ele><time>2026-04-29T12:42:06.999Z</time></trkpt><trkpt lat="42.176515434799896" lon="13.27764794198732"><ele>831.3333333333334</ele><time>2026-04-29T12:42:07.999Z</time></trkpt><trkpt lat="42.17640653449195" lon="13.277441055902427"><ele>833.0</ele><time>2026-04-29T12:42:08.999Z</time></trkpt><trkpt lat="42.17626727949368" lon="13.27728617802329"><ele>831.6666666666667</ele><time>2026-04-29T12:42:09.999Z</time></trkpt><trkpt lat="42.176084231059846" lon="13.277179000759027"><ele>830.3333333333333</ele><time>2026-04-29T12:42:10.999Z</time></trkpt><trkpt lat="42.17588058874885" lon="13.277127837849516"><ele>829.0</ele><time>2026-04-29T12:42:11.999Z</time></trkpt><trkpt lat="42.17566233693838" lon="13.277136658951063"><ele>829.0</ele><time>2026-04-29T12:42:12.999Z</time></trkpt><trkpt lat="42.17543636478347" lon="13.277205562372712"><ele>829.0</ele><time>2026-04-29T12:42:13.999Z</time></trkpt><trkpt lat="42.1751946780498" lon="13.277335625309012"><ele>829.5</ele><time>2026-04-29T12:42:14.999Z</time></trkpt><trkpt lat="42.17494072473272" lon="13.27751934656188"><ele>830.0</ele><time>2026-04-29T12:42:15.999Z</time></trkpt><trkpt lat="42.17469241180869" lon="13.277728535854825"><ele>830.0</ele><time>2026-04-29T12:42:16.999Z</time></trkpt><trkpt lat="42.174465501371905" lon="13.277944145247922"><ele>830.0</ele><time>2026-04-29T12:42:17.999Z</time></trkpt><trkpt lat="42.174261161194295" lon="13.278160532281401"><ele>830.0</ele><time>2026-04-29T12:42:18.999Z</time></trkpt><trkpt lat="42.17406656572996" lon="13.278407327012571"><ele>830.0</ele><time>2026-04-29T12:42:19.999Z</time></trkpt><trkpt lat="42.17386333664427" lon="13.27872240936831"><ele>827.0</ele><time>2026-04-29T12:42:20.999Z</time></trkpt><trkpt lat="42.17364719528336" lon="13.279056403696543"><ele>824.0</ele><time>2026-04-29T12:42:21.999Z</time></trkpt><trkpt lat="42.17346300774618" lon="13.279393164448736"><ele>824.0</ele><time>2026-04-29T12:42:22.999Z</time></trkpt><trkpt lat="42.17332889862841" lon="13.27973492300278"><ele>824.0</ele><time>2026-04-29T12:42:23.999Z</time></trkpt><trkpt lat="42.17322506687842" lon="13.280063917025796"><ele>820.5</ele><time>2026-04-29T12:42:24.999Z</time></trkpt><trkpt lat="42.17313358282537" lon="13.280360773347477"><ele>817.0</ele><time>2026-04-29T12:42:25.999Z</time></trkpt><trkpt lat="42.173052744175166" lon="13.280629350659261"><ele>817.0</ele><time>2026-04-29T12:42:26.999Z</time></trkpt><trkpt lat="42.17296689465614" lon="13.280890271953378"><ele>817.0</ele><time>2026-04-29T12:42:27.999Z</time></trkpt><trkpt lat="42.17289578513399" lon="13.281141270119857"><ele>817.0</ele><time>2026-04-29T12:42:28.999Z</time></trkpt><trkpt lat="42.17285230907679" lon="13.281384059375725"><ele>816.3333333333333</ele><time>2026-04-29T12:42:29.999Z</time></trkpt><trkpt lat="42.17283337265963" lon="13.281618035835827"><ele>815.6666666666667</ele><time>2026-04-29T12:42:30.999Z</time></trkpt><trkpt lat="42.17283658586213" lon="13.281850647969032"><ele>815.0</ele><time>2026-04-29T12:42:31.999Z</time></trkpt><trkpt lat="42.17287155972879" lon="13.282086442585813"><ele>812.0</ele><time>2026-04-29T12:42:32.999Z</time></trkpt><trkpt lat="42.17294222709959" lon="13.282310025118484"><ele>809.0</ele><time>2026-04-29T12:42:33.999Z</time></trkpt><trkpt lat="42.17304875189614" lon="13.282508781472258"><ele>806.0</ele><time>2026-04-29T12:42:34.999Z</time></trkpt><trkpt lat="42.17319638166304" lon="13.282661952381694"><ele>814.6666666666667</ele><time>2026-04-29T12:42:35.999Z</time></trkpt><trkpt lat="42.17336205335928" lon="13.282773586847679"><ele>823.3333333333333</ele><time>2026-04-29T12:42:36.999Z</time></trkpt><trkpt lat="42.17355024352831" lon="13.282806463284446"><ele>832.0</ele><time>2026-04-29T12:42:37.999Z</time></trkpt><trkpt lat="42.173758879118076" lon="13.282769445606045"><ele>832.0</ele><time>2026-04-29T12:42:38.999Z</time></trkpt><trkpt lat="42.173996645068925" lon="13.282684076709527"><ele>832.0</ele><time>2026-04-29T12:42:39.999Z</time></trkpt><trkpt lat="42.174238686385564" lon="13.28257486450759"><ele>833.0</ele><time>2026-04-29T12:42:40.999Z</time></trkpt><trkpt lat="42.17446287867143" lon="13.28246273336307"><ele>834.0</ele><time>2026-04-29T12:42:41.999Z</time></trkpt><trkpt lat="42.174695315877834" lon="13.282282184727503"><ele>833.0</ele><time>2026-04-29T12:42:42.999Z</time></trkpt><trkpt lat="42.17495533351417" lon="13.28215644141169"><ele>832.0</ele><time>2026-04-29T12:42:43.999Z</time></trkpt><trkpt lat="42.175235579413005" lon="13.282063704992728"><ele>832.0</ele><time>2026-04-29T12:42:44.999Z</time></trkpt><trkpt lat="42.17547886745945" lon="13.282014070561981"><ele>832.0</ele><time>2026-04-29T12:42:45.999Z</time></trkpt><trkpt lat="42.175747143377656" lon="13.28204338720491"><ele>834.5</ele><time>2026-04-29T12:42:46.999Z</time></trkpt><trkpt lat="42.17602276691602" lon="13.282167331915208"><ele>837.0</ele><time>2026-04-29T12:42:47.999Z</time></trkpt><trkpt lat="42.176295257353516" lon="13.282248312171753"><ele>838.5</ele><time>2026-04-29T12:42:48.999Z</time></trkpt><trkpt lat="42.17653824773265" lon="13.282402898960296"><ele>840.0</ele><time>2026-04-29T12:42:49.999Z</time></trkpt><trkpt lat="42.17685200005171" lon="13.282607548711644"><ele>840.0</ele><time>2026-04-29T12:42:50.999Z</time></trkpt><trkpt lat="42.17715472647548" lon="13.282801115827178"><ele>840.0</ele><time>2026-04-29T12:42:51.999Z</time></trkpt><trkpt lat="42.17752759683146" lon="13.283041091144542"><ele>840.5</ele><time>2026-04-29T12:42:52.999Z</time></trkpt><trkpt lat="42.17791993309857" lon="13.283291645700832"><ele>841.0</ele><time>2026-04-29T12:42:53.999Z</time></trkpt><trkpt lat="42.17828994172557" lon="13.283516963231982"><ele>841.0</ele><time>2026-04-29T12:42:54.999Z</time></trkpt><trkpt lat="42.17866364841758" lon="13.283758169627625"><ele>841.0</ele><time>2026-04-29T12:42:55.999Z</time></trkpt><trkpt lat="42.17905572912993" lon="13.283998077760065"><ele>841.5</ele><time>2026-04-29T12:42:56.999Z</time></trkpt><trkpt lat="42.17944282801067" lon="13.284237823662512"><ele>842.0</ele><time>2026-04-29T12:42:57.999Z</time></trkpt><trkpt lat="42.17983627442078" lon="13.284508083414277"><ele>840.5</ele><time>2026-04-29T12:42:58.999Z</time></trkpt><trkpt lat="42.180238444285365" lon="13.284778640337372"><ele>839.0</ele><time>2026-04-29T12:42:59.999Z</time></trkpt><trkpt lat="42.18064952321762" lon="13.28502988888228"><ele>839.0</ele><time>2026-04-29T12:43:00.999Z</time></trkpt><trkpt lat="42.18105215249776" lon="13.285251345286483"><ele>839.0</ele><time>2026-04-29T12:43:01.999Z</time></trkpt><trkpt lat="42.181457119404406" lon="13.285464782649175"><ele>841.0</ele><time>2026-04-29T12:43:02.999Z</time></trkpt><trkpt lat="42.181858558840105" lon="13.285665706035356"><ele>843.0</ele><time>2026-04-29T12:43:03.999Z</time></trkpt><trkpt lat="42.18225583061251" lon="13.285855026391111"><ele>845.0</ele><time>2026-04-29T12:43:04.999Z</time></trkpt><trkpt lat="42.18265115457552" lon="13.286020791922521"><ele>847.0</ele><time>2026-04-29T12:43:05.999Z</time></trkpt><trkpt lat="42.18307282501876" lon="13.286083738202203"><ele>847.5</ele><time>2026-04-29T12:43:06.999Z</time></trkpt><trkpt lat="42.18346494385761" lon="13.286126390034287"><ele>848.0</ele><time>2026-04-29T12:43:07.999Z</time></trkpt><trkpt lat="42.183867290853925" lon="13.286187762550137"><ele>848.5</ele><time>2026-04-29T12:43:08.999Z</time></trkpt><trkpt lat="42.18427524642327" lon="13.28621785532373"><ele>849.0</ele><time>2026-04-29T12:43:09.999Z</time></trkpt><trkpt lat="42.18466894293552" lon="13.286256497407"><ele>850.0</ele><time>2026-04-29T12:43:10.999Z</time></trkpt><trkpt lat="42.185072965681755" lon="13.286234393462475"><ele>851.0</ele><time>2026-04-29T12:43:11.999Z</time></trkpt><trkpt lat="42.18546407611691" lon="13.286237771825741"><ele>852.0</ele><time>2026-04-29T12:43:12.999Z</time></trkpt><trkpt lat="42.18585464806954" lon="13.28618908068363"><ele>853.0</ele><time>2026-04-29T12:43:13.998Z</time></trkpt><trkpt lat="42.186242561006196" lon="13.286088630264523"><ele>856.5</ele><time>2026-04-29T12:43:14.998Z</time></trkpt><trkpt lat="42.18663050582024" lon="13.285984465801011"><ele>860.0</ele><time>2026-04-29T12:43:15.998Z</time></trkpt><trkpt lat="42.18701480687506" lon="13.285896243385432"><ele>867.0</ele><time>2026-04-29T12:43:16.998Z</time></trkpt><trkpt lat="42.18739716526939" lon="13.285865793655239"><ele>874.0</ele><time>2026-04-29T12:43:17.998Z</time></trkpt><trkpt lat="42.18776176240224" lon="13.285786190113518"><ele>874.0</ele><time>2026-04-29T12:43:18.998Z</time></trkpt><trkpt lat="42.18812215910058" lon="13.285716402552294"><ele>874.0</ele><time>2026-04-29T12:43:19.998Z</time></trkpt><trkpt lat="42.188473137790936" lon="13.285666867994024"><ele>876.5</ele><time>2026-04-29T12:43:20.998Z</time></trkpt><trkpt lat="42.18882033571133" lon="13.285620657741028"><ele>879.0</ele><time>2026-04-29T12:43:21.998Z</time></trkpt><trkpt lat="42.18916448793816" lon="13.28557284319266"><ele>879.0</ele><time>2026-04-29T12:43:22.998Z</time></trkpt><trkpt lat="42.18950013337746" lon="13.285513789674438"><ele>879.0</ele><time>2026-04-29T12:43:23.998Z</time></trkpt><trkpt lat="42.189828891591816" lon="13.28545986827395"><ele>880.0</ele><time>2026-04-29T12:43:24.998Z</time></trkpt><trkpt lat="42.190155752188105" lon="13.285390503817347"><ele>881.0</ele><time>2026-04-29T12:43:25.998Z</time></trkpt><trkpt lat="42.19048739909875" lon="13.285319350491738"><ele>883.0</ele><time>2026-04-29T12:43:26.998Z</time></trkpt><trkpt lat="42.190813668415664" lon="13.285240870107486"><ele>885.0</ele><time>2026-04-29T12:43:27.998Z</time></trkpt><trkpt lat="42.19112230717583" lon="13.285152869524671"><ele>885.0</ele><time>2026-04-29T12:43:28.998Z</time></trkpt><trkpt lat="42.19142808649772" lon="13.285065400680663"><ele>885.0</ele><time>2026-04-29T12:43:30Z</time></trkpt><trkpt lat="42.191733804219986" lon="13.284975989497912"><ele>890.0</ele><time>2026-04-29T12:43:31Z</time></trkpt><trkpt lat="42.19203666446509" lon="13.284878068918882"><ele>895.0</ele><time>2026-04-29T12:43:32Z</time></trkpt><trkpt lat="42.192335850313356" lon="13.284776996492594"><ele>890.5</ele><time>2026-04-29T12:43:33Z</time></trkpt><trkpt lat="42.192630980632956" lon="13.284672256311776"><ele>886.0</ele><time>2026-04-29T12:43:34Z</time></trkpt><trkpt lat="42.19292447018008" lon="13.284562566968782"><ele>891.5</ele><time>2026-04-29T12:43:35Z</time></trkpt><trkpt lat="42.193215223948854" lon="13.28445003383532"><ele>897.0</ele><time>2026-04-29T12:43:36Z</time></trkpt><trkpt lat="42.19350597482616" lon="13.284335633757468"><ele>897.0</ele><time>2026-04-29T12:43:37Z</time></trkpt><trkpt lat="42.19379568685156" lon="13.284223389093134"><ele>897.0</ele><time>2026-04-29T12:43:38Z</time></trkpt><trkpt lat="42.194086834848704" lon="13.284117962980927"><ele>901.5</ele><time>2026-04-29T12:43:39Z</time></trkpt><trkpt lat="42.194380258763545" lon="13.284022000070278"><ele>906.0</ele><time>2026-04-29T12:43:40Z</time></trkpt><trkpt lat="42.19467278666187" lon="13.283934209743654"><ele>905.0</ele><time>2026-04-29T12:43:41Z</time></trkpt><trkpt lat="42.19496181394763" lon="13.283846628910947"><ele>904.0</ele><time>2026-04-29T12:43:42Z</time></trkpt><trkpt lat="42.195252115934615" lon="13.28375437359965"><ele>904.0</ele><time>2026-04-29T12:43:43Z</time></trkpt><trkpt lat="42.195542777453774" lon="13.28365264707576"><ele>904.0</ele><time>2026-04-29T12:43:44Z</time></trkpt><trkpt lat="42.19583312603277" lon="13.28354952077123"><ele>907.5</ele><time>2026-04-29T12:43:45Z</time></trkpt><trkpt lat="42.19612496701903" lon="13.283450244186048"><ele>911.0</ele><time>2026-04-29T12:43:46Z</time></trkpt><trkpt lat="42.19641668663693" lon="13.283353412430529"><ele>917.5</ele><time>2026-04-29T12:43:47Z</time></trkpt><trkpt lat="42.196707601866194" lon="13.283255889483799"><ele>924.0</ele><time>2026-04-29T12:43:48Z</time></trkpt><trkpt lat="42.19699181245728" lon="13.283156511000056"><ele>914.0</ele><time>2026-04-29T12:43:49Z</time></trkpt><trkpt lat="42.19727858179014" lon="13.283059579418467"><ele>904.0</ele><time>2026-04-29T12:43:50Z</time></trkpt><trkpt lat="42.19756438432833" lon="13.282964545908976"><ele>904.0</ele><time>2026-04-29T12:43:50.999Z</time></trkpt><trkpt lat="42.19785121276583" lon="13.282883388284489"><ele>904.0</ele><time>2026-04-29T12:43:51.999Z</time></trkpt><trkpt lat="42.19813616534132" lon="13.282819333994945"><ele>911.5</ele><time>2026-04-29T12:43:52.999Z</time></trkpt><trkpt lat="42.198425342042746" lon="13.282775713810182"><ele>919.0</ele><time>2026-04-29T12:43:53.999Z</time></trkpt><trkpt lat="42.19871845448095" lon="13.282749728682374"><ele>921.5</ele><time>2026-04-29T12:43:54.999Z</time></trkpt><trkpt lat="42.19901258452322" lon="13.282757574072393"><ele>924.0</ele><time>2026-04-29T12:43:55.999Z</time></trkpt><trkpt lat="42.19930675910084" lon="13.282798663287434"><ele>924.0</ele><time>2026-04-29T12:43:56.999Z</time></trkpt><trkpt lat="42.199605026125866" lon="13.282859670916407"><ele>924.0</ele><time>2026-04-29T12:43:57.999Z</time></trkpt><trkpt lat="42.19990695685054" lon="13.28294204188249"><ele>922.0</ele><time>2026-04-29T12:43:58.999Z</time></trkpt><trkpt lat="42.200209775606176" lon="13.283040252772135"><ele>920.0</ele><time>2026-04-29T12:43:59.999Z</time></trkpt><trkpt lat="42.20050991943795" lon="13.283145020163156"><ele>929.5</ele><time>2026-04-29T12:44:00.999Z</time></trkpt><trkpt lat="42.20081214111097" lon="13.283261658588602"><ele>939.0</ele><time>2026-04-29T12:44:01.999Z</time></trkpt><trkpt lat="42.20111219080149" lon="13.283389146199445"><ele>939.0</ele><time>2026-04-29T12:44:02.999Z</time></trkpt><trkpt lat="42.201416864994904" lon="13.28351763848157"><ele>939.0</ele><time>2026-04-29T12:44:03.999Z</time></trkpt><trkpt lat="42.20172396905023" lon="13.283647098564703"><ele>935.0</ele><time>2026-04-29T12:44:04.999Z</time></trkpt><trkpt lat="42.20203207394958" lon="13.28378014894006"><ele>931.0</ele><time>2026-04-29T12:44:05.999Z</time></trkpt><trkpt lat="42.20234002405726" lon="13.283907556360633"><ele>942.5</ele><time>2026-04-29T12:44:06.999Z</time></trkpt><trkpt lat="42.20264256134111" lon="13.284031364216828"><ele>954.0</ele><time>2026-04-29T12:44:07.999Z</time></trkpt><trkpt lat="42.202945726007435" lon="13.284144334693151"><ele>949.0</ele><time>2026-04-29T12:44:08.999Z</time></trkpt><trkpt lat="42.20324692418876" lon="13.284248621576182"><ele>944.0</ele><time>2026-04-29T12:44:09.999Z</time></trkpt><trkpt lat="42.20355219417105" lon="13.284341763210048"><ele>944.0</ele><time>2026-04-29T12:44:10.999Z</time></trkpt><trkpt lat="42.20386119360689" lon="13.284436707380545"><ele>944.0</ele><time>2026-04-29T12:44:11.999Z</time></trkpt><trkpt lat="42.20417068880682" lon="13.284534342172364"><ele>940.5</ele><time>2026-04-29T12:44:12.999Z</time></trkpt><trkpt lat="42.20447981995535" lon="13.284649497394739"><ele>937.0</ele><time>2026-04-29T12:44:13.999Z</time></trkpt><trkpt lat="42.20479109619759" lon="13.28476601614047"><ele>945.0</ele><time>2026-04-29T12:44:14.999Z</time></trkpt><trkpt lat="42.205099971729126" lon="13.28489577806584"><ele>953.0</ele><time>2026-04-29T12:44:15.999Z</time></trkpt><trkpt lat="42.205402763899755" lon="13.28504790333406"><ele>949.0</ele><time>2026-04-29T12:44:16.999Z</time></trkpt><trkpt lat="42.2056999608302" lon="13.285217768515006"><ele>945.0</ele><time>2026-04-29T12:44:17.999Z</time></trkpt><trkpt lat="42.20599273882976" lon="13.285390088497714"><ele>945.0</ele><time>2026-04-29T12:44:18.999Z</time></trkpt><trkpt lat="42.206281248500304" lon="13.2855800352553"><ele>945.0</ele><time>2026-04-29T12:44:19.999Z</time></trkpt><trkpt lat="42.20655714226405" lon="13.285785600390529"><ele>951.5</ele><time>2026-04-29T12:44:20.999Z</time></trkpt><trkpt lat="42.20682657243802" lon="13.286010986647584"><ele>958.0</ele><time>2026-04-29T12:44:21.999Z</time></trkpt><trkpt lat="42.207088191722214" lon="13.28625728950673"><ele>961.0</ele><time>2026-04-29T12:44:22.999Z</time></trkpt><trkpt lat="42.207339633120796" lon="13.286521302416318"><ele>964.0</ele><time>2026-04-29T12:44:23.999Z</time></trkpt><trkpt lat="42.207579204970166" lon="13.28680469494785"><ele>964.0</ele><time>2026-04-29T12:44:24.999Z</time></trkpt><trkpt lat="42.20780990985838" lon="13.287099470202575"><ele>964.0</ele><time>2026-04-29T12:44:25.999Z</time></trkpt><trkpt lat="42.208030324664925" lon="13.28740980387642"><ele>967.0</ele><time>2026-04-29T12:44:26.999Z</time></trkpt><trkpt lat="42.208241456134616" lon="13.287735665236834"><ele>970.0</ele><time>2026-04-29T12:44:27.999Z</time></trkpt><trkpt lat="42.20844121929399" lon="13.288072043705949"><ele>977.0</ele><time>2026-04-29T12:44:28.999Z</time></trkpt><trkpt lat="42.20863037975025" lon="13.288414020245314"><ele>984.0</ele><time>2026-04-29T12:44:29.999Z</time></trkpt><trkpt lat="42.20881346993805" lon="13.288761372631905"><ele>976.5</ele><time>2026-04-29T12:44:30.999Z</time></trkpt><trkpt lat="42.20899429899707" lon="13.289111764526156"><ele>969.0</ele><time>2026-04-29T12:44:31.999Z</time></trkpt><trkpt lat="42.209169428231455" lon="13.289460052533745"><ele>976.5</ele><time>2026-04-29T12:44:32.999Z</time></trkpt><trkpt lat="42.209348238410705" lon="13.289801108813633"><ele>984.0</ele><time>2026-04-29T12:44:33.999Z</time></trkpt><trkpt lat="42.20953487675647" lon="13.290135899524035"><ele>984.0</ele><time>2026-04-29T12:44:34.999Z</time></trkpt><trkpt lat="42.20971813498062" lon="13.290471975438567"><ele>984.0</ele><time>2026-04-29T12:44:35.999Z</time></trkpt><trkpt lat="42.209895488854954" lon="13.29081592406011"><ele>981.0</ele><time>2026-04-29T12:44:36.999Z</time></trkpt><trkpt lat="42.2100706229127" lon="13.291160396358855"><ele>978.0</ele><time>2026-04-29T12:44:37.999Z</time></trkpt><trkpt lat="42.21024673208775" lon="13.291504480974975"><ele>989.0</ele><time>2026-04-29T12:44:38.999Z</time></trkpt><trkpt lat="42.21042657621107" lon="13.291846815087442"><ele>1000.0</ele><time>2026-04-29T12:44:39.999Z</time></trkpt><trkpt lat="42.21060183844527" lon="13.292188752924869"><ele>993.5</ele><time>2026-04-29T12:44:40.999Z</time></trkpt><trkpt lat="42.210774598770534" lon="13.292529661939353"><ele>987.0</ele><time>2026-04-29T12:44:41.999Z</time></trkpt><trkpt lat="42.210949810553366" lon="13.292867229209657"><ele>999.5</ele><time>2026-04-29T12:44:42.999Z</time></trkpt><trkpt lat="42.21113188352262" lon="13.293198891957969"><ele>1012.0</ele><time>2026-04-29T12:44:43.999Z</time></trkpt><trkpt lat="42.21131431196774" lon="13.293525977278001"><ele>1008.5</ele><time>2026-04-29T12:44:44.999Z</time></trkpt><trkpt lat="42.211495908318525" lon="13.293851313462316"><ele>1005.0</ele><time>2026-04-29T12:44:45.999Z</time></trkpt><trkpt lat="42.21167805783611" lon="13.29416974129332"><ele>1005.0</ele><time>2026-04-29T12:44:46.999Z</time></trkpt><trkpt lat="42.21186241874746" lon="13.294484317732815"><ele>1005.0</ele><time>2026-04-29T12:44:47.999Z</time></trkpt><trkpt lat="42.21204731121212" lon="13.294798157172687"><ele>1001.5</ele><time>2026-04-29T12:44:48.999Z</time></trkpt><trkpt lat="42.21223282287358" lon="13.29511041002511"><ele>998.0</ele><time>2026-04-29T12:44:49.999Z</time></trkpt><trkpt lat="42.21241890423094" lon="13.295422219407056"><ele>1006.5</ele><time>2026-04-29T12:44:50.999Z</time></trkpt><trkpt lat="42.212604167148776" lon="13.29573145638626"><ele>1015.0</ele><time>2026-04-29T12:44:51.999Z</time></trkpt><trkpt lat="42.21278932156053" lon="13.296040301168622"><ele>1015.0</ele><time>2026-04-29T12:44:52.999Z</time></trkpt><trkpt lat="42.212973122577964" lon="13.296347344328353"><ele>1015.0</ele><time>2026-04-29T12:44:53.999Z</time></trkpt><trkpt lat="42.21315741884521" lon="13.296646894821013"><ele>1012.5</ele><time>2026-04-29T12:44:54.999Z</time></trkpt><trkpt lat="42.21334517530603" lon="13.296939109599077"><ele>1010.0</ele><time>2026-04-29T12:44:55.999Z</time></trkpt><trkpt lat="42.213537334901666" lon="13.297223718108743"><ele>1019.5</ele><time>2026-04-29T12:44:56.999Z</time></trkpt><trkpt lat="42.21373377610497" lon="13.297500763693536"><ele>1029.0</ele><time>2026-04-29T12:44:57.999Z</time></trkpt><trkpt lat="42.213936623924695" lon="13.297769423507336"><ele>1018.0</ele><time>2026-04-29T12:44:58.999Z</time></trkpt><trkpt lat="42.21414510938302" lon="13.29803061637466"><ele>1007.0</ele><time>2026-04-29T12:44:59.999Z</time></trkpt><trkpt lat="42.21435663594604" lon="13.298279385542862"><ele>1007.0</ele><time>2026-04-29T12:45:00.999Z</time></trkpt><trkpt lat="42.21456802719565" lon="13.298520453917611"><ele>1007.0</ele><time>2026-04-29T12:45:01.999Z</time></trkpt><trkpt lat="42.21478615070235" lon="13.29875540524312"><ele>1029.5</ele><time>2026-04-29T12:45:02.999Z</time></trkpt><trkpt lat="42.215009495922594" lon="13.298980207215536"><ele>1052.0</ele><time>2026-04-29T12:45:03.999Z</time></trkpt><trkpt lat="42.21523565548728" lon="13.299200151595553"><ele>1052.0</ele><time>2026-04-29T12:45:04.999Z</time></trkpt><trkpt lat="42.215464346488986" lon="13.299414144837668"><ele>1052.0</ele><time>2026-04-29T12:45:05.999Z</time></trkpt><trkpt lat="42.21571197941028" lon="13.299628959352354"><ele>1068.5</ele><time>2026-04-29T12:45:07.06Z</time></trkpt><trkpt lat="42.21594179342162" lon="13.299809626765022"><ele>1085.0</ele><time>2026-04-29T12:45:08.062Z</time></trkpt><trkpt lat="42.21618402801739" lon="13.299994689232275"><ele>1319.0</ele><time>2026-04-29T12:45:09.06Z</time></trkpt><trkpt lat="42.21902753564788" lon="13.301980332298486"><ele>1368.0</ele><time>2026-04-29T12:45:13.721Z</time></trkpt><trkpt lat="42.22006816412055" lon="13.302704893706865"><ele>1368.0</ele><time>2026-04-29T12:45:14.723Z</time></trkpt><trkpt lat="42.2203818" lon="13.302925"><ele>1368.0</ele><time>2026-04-29T12:45:15.72Z</time></trkpt><trkpt lat="42.24873606307829" lon="13.320955894433334"><ele>1236.0</ele><time>2026-04-29T12:46:42.998Z</time></trkpt><trkpt lat="42.248986526946055" lon="13.3210268771277"><ele>1104.0</ele><time>2026-04-29T12:46:43.997Z</time></trkpt><trkpt lat="42.249249250180355" lon="13.321131695129033"><ele>1104.0</ele><time>2026-04-29T12:46:44.997Z</time></trkpt><trkpt lat="42.24949756476542" lon="13.321209142530147"><ele>1104.0</ele><time>2026-04-29T12:46:45.997Z</time></trkpt><trkpt lat="42.24970290950797" lon="13.321276391786444"><ele>1101.6666666666667</ele><time>2026-04-29T12:46:46.997Z</time></trkpt><trkpt lat="42.24989292393846" lon="13.321334004354865"><ele>1099.3333333333335</ele><time>2026-04-29T12:46:47.997Z</time></trkpt><trkpt lat="42.2500645860546" lon="13.321370569435771"><ele>1097.0</ele><time>2026-04-29T12:46:49Z</time></trkpt><trkpt lat="42.250236327858296" lon="13.321412144602627"><ele>1103.0</ele><time>2026-04-29T12:46:50Z</time></trkpt><trkpt lat="42.25037239314448" lon="13.321524963538009"><ele>1109.0</ele><time>2026-04-29T12:46:51Z</time></trkpt><trkpt lat="42.2503990447795" lon="13.321710427382298"><ele>1115.0</ele><time>2026-04-29T12:46:52Z</time></trkpt><trkpt lat="42.25039741296075" lon="13.321898108173896"><ele>1121.0</ele><time>2026-04-29T12:46:53Z</time></trkpt><trkpt lat="42.2504428756882" lon="13.322135365444247"><ele>1129.3333333333335</ele><time>2026-04-29T12:46:54Z</time></trkpt><trkpt lat="42.25050946432187" lon="13.322360014660644"><ele>1137.6666666666667</ele><time>2026-04-29T12:46:55Z</time></trkpt><trkpt lat="42.25056071304821" lon="13.322573226237557"><ele>1146.0</ele><time>2026-04-29T12:46:56Z</time></trkpt><trkpt lat="42.250604935881064" lon="13.322782127636097"><ele>1133.75</ele><time>2026-04-29T12:46:57Z</time></trkpt><trkpt lat="42.250636573729366" lon="13.322962382288873"><ele>1121.5</ele><time>2026-04-29T12:46:58Z</time></trkpt><trkpt lat="42.25066896257841" lon="13.323152795795874"><ele>1109.25</ele><time>2026-04-29T12:46:59Z</time></trkpt><trkpt lat="42.250694333957846" lon="13.323316040503675"><ele>1097.0</ele><time>2026-04-29T12:47:00Z</time></trkpt><trkpt lat="42.25071190400582" lon="13.32344793151022"><ele>1097.0</ele><time>2026-04-29T12:47:01Z</time></trkpt><trkpt lat="42.2507266261572" lon="13.323559433493946"><ele>1097.0</ele><time>2026-04-29T12:47:02Z</time></trkpt><trkpt lat="42.25072382597102" lon="13.323678017536418"><ele>1097.0</ele><time>2026-04-29T12:47:03Z</time></trkpt><trkpt lat="42.25067955321342" lon="13.323790465981304"><ele>1097.0</ele><time>2026-04-29T12:47:05Z</time></trkpt><trkpt lat="42.25061101549468" lon="13.323812527422788"><ele>1097.0</ele><time>2026-04-29T12:47:11.999Z</time></trkpt><trkpt lat="42.25051074754375" lon="13.323781126075122"><ele>1097.0</ele><time>2026-04-29T12:47:23.999Z</time></trkpt><trkpt lat="42.25046754290834" lon="13.32402565085366"><ele>1106.6</ele><time>2026-04-29T12:49:00.001Z</time></trkpt><trkpt lat="42.25045345724454" lon="13.32413416947181"><ele>1116.2</ele><time>2026-04-29T12:49:01.001Z</time></trkpt><trkpt lat="42.25053053479226" lon="13.324316042898277"><ele>1125.8</ele><time>2026-04-29T12:49:02.001Z</time></trkpt><trkpt lat="42.25050332526924" lon="13.324413480759853"><ele>1135.4</ele><time>2026-04-29T12:49:03.001Z</time></trkpt><trkpt lat="42.250478065528576" lon="13.324544988075422"><ele>1145.0</ele><time>2026-04-29T12:49:04.001Z</time></trkpt><trkpt lat="42.250454665994084" lon="13.32469366001297"><ele>1143.25</ele><time>2026-04-29T12:49:05.001Z</time></trkpt><trkpt lat="42.250432370720894" lon="13.32485726227304"><ele>1141.5</ele><time>2026-04-29T12:49:06.001Z</time></trkpt><trkpt lat="42.25040884419454" lon="13.325033425576914"><ele>1139.75</ele><time>2026-04-29T12:49:07.001Z</time></trkpt><trkpt lat="42.25038788596477" lon="13.325195834468289"><ele>1138.0</ele><time>2026-04-29T12:49:08.001Z</time></trkpt><trkpt lat="42.250371204556735" lon="13.325354041977308"><ele>1138.0</ele><time>2026-04-29T12:49:09.001Z</time></trkpt><trkpt lat="42.250359454124116" lon="13.325508117912955"><ele>1138.0</ele><time>2026-04-29T12:49:10.001Z</time></trkpt><trkpt lat="42.250286019543104" lon="13.325645103141012"><ele>1138.0</ele><time>2026-04-29T12:49:11.001Z</time></trkpt><trkpt lat="42.25025219847484" lon="13.325770703820517"><ele>1138.0</ele><time>2026-04-29T12:49:12Z</time></trkpt><trkpt lat="42.25024017406827" lon="13.32588832402823"><ele>1138.0</ele><time>2026-04-29T12:49:13Z</time></trkpt><trkpt lat="42.250256823488336" lon="13.326004283496255"><ele>1137.2</ele><time>2026-04-29T12:49:14Z</time></trkpt><trkpt lat="42.250309592951766" lon="13.326104916201915"><ele>1136.4</ele><time>2026-04-29T12:49:15Z</time></trkpt><trkpt lat="42.25039615239757" lon="13.326172429469214"><ele>1135.6000000000001</ele><time>2026-04-29T12:49:16Z</time></trkpt><trkpt lat="42.250498796042166" lon="13.326181668966775"><ele>1134.8</ele><time>2026-04-29T12:49:17Z</time></trkpt><trkpt lat="42.25059809619859" lon="13.326142589168906"><ele>1134.0</ele><time>2026-04-29T12:49:18Z</time></trkpt><trkpt lat="42.25067414684283" lon="13.32603876806929"><ele>1131.0</ele><time>2026-04-29T12:49:19Z</time></trkpt><trkpt lat="42.25072679540828" lon="13.32591303034401"><ele>1128.0</ele><time>2026-04-29T12:49:20Z</time></trkpt><trkpt lat="42.25076089465654" lon="13.325766340111398"><ele>1125.0</ele><time>2026-04-29T12:49:21Z</time></trkpt><trkpt lat="42.25080872496122" lon="13.325623864210135"><ele>1122.0</ele><time>2026-04-29T12:49:22Z</time></trkpt><trkpt lat="42.250891105377384" lon="13.32549780791468"><ele>1116.3333333333333</ele><time>2026-04-29T12:49:23Z</time></trkpt><trkpt lat="42.251007458276945" lon="13.3253734435301"><ele>1110.6666666666665</ele><time>2026-04-29T12:49:24Z</time></trkpt><trkpt lat="42.25113671430513" lon="13.325249999144827"><ele>1105.0</ele><time>2026-04-29T12:49:25Z</time></trkpt><trkpt lat="42.251260871438724" lon="13.325100694512438"><ele>1105.0</ele><time>2026-04-29T12:49:26Z</time></trkpt><trkpt lat="42.251371138828006" lon="13.324915897156046"><ele>1105.0</ele><time>2026-04-29T12:49:27Z</time></trkpt><trkpt lat="42.25146158808967" lon="13.324710127769217"><ele>1105.0</ele><time>2026-04-29T12:49:28Z</time></trkpt><trkpt lat="42.25154293030757" lon="13.324479708220139"><ele>1106.0</ele><time>2026-04-29T12:49:29Z</time></trkpt><trkpt lat="42.2516327394377" lon="13.32423896471352"><ele>1107.0</ele><time>2026-04-29T12:49:30Z</time></trkpt><trkpt lat="42.25173216016728" lon="13.323991253382404"><ele>1108.0</ele><time>2026-04-29T12:49:31Z</time></trkpt><trkpt lat="42.25182855040103" lon="13.323750599921242"><ele>1108.0</ele><time>2026-04-29T12:49:32Z</time></trkpt><trkpt lat="42.25192476565774" lon="13.323504845544672"><ele>1108.0</ele><time>2026-04-29T12:49:33Z</time></trkpt><trkpt lat="42.25201428607599" lon="13.32326842402743"><ele>1108.0</ele><time>2026-04-29T12:49:34Z</time></trkpt><trkpt lat="42.25212686725795" lon="13.323080082194938"><ele>1111.6666666666665</ele><time>2026-04-29T12:49:35Z</time></trkpt><trkpt lat="42.252261345541854" lon="13.322949169949181"><ele>1115.3333333333333</ele><time>2026-04-29T12:49:36Z</time></trkpt><trkpt lat="42.25237955639283" lon="13.322880531074698"><ele>1119.0</ele><time>2026-04-29T12:49:37Z</time></trkpt><trkpt lat="42.252551739047256" lon="13.322816762147486"><ele>1119.0</ele><time>2026-04-29T12:49:38Z</time></trkpt><trkpt lat="42.25274716325044" lon="13.322811877403234"><ele>1119.0</ele><time>2026-04-29T12:49:39Z</time></trkpt><trkpt lat="42.25294036393471" lon="13.32285677482781"><ele>1119.0</ele><time>2026-04-29T12:49:40Z</time></trkpt><trkpt lat="42.25313821172506" lon="13.322955153526216"><ele>1119.3333333333333</ele><time>2026-04-29T12:49:41Z</time></trkpt><trkpt lat="42.253343646507446" lon="13.323007421470946"><ele>1119.6666666666665</ele><time>2026-04-29T12:49:42Z</time></trkpt><trkpt lat="42.253562567976296" lon="13.323042950217296"><ele>1120.0</ele><time>2026-04-29T12:49:43Z</time></trkpt><trkpt lat="42.253790781067124" lon="13.323091469873967"><ele>1138.0</ele><time>2026-04-29T12:49:44Z</time></trkpt><trkpt lat="42.254022648997385" lon="13.323143715696629"><ele>1156.0</ele><time>2026-04-29T12:49:45Z</time></trkpt><trkpt lat="42.25425606577281" lon="13.323194235335404"><ele>1156.0</ele><time>2026-04-29T12:49:46Z</time></trkpt><trkpt lat="42.25451159230625" lon="13.323191507490009"><ele>1156.0</ele><time>2026-04-29T12:49:47Z</time></trkpt><trkpt lat="42.254752560552014" lon="13.323166400889118"><ele>1157.3333333333333</ele><time>2026-04-29T12:49:48Z</time></trkpt><trkpt lat="42.25496537359556" lon="13.323126991271453"><ele>1158.6666666666667</ele><time>2026-04-29T12:49:49Z</time></trkpt><trkpt lat="42.25519162252506" lon="13.323113138261807"><ele>1160.0</ele><time>2026-04-29T12:49:50Z</time></trkpt><trkpt lat="42.25542373256133" lon="13.32316324293148"><ele>1158.3333333333335</ele><time>2026-04-29T12:49:51Z</time></trkpt><trkpt lat="42.25563952458213" lon="13.323264902064976"><ele>1156.6666666666667</ele><time>2026-04-29T12:49:52Z</time></trkpt><trkpt lat="42.2558291774472" lon="13.323406793975739"><ele>1155.0</ele><time>2026-04-29T12:49:53Z</time></trkpt><trkpt lat="42.256008105967304" lon="13.32357401784929"><ele>1155.0</ele><time>2026-04-29T12:49:54Z</time></trkpt><trkpt lat="42.256165797098475" lon="13.323781685154131"><ele>1155.0</ele><time>2026-04-29T12:49:55Z</time></trkpt><trkpt lat="42.256298931630305" lon="13.324018053130992"><ele>1155.0</ele><time>2026-04-29T12:49:56Z</time></trkpt><trkpt lat="42.256406612826275" lon="13.324235832606647"><ele>1155.6666666666667</ele><time>2026-04-29T12:49:57Z</time></trkpt><trkpt lat="42.25650813332467" lon="13.324416427716258"><ele>1156.3333333333335</ele><time>2026-04-29T12:49:58Z</time></trkpt><trkpt lat="42.25662661043325" lon="13.32458347573871"><ele>1157.0</ele><time>2026-04-29T12:49:59Z</time></trkpt><trkpt lat="42.256781835602595" lon="13.324709054587059"><ele>1166.3333333333335</ele><time>2026-04-29T12:50:00Z</time></trkpt><trkpt lat="42.25696010859823" lon="13.324778324842368"><ele>1175.6666666666667</ele><time>2026-04-29T12:50:01Z</time></trkpt><trkpt lat="42.257152855641245" lon="13.324807253341913"><ele>1185.0</ele><time>2026-04-29T12:50:02Z</time></trkpt><trkpt lat="42.25735009243655" lon="13.3247747837817"><ele>1178.3333333333333</ele><time>2026-04-29T12:50:03Z</time></trkpt><trkpt lat="42.25754282928469" lon="13.324686272495102"><ele>1171.6666666666665</ele><time>2026-04-29T12:50:04Z</time></trkpt><trkpt lat="42.257734844673415" lon="13.324541408554412"><ele>1165.0</ele><time>2026-04-29T12:50:05Z</time></trkpt><trkpt lat="42.257924061436036" lon="13.324367667202672"><ele>1165.0</ele><time>2026-04-29T12:50:06Z</time></trkpt><trkpt lat="42.25809770949855" lon="13.324201667554217"><ele>1165.0</ele><time>2026-04-29T12:50:07Z</time></trkpt><trkpt lat="42.258261903437635" lon="13.324075827424618"><ele>1165.0</ele><time>2026-04-29T12:50:08Z</time></trkpt><trkpt lat="42.25843610043664" lon="13.32400315928296"><ele>1172.0</ele><time>2026-04-29T12:50:09Z</time></trkpt><trkpt lat="42.25862739516849" lon="13.32399735943819"><ele>1179.0</ele><time>2026-04-29T12:50:10Z</time></trkpt><trkpt lat="42.25882865109716" lon="13.324040352922301"><ele>1186.0</ele><time>2026-04-29T12:50:11Z</time></trkpt><trkpt lat="42.25901573405495" lon="13.324167452579706"><ele>1186.0</ele><time>2026-04-29T12:50:12Z</time></trkpt><trkpt lat="42.259211859257626" lon="13.324317990196269"><ele>1186.0</ele><time>2026-04-29T12:50:13Z</time></trkpt><trkpt lat="42.259416805714785" lon="13.324531107356966"><ele>1186.0</ele><time>2026-04-29T12:50:14Z</time></trkpt><trkpt lat="42.25966309204517" lon="13.324704094289"><ele>1186.0</ele><time>2026-04-29T12:50:15Z</time></trkpt><trkpt lat="42.25989511224593" lon="13.324869980978592"><ele>1193.0</ele><time>2026-04-29T12:50:16Z</time></trkpt><trkpt lat="42.26010374144171" lon="13.325026383139077"><ele>1200.0</ele><time>2026-04-29T12:50:17Z</time></trkpt><trkpt lat="42.260293454595946" lon="13.325157953785052"><ele>1200.0</ele><time>2026-04-29T12:50:18Z</time></trkpt><trkpt lat="42.2604938683138" lon="13.325248088610161"><ele>1200.0</ele><time>2026-04-29T12:50:19Z</time></trkpt><trkpt lat="42.26072400870326" lon="13.32528600347767"><ele>1200.0</ele><time>2026-04-29T12:50:20Z</time></trkpt><trkpt lat="42.260990145847416" lon="13.32527036837201"><ele>1199.0</ele><time>2026-04-29T12:50:21Z</time></trkpt><trkpt lat="42.26127194896683" lon="13.325220932234467"><ele>1198.0</ele><time>2026-04-29T12:50:22Z</time></trkpt><trkpt lat="42.26151521847803" lon="13.325179668415254"><ele>1202.3333333333333</ele><time>2026-04-29T12:50:23Z</time></trkpt><trkpt lat="42.26173505946922" lon="13.325158942411921"><ele>1206.6666666666667</ele><time>2026-04-29T12:50:24Z</time></trkpt><trkpt lat="42.261939303546406" lon="13.325175452468859"><ele>1211.0</ele><time>2026-04-29T12:50:25Z</time></trkpt><trkpt lat="42.26214742580544" lon="13.325218643167652"><ele>1211.0</ele><time>2026-04-29T12:50:26Z</time></trkpt><trkpt lat="42.26236115525948" lon="13.32531130066863"><ele>1211.0</ele><time>2026-04-29T12:50:27Z</time></trkpt><trkpt lat="42.262585091898536" lon="13.325456025352302"><ele>1220.5</ele><time>2026-04-29T12:50:28Z</time></trkpt><trkpt lat="42.26280359319309" lon="13.325648299351808"><ele>1230.0</ele><time>2026-04-29T12:50:29Z</time></trkpt><trkpt lat="42.26299630045977" lon="13.325843472875935"><ele>1230.6666666666667</ele><time>2026-04-29T12:50:30Z</time></trkpt><trkpt lat="42.26317235780461" lon="13.32601538098639"><ele>1231.3333333333335</ele><time>2026-04-29T12:50:31Z</time></trkpt><trkpt lat="42.263321626593815" lon="13.326204268416213"><ele>1232.0</ele><time>2026-04-29T12:50:32Z</time></trkpt><trkpt lat="42.26346404166157" lon="13.326456848433429"><ele>1232.0</ele><time>2026-04-29T12:50:33Z</time></trkpt><trkpt lat="42.26359476990289" lon="13.326727264449202"><ele>1232.0</ele><time>2026-04-29T12:50:34Z</time></trkpt><trkpt lat="42.263714766002096" lon="13.326971471664955"><ele>1232.0</ele><time>2026-04-29T12:50:35Z</time></trkpt><trkpt lat="42.26382584847472" lon="13.327189635888057"><ele>1232.0</ele><time>2026-04-29T12:50:35.999Z</time></trkpt><trkpt lat="42.263916924086914" lon="13.327425053820024"><ele>1232.0</ele><time>2026-04-29T12:50:36.999Z</time></trkpt><trkpt lat="42.26397168642197" lon="13.327669107195833"><ele>1233.6666666666667</ele><time>2026-04-29T12:50:37.999Z</time></trkpt><trkpt lat="42.26401277856233" lon="13.32788564777509"><ele>1235.3333333333333</ele><time>2026-04-29T12:50:38.999Z</time></trkpt><trkpt lat="42.2640383379602" lon="13.328127563630686"><ele>1237.0</ele><time>2026-04-29T12:50:39.999Z</time></trkpt><trkpt lat="42.264135229637986" lon="13.328345156499873"><ele>1239.3333333333333</ele><time>2026-04-29T12:50:40.999Z</time></trkpt><trkpt lat="42.26427900507322" lon="13.328550313979125"><ele>1241.6666666666667</ele><time>2026-04-29T12:50:41.999Z</time></trkpt><trkpt lat="42.26447710956704" lon="13.3287159458551"><ele>1244.0</ele><time>2026-04-29T12:50:42.999Z</time></trkpt><trkpt lat="42.26470491706908" lon="13.328856356452931"><ele>1249.0</ele><time>2026-04-29T12:50:43.999Z</time></trkpt><trkpt lat="42.26492538677566" lon="13.328964596581512"><ele>1254.0</ele><time>2026-04-29T12:50:44.999Z</time></trkpt><trkpt lat="42.265137407346785" lon="13.32904032944478"><ele>1254.0</ele><time>2026-04-29T12:50:45.999Z</time></trkpt><trkpt lat="42.26534526398557" lon="13.32905811956534"><ele>1254.0</ele><time>2026-04-29T12:50:46.999Z</time></trkpt><trkpt lat="42.265581992684716" lon="13.329016190198056"><ele>1254.0</ele><time>2026-04-29T12:50:47.999Z</time></trkpt><trkpt lat="42.26583659613527" lon="13.328930337615938"><ele>1244.0</ele><time>2026-04-29T12:50:48.999Z</time></trkpt><trkpt lat="42.26610572029375" lon="13.328830476287127"><ele>1234.0</ele><time>2026-04-29T12:50:49.999Z</time></trkpt><trkpt lat="42.26639525309497" lon="13.328740122082596"><ele>1242.0</ele><time>2026-04-29T12:50:50.999Z</time></trkpt><trkpt lat="42.266677217304036" lon="13.328647741207496"><ele>1250.0</ele><time>2026-04-29T12:50:51.999Z</time></trkpt><trkpt lat="42.266929270238094" lon="13.328568532150683"><ele>1250.0</ele><time>2026-04-29T12:50:52.999Z</time></trkpt><trkpt lat="42.267155704519034" lon="13.32849643759795"><ele>1250.0</ele><time>2026-04-29T12:50:53.999Z</time></trkpt><trkpt lat="42.26736076070955" lon="13.32842648286916"><ele>1250.0</ele><time>2026-04-29T12:50:54.999Z</time></trkpt><trkpt lat="42.26755097210173" lon="13.328370265762517"><ele>1255.0</ele><time>2026-04-29T12:50:55.999Z</time></trkpt><trkpt lat="42.26775347494485" lon="13.328304800745006"><ele>1260.0</ele><time>2026-04-29T12:50:56.999Z</time></trkpt><trkpt lat="42.2679504792409" lon="13.328286211036234"><ele>1265.0</ele><time>2026-04-29T12:50:57.999Z</time></trkpt><trkpt lat="42.26815559951806" lon="13.328306630911356"><ele>1270.0</ele><time>2026-04-29T12:50:59.001Z</time></trkpt><trkpt lat="42.268391891668955" lon="13.328397745648944"><ele>1275.0</ele><time>2026-04-29T12:51:00.001Z</time></trkpt><trkpt lat="42.26864242968701" lon="13.328468679797105"><ele>1275.0</ele><time>2026-04-29T12:51:01.001Z</time></trkpt><trkpt lat="42.268897297963306" lon="13.3285928909388"><ele>1275.0</ele><time>2026-04-29T12:51:02.001Z</time></trkpt><trkpt lat="42.26916569106549" lon="13.328716898391788"><ele>1282.0</ele><time>2026-04-29T12:51:03Z</time></trkpt><trkpt lat="42.26938450787817" lon="13.32882759623135"><ele>1289.0</ele><time>2026-04-29T12:51:04Z</time></trkpt><trkpt lat="42.26960271365582" lon="13.328922574231516"><ele>1290.0</ele><time>2026-04-29T12:51:05Z</time></trkpt><trkpt lat="42.269834140881436" lon="13.32894629109631"><ele>1291.0</ele><time>2026-04-29T12:51:06Z</time></trkpt><trkpt lat="42.270071396715416" lon="13.328909562430848"><ele>1291.5</ele><time>2026-04-29T12:51:07Z</time></trkpt><trkpt lat="42.270302790007314" lon="13.328821305658485"><ele>1292.0</ele><time>2026-04-29T12:51:08Z</time></trkpt><trkpt lat="42.27052410574673" lon="13.328674675003931"><ele>1291.0</ele><time>2026-04-29T12:51:09Z</time></trkpt><trkpt lat="42.27073401631753" lon="13.328461381871977"><ele>1290.0</ele><time>2026-04-29T12:51:10Z</time></trkpt><trkpt lat="42.270934260737015" lon="13.328185024268501"><ele>1296.5</ele><time>2026-04-29T12:51:11Z</time></trkpt><trkpt lat="42.27111863429915" lon="13.327874166522719"><ele>1303.0</ele><time>2026-04-29T12:51:12Z</time></trkpt><trkpt lat="42.27127001460433" lon="13.327588330837058"><ele>1303.0</ele><time>2026-04-29T12:51:13Z</time></trkpt><trkpt lat="42.27141667254686" lon="13.327352866018256"><ele>1303.0</ele><time>2026-04-29T12:51:14Z</time></trkpt><trkpt lat="42.2715750060274" lon="13.327175603603594"><ele>1303.0</ele><time>2026-04-29T12:51:15Z</time></trkpt><trkpt lat="42.271745685713654" lon="13.327056765280803"><ele>1300.6666666666665</ele><time>2026-04-29T12:51:16Z</time></trkpt><trkpt lat="42.27192138767359" lon="13.326994410615777"><ele>1298.3333333333333</ele><time>2026-04-29T12:51:17Z</time></trkpt><trkpt lat="42.27210232648837" lon="13.326970238535711"><ele>1296.0</ele><time>2026-04-29T12:51:18Z</time></trkpt><trkpt lat="42.272275752898" lon="13.32699108162957"><ele>1300.0</ele><time>2026-04-29T12:51:19Z</time></trkpt><trkpt lat="42.27243415944164" lon="13.327047425491001"><ele>1304.0</ele><time>2026-04-29T12:51:20Z</time></trkpt><trkpt lat="42.272604232975354" lon="13.32718607317278"><ele>1308.0</ele><time>2026-04-29T12:51:21Z</time></trkpt><trkpt lat="42.27277928014233" lon="13.327383497671423"><ele>1308.0</ele><time>2026-04-29T12:51:22Z</time></trkpt><trkpt lat="42.272969152125626" lon="13.327586270628036"><ele>1308.0</ele><time>2026-04-29T12:51:23Z</time></trkpt><trkpt lat="42.27317808649704" lon="13.32780021752959"><ele>1309.5</ele><time>2026-04-29T12:51:24Z</time></trkpt><trkpt lat="42.27338909872219" lon="13.328020257090248"><ele>1311.0</ele><time>2026-04-29T12:51:25Z</time></trkpt><trkpt lat="42.27359387905372" lon="13.328230758981302"><ele>1311.0</ele><time>2026-04-29T12:51:26Z</time></trkpt><trkpt lat="42.27378346371179" lon="13.32841062684091"><ele>1311.0</ele><time>2026-04-29T12:51:27Z</time></trkpt><trkpt lat="42.27395682998325" lon="13.32857270923725"><ele>1311.0</ele><time>2026-04-29T12:51:28Z</time></trkpt><trkpt lat="42.2741229238053" lon="13.328749973766845"><ele>1318.5</ele><time>2026-04-29T12:51:29Z</time></trkpt><trkpt lat="42.27427222449123" lon="13.32897491728091"><ele>1326.0</ele><time>2026-04-29T12:51:30Z</time></trkpt><trkpt lat="42.27439220385693" lon="13.329244535472009"><ele>1326.0</ele><time>2026-04-29T12:51:31Z</time></trkpt><trkpt lat="42.27449136610311" lon="13.329551613101621"><ele>1326.0</ele><time>2026-04-29T12:51:32Z</time></trkpt><trkpt lat="42.274592327409145" lon="13.329860829712596"><ele>1325.0</ele><time>2026-04-29T12:51:33Z</time></trkpt><trkpt lat="42.27471292187761" lon="13.33014020386869"><ele>1324.0</ele><time>2026-04-29T12:51:34Z</time></trkpt><trkpt lat="42.27484869727503" lon="13.330369942116986"><ele>1329.0</ele><time>2026-04-29T12:51:35Z</time></trkpt><trkpt lat="42.274963621836164" lon="13.330550643722239"><ele>1334.0</ele><time>2026-04-29T12:51:36Z</time></trkpt><trkpt lat="42.27501800831501" lon="13.330740641072632"><ele>1339.0</ele><time>2026-04-29T12:51:37Z</time></trkpt><trkpt lat="42.27508135120333" lon="13.330929507031845"><ele>1339.0</ele><time>2026-04-29T12:51:38Z</time></trkpt><trkpt lat="42.275099584782964" lon="13.331144216900023"><ele>1339.0</ele><time>2026-04-29T12:51:39Z</time></trkpt><trkpt lat="42.27508721548402" lon="13.331369875314017"><ele>1339.0</ele><time>2026-04-29T12:51:40Z</time></trkpt><trkpt lat="42.27504542081644" lon="13.331588833068775"><ele>1336.6666666666665</ele><time>2026-04-29T12:51:41Z</time></trkpt><trkpt lat="42.274958661063295" lon="13.33178991155058"><ele>1334.3333333333333</ele><time>2026-04-29T12:51:42Z</time></trkpt><trkpt lat="42.274862916496055" lon="13.331974907745149"><ele>1332.0</ele><time>2026-04-29T12:51:43Z</time></trkpt><trkpt lat="42.274745179308525" lon="13.332137650965581"><ele>1337.6666666666667</ele><time>2026-04-29T12:51:44Z</time></trkpt><trkpt lat="42.274594771684704" lon="13.33229971871749"><ele>1343.3333333333335</ele><time>2026-04-29T12:51:45Z</time></trkpt><trkpt lat="42.27440039855608" lon="13.332405526050238"><ele>1349.0</ele><time>2026-04-29T12:51:46Z</time></trkpt><trkpt lat="42.274177037484336" lon="13.332428091100319"><ele>1356.0</ele><time>2026-04-29T12:51:47Z</time></trkpt><trkpt lat="42.27393213412194" lon="13.332406993233096"><ele>1363.0</ele><time>2026-04-29T12:51:48Z</time></trkpt><trkpt lat="42.27365855522236" lon="13.332362346305388"><ele>1363.0</ele><time>2026-04-29T12:51:49Z</time></trkpt><trkpt lat="42.27338145364784" lon="13.332293569336253"><ele>1363.0</ele><time>2026-04-29T12:51:50Z</time></trkpt><trkpt lat="42.27309411960926" lon="13.33226835930464"><ele>1368.0</ele><time>2026-04-29T12:51:51Z</time></trkpt><trkpt lat="42.272793455743745" lon="13.33227082316989"><ele>1373.0</ele><time>2026-04-29T12:51:52Z</time></trkpt><trkpt lat="42.2724798369824" lon="13.332293670656039"><ele>1374.0</ele><time>2026-04-29T12:51:53Z</time></trkpt><trkpt lat="42.27218469772786" lon="13.332330084596911"><ele>1375.0</ele><time>2026-04-29T12:51:54Z</time></trkpt><trkpt lat="42.27194044217624" lon="13.332367175348649"><ele>1375.0</ele><time>2026-04-29T12:51:55Z</time></trkpt><trkpt lat="42.271743245368974" lon="13.332415085046936"><ele>1375.0</ele><time>2026-04-29T12:51:56Z</time></trkpt><trkpt lat="42.27155467372367" lon="13.33246366375759"><ele>1375.0</ele><time>2026-04-29T12:51:57Z</time></trkpt><trkpt lat="42.271381120196864" lon="13.332513262865062"><ele>1374.25</ele><time>2026-04-29T12:51:58Z</time></trkpt><trkpt lat="42.27122592811358" lon="13.332563722429784"><ele>1373.5</ele><time>2026-04-29T12:51:59Z</time></trkpt><trkpt lat="42.2710906902656" lon="13.332615385238302"><ele>1372.75</ele><time>2026-04-29T12:52:00Z</time></trkpt><trkpt lat="42.27096431210267" lon="13.332670123102599"><ele>1372.0</ele><time>2026-04-29T12:52:01Z</time></trkpt><trkpt lat="42.27083200888841" lon="13.332737021603798"><ele>1372.0</ele><time>2026-04-29T12:52:02Z</time></trkpt><trkpt lat="42.270704191889386" lon="13.33280417981435"><ele>1372.0</ele><time>2026-04-29T12:52:03Z</time></trkpt><trkpt lat="42.27058822743875" lon="13.332866281888382"><ele>1372.0</ele><time>2026-04-29T12:52:04Z</time></trkpt><trkpt lat="42.27048268295394" lon="13.33292739580458"><ele>1372.0</ele><time>2026-04-29T12:52:05Z</time></trkpt><trkpt lat="42.2703787675699" lon="13.332986971779837"><ele>1372.25</ele><time>2026-04-29T12:52:06Z</time></trkpt><trkpt lat="42.2702693181018" lon="13.333041339226275"><ele>1372.5</ele><time>2026-04-29T12:52:07Z</time></trkpt><trkpt lat="42.27015660736039" lon="13.333078415494619"><ele>1372.75</ele><time>2026-04-29T12:52:08Z</time></trkpt><trkpt lat="42.270040203519976" lon="13.333093986339437"><ele>1373.0</ele><time>2026-04-29T12:52:09Z</time></trkpt><trkpt lat="42.269915948788025" lon="13.333091829602711"><ele>1376.75</ele><time>2026-04-29T12:52:10Z</time></trkpt><trkpt lat="42.26978695364428" lon="13.333077395532978"><ele>1380.5</ele><time>2026-04-29T12:52:11Z</time></trkpt><trkpt lat="42.269664488554525" lon="13.333042816434638"><ele>1384.25</ele><time>2026-04-29T12:52:12Z</time></trkpt><trkpt lat="42.26955957271385" lon="13.333008282995648"><ele>1388.0</ele><time>2026-04-29T12:52:13Z</time></trkpt><trkpt lat="42.26945947562238" lon="13.332963109786848"><ele>1388.0</ele><time>2026-04-29T12:52:14Z</time></trkpt><trkpt lat="42.2693586964492" lon="13.332910822664903"><ele>1388.0</ele><time>2026-04-29T12:52:15Z</time></trkpt><trkpt lat="42.26925931612026" lon="13.332837589394776"><ele>1388.0</ele><time>2026-04-29T12:52:16Z</time></trkpt><trkpt lat="42.26916860812355" lon="13.332753570329018"><ele>1388.0</ele><time>2026-04-29T12:52:17Z</time></trkpt><trkpt lat="42.26908652148722" lon="13.332663252806782"><ele>1388.0</ele><time>2026-04-29T12:52:18Z</time></trkpt><trkpt lat="42.269001305889375" lon="13.332571858940394"><ele>1386.25</ele><time>2026-04-29T12:52:19Z</time></trkpt><trkpt lat="42.26890844362472" lon="13.332480526173034"><ele>1384.5</ele><time>2026-04-29T12:52:20Z</time></trkpt><trkpt lat="42.26881151225964" lon="13.332387584389227"><ele>1382.75</ele><time>2026-04-29T12:52:21Z</time></trkpt><trkpt lat="42.26870737243923" lon="13.332290441148869"><ele>1381.0</ele><time>2026-04-29T12:52:22Z</time></trkpt><trkpt lat="42.268613771853474" lon="13.332181037461314"><ele>1381.0</ele><time>2026-04-29T12:52:23Z</time></trkpt><trkpt lat="42.26847486489787" lon="13.332115715293064"><ele>1381.0</ele><time>2026-04-29T12:52:24Z</time></trkpt><trkpt lat="42.26834107841909" lon="13.332041050216189"><ele>1381.0</ele><time>2026-04-29T12:52:25Z</time></trkpt><trkpt lat="42.268201503471204" lon="13.331967566919879"><ele>1381.0</ele><time>2026-04-29T12:52:26Z</time></trkpt><trkpt lat="42.26802625096313" lon="13.331905947540605"><ele>1387.6666666666665</ele><time>2026-04-29T12:52:27Z</time></trkpt><trkpt lat="42.26782776988382" lon="13.331855391520644"><ele>1394.3333333333333</ele><time>2026-04-29T12:52:28Z</time></trkpt><trkpt lat="42.267609984513314" lon="13.331815473315931"><ele>1401.0</ele><time>2026-04-29T12:52:29Z</time></trkpt><trkpt lat="42.26737061493368" lon="13.331792480637976"><ele>1398.0</ele><time>2026-04-29T12:52:30Z</time></trkpt><trkpt lat="42.26712223879329" lon="13.33179397468398"><ele>1395.0</ele><time>2026-04-29T12:52:31Z</time></trkpt><trkpt lat="42.266872665761476" lon="13.331827301506692"><ele>1395.0</ele><time>2026-04-29T12:52:32Z</time></trkpt><trkpt lat="42.26662074248315" lon="13.331884280255803"><ele>1395.0</ele><time>2026-04-29T12:52:33Z</time></trkpt><trkpt lat="42.26637546225217" lon="13.331972150866667"><ele>1388.5</ele><time>2026-04-29T12:52:34Z</time></trkpt><trkpt lat="42.26613620800483" lon="13.332130107278331"><ele>1382.0</ele><time>2026-04-29T12:52:35Z</time></trkpt><trkpt lat="42.265893831933326" lon="13.332306808147635"><ele>1387.5</ele><time>2026-04-29T12:52:36Z</time></trkpt><trkpt lat="42.26564551000209" lon="13.33252108892688"><ele>1393.0</ele><time>2026-04-29T12:52:36.999Z</time></trkpt><trkpt lat="42.26540520516127" lon="13.33275931406663"><ele>1393.0</ele><time>2026-04-29T12:52:37.999Z</time></trkpt><trkpt lat="42.265176264553986" lon="13.333042381469014"><ele>1393.0</ele><time>2026-04-29T12:52:38.999Z</time></trkpt><trkpt lat="42.264960191238906" lon="13.333374515834153"><ele>1396.0</ele><time>2026-04-29T12:52:39.999Z</time></trkpt><trkpt lat="42.26474630001252" lon="13.333735282336436"><ele>1399.0</ele><time>2026-04-29T12:52:40.999Z</time></trkpt><trkpt lat="42.26452142873734" lon="13.334095520203679"><ele>1410.5</ele><time>2026-04-29T12:52:41.999Z</time></trkpt><trkpt lat="42.26429324080758" lon="13.334451741813979"><ele>1422.0</ele><time>2026-04-29T12:52:42.999Z</time></trkpt><trkpt lat="42.264057481644144" lon="13.334814274435827"><ele>1418.0</ele><time>2026-04-29T12:52:43.999Z</time></trkpt><trkpt lat="42.26382638225435" lon="13.335190496314375"><ele>1414.0</ele><time>2026-04-29T12:52:44.999Z</time></trkpt><trkpt lat="42.26361850587039" lon="13.335604191425572"><ele>1424.0</ele><time>2026-04-29T12:52:45.999Z</time></trkpt><trkpt lat="42.263422458272416" lon="13.336041780767935"><ele>1434.0</ele><time>2026-04-29T12:52:46.999Z</time></trkpt><trkpt lat="42.263227552629154" lon="13.336478412055662"><ele>1437.0</ele><time>2026-04-29T12:52:47.999Z</time></trkpt><trkpt lat="42.26305176943111" lon="13.33687149746565"><ele>1440.0</ele><time>2026-04-29T12:52:48.999Z</time></trkpt><trkpt lat="42.26289178025984" lon="13.337232014011414"><ele>1440.0</ele><time>2026-04-29T12:52:49.999Z</time></trkpt><trkpt lat="42.26272695813062" lon="13.33757325553817"><ele>1440.0</ele><time>2026-04-29T12:52:50.999Z</time></trkpt><trkpt lat="42.2625622135339" lon="13.337910192105685"><ele>1434.0</ele><time>2026-04-29T12:52:51.999Z</time></trkpt><trkpt lat="42.26241383950485" lon="13.3382517148273"><ele>1428.0</ele><time>2026-04-29T12:52:52.999Z</time></trkpt><trkpt lat="42.26226938682103" lon="13.338569536597884"><ele>1428.0</ele><time>2026-04-29T12:52:53.999Z</time></trkpt><trkpt lat="42.26210896489537" lon="13.33887657678742"><ele>1428.0</ele><time>2026-04-29T12:52:54.999Z</time></trkpt><trkpt lat="42.261899191135655" lon="13.339163472558017"><ele>1440.0</ele><time>2026-04-29T12:52:55.999Z</time></trkpt><trkpt lat="42.26168479441235" lon="13.339461584113028"><ele>1452.0</ele><time>2026-04-29T12:52:56.999Z</time></trkpt><trkpt lat="42.2614302000625" lon="13.339723909439648"><ele>1455.0</ele><time>2026-04-29T12:52:57.999Z</time></trkpt><trkpt lat="42.26115396279245" lon="13.339969639019145"><ele>1458.0</ele><time>2026-04-29T12:52:58.999Z</time></trkpt><trkpt lat="42.260848509372885" lon="13.34016004048379"><ele>1453.5</ele><time>2026-04-29T12:52:59.999Z</time></trkpt><trkpt lat="42.26052846461398" lon="13.340335445782701"><ele>1449.0</ele><time>2026-04-29T12:53:00.999Z</time></trkpt><trkpt lat="42.260195748265495" lon="13.340507332389018"><ele>1461.5</ele><time>2026-04-29T12:53:01.999Z</time></trkpt><trkpt lat="42.259866304290064" lon="13.340662542429856"><ele>1474.0</ele><time>2026-04-29T12:53:02.999Z</time></trkpt><trkpt lat="42.25957620588671" lon="13.340813818794116"><ele>1474.0</ele><time>2026-04-29T12:53:03.999Z</time></trkpt><trkpt lat="42.25929759256999" lon="13.340985870985488"><ele>1474.0</ele><time>2026-04-29T12:53:05Z</time></trkpt><trkpt lat="42.259025330666496" lon="13.341203719096223"><ele>1479.0</ele><time>2026-04-29T12:53:06Z</time></trkpt><trkpt lat="42.258760078050706" lon="13.341433342996304"><ele>1484.0</ele><time>2026-04-29T12:53:07Z</time></trkpt><trkpt lat="42.258493295691416" lon="13.34165581377116"><ele>1484.0</ele><time>2026-04-29T12:53:08Z</time></trkpt><trkpt lat="42.25821324531522" lon="13.341840091082313"><ele>1484.0</ele><time>2026-04-29T12:53:09Z</time></trkpt><trkpt lat="42.25790707143749" lon="13.34197746825641"><ele>1483.0</ele><time>2026-04-29T12:53:10Z</time></trkpt><trkpt lat="42.25757927040997" lon="13.342080653090514"><ele>1482.0</ele><time>2026-04-29T12:53:11Z</time></trkpt><trkpt lat="42.25724345577137" lon="13.342160527121566"><ele>1493.0</ele><time>2026-04-29T12:53:12Z</time></trkpt><trkpt lat="42.25689965469577" lon="13.342215361852315"><ele>1504.0</ele><time>2026-04-29T12:53:13Z</time></trkpt><trkpt lat="42.25656025261705" lon="13.34233490636134"><ele>1499.5</ele><time>2026-04-29T12:53:14Z</time></trkpt><trkpt lat="42.25622347490214" lon="13.342498559254071"><ele>1495.0</ele><time>2026-04-29T12:53:15Z</time></trkpt><trkpt lat="42.255886951199564" lon="13.342681406590351"><ele>1489.5</ele><time>2026-04-29T12:53:16Z</time></trkpt><trkpt lat="42.25554916822095" lon="13.342864659241386"><ele>1484.0</ele><time>2026-04-29T12:53:17Z</time></trkpt><trkpt lat="42.25521732991167" lon="13.343057943545348"><ele>1493.5</ele><time>2026-04-29T12:53:18Z</time></trkpt><trkpt lat="42.25488278341774" lon="13.343243772270624"><ele>1503.0</ele><time>2026-04-29T12:53:19Z</time></trkpt><trkpt lat="42.254549961865024" lon="13.343427142732406"><ele>1503.0</ele><time>2026-04-29T12:53:20Z</time></trkpt><trkpt lat="42.25421794277991" lon="13.343609942308875"><ele>1503.0</ele><time>2026-04-29T12:53:21Z</time></trkpt><trkpt lat="42.25389069694879" lon="13.343790726606091"><ele>1511.5</ele><time>2026-04-29T12:53:22Z</time></trkpt><trkpt lat="42.253570822255384" lon="13.343969255643936"><ele>1520.0</ele><time>2026-04-29T12:53:23Z</time></trkpt><trkpt lat="42.253254613641325" lon="13.344144720078743"><ele>1514.5</ele><time>2026-04-29T12:53:24Z</time></trkpt><trkpt lat="42.25294144241151" lon="13.344319104165647"><ele>1509.0</ele><time>2026-04-29T12:53:25Z</time></trkpt><trkpt lat="42.25263628579121" lon="13.344489881411201"><ele>1509.0</ele><time>2026-04-29T12:53:26Z</time></trkpt><trkpt lat="42.252336276310075" lon="13.3446572026188"><ele>1509.0</ele><time>2026-04-29T12:53:27Z</time></trkpt><trkpt lat="42.25204094256429" lon="13.344822237329815"><ele>1518.5</ele><time>2026-04-29T12:53:28Z</time></trkpt><trkpt lat="42.25175296617503" lon="13.344989141453654"><ele>1528.0</ele><time>2026-04-29T12:53:29Z</time></trkpt><trkpt lat="42.251470474974305" lon="13.345182455594694"><ele>1529.0</ele><time>2026-04-29T12:53:30Z</time></trkpt><trkpt lat="42.2511938397622" lon="13.34541616646547"><ele>1530.0</ele><time>2026-04-29T12:53:31Z</time></trkpt><trkpt lat="42.250922542735516" lon="13.345686639414486"><ele>1530.0</ele><time>2026-04-29T12:53:32Z</time></trkpt><trkpt lat="42.25065490557556" lon="13.345982752852914"><ele>1530.0</ele><time>2026-04-29T12:53:33Z</time></trkpt><trkpt lat="42.25038820627184" lon="13.346293485548818"><ele>1532.0</ele><time>2026-04-29T12:53:34Z</time></trkpt><trkpt lat="42.250120812510296" lon="13.34661399662983"><ele>1534.0</ele><time>2026-04-29T12:53:35Z</time></trkpt><trkpt lat="42.249850564870485" lon="13.346938148397227"><ele>1533.0</ele><time>2026-04-29T12:53:36Z</time></trkpt><trkpt lat="42.24957458002011" lon="13.347263655220443"><ele>1532.0</ele><time>2026-04-29T12:53:37Z</time></trkpt><trkpt lat="42.24928949226592" lon="13.347579488585758"><ele>1532.0</ele><time>2026-04-29T12:53:38Z</time></trkpt><trkpt lat="42.24899971820763" lon="13.347883388703814"><ele>1532.0</ele><time>2026-04-29T12:53:39Z</time></trkpt><trkpt lat="42.24871110491029" lon="13.348191727014333"><ele>1534.0</ele><time>2026-04-29T12:53:40Z</time></trkpt><trkpt lat="42.24843106867282" lon="13.34851887165282"><ele>1536.0</ele><time>2026-04-29T12:53:41Z</time></trkpt><trkpt lat="42.24815846053475" lon="13.34885998642355"><ele>1538.0</ele><time>2026-04-29T12:53:42Z</time></trkpt><trkpt lat="42.24788667174059" lon="13.349206010690414"><ele>1540.0</ele><time>2026-04-29T12:53:43Z</time></trkpt><trkpt lat="42.247616782965174" lon="13.349562047620127"><ele>1539.0</ele><time>2026-04-29T12:53:44Z</time></trkpt><trkpt lat="42.24734804405952" lon="13.349919056348513"><ele>1538.0</ele><time>2026-04-29T12:53:45Z</time></trkpt><trkpt lat="42.247084531300096" lon="13.350260459325282"><ele>1553.5</ele><time>2026-04-29T12:53:46Z</time></trkpt><trkpt lat="42.24683397673169" lon="13.350583002323146"><ele>1569.0</ele><time>2026-04-29T12:53:47Z</time></trkpt><trkpt lat="42.24659858852434" lon="13.350879770168383"><ele>1567.5</ele><time>2026-04-29T12:53:48Z</time></trkpt><trkpt lat="42.24636107814656" lon="13.351179129947088"><ele>1566.0</ele><time>2026-04-29T12:53:49Z</time></trkpt><trkpt lat="42.246127890911694" lon="13.35148407301274"><ele>1566.0</ele><time>2026-04-29T12:53:50Z</time></trkpt><trkpt lat="42.2459004516899" lon="13.3518025334306"><ele>1566.0</ele><time>2026-04-29T12:53:51Z</time></trkpt><trkpt lat="42.24568202006847" lon="13.352140416468501"><ele>1565.5</ele><time>2026-04-29T12:53:52Z</time></trkpt><trkpt lat="42.24547122883412" lon="13.352491294541048"><ele>1565.0</ele><time>2026-04-29T12:53:53Z</time></trkpt><trkpt lat="42.24526136780308" lon="13.35283639655544"><ele>1579.0</ele><time>2026-04-29T12:53:54Z</time></trkpt><trkpt lat="42.24504337930487" lon="13.353173669008596"><ele>1593.0</ele><time>2026-04-29T12:53:55Z</time></trkpt><trkpt lat="42.244808844435326" lon="13.353498875687583"><ele>1591.5</ele><time>2026-04-29T12:53:56Z</time></trkpt><trkpt lat="42.24456046648122" lon="13.353811374125776"><ele>1590.0</ele><time>2026-04-29T12:53:57Z</time></trkpt><trkpt lat="42.244300457962346" lon="13.354114056904871"><ele>1590.0</ele><time>2026-04-29T12:53:58Z</time></trkpt><trkpt lat="42.2440418851647" lon="13.354409662563643"><ele>1590.0</ele><time>2026-04-29T12:53:59Z</time></trkpt><trkpt lat="42.243789761877004" lon="13.354703174281001"><ele>1591.0</ele><time>2026-04-29T12:54:00Z</time></trkpt><trkpt lat="42.243540605822844" lon="13.354999569554028"><ele>1592.0</ele><time>2026-04-29T12:54:01Z</time></trkpt><trkpt lat="42.2433003147009" lon="13.35530337405075"><ele>1592.0</ele><time>2026-04-29T12:54:02Z</time></trkpt><trkpt lat="42.24306273441763" lon="13.35561190324563"><ele>1592.0</ele><time>2026-04-29T12:54:03Z</time></trkpt><trkpt lat="42.24284339743148" lon="13.355905933816805"><ele>1592.0</ele><time>2026-04-29T12:54:04Z</time></trkpt><trkpt lat="42.2426475414558" lon="13.356179950294566"><ele>1592.0</ele><time>2026-04-29T12:54:05Z</time></trkpt><trkpt lat="42.24245693996479" lon="13.356445897319768"><ele>1593.5</ele><time>2026-04-29T12:54:06Z</time></trkpt><trkpt lat="42.24226347962487" lon="13.356730789389033"><ele>1595.0</ele><time>2026-04-29T12:54:07Z</time></trkpt><trkpt lat="42.24207548863824" lon="13.357032016767903"><ele>1602.0</ele><time>2026-04-29T12:54:08Z</time></trkpt><trkpt lat="42.24189934178656" lon="13.357352003128582"><ele>1609.0</ele><time>2026-04-29T12:54:09Z</time></trkpt><trkpt lat="42.24173187534883" lon="13.357689956227746"><ele>1605.5</ele><time>2026-04-29T12:54:10Z</time></trkpt><trkpt lat="42.24157349416172" lon="13.358046059644968"><ele>1602.0</ele><time>2026-04-29T12:54:11Z</time></trkpt><trkpt lat="42.241428497840865" lon="13.358425001070366"><ele>1602.0</ele><time>2026-04-29T12:54:12Z</time></trkpt><trkpt lat="42.241284715930625" lon="13.35881570070888"><ele>1602.0</ele><time>2026-04-29T12:54:13Z</time></trkpt><trkpt lat="42.24113927679261" lon="13.359214494173667"><ele>1606.5</ele><time>2026-04-29T12:54:14Z</time></trkpt><trkpt lat="42.24099184615501" lon="13.359612223449163"><ele>1611.0</ele><time>2026-04-29T12:54:15Z</time></trkpt><trkpt lat="42.24084124293575" lon="13.360013941733294"><ele>1613.5</ele><time>2026-04-29T12:54:16Z</time></trkpt><trkpt lat="42.240689529741886" lon="13.360417974980459"><ele>1616.0</ele><time>2026-04-29T12:54:17Z</time></trkpt><trkpt lat="42.240542974438696" lon="13.360815419101874"><ele>1616.0</ele><time>2026-04-29T12:54:18Z</time></trkpt><trkpt lat="42.24039434733916" lon="13.36121266239582"><ele>1616.0</ele><time>2026-04-29T12:54:19Z</time></trkpt><trkpt lat="42.240244865396065" lon="13.361605447545381"><ele>1622.5</ele><time>2026-04-29T12:54:20Z</time></trkpt><trkpt lat="42.24009367709659" lon="13.361996519512074"><ele>1629.0</ele><time>2026-04-29T12:54:21Z</time></trkpt><trkpt lat="42.239943169623864" lon="13.362393574322674"><ele>1640.0</ele><time>2026-04-29T12:54:22Z</time></trkpt><trkpt lat="42.23979373309601" lon="13.36279103146656"><ele>1651.0</ele><time>2026-04-29T12:54:23Z</time></trkpt><trkpt lat="42.23964085467067" lon="13.363194757742235"><ele>1655.5</ele><time>2026-04-29T12:54:24Z</time></trkpt><trkpt lat="42.23948517240973" lon="13.363602042391056"><ele>1660.0</ele><time>2026-04-29T12:54:25Z</time></trkpt><trkpt lat="42.239330607483964" lon="13.364008940367347"><ele>1660.0</ele><time>2026-04-29T12:54:26Z</time></trkpt><trkpt lat="42.239177286584734" lon="13.36441513911529"><ele>1660.0</ele><time>2026-04-29T12:54:27Z</time></trkpt><trkpt lat="42.239026614115204" lon="13.364820686008681"><ele>1660.0</ele><time>2026-04-29T12:54:28Z</time></trkpt><trkpt lat="42.238873882176094" lon="13.365226905288717"><ele>1660.0</ele><time>2026-04-29T12:54:29Z</time></trkpt><trkpt lat="42.238721432526134" lon="13.365632925848807"><ele>1660.0</ele><time>2026-04-29T12:54:30Z</time></trkpt><trkpt lat="42.23857030227582" lon="13.366036334840022"><ele>1660.0</ele><time>2026-04-29T12:54:31Z</time></trkpt><trkpt lat="42.238421738053106" lon="13.366445908789059"><ele>1653.0</ele><time>2026-04-29T12:54:32Z</time></trkpt><trkpt lat="42.238279937065485" lon="13.366862308562942"><ele>1646.0</ele><time>2026-04-29T12:54:33Z</time></trkpt><trkpt lat="42.23815155013572" lon="13.367295264177718"><ele>1646.0</ele><time>2026-04-29T12:54:34Z</time></trkpt><trkpt lat="42.23804460384309" lon="13.367749048855874"><ele>1646.0</ele><time>2026-04-29T12:54:35Z</time></trkpt><trkpt lat="42.237959444894926" lon="13.368225069894176"><ele>1638.5</ele><time>2026-04-29T12:54:36Z</time></trkpt><trkpt lat="42.23788421711508" lon="13.36871546023969"><ele>1631.0</ele><time>2026-04-29T12:54:37Z</time></trkpt><trkpt lat="42.237804980568995" lon="13.369216869879958"><ele>1630.5</ele><time>2026-04-29T12:54:38Z</time></trkpt><trkpt lat="42.23772366386392" lon="13.369719292172219"><ele>1630.0</ele><time>2026-04-29T12:54:39Z</time></trkpt><trkpt lat="42.237639341580376" lon="13.370225735977275"><ele>1633.0</ele><time>2026-04-29T12:54:40Z</time></trkpt><trkpt lat="42.23755829071435" lon="13.370726000845682"><ele>1636.0</ele><time>2026-04-29T12:54:40.999Z</time></trkpt><trkpt lat="42.23747258847877" lon="13.371220751413794"><ele>1634.0</ele><time>2026-04-29T12:54:41.999Z</time></trkpt><trkpt lat="42.23739082085784" lon="13.371702596193028"><ele>1632.0</ele><time>2026-04-29T12:54:42.999Z</time></trkpt><trkpt lat="42.23731305426481" lon="13.372164028459839"><ele>1620.0</ele><time>2026-04-29T12:54:43.999Z</time></trkpt><trkpt lat="42.23723951458049" lon="13.37260138747164"><ele>1608.0</ele><time>2026-04-29T12:54:44.999Z</time></trkpt><trkpt lat="42.237170868322345" lon="13.373017851053737"><ele>1611.5</ele><time>2026-04-29T12:54:45.999Z</time></trkpt><trkpt lat="42.237104941093286" lon="13.373421301507006"><ele>1615.0</ele><time>2026-04-29T12:54:46.999Z</time></trkpt><trkpt lat="42.23703822313693" lon="13.37382815985455"><ele>1618.0</ele><time>2026-04-29T12:54:47.999Z</time></trkpt><trkpt lat="42.23697041972317" lon="13.374231461561982"><ele>1621.0</ele><time>2026-04-29T12:54:48.999Z</time></trkpt><trkpt lat="42.23689255636073" lon="13.374634052131164"><ele>1623.0</ele><time>2026-04-29T12:54:49.999Z</time></trkpt><trkpt lat="42.23679687291412" lon="13.3750381970897"><ele>1625.0</ele><time>2026-04-29T12:54:50.999Z</time></trkpt><trkpt lat="42.23667874990098" lon="13.375445749103603"><ele>1632.0</ele><time>2026-04-29T12:54:51.999Z</time></trkpt><trkpt lat="42.236537948947685" lon="13.375853746354252"><ele>1639.0</ele><time>2026-04-29T12:54:52.999Z</time></trkpt><trkpt lat="42.236381620842174" lon="13.376259900557306"><ele>1627.0</ele><time>2026-04-29T12:54:53.999Z</time></trkpt><trkpt lat="42.23621187667374" lon="13.376667386710368"><ele>1615.0</ele><time>2026-04-29T12:54:54.999Z</time></trkpt><trkpt lat="42.236037464016945" lon="13.377080750402925"><ele>1621.0</ele><time>2026-04-29T12:54:55.999Z</time></trkpt><trkpt lat="42.23586328237595" lon="13.377502534358852"><ele>1627.0</ele><time>2026-04-29T12:54:56.999Z</time></trkpt><trkpt lat="42.235688405595255" lon="13.377931042673495"><ele>1615.5</ele><time>2026-04-29T12:54:57.999Z</time></trkpt><trkpt lat="42.235509361172205" lon="13.37836309390657"><ele>1604.0</ele><time>2026-04-29T12:54:58.999Z</time></trkpt><trkpt lat="42.23532660032577" lon="13.378800215060577"><ele>1608.5</ele><time>2026-04-29T12:54:59.999Z</time></trkpt><trkpt lat="42.23514087914892" lon="13.379243634170207"><ele>1613.0</ele><time>2026-04-29T12:55:00.999Z</time></trkpt><trkpt lat="42.234954308749465" lon="13.379691463505697"><ele>1609.5</ele><time>2026-04-29T12:55:01.999Z</time></trkpt><trkpt lat="42.23477042731825" lon="13.380130108160971"><ele>1606.0</ele><time>2026-04-29T12:55:02.999Z</time></trkpt><trkpt lat="42.234601549490456" lon="13.380538941609968"><ele>1606.0</ele><time>2026-04-29T12:55:03.999Z</time></trkpt><trkpt lat="42.23444204866033" lon="13.380930673226052"><ele>1606.0</ele><time>2026-04-29T12:55:04.999Z</time></trkpt><trkpt lat="42.234287264168806" lon="13.381300125547673"><ele>1612.0</ele><time>2026-04-29T12:55:05.999Z</time></trkpt><trkpt lat="42.23413671132519" lon="13.381648865594563"><ele>1618.0</ele><time>2026-04-29T12:55:06.999Z</time></trkpt><trkpt lat="42.23399129885651" lon="13.381982023918072"><ele>1610.0</ele><time>2026-04-29T12:55:07.999Z</time></trkpt><trkpt lat="42.23385366514636" lon="13.382299661907696"><ele>1602.0</ele><time>2026-04-29T12:55:08.999Z</time></trkpt><trkpt lat="42.233720892189716" lon="13.382621474487527"><ele>1602.0</ele><time>2026-04-29T12:55:09.999Z</time></trkpt><trkpt lat="42.23360451323641" lon="13.382958502824446"><ele>1602.0</ele><time>2026-04-29T12:55:11Z</time></trkpt><trkpt lat="42.23349527228287" lon="13.383308972831172"><ele>1606.0</ele><time>2026-04-29T12:55:12Z</time></trkpt><trkpt lat="42.233397093563404" lon="13.38369003413295"><ele>1610.0</ele><time>2026-04-29T12:55:13Z</time></trkpt><trkpt lat="42.23331403250491" lon="13.384092782688445"><ele>1614.5</ele><time>2026-04-29T12:55:14Z</time></trkpt><trkpt lat="42.23324625258962" lon="13.384516191126586"><ele>1619.0</ele><time>2026-04-29T12:55:15Z</time></trkpt><trkpt lat="42.23319762666197" lon="13.384959561063194"><ele>1620.5</ele><time>2026-04-29T12:55:16Z</time></trkpt><trkpt lat="42.23316762353558" lon="13.385419693658545"><ele>1622.0</ele><time>2026-04-29T12:55:17Z</time></trkpt><trkpt lat="42.233156600730325" lon="13.385893025445808"><ele>1621.0</ele><time>2026-04-29T12:55:18Z</time></trkpt><trkpt lat="42.23316770275331" lon="13.386375608103455"><ele>1620.0</ele><time>2026-04-29T12:55:19Z</time></trkpt><trkpt lat="42.233202603444106" lon="13.386867965182793"><ele>1618.0</ele><time>2026-04-29T12:55:20Z</time></trkpt><trkpt lat="42.23325760456873" lon="13.3873714245878"><ele>1616.0</ele><time>2026-04-29T12:55:21Z</time></trkpt><trkpt lat="42.2333230667271" lon="13.38788465638973"><ele>1612.5</ele><time>2026-04-29T12:55:22Z</time></trkpt><trkpt lat="42.23338377714593" lon="13.388405556244305"><ele>1609.0</ele><time>2026-04-29T12:55:23Z</time></trkpt><trkpt lat="42.23343934454595" lon="13.388935465464527"><ele>1606.0</ele><time>2026-04-29T12:55:24Z</time></trkpt><trkpt lat="42.23349534306048" lon="13.389455249673878"><ele>1603.0</ele><time>2026-04-29T12:55:25Z</time></trkpt><trkpt lat="42.23354847641529" lon="13.38997003557204"><ele>1601.5</ele><time>2026-04-29T12:55:26Z</time></trkpt><trkpt lat="42.23360298115882" lon="13.39047983935921"><ele>1600.0</ele><time>2026-04-29T12:55:27Z</time></trkpt><trkpt lat="42.233656794564254" lon="13.390984790044284"><ele>1593.0</ele><time>2026-04-29T12:55:28Z</time></trkpt><trkpt lat="42.23370641251735" lon="13.391487436514922"><ele>1586.0</ele><time>2026-04-29T12:55:29Z</time></trkpt><trkpt lat="42.23375949315274" lon="13.391984292986452"><ele>1582.0</ele><time>2026-04-29T12:55:30Z</time></trkpt><trkpt lat="42.23381420763264" lon="13.392474116159795"><ele>1578.0</ele><time>2026-04-29T12:55:31Z</time></trkpt><trkpt lat="42.23386335662606" lon="13.392957499195479"><ele>1576.5</ele><time>2026-04-29T12:55:32Z</time></trkpt><trkpt lat="42.23391226466446" lon="13.393408762414808"><ele>1575.0</ele><time>2026-04-29T12:55:33Z</time></trkpt><trkpt lat="42.233960920675614" lon="13.393843315699405"><ele>1591.0</ele><time>2026-04-29T12:55:34Z</time></trkpt><trkpt lat="42.23401326424746" lon="13.394278312479752"><ele>1607.0</ele><time>2026-04-29T12:55:35Z</time></trkpt><trkpt lat="42.234047389793695" lon="13.394727406800794"><ele>1607.5</ele><time>2026-04-29T12:55:36Z</time></trkpt><trkpt lat="42.234049592663716" lon="13.395183631941663"><ele>1608.0</ele><time>2026-04-29T12:55:37Z</time></trkpt><trkpt lat="42.23401787406747" lon="13.395648008052671"><ele>1590.5</ele><time>2026-04-29T12:55:38Z</time></trkpt><trkpt lat="42.23395099528999" lon="13.396114907992752"><ele>1573.0</ele><time>2026-04-29T12:55:39Z</time></trkpt><trkpt lat="42.23384881219037" lon="13.39658243116098"><ele>1573.0</ele><time>2026-04-29T12:55:40Z</time></trkpt><trkpt lat="42.23372382206956" lon="13.397043185103406"><ele>1573.0</ele><time>2026-04-29T12:55:41Z</time></trkpt><trkpt lat="42.23359442210676" lon="13.39750553899167"><ele>1574.5</ele><time>2026-04-29T12:55:42Z</time></trkpt><trkpt lat="42.23347974089535" lon="13.39793902079164"><ele>1576.0</ele><time>2026-04-29T12:55:43Z</time></trkpt><trkpt lat="42.23337177881631" lon="13.39835335522774"><ele>1580.5</ele><time>2026-04-29T12:55:44Z</time></trkpt><trkpt lat="42.2332679944321" lon="13.398749014546759"><ele>1585.0</ele><time>2026-04-29T12:55:45Z</time></trkpt><trkpt lat="42.233169897090725" lon="13.399143546181474"><ele>1572.5</ele><time>2026-04-29T12:55:46Z</time></trkpt><trkpt lat="42.23308889271536" lon="13.399549891099033"><ele>1560.0</ele><time>2026-04-29T12:55:47Z</time></trkpt><trkpt lat="42.23304449881017" lon="13.399970710082295"><ele>1560.0</ele><time>2026-04-29T12:55:48Z</time></trkpt><trkpt lat="42.233038799541085" lon="13.400402727268935"><ele>1560.0</ele><time>2026-04-29T12:55:49Z</time></trkpt><trkpt lat="42.2330742520839" lon="13.400855922976502"><ele>1560.0</ele><time>2026-04-29T12:55:50Z</time></trkpt><trkpt lat="42.23311904115542" lon="13.401322614099705"><ele>1560.0</ele><time>2026-04-29T12:55:51Z</time></trkpt><trkpt lat="42.23316128298434" lon="13.401803930092086"><ele>1576.0</ele><time>2026-04-29T12:55:52Z</time></trkpt><trkpt lat="42.233199868307395" lon="13.402276052926648"><ele>1592.0</ele><time>2026-04-29T12:55:53Z</time></trkpt><trkpt lat="42.23323916201374" lon="13.402734536316268"><ele>1588.5</ele><time>2026-04-29T12:55:54Z</time></trkpt><trkpt lat="42.233277877561065" lon="13.403176085026827"><ele>1585.0</ele><time>2026-04-29T12:55:55Z</time></trkpt><trkpt lat="42.23331491456588" lon="13.40359678403688"><ele>1584.0</ele><time>2026-04-29T12:55:56Z</time></trkpt><trkpt lat="42.23335008409807" lon="13.404000340719469"><ele>1583.0</ele><time>2026-04-29T12:55:57Z</time></trkpt><trkpt lat="42.23338353860735" lon="13.404387856936946"><ele>1582.5</ele><time>2026-04-29T12:55:58Z</time></trkpt><trkpt lat="42.23341184062137" lon="13.404789092801277"><ele>1582.0</ele><time>2026-04-29T12:55:59Z</time></trkpt><trkpt lat="42.233423055259" lon="13.405211617542466"><ele>1582.0</ele><time>2026-04-29T12:56:00Z</time></trkpt><trkpt lat="42.23341654041273" lon="13.405646452621308"><ele>1582.0</ele><time>2026-04-29T12:56:01Z</time></trkpt><trkpt lat="42.23339498282189" lon="13.406093806600975"><ele>1584.0</ele><time>2026-04-29T12:56:02Z</time></trkpt><trkpt lat="42.23334989662876" lon="13.406544981050617"><ele>1586.0</ele><time>2026-04-29T12:56:03Z</time></trkpt><trkpt lat="42.23328341386438" lon="13.407003616600203"><ele>1588.0</ele><time>2026-04-29T12:56:04Z</time></trkpt><trkpt lat="42.23319521789592" lon="13.407463890126275"><ele>1590.0</ele><time>2026-04-29T12:56:05Z</time></trkpt><trkpt lat="42.233083755796095" lon="13.407923077618051"><ele>1575.5</ele><time>2026-04-29T12:56:06Z</time></trkpt><trkpt lat="42.23294868298608" lon="13.408379404195296"><ele>1561.0</ele><time>2026-04-29T12:56:07Z</time></trkpt><trkpt lat="42.232777034527416" lon="13.40882382430048"><ele>1564.0</ele><time>2026-04-29T12:56:08Z</time></trkpt><trkpt lat="42.23263330100997" lon="13.409235442117579"><ele>1567.0</ele><time>2026-04-29T12:56:09Z</time></trkpt><trkpt lat="42.23247918845554" lon="13.409618168199506"><ele>1570.0</ele><time>2026-04-29T12:56:10Z</time></trkpt><trkpt lat="42.23233326447403" lon="13.40999473974447"><ele>1573.0</ele><time>2026-04-29T12:56:11Z</time></trkpt><trkpt lat="42.232188849392756" lon="13.410373588092735"><ele>1566.5</ele><time>2026-04-29T12:56:12Z</time></trkpt><trkpt lat="42.23205207174008" lon="13.41072685905824"><ele>1560.0</ele><time>2026-04-29T12:56:13Z</time></trkpt><trkpt lat="42.23192282172916" lon="13.41105348107254"><ele>1562.0</ele><time>2026-04-29T12:56:14Z</time></trkpt><trkpt lat="42.23180058986774" lon="13.411368019842708"><ele>1564.0</ele><time>2026-04-29T12:56:15Z</time></trkpt><trkpt lat="42.23168843652818" lon="13.41167018742458"><ele>1564.0</ele><time>2026-04-29T12:56:16Z</time></trkpt><trkpt lat="42.23159419798522" lon="13.411980791405062"><ele>1564.0</ele><time>2026-04-29T12:56:17Z</time></trkpt><trkpt lat="42.23152128321927" lon="13.412327664478639"><ele>1560.0</ele><time>2026-04-29T12:56:18Z</time></trkpt><trkpt lat="42.2314727434141" lon="13.412703308969434"><ele>1556.0</ele><time>2026-04-29T12:56:19Z</time></trkpt><trkpt lat="42.231455400813815" lon="13.413098129629226"><ele>1556.0</ele><time>2026-04-29T12:56:20Z</time></trkpt><trkpt lat="42.23146903352133" lon="13.413507498500323"><ele>1556.0</ele><time>2026-04-29T12:56:21Z</time></trkpt><trkpt lat="42.231516064520605" lon="13.413908975885084"><ele>1558.0</ele><time>2026-04-29T12:56:22Z</time></trkpt><trkpt lat="42.23159268117517" lon="13.41429260128392"><ele>1560.0</ele><time>2026-04-29T12:56:23Z</time></trkpt><trkpt lat="42.23166782919664" lon="13.414656308778213"><ele>1560.0</ele><time>2026-04-29T12:56:24Z</time></trkpt><trkpt lat="42.23174356547369" lon="13.414994922307995"><ele>1560.0</ele><time>2026-04-29T12:56:25Z</time></trkpt><trkpt lat="42.23182221088679" lon="13.415313420394323"><ele>1558.0</ele><time>2026-04-29T12:56:26Z</time></trkpt><trkpt lat="42.23210607804684" lon="13.415531921858175"><ele>1556.0</ele><time>2026-04-29T12:56:27Z</time></trkpt><trkpt lat="42.23226322370998" lon="13.415797450197273"><ele>1557.0</ele><time>2026-04-29T12:56:28Z</time></trkpt><trkpt lat="42.232423151350126" lon="13.416069528438014"><ele>1558.0</ele><time>2026-04-29T12:56:29Z</time></trkpt><trkpt lat="42.232586932754366" lon="13.416332719702748"><ele>1558.0</ele><time>2026-04-29T12:56:30Z</time></trkpt><trkpt lat="42.23274791324588" lon="13.416602474477024"><ele>1558.0</ele><time>2026-04-29T12:56:31Z</time></trkpt><trkpt lat="42.232900795819596" lon="13.416861624511839"><ele>1558.0</ele><time>2026-04-29T12:56:32Z</time></trkpt><trkpt lat="42.23304971882462" lon="13.41711188094368"><ele>1558.0</ele><time>2026-04-29T12:56:33Z</time></trkpt><trkpt lat="42.23319523561496" lon="13.417351676095565"><ele>1556.3333333333335</ele><time>2026-04-29T12:56:34Z</time></trkpt><trkpt lat="42.233335206219465" lon="13.417578109262546"><ele>1554.6666666666665</ele><time>2026-04-29T12:56:35Z</time></trkpt><trkpt lat="42.2334650111089" lon="13.41778337617869"><ele>1553.0</ele><time>2026-04-29T12:56:36Z</time></trkpt><trkpt lat="42.233591432002996" lon="13.417973825173213"><ele>1552.3333333333333</ele><time>2026-04-29T12:56:37Z</time></trkpt><trkpt lat="42.233713230426936" lon="13.418157325128337"><ele>1551.6666666666665</ele><time>2026-04-29T12:56:38Z</time></trkpt><trkpt lat="42.233818720588204" lon="13.418350352272327"><ele>1551.0</ele><time>2026-04-29T12:56:39Z</time></trkpt><trkpt lat="42.23390778803531" lon="13.418551941449033"><ele>1549.6666666666665</ele><time>2026-04-29T12:56:40Z</time></trkpt><trkpt lat="42.23399054589591" lon="13.418751892817442"><ele>1548.3333333333333</ele><time>2026-04-29T12:56:41Z</time></trkpt><trkpt lat="42.23407214092706" lon="13.41894305899576"><ele>1547.0</ele><time>2026-04-29T12:56:42Z</time></trkpt><trkpt lat="42.23415136256205" lon="13.41912342042572"><ele>1545.6666666666665</ele><time>2026-04-29T12:56:43Z</time></trkpt><trkpt lat="42.23423063501864" lon="13.419306000445568"><ele>1544.3333333333335</ele><time>2026-04-29T12:56:43.999Z</time></trkpt><trkpt lat="42.23430573539298" lon="13.4194865098297"><ele>1543.0</ele><time>2026-04-29T12:56:44.999Z</time></trkpt><trkpt lat="42.23437522962997" lon="13.419658970191717"><ele>1542.75</ele><time>2026-04-29T12:56:45.999Z</time></trkpt><trkpt lat="42.23444102745567" lon="13.419825578775068"><ele>1542.5</ele><time>2026-04-29T12:56:46.999Z</time></trkpt><trkpt lat="42.234504216454326" lon="13.419983538542242"><ele>1542.25</ele><time>2026-04-29T12:56:47.999Z</time></trkpt><trkpt lat="42.234564393015944" lon="13.420117928057557"><ele>1542.0</ele><time>2026-04-29T12:56:48.999Z</time></trkpt><trkpt lat="42.234621926689904" lon="13.420213343373534"><ele>1542.0</ele><time>2026-04-29T12:56:49.999Z</time></trkpt><trkpt lat="42.23467949277387" lon="13.420276501032532"><ele>1542.0</ele><time>2026-04-29T12:56:50.999Z</time></trkpt><trkpt lat="42.23475125487778" lon="13.420287839179998"><ele>1542.0</ele><time>2026-04-29T12:56:51.999Z</time></trkpt><trkpt lat="42.2348191487345" lon="13.420250484459187"><ele>1542.0</ele><time>2026-04-29T12:56:52.999Z</time></trkpt><trkpt lat="42.234874522449005" lon="13.420161594110343"><ele>1542.0</ele><time>2026-04-29T12:56:53.999Z</time></trkpt><trkpt lat="42.23491567531313" lon="13.4200371223758"><ele>1542.0</ele><time>2026-04-29T12:56:54.999Z</time></trkpt><trkpt lat="42.23495946054668" lon="13.419888582335195"><ele>1542.25</ele><time>2026-04-29T12:56:55.999Z</time></trkpt><trkpt lat="42.23501636317676" lon="13.419767133478208"><ele>1542.5</ele><time>2026-04-29T12:56:56.999Z</time></trkpt><trkpt lat="42.23509280033128" lon="13.419645059728293"><ele>1542.75</ele><time>2026-04-29T12:56:57.999Z</time></trkpt><trkpt lat="42.23518637892494" lon="13.419518459020521"><ele>1543.0</ele><time>2026-04-29T12:56:58.999Z</time></trkpt><trkpt lat="42.235285481844755" lon="13.419412232626605"><ele>1543.0</ele><time>2026-04-29T12:56:59.999Z</time></trkpt><trkpt lat="42.23538330087513" lon="13.41932450559506"><ele>1543.0</ele><time>2026-04-29T12:57:00.999Z</time></trkpt><trkpt lat="42.23547793758169" lon="13.419244903366444"><ele>1543.0</ele><time>2026-04-29T12:57:01.999Z</time></trkpt><trkpt lat="42.2355797509287" lon="13.419161812690703"><ele>1543.0</ele><time>2026-04-29T12:57:02.999Z</time></trkpt><trkpt lat="42.23569425277245" lon="13.419062607292528"><ele>1543.0</ele><time>2026-04-29T12:57:03.999Z</time></trkpt><trkpt lat="42.23582311528364" lon="13.41895550507225"><ele>1543.0</ele><time>2026-04-29T12:57:04.999Z</time></trkpt><trkpt lat="42.23598454654286" lon="13.418823937018876"><ele>1543.0</ele><time>2026-04-29T12:57:05.999Z</time></trkpt><trkpt lat="42.236169208323126" lon="13.418668110605745"><ele>1543.0</ele><time>2026-04-29T12:57:06.999Z</time></trkpt><trkpt lat="42.23636302261629" lon="13.418502822007726"><ele>1543.0</ele><time>2026-04-29T12:57:07.999Z</time></trkpt><trkpt lat="42.23657980435756" lon="13.418307298757398"><ele>1543.5</ele><time>2026-04-29T12:57:08.999Z</time></trkpt><trkpt lat="42.23681488408391" lon="13.418094120580593"><ele>1544.0</ele><time>2026-04-29T12:57:09.999Z</time></trkpt><trkpt lat="42.23705635562834" lon="13.417872009053681"><ele>1544.0</ele><time>2026-04-29T12:57:10.999Z</time></trkpt><trkpt lat="42.23731811614488" lon="13.417637125729586"><ele>1544.0</ele><time>2026-04-29T12:57:11.999Z</time></trkpt><trkpt lat="42.23759183602029" lon="13.417417003128637"><ele>1544.0</ele><time>2026-04-29T12:57:12.999Z</time></trkpt><trkpt lat="42.23787557186803" lon="13.417177641896462"><ele>1544.0</ele><time>2026-04-29T12:57:13.999Z</time></trkpt><trkpt lat="42.238162639843935" lon="13.41693977906038"><ele>1549.5</ele><time>2026-04-29T12:57:14.999Z</time></trkpt><trkpt lat="42.23845068421262" lon="13.416698471736284"><ele>1555.0</ele><time>2026-04-29T12:57:15.999Z</time></trkpt><trkpt lat="42.23874921829456" lon="13.41645332627852"><ele>1559.5</ele><time>2026-04-29T12:57:17Z</time></trkpt><trkpt lat="42.23905443801487" lon="13.416201936365546"><ele>1564.0</ele><time>2026-04-29T12:57:18Z</time></trkpt><trkpt lat="42.2393638806181" lon="13.415946631230435"><ele>1564.0</ele><time>2026-04-29T12:57:19Z</time></trkpt><trkpt lat="42.239652698196295" lon="13.415716578960996"><ele>1564.0</ele><time>2026-04-29T12:57:20Z</time></trkpt><trkpt lat="42.23992767787779" lon="13.415493494660502"><ele>1563.5</ele><time>2026-04-29T12:57:21Z</time></trkpt><trkpt lat="42.240208508597505" lon="13.415261211760594"><ele>1563.0</ele><time>2026-04-29T12:57:22Z</time></trkpt><trkpt lat="42.24049307122255" lon="13.415023187087982"><ele>1563.5</ele><time>2026-04-29T12:57:23Z</time></trkpt><trkpt lat="42.240789852130284" lon="13.414779029612854"><ele>1564.0</ele><time>2026-04-29T12:57:24Z</time></trkpt><trkpt lat="42.24109622410261" lon="13.414531770562913"><ele>1562.5</ele><time>2026-04-29T12:57:25Z</time></trkpt><trkpt lat="42.241395858808616" lon="13.414283141105866"><ele>1561.0</ele><time>2026-04-29T12:57:26Z</time></trkpt><trkpt lat="42.24167419699809" lon="13.41405696399623"><ele>1561.0</ele><time>2026-04-29T12:57:27Z</time></trkpt><trkpt lat="42.241940302354266" lon="13.413841857335107"><ele>1561.0</ele><time>2026-04-29T12:57:28Z</time></trkpt><trkpt lat="42.2421943114535" lon="13.413634221128907"><ele>1556.5</ele><time>2026-04-29T12:57:29Z</time></trkpt><trkpt lat="42.24243484447521" lon="13.413435122254551"><ele>1552.0</ele><time>2026-04-29T12:57:30Z</time></trkpt><trkpt lat="42.242661788776005" lon="13.413235112017054"><ele>1552.0</ele><time>2026-04-29T12:57:31Z</time></trkpt><trkpt lat="42.242870120494466" lon="13.4130085926238"><ele>1552.0</ele><time>2026-04-29T12:57:32Z</time></trkpt><trkpt lat="42.24308101908166" lon="13.41273144621805"><ele>1551.5</ele><time>2026-04-29T12:57:33Z</time></trkpt><trkpt lat="42.2432916723724" lon="13.412418581740567"><ele>1551.0</ele><time>2026-04-29T12:57:34Z</time></trkpt><trkpt lat="42.24350124445496" lon="13.412111621463401"><ele>1545.5</ele><time>2026-04-29T12:57:35Z</time></trkpt><trkpt lat="42.24369788606342" lon="13.411832121445366"><ele>1540.0</ele><time>2026-04-29T12:57:36Z</time></trkpt><trkpt lat="42.24388173601636" lon="13.411562111616607"><ele>1538.5</ele><time>2026-04-29T12:57:37Z</time></trkpt><trkpt lat="42.24405307881629" lon="13.411300724693632"><ele>1537.0</ele><time>2026-04-29T12:57:38Z</time></trkpt><trkpt lat="42.24421913133821" lon="13.411052580074392"><ele>1537.0</ele><time>2026-04-29T12:57:39Z</time></trkpt><trkpt lat="42.244383645370185" lon="13.410812464585794"><ele>1537.0</ele><time>2026-04-29T12:57:40Z</time></trkpt><trkpt lat="42.24453452167989" lon="13.410589245051987"><ele>1539.0</ele><time>2026-04-29T12:57:41Z</time></trkpt><trkpt lat="42.244678383272124" lon="13.410345096950005"><ele>1541.0</ele><time>2026-04-29T12:57:42Z</time></trkpt><trkpt lat="42.244808957817035" lon="13.41005218835927"><ele>1541.0</ele><time>2026-04-29T12:57:43Z</time></trkpt><trkpt lat="42.24492746049302" lon="13.409719088834944"><ele>1541.0</ele><time>2026-04-29T12:57:44Z</time></trkpt><trkpt lat="42.24503379723812" lon="13.409399923883978"><ele>1532.5</ele><time>2026-04-29T12:57:45Z</time></trkpt><trkpt lat="42.245124893222254" lon="13.409102523591217"><ele>1524.0</ele><time>2026-04-29T12:57:46Z</time></trkpt><trkpt lat="42.24522086965933" lon="13.40881788653279"><ele>1520.0</ele><time>2026-04-29T12:57:47Z</time></trkpt><trkpt lat="42.245306229492826" lon="13.408545363682622"><ele>1516.0</ele><time>2026-04-29T12:57:48Z</time></trkpt><trkpt lat="42.245386028686625" lon="13.408280900947739"><ele>1512.0</ele><time>2026-04-29T12:57:49Z</time></trkpt><trkpt lat="42.24546426780196" lon="13.408033553579054"><ele>1513.3333333333333</ele><time>2026-04-29T12:57:50Z</time></trkpt><trkpt lat="42.24554369876259" lon="13.407794309620398"><ele>1514.6666666666665</ele><time>2026-04-29T12:57:51Z</time></trkpt><trkpt lat="42.245643557131345" lon="13.40758536782913"><ele>1516.0</ele><time>2026-04-29T12:57:52Z</time></trkpt><trkpt lat="42.24577051265162" lon="13.40740333698806"><ele>1516.0</ele><time>2026-04-29T12:57:53Z</time></trkpt><trkpt lat="42.245920554090475" lon="13.407229588921918"><ele>1516.0</ele><time>2026-04-29T12:57:54Z</time></trkpt><trkpt lat="42.24608204296986" lon="13.407050688544548"><ele>1516.0</ele><time>2026-04-29T12:57:55Z</time></trkpt><trkpt lat="42.246247079110226" lon="13.406861857628567"><ele>1515.3333333333333</ele><time>2026-04-29T12:57:56Z</time></trkpt><trkpt lat="42.24641322916328" lon="13.406669317760018"><ele>1514.6666666666667</ele><time>2026-04-29T12:57:57Z</time></trkpt><trkpt lat="42.24657530892796" lon="13.406489980669786"><ele>1514.0</ele><time>2026-04-29T12:57:58Z</time></trkpt><trkpt lat="42.246745127306845" lon="13.406322140881786"><ele>1512.3333333333335</ele><time>2026-04-29T12:57:59Z</time></trkpt><trkpt lat="42.24692466181958" lon="13.406162944411495"><ele>1510.6666666666667</ele><time>2026-04-29T12:58:00Z</time></trkpt><trkpt lat="42.24711108401983" lon="13.406000578358642"><ele>1509.0</ele><time>2026-04-29T12:58:01Z</time></trkpt><trkpt lat="42.247299008284045" lon="13.405825776790907"><ele>1509.0</ele><time>2026-04-29T12:58:02Z</time></trkpt><trkpt lat="42.24747078772486" lon="13.405642707977345"><ele>1509.0</ele><time>2026-04-29T12:58:03Z</time></trkpt><trkpt lat="42.24764273897845" lon="13.405487207111065"><ele>1509.0</ele><time>2026-04-29T12:58:04Z</time></trkpt><trkpt lat="42.247788162686746" lon="13.405304124951526"><ele>1510.6666666666667</ele><time>2026-04-29T12:58:05Z</time></trkpt><trkpt lat="42.247934173560424" lon="13.405133005116179"><ele>1512.3333333333335</ele><time>2026-04-29T12:58:06Z</time></trkpt><trkpt lat="42.24806023896945" lon="13.404950473876278"><ele>1514.0</ele><time>2026-04-29T12:58:07Z</time></trkpt><trkpt lat="42.24817577085929" lon="13.404766535212163"><ele>1506.0</ele><time>2026-04-29T12:58:08Z</time></trkpt><trkpt lat="42.24827563920757" lon="13.404579271837083"><ele>1498.0</ele><time>2026-04-29T12:58:09Z</time></trkpt><trkpt lat="42.248391500371255" lon="13.404383344046046"><ele>1490.0</ele><time>2026-04-29T12:58:10Z</time></trkpt><trkpt lat="42.24853428341957" lon="13.404164692435204"><ele>1490.0</ele><time>2026-04-29T12:58:11Z</time></trkpt><trkpt lat="42.248697495762194" lon="13.403934079246966"><ele>1490.0</ele><time>2026-04-29T12:58:12Z</time></trkpt><trkpt lat="42.24887428316501" lon="13.403690750516365"><ele>1491.0</ele><time>2026-04-29T12:58:13Z</time></trkpt><trkpt lat="42.24906528570797" lon="13.403420966882981"><ele>1492.0</ele><time>2026-04-29T12:58:14Z</time></trkpt><trkpt lat="42.249258409725954" lon="13.403127858395855"><ele>1477.5</ele><time>2026-04-29T12:58:15Z</time></trkpt><trkpt lat="42.249441073139714" lon="13.402856016984883"><ele>1463.0</ele><time>2026-04-29T12:58:16Z</time></trkpt><trkpt lat="42.24961998302615" lon="13.402603678400022"><ele>1463.0</ele><time>2026-04-29T12:58:17Z</time></trkpt><trkpt lat="42.24978792431848" lon="13.40236227367316"><ele>1463.0</ele><time>2026-04-29T12:58:18Z</time></trkpt><trkpt lat="42.24995523543955" lon="13.402135257442389"><ele>1465.0</ele><time>2026-04-29T12:58:19Z</time></trkpt><trkpt lat="42.250125431983285" lon="13.40191287410897"><ele>1467.0</ele><time>2026-04-29T12:58:20Z</time></trkpt><trkpt lat="42.25029468833037" lon="13.401703337310428"><ele>1467.0</ele><time>2026-04-29T12:58:21Z</time></trkpt><trkpt lat="42.25046102203604" lon="13.401503058097394"><ele>1467.0</ele><time>2026-04-29T12:58:22Z</time></trkpt><trkpt lat="42.250630579307746" lon="13.401285630891119"><ele>1467.0</ele><time>2026-04-29T12:58:23Z</time></trkpt><trkpt lat="42.250802506370874" lon="13.401049151091009"><ele>1467.0</ele><time>2026-04-29T12:58:24Z</time></trkpt><trkpt lat="42.25097824630143" lon="13.400796716923354"><ele>1467.0</ele><time>2026-04-29T12:58:25Z</time></trkpt><trkpt lat="42.2511498990409" lon="13.40055483052406"><ele>1467.0</ele><time>2026-04-29T12:58:26Z</time></trkpt><trkpt lat="42.25130866974386" lon="13.400320088185214"><ele>1469.5</ele><time>2026-04-29T12:58:27Z</time></trkpt><trkpt lat="42.25146155516912" lon="13.400070163261994"><ele>1472.0</ele><time>2026-04-29T12:58:28Z</time></trkpt><trkpt lat="42.25162341923734" lon="13.399795388050222"><ele>1460.0</ele><time>2026-04-29T12:58:29Z</time></trkpt><trkpt lat="42.25179996432231" lon="13.399513937065638"><ele>1448.0</ele><time>2026-04-29T12:58:30Z</time></trkpt><trkpt lat="42.25198143210374" lon="13.399214661091825"><ele>1448.0</ele><time>2026-04-29T12:58:31Z</time></trkpt><trkpt lat="42.25215303871695" lon="13.398882087676485"><ele>1448.0</ele><time>2026-04-29T12:58:32Z</time></trkpt><trkpt lat="42.252303071852985" lon="13.398542081810744"><ele>1443.5</ele><time>2026-04-29T12:58:33Z</time></trkpt><trkpt lat="42.25245427024224" lon="13.398228944616221"><ele>1439.0</ele><time>2026-04-29T12:58:34Z</time></trkpt><trkpt lat="42.25262332827474" lon="13.397917770587782"><ele>1439.0</ele><time>2026-04-29T12:58:35Z</time></trkpt><trkpt lat="42.2527999742112" lon="13.397615134730605"><ele>1439.0</ele><time>2026-04-29T12:58:36Z</time></trkpt><trkpt lat="42.252989398775796" lon="13.397305627909777"><ele>1442.5</ele><time>2026-04-29T12:58:37Z</time></trkpt><trkpt lat="42.2531918903728" lon="13.396998850332325"><ele>1446.0</ele><time>2026-04-29T12:58:38Z</time></trkpt><trkpt lat="42.2533798557864" lon="13.396716127926641"><ele>1446.0</ele><time>2026-04-29T12:58:39Z</time></trkpt><trkpt lat="42.253556390122554" lon="13.396456070342694"><ele>1446.0</ele><time>2026-04-29T12:58:40Z</time></trkpt><trkpt lat="42.253730468293604" lon="13.396213203507646"><ele>1447.5</ele><time>2026-04-29T12:58:41Z</time></trkpt><trkpt lat="42.253899245235566" lon="13.395981015528346"><ele>1449.0</ele><time>2026-04-29T12:58:42Z</time></trkpt><trkpt lat="42.254070894942046" lon="13.395739121892708"><ele>1437.0</ele><time>2026-04-29T12:58:43Z</time></trkpt><trkpt lat="42.25424018002756" lon="13.395458377261514"><ele>1425.0</ele><time>2026-04-29T12:58:44Z</time></trkpt><trkpt lat="42.25439039668358" lon="13.39513511080014"><ele>1425.0</ele><time>2026-04-29T12:58:45Z</time></trkpt><trkpt lat="42.254528172072995" lon="13.394820144059286"><ele>1425.0</ele><time>2026-04-29T12:58:45.999Z</time></trkpt><trkpt lat="42.25466801279618" lon="13.39453034772506"><ele>1428.0</ele><time>2026-04-29T12:58:46.999Z</time></trkpt><trkpt lat="42.25481312019467" lon="13.394263535079052"><ele>1431.0</ele><time>2026-04-29T12:58:47.999Z</time></trkpt><trkpt lat="42.25496306803736" lon="13.394011927418852"><ele>1424.0</ele><time>2026-04-29T12:58:48.999Z</time></trkpt><trkpt lat="42.25510614976178" lon="13.393788074807748"><ele>1417.0</ele><time>2026-04-29T12:58:49.999Z</time></trkpt><trkpt lat="42.2552468368787" lon="13.393587670633382"><ele>1410.0</ele><time>2026-04-29T12:58:50.999Z</time></trkpt><trkpt lat="42.2553692915634" lon="13.393376574766155"><ele>1410.0</ele><time>2026-04-29T12:58:51.999Z</time></trkpt><trkpt lat="42.25547589684195" lon="13.393166640249447"><ele>1410.0</ele><time>2026-04-29T12:58:52.999Z</time></trkpt><trkpt lat="42.25556551280527" lon="13.392971009895524"><ele>1410.0</ele><time>2026-04-29T12:58:53.999Z</time></trkpt><trkpt lat="42.25567355762923" lon="13.392810034733941"><ele>1411.6666666666667</ele><time>2026-04-29T12:58:54.999Z</time></trkpt><trkpt lat="42.255796751629084" lon="13.3926786953848"><ele>1413.3333333333335</ele><time>2026-04-29T12:58:55.999Z</time></trkpt><trkpt lat="42.25593872102372" lon="13.392563716871674"><ele>1415.0</ele><time>2026-04-29T12:58:56.999Z</time></trkpt><trkpt lat="42.256103726036045" lon="13.392482152646124"><ele>1415.0</ele><time>2026-04-29T12:58:57.999Z</time></trkpt><trkpt lat="42.25625939687983" lon="13.39239715317737"><ele>1415.0</ele><time>2026-04-29T12:58:58.999Z</time></trkpt><trkpt lat="42.25639660354476" lon="13.392284107506981"><ele>1415.0</ele><time>2026-04-29T12:58:59.999Z</time></trkpt><trkpt lat="42.256520217801324" lon="13.392155533448928"><ele>1413.4</ele><time>2026-04-29T12:59:00.999Z</time></trkpt><trkpt lat="42.25663433209374" lon="13.3920415714426"><ele>1411.8</ele><time>2026-04-29T12:59:01.999Z</time></trkpt><trkpt lat="42.25673467789015" lon="13.391945960342472"><ele>1410.1999999999998</ele><time>2026-04-29T12:59:02.999Z</time></trkpt><trkpt lat="42.25681915256598" lon="13.391880490189996"><ele>1408.6</ele><time>2026-04-29T12:59:03.999Z</time></trkpt><trkpt lat="42.25688804514834" lon="13.391858756701662"><ele>1407.0</ele><time>2026-04-29T12:59:04.999Z</time></trkpt><trkpt lat="42.256957398615015" lon="13.39188218305672"><ele>1407.0</ele><time>2026-04-29T12:59:05.999Z</time></trkpt><trkpt lat="42.25701077067821" lon="13.391958877468653"><ele>1407.0</ele><time>2026-04-29T12:59:06.999Z</time></trkpt><trkpt lat="42.25704158226787" lon="13.39206836062611"><ele>1407.0</ele><time>2026-04-29T12:59:07.999Z</time></trkpt><trkpt lat="42.25708215739998" lon="13.392192889541276"><ele>1407.0</ele><time>2026-04-29T12:59:08.999Z</time></trkpt><trkpt lat="42.257153819068186" lon="13.392315740758576"><ele>1407.0</ele><time>2026-04-29T12:59:09.999Z</time></trkpt><trkpt lat="42.25723894351726" lon="13.392445071847833"><ele>1406.1999999999998</ele><time>2026-04-29T12:59:10.999Z</time></trkpt><trkpt lat="42.257308759371185" lon="13.392571723882323"><ele>1405.4</ele><time>2026-04-29T12:59:11.999Z</time></trkpt><trkpt lat="42.257359277764294" lon="13.392699530025185"><ele>1404.6</ele><time>2026-04-29T12:59:12.999Z</time></trkpt><trkpt lat="42.25742865328816" lon="13.392816017117207"><ele>1403.8000000000002</ele><time>2026-04-29T12:59:13.999Z</time></trkpt><trkpt lat="42.25751572506385" lon="13.392889241602017"><ele>1403.0</ele><time>2026-04-29T12:59:14.999Z</time></trkpt><trkpt lat="42.25762060064718" lon="13.392918736493"><ele>1403.0</ele><time>2026-04-29T12:59:15.999Z</time></trkpt><trkpt lat="42.25773440469071" lon="13.392893585286636"><ele>1403.0</ele><time>2026-04-29T12:59:16.999Z</time></trkpt><trkpt lat="42.25783811391282" lon="13.392803246519092"><ele>1403.0</ele><time>2026-04-29T12:59:17.999Z</time></trkpt><trkpt lat="42.257919933010186" lon="13.392659870335567"><ele>1403.0</ele><time>2026-04-29T12:59:18.999Z</time></trkpt><trkpt lat="42.25799426680799" lon="13.392502595544704"><ele>1403.0</ele><time>2026-04-29T12:59:19.999Z</time></trkpt><trkpt lat="42.25806100781542" lon="13.392360400372498"><ele>1403.0</ele><time>2026-04-29T12:59:20.999Z</time></trkpt><trkpt lat="42.25812482294927" lon="13.39222400156464"><ele>1403.0</ele><time>2026-04-29T12:59:21.999Z</time></trkpt><trkpt lat="42.25818193192742" lon="13.392087057824794"><ele>1403.0</ele><time>2026-04-29T12:59:23Z</time></trkpt><trkpt lat="42.25823673585448" lon="13.391963868238129"><ele>1400.8000000000002</ele><time>2026-04-29T12:59:24Z</time></trkpt><trkpt lat="42.25829381825596" lon="13.391850299376546"><ele>1398.6</ele><time>2026-04-29T12:59:25Z</time></trkpt><trkpt lat="42.2583620648986" lon="13.391761471703724"><ele>1396.4</ele><time>2026-04-29T12:59:26Z</time></trkpt><trkpt lat="42.25843342966728" lon="13.391679892677397"><ele>1394.1999999999998</ele><time>2026-04-29T12:59:27Z</time></trkpt><trkpt lat="42.258490547348075" lon="13.391586679326723"><ele>1392.0</ele><time>2026-04-29T12:59:28Z</time></trkpt><trkpt lat="42.258552459957365" lon="13.391510324401446"><ele>1392.0</ele><time>2026-04-29T12:59:29Z</time></trkpt><trkpt lat="42.25862571705045" lon="13.391448475298981"><ele>1392.0</ele><time>2026-04-29T12:59:30Z</time></trkpt><trkpt lat="42.25871496965269" lon="13.391413645745939"><ele>1392.0</ele><time>2026-04-29T12:59:31Z</time></trkpt><trkpt lat="42.25880108981087" lon="13.391351952565056"><ele>1392.0</ele><time>2026-04-29T12:59:32Z</time></trkpt><trkpt lat="42.25889333590184" lon="13.391334017739437"><ele>1392.0</ele><time>2026-04-29T12:59:33Z</time></trkpt><trkpt lat="42.25898049906234" lon="13.391338147151624"><ele>1392.5</ele><time>2026-04-29T12:59:34Z</time></trkpt><trkpt lat="42.2590577125191" lon="13.391354990521052"><ele>1393.0</ele><time>2026-04-29T12:59:35Z</time></trkpt><trkpt lat="42.25913205853148" lon="13.391392429908015"><ele>1393.5</ele><time>2026-04-29T12:59:36Z</time></trkpt><trkpt lat="42.2592063428501" lon="13.391415985244965"><ele>1394.0</ele><time>2026-04-29T12:59:37Z</time></trkpt><trkpt lat="42.25927886445131" lon="13.391434838288804"><ele>1394.5</ele><time>2026-04-29T12:59:38Z</time></trkpt><trkpt lat="42.25935537103613" lon="13.391453512962183"><ele>1395.0</ele><time>2026-04-29T12:59:39Z</time></trkpt><trkpt lat="42.25942531296034" lon="13.391477628639262"><ele>1395.0</ele><time>2026-04-29T12:59:40Z</time></trkpt><trkpt lat="42.25950515383569" lon="13.391582905278515"><ele>1395.0</ele><time>2026-04-29T12:59:42Z</time></trkpt><trkpt lat="42.259518987682995" lon="13.391680981678181"><ele>1395.0</ele><time>2026-04-29T12:59:43Z</time></trkpt><trkpt lat="42.259523010259095" lon="13.391833211170812"><ele>1395.0</ele><time>2026-04-29T12:59:44Z</time></trkpt><trkpt lat="42.25953228758591" lon="13.391993512345374"><ele>1395.0</ele><time>2026-04-29T12:59:45Z</time></trkpt><trkpt lat="42.25953842790774" lon="13.392166613645298"><ele>1396.75</ele><time>2026-04-29T12:59:46Z</time></trkpt><trkpt lat="42.25955949385021" lon="13.39235665382519"><ele>1398.5</ele><time>2026-04-29T12:59:47Z</time></trkpt><trkpt lat="42.25955427593942" lon="13.392556944560017"><ele>1400.25</ele><time>2026-04-29T12:59:48Z</time></trkpt><trkpt lat="42.259556349277894" lon="13.392755226537144"><ele>1402.0</ele><time>2026-04-29T12:59:49Z</time></trkpt><trkpt lat="42.25956050922011" lon="13.3929454365817"><ele>1402.75</ele><time>2026-04-29T12:59:50Z</time></trkpt><trkpt lat="42.25954470090177" lon="13.393112943526393"><ele>1403.5</ele><time>2026-04-29T12:59:51Z</time></trkpt><trkpt lat="42.25955618206288" lon="13.393294964211963"><ele>1404.25</ele><time>2026-04-29T12:59:52Z</time></trkpt><trkpt lat="42.259551666109374" lon="13.393463926307746"><ele>1405.0</ele><time>2026-04-29T12:59:53Z</time></trkpt><trkpt lat="42.25954713467626" lon="13.393632842795832"><ele>1405.0</ele><time>2026-04-29T12:59:54Z</time></trkpt><trkpt lat="42.25954870035324" lon="13.393792676998755"><ele>1405.0</ele><time>2026-04-29T12:59:55Z</time></trkpt><trkpt lat="42.2595391543348" lon="13.393945257847115"><ele>1405.0</ele><time>2026-04-29T12:59:56Z</time></trkpt><trkpt lat="42.25954422958033" lon="13.394093294403943"><ele>1405.0</ele><time>2026-04-29T12:59:57Z</time></trkpt><trkpt lat="42.259526980464884" lon="13.394235659787595"><ele>1405.0</ele><time>2026-04-29T12:59:58Z</time></trkpt><trkpt lat="42.25954288307918" lon="13.394375734508188"><ele>1403.8</ele><time>2026-04-29T12:59:59Z</time></trkpt><trkpt lat="42.25956927940146" lon="13.394516814200411"><ele>1402.6</ele><time>2026-04-29T13:00:00Z</time></trkpt><trkpt lat="42.2596154429544" lon="13.394640145448172"><ele>1401.4</ele><time>2026-04-29T13:00:01Z</time></trkpt><trkpt lat="42.259698401222465" lon="13.394738546282182"><ele>1400.2</ele><time>2026-04-29T13:00:02Z</time></trkpt><trkpt lat="42.25979179943856" lon="13.394813154104162"><ele>1399.0</ele><time>2026-04-29T13:00:03Z</time></trkpt><trkpt lat="42.25989885196624" lon="13.394869771819222"><ele>1394.2</ele><time>2026-04-29T13:00:04Z</time></trkpt><trkpt lat="42.260011716754306" lon="13.394910068411633"><ele>1389.4</ele><time>2026-04-29T13:00:05Z</time></trkpt><trkpt lat="42.260125270650455" lon="13.39492897493269"><ele>1384.6</ele><time>2026-04-29T13:00:06Z</time></trkpt><trkpt lat="42.26022973724286" lon="13.394933015387679"><ele>1379.8</ele><time>2026-04-29T13:00:07Z</time></trkpt><trkpt lat="42.26032294050047" lon="13.394852954379743"><ele>1375.0</ele><time>2026-04-29T13:00:08Z</time></trkpt><trkpt lat="42.26039723273672" lon="13.39474470433936"><ele>1374.3333333333333</ele><time>2026-04-29T13:00:09Z</time></trkpt><trkpt lat="42.26046203089885" lon="13.394583373398415"><ele>1373.6666666666667</ele><time>2026-04-29T13:00:10Z</time></trkpt><trkpt lat="42.26052167473448" lon="13.394376288011443"><ele>1373.0</ele><time>2026-04-29T13:00:11Z</time></trkpt><trkpt lat="42.26057584115569" lon="13.394156103537131"><ele>1372.3333333333335</ele><time>2026-04-29T13:00:12Z</time></trkpt><trkpt lat="42.26063313523089" lon="13.393912752614119"><ele>1371.6666666666667</ele><time>2026-04-29T13:00:13Z</time></trkpt><trkpt lat="42.26069866677948" lon="13.393665512028484"><ele>1371.0</ele><time>2026-04-29T13:00:14Z</time></trkpt><trkpt lat="42.26076752706229" lon="13.393445953660375"><ele>1371.0</ele><time>2026-04-29T13:00:15Z</time></trkpt><trkpt lat="42.26082129665853" lon="13.393231001536737"><ele>1371.0</ele><time>2026-04-29T13:00:16Z</time></trkpt><trkpt lat="42.26085170680647" lon="13.393023285856733"><ele>1371.0</ele><time>2026-04-29T13:00:17Z</time></trkpt><trkpt lat="42.260878895590935" lon="13.392833370979002"><ele>1369.0</ele><time>2026-04-29T13:00:18Z</time></trkpt><trkpt lat="42.26092406177409" lon="13.392684035190285"><ele>1367.0</ele><time>2026-04-29T13:00:19Z</time></trkpt><trkpt lat="42.26100867302626" lon="13.392570441595426"><ele>1365.0</ele><time>2026-04-29T13:00:20Z</time></trkpt><trkpt lat="42.261115882769445" lon="13.392493899756747"><ele>1363.0</ele><time>2026-04-29T13:00:21Z</time></trkpt><trkpt lat="42.2612436669639" lon="13.39240401160368"><ele>1363.0</ele><time>2026-04-29T13:00:22Z</time></trkpt><trkpt lat="42.261362692613844" lon="13.392310507683696"><ele>1363.0</ele><time>2026-04-29T13:00:23Z</time></trkpt><trkpt lat="42.26146104040128" lon="13.392192512375825"><ele>1363.0</ele><time>2026-04-29T13:00:24Z</time></trkpt><trkpt lat="42.26151452195814" lon="13.392038906870164"><ele>1363.0</ele><time>2026-04-29T13:00:25Z</time></trkpt><trkpt lat="42.261552648931854" lon="13.39188334672504"><ele>1363.5</ele><time>2026-04-29T13:00:26Z</time></trkpt><trkpt lat="42.26154983339536" lon="13.391717976126708"><ele>1364.0</ele><time>2026-04-29T13:00:27Z</time></trkpt><trkpt lat="42.2615135374369" lon="13.39155288233265"><ele>1364.5</ele><time>2026-04-29T13:00:28Z</time></trkpt><trkpt lat="42.26145621156885" lon="13.391396488253937"><ele>1365.0</ele><time>2026-04-29T13:00:29Z</time></trkpt><trkpt lat="42.261396906996836" lon="13.39124549369472"><ele>1363.4</ele><time>2026-04-29T13:00:30Z</time></trkpt><trkpt lat="42.26135060879715" lon="13.391107042843876"><ele>1361.8</ele><time>2026-04-29T13:00:31Z</time></trkpt><trkpt lat="42.26132119256877" lon="13.390972060015072"><ele>1360.1999999999998</ele><time>2026-04-29T13:00:32Z</time></trkpt><trkpt lat="42.26133441147056" lon="13.390834610831321"><ele>1358.6</ele><time>2026-04-29T13:00:33Z</time></trkpt><trkpt lat="42.26139498772893" lon="13.390714652042004"><ele>1357.0</ele><time>2026-04-29T13:00:34Z</time></trkpt><trkpt lat="42.26150130239886" lon="13.39062252087909"><ele>1357.0</ele><time>2026-04-29T13:00:35Z</time></trkpt><trkpt lat="42.26163893510006" lon="13.390541837543617"><ele>1357.0</ele><time>2026-04-29T13:00:36Z</time></trkpt><trkpt lat="42.26178430213616" lon="13.390440368280055"><ele>1357.0</ele><time>2026-04-29T13:00:37Z</time></trkpt><trkpt lat="42.26191891114363" lon="13.39031066806447"><ele>1352.3333333333333</ele><time>2026-04-29T13:00:38Z</time></trkpt><trkpt lat="42.26204029693965" lon="13.390170402814132"><ele>1347.6666666666667</ele><time>2026-04-29T13:00:39Z</time></trkpt><trkpt lat="42.26214736464831" lon="13.390017101798316"><ele>1343.0</ele><time>2026-04-29T13:00:40Z</time></trkpt><trkpt lat="42.26223665310785" lon="13.389840789363506"><ele>1343.6666666666667</ele><time>2026-04-29T13:00:41Z</time></trkpt><trkpt lat="42.262309378788636" lon="13.389655217195063"><ele>1344.3333333333333</ele><time>2026-04-29T13:00:42Z</time></trkpt><trkpt lat="42.26236630792275" lon="13.389469603378043"><ele>1345.0</ele><time>2026-04-29T13:00:43Z</time></trkpt><trkpt lat="42.2624011240519" lon="13.389278421795705"><ele>1345.0</ele><time>2026-04-29T13:00:44Z</time></trkpt><trkpt lat="42.262401400139495" lon="13.389086801166883"><ele>1345.0</ele><time>2026-04-29T13:00:45Z</time></trkpt><trkpt lat="42.26240244547094" lon="13.388901022925815"><ele>1345.0</ele><time>2026-04-29T13:00:46Z</time></trkpt><trkpt lat="42.26244734960211" lon="13.38872982304699"><ele>1345.0</ele><time>2026-04-29T13:00:47Z</time></trkpt><trkpt lat="42.26253358286152" lon="13.388550024399"><ele>1341.0</ele><time>2026-04-29T13:00:48Z</time></trkpt><trkpt lat="42.26265644397032" lon="13.388337864714195"><ele>1337.0</ele><time>2026-04-29T13:00:49Z</time></trkpt><trkpt lat="42.26281054240762" lon="13.388108547914975"><ele>1333.0</ele><time>2026-04-29T13:00:49.999Z</time></trkpt><trkpt lat="42.26296217563457" lon="13.387888884477245"><ele>1332.6666666666665</ele><time>2026-04-29T13:00:50.999Z</time></trkpt><trkpt lat="42.2631099261112" lon="13.38767909571065"><ele>1332.3333333333333</ele><time>2026-04-29T13:00:51.999Z</time></trkpt><trkpt lat="42.2632519553568" lon="13.387480559903533"><ele>1332.0</ele><time>2026-04-29T13:00:52.999Z</time></trkpt><trkpt lat="42.263390767201805" lon="13.387294791630419"><ele>1325.3333333333333</ele><time>2026-04-29T13:00:53.999Z</time></trkpt><trkpt lat="42.26352732012628" lon="13.387118566728814"><ele>1318.6666666666665</ele><time>2026-04-29T13:00:54.999Z</time></trkpt><trkpt lat="42.26365114648168" lon="13.38693179600439"><ele>1312.0</ele><time>2026-04-29T13:00:55.999Z</time></trkpt><trkpt lat="42.26375815636658" lon="13.386703375140595"><ele>1312.0</ele><time>2026-04-29T13:00:56.999Z</time></trkpt><trkpt lat="42.26386839326757" lon="13.386459714047753"><ele>1312.0</ele><time>2026-04-29T13:00:57.999Z</time></trkpt><trkpt lat="42.26401531127108" lon="13.386234447207803"><ele>1312.0</ele><time>2026-04-29T13:00:58.999Z</time></trkpt><trkpt lat="42.26416520513284" lon="13.386034236715025"><ele>1312.0</ele><time>2026-04-29T13:00:59.999Z</time></trkpt><trkpt lat="42.264285560242605" lon="13.385834863204929"><ele>1312.0</ele><time>2026-04-29T13:01:00.999Z</time></trkpt><trkpt lat="42.26438229876239" lon="13.385666272394172"><ele>1312.0</ele><time>2026-04-29T13:01:01.999Z</time></trkpt><trkpt lat="42.264484420925754" lon="13.385532300902929"><ele>1308.25</ele><time>2026-04-29T13:01:02.999Z</time></trkpt><trkpt lat="42.264576585752785" lon="13.385426769264672"><ele>1304.5</ele><time>2026-04-29T13:01:03.999Z</time></trkpt><trkpt lat="42.26465147171934" lon="13.385304125645499"><ele>1300.75</ele><time>2026-04-29T13:01:04.999Z</time></trkpt><trkpt lat="42.26467392766207" lon="13.385150548503809"><ele>1297.0</ele><time>2026-04-29T13:01:05.999Z</time></trkpt><trkpt lat="42.26464926202072" lon="13.385002963307667"><ele>1297.0</ele><time>2026-04-29T13:01:06.999Z</time></trkpt><trkpt lat="42.2646385588446" lon="13.384864795868856"><ele>1297.0</ele><time>2026-04-29T13:01:07.999Z</time></trkpt><trkpt lat="42.26468155552516" lon="13.384733685516848"><ele>1297.0</ele><time>2026-04-29T13:01:08.999Z</time></trkpt><trkpt lat="42.264767750583275" lon="13.384631645981067"><ele>1297.0</ele><time>2026-04-29T13:01:09.999Z</time></trkpt><trkpt lat="42.264869977789004" lon="13.384529458848847"><ele>1298.25</ele><time>2026-04-29T13:01:10.999Z</time></trkpt><trkpt lat="42.26495887059304" lon="13.384376934024916"><ele>1299.5</ele><time>2026-04-29T13:01:11.999Z</time></trkpt><trkpt lat="42.26500975558701" lon="13.384189847839703"><ele>1300.75</ele><time>2026-04-29T13:01:12.999Z</time></trkpt><trkpt lat="42.265047735910564" lon="13.384013983867817"><ele>1302.0</ele><time>2026-04-29T13:01:13.999Z</time></trkpt><trkpt lat="42.26511059394906" lon="13.383861193248325"><ele>1295.3333333333333</ele><time>2026-04-29T13:01:14.999Z</time></trkpt><trkpt lat="42.26522509539127" lon="13.383731168190002"><ele>1288.6666666666665</ele><time>2026-04-29T13:01:15.999Z</time></trkpt><trkpt lat="42.26536579949243" lon="13.38361538540365"><ele>1282.0</ele><time>2026-04-29T13:01:16.999Z</time></trkpt><trkpt lat="42.26549727394907" lon="13.383483069303585"><ele>1288.0</ele><time>2026-04-29T13:01:17.999Z</time></trkpt><trkpt lat="42.26562278541675" lon="13.383349136513758"><ele>1294.0</ele><time>2026-04-29T13:01:18.999Z</time></trkpt><trkpt lat="42.26574438343507" lon="13.383213300664659"><ele>1300.0</ele><time>2026-04-29T13:01:19.999Z</time></trkpt><trkpt lat="42.26585602900372" lon="13.38307163173476"><ele>1295.75</ele><time>2026-04-29T13:01:20.999Z</time></trkpt><trkpt lat="42.26595618424445" lon="13.382916760728099"><ele>1291.5</ele><time>2026-04-29T13:01:21.999Z</time></trkpt><trkpt lat="42.266041608800705" lon="13.3827451966429"><ele>1287.25</ele><time>2026-04-29T13:01:22.999Z</time></trkpt><trkpt lat="42.266093467784955" lon="13.382583434172988"><ele>1283.0</ele><time>2026-04-29T13:01:23.999Z</time></trkpt><trkpt lat="42.26610761840538" lon="13.382416154680639"><ele>1283.0</ele><time>2026-04-29T13:01:24.999Z</time></trkpt><trkpt lat="42.26607620425296" lon="13.38225267380543"><ele>1283.0</ele><time>2026-04-29T13:01:25.999Z</time></trkpt><trkpt lat="42.266016637650175" lon="13.382101603645125"><ele>1283.0</ele><time>2026-04-29T13:01:26.999Z</time></trkpt><trkpt lat="42.2659575430274" lon="13.381953063707511"><ele>1283.0</ele><time>2026-04-29T13:01:27.999Z</time></trkpt><trkpt lat="42.26593301002631" lon="13.38180575930212"><ele>1281.75</ele><time>2026-04-29T13:01:29Z</time></trkpt><trkpt lat="42.26596217212554" lon="13.381661111018479"><ele>1280.5</ele><time>2026-04-29T13:01:30Z</time></trkpt><trkpt lat="42.26603876429879" lon="13.38154966281772"><ele>1279.25</ele><time>2026-04-29T13:01:31Z</time></trkpt><trkpt lat="42.2661360786372" lon="13.381440478778602"><ele>1278.0</ele><time>2026-04-29T13:01:32Z</time></trkpt><trkpt lat="42.26619290076681" lon="13.381252891508062"><ele>1275.0</ele><time>2026-04-29T13:01:33Z</time></trkpt><trkpt lat="42.26621985536344" lon="13.381013236668853"><ele>1272.0</ele><time>2026-04-29T13:01:34Z</time></trkpt><trkpt lat="42.26624861065751" lon="13.38074117891969"><ele>1269.0</ele><time>2026-04-29T13:01:35Z</time></trkpt><trkpt lat="42.26631142110831" lon="13.380459951885703"><ele>1274.0</ele><time>2026-04-29T13:01:36Z</time></trkpt><trkpt lat="42.26639933169318" lon="13.380206440866838"><ele>1279.0</ele><time>2026-04-29T13:01:37Z</time></trkpt><trkpt lat="42.26647150557397" lon="13.37996388558066"><ele>1284.0</ele><time>2026-04-29T13:01:38Z</time></trkpt><trkpt lat="42.266503036916895" lon="13.379696596886479"><ele>1279.5</ele><time>2026-04-29T13:01:39Z</time></trkpt><trkpt lat="42.26654149848893" lon="13.379403958899282"><ele>1275.0</ele><time>2026-04-29T13:01:40Z</time></trkpt><trkpt lat="42.26657468534817" lon="13.37906931310415"><ele>1272.6666666666667</ele><time>2026-04-29T13:01:41Z</time></trkpt><trkpt lat="42.26660243098936" lon="13.378793366813893"><ele>1270.3333333333335</ele><time>2026-04-29T13:01:42Z</time></trkpt><trkpt lat="42.26660333459822" lon="13.378523963141953"><ele>1268.0</ele><time>2026-04-29T13:01:43Z</time></trkpt><trkpt lat="42.26662933596183" lon="13.378249952524765"><ele>1264.6666666666667</ele><time>2026-04-29T13:01:44Z</time></trkpt><trkpt lat="42.266659891666556" lon="13.378011795690764"><ele>1261.3333333333333</ele><time>2026-04-29T13:01:45Z</time></trkpt><trkpt lat="42.26668114687234" lon="13.37779920106188"><ele>1258.0</ele><time>2026-04-29T13:01:46Z</time></trkpt><trkpt lat="42.26670576776548" lon="13.37760557238656"><ele>1258.0</ele><time>2026-04-29T13:01:47Z</time></trkpt><trkpt lat="42.26675255752809" lon="13.377416216298148"><ele>1258.0</ele><time>2026-04-29T13:01:48Z</time></trkpt><trkpt lat="42.26684448882052" lon="13.377217976075688"><ele>1258.0</ele><time>2026-04-29T13:01:49Z</time></trkpt><trkpt lat="42.26697761451256" lon="13.377009847378798"><ele>1259.0</ele><time>2026-04-29T13:01:50Z</time></trkpt><trkpt lat="42.26712451809081" lon="13.376794917755241"><ele>1260.0</ele><time>2026-04-29T13:01:51Z</time></trkpt><trkpt lat="42.2672598077317" lon="13.376575756800015"><ele>1261.0</ele><time>2026-04-29T13:01:52Z</time></trkpt><trkpt lat="42.26738322791531" lon="13.376368780862025"><ele>1254.6666666666665</ele><time>2026-04-29T13:01:53Z</time></trkpt><trkpt lat="42.267503490070965" lon="13.376174393285694"><ele>1248.3333333333333</ele><time>2026-04-29T13:01:54Z</time></trkpt><trkpt lat="42.26763482683064" lon="13.37597032354414"><ele>1242.0</ele><time>2026-04-29T13:01:55Z</time></trkpt><trkpt lat="42.26777379534599" lon="13.375722674007427"><ele>1232.5</ele><time>2026-04-29T13:01:56Z</time></trkpt><trkpt lat="42.26788863804298" lon="13.375435340247366"><ele>1223.0</ele><time>2026-04-29T13:01:57Z</time></trkpt><trkpt lat="42.267981116757426" lon="13.37515244575262"><ele>1223.0</ele><time>2026-04-29T13:01:58Z</time></trkpt><trkpt lat="42.26806163388128" lon="13.37488621237103"><ele>1223.0</ele><time>2026-04-29T13:01:59Z</time></trkpt><trkpt lat="42.26814074292871" lon="13.374635807935759"><ele>1223.0</ele><time>2026-04-29T13:02:00Z</time></trkpt><trkpt lat="42.268208732382135" lon="13.374388036885588"><ele>1224.3333333333335</ele><time>2026-04-29T13:02:01Z</time></trkpt><trkpt lat="42.26824817292133" lon="13.374141247683786"><ele>1225.6666666666667</ele><time>2026-04-29T13:02:02Z</time></trkpt><trkpt lat="42.26825909505358" lon="13.373897197725002"><ele>1227.0</ele><time>2026-04-29T13:02:03Z</time></trkpt><trkpt lat="42.26828072176254" lon="13.373637019742194"><ele>1227.0</ele><time>2026-04-29T13:02:04Z</time></trkpt><trkpt lat="42.2683415122912" lon="13.373389290402915"><ele>1227.0</ele><time>2026-04-29T13:02:05Z</time></trkpt><trkpt lat="42.268416522854906" lon="13.373158818758176"><ele>1227.0</ele><time>2026-04-29T13:02:06Z</time></trkpt><trkpt lat="42.268511742756225" lon="13.372922591807878"><ele>1221.0</ele><time>2026-04-29T13:02:07Z</time></trkpt><trkpt lat="42.268653435206005" lon="13.372692357955207"><ele>1215.0</ele><time>2026-04-29T13:02:08Z</time></trkpt><trkpt lat="42.26880602240581" lon="13.372484583274481"><ele>1209.0</ele><time>2026-04-29T13:02:09Z</time></trkpt><trkpt lat="42.268930828774835" lon="13.37230015440933"><ele>1212.0</ele><time>2026-04-29T13:02:10Z</time></trkpt><trkpt lat="42.26904947430706" lon="13.372123275885082"><ele>1215.0</ele><time>2026-04-29T13:02:11Z</time></trkpt><trkpt lat="42.269157880168954" lon="13.371942699007601"><ele>1218.0</ele><time>2026-04-29T13:02:12Z</time></trkpt><trkpt lat="42.26923076055103" lon="13.371729958136095"><ele>1218.0</ele><time>2026-04-29T13:02:13Z</time></trkpt><trkpt lat="42.26927757759136" lon="13.371483084441351"><ele>1218.0</ele><time>2026-04-29T13:02:14Z</time></trkpt><trkpt lat="42.26931190827982" lon="13.371242578122846"><ele>1218.0</ele><time>2026-04-29T13:02:15Z</time></trkpt><trkpt lat="42.26937360180396" lon="13.371025184338452"><ele>1211.3333333333333</ele><time>2026-04-29T13:02:16Z</time></trkpt><trkpt lat="42.269444111361096" lon="13.370823100985053"><ele>1204.6666666666665</ele><time>2026-04-29T13:02:17Z</time></trkpt><trkpt lat="42.26956835410948" lon="13.370674973062345"><ele>1198.0</ele><time>2026-04-29T13:02:18Z</time></trkpt><trkpt lat="42.26970127795188" lon="13.37055677757718"><ele>1200.3333333333333</ele><time>2026-04-29T13:02:19Z</time></trkpt><trkpt lat="42.269828885873245" lon="13.370434241532548"><ele>1202.6666666666667</ele><time>2026-04-29T13:02:20Z</time></trkpt><trkpt lat="42.26994667612359" lon="13.37029410632466"><ele>1205.0</ele><time>2026-04-29T13:02:21Z</time></trkpt><trkpt lat="42.27005692165499" lon="13.370114669478076"><ele>1205.0</ele><time>2026-04-29T13:02:22Z</time></trkpt><trkpt lat="42.27014144569079" lon="13.369882576445239"><ele>1205.0</ele><time>2026-04-29T13:02:23Z</time></trkpt><trkpt lat="42.270190920512846" lon="13.369604324798079"><ele>1205.0</ele><time>2026-04-29T13:02:24Z</time></trkpt><trkpt lat="42.270215988744106" lon="13.369311050468953"><ele>1200.0</ele><time>2026-04-29T13:02:25Z</time></trkpt><trkpt lat="42.27026765986572" lon="13.369038680791798"><ele>1195.0</ele><time>2026-04-29T13:02:26Z</time></trkpt><trkpt lat="42.270332120277736" lon="13.368772764507241"><ele>1190.0</ele><time>2026-04-29T13:02:27Z</time></trkpt><trkpt lat="42.27040583694908" lon="13.368536642013947"><ele>1187.6666666666667</ele><time>2026-04-29T13:02:28Z</time></trkpt><trkpt lat="42.27046811087972" lon="13.368321737878961"><ele>1185.3333333333333</ele><time>2026-04-29T13:02:29Z</time></trkpt><trkpt lat="42.270533971922845" lon="13.368128801583344"><ele>1183.0</ele><time>2026-04-29T13:02:30Z</time></trkpt><trkpt lat="42.270636717285605" lon="13.36795308571754"><ele>1183.0</ele><time>2026-04-29T13:02:31Z</time></trkpt><trkpt lat="42.27079071037862" lon="13.367780304577769"><ele>1183.0</ele><time>2026-04-29T13:02:32Z</time></trkpt><trkpt lat="42.2709753724005" lon="13.367612158974113"><ele>1183.0</ele><time>2026-04-29T13:02:33Z</time></trkpt><trkpt lat="42.27113886941197" lon="13.36744180057453"><ele>1183.0</ele><time>2026-04-29T13:02:34Z</time></trkpt><trkpt lat="42.27127460950813" lon="13.367249860551215"><ele>1183.0</ele><time>2026-04-29T13:02:35Z</time></trkpt><trkpt lat="42.27139465435115" lon="13.367057124934492"><ele>1183.0</ele><time>2026-04-29T13:02:36Z</time></trkpt><trkpt lat="42.271510682347326" lon="13.36686772614765"><ele>1183.6666666666665</ele><time>2026-04-29T13:02:37Z</time></trkpt><trkpt lat="42.27159732147631" lon="13.366654560912801"><ele>1184.3333333333333</ele><time>2026-04-29T13:02:38Z</time></trkpt><trkpt lat="42.27164795105347" lon="13.36642852258453"><ele>1185.0</ele><time>2026-04-29T13:02:39Z</time></trkpt><trkpt lat="42.27173569567481" lon="13.366223396964669"><ele>1178.3333333333333</ele><time>2026-04-29T13:02:40Z</time></trkpt><trkpt lat="42.271868081317145" lon="13.366019398347644"><ele>1171.6666666666665</ele><time>2026-04-29T13:02:41Z</time></trkpt><trkpt lat="42.27198483257065" lon="13.365824832556195"><ele>1165.0</ele><time>2026-04-29T13:02:42Z</time></trkpt><trkpt lat="42.27212182867547" lon="13.365681496473645"><ele>1165.0</ele><time>2026-04-29T13:02:43Z</time></trkpt><trkpt lat="42.27227135265674" lon="13.365553601574998"><ele>1165.0</ele><time>2026-04-29T13:02:44Z</time></trkpt><trkpt lat="42.272445415096676" lon="13.365444086406958"><ele>1165.0</ele><time>2026-04-29T13:02:45Z</time></trkpt><trkpt lat="42.27260754318125" lon="13.365366370465775"><ele>1162.3333333333333</ele><time>2026-04-29T13:02:46Z</time></trkpt><trkpt lat="42.27275011018285" lon="13.365278391109843"><ele>1159.6666666666667</ele><time>2026-04-29T13:02:47Z</time></trkpt><trkpt lat="42.2728909868589" lon="13.365194718742087"><ele>1157.0</ele><time>2026-04-29T13:02:48Z</time></trkpt><trkpt lat="42.27300504404403" lon="13.365064073866979"><ele>1157.0</ele><time>2026-04-29T13:02:49Z</time></trkpt><trkpt lat="42.27309744290126" lon="13.364875814769558"><ele>1157.0</ele><time>2026-04-29T13:02:50Z</time></trkpt><trkpt lat="42.273202438729854" lon="13.36468202342577"><ele>1157.0</ele><time>2026-04-29T13:02:51Z</time></trkpt><trkpt lat="42.2733262949091" lon="13.364499793478007"><ele>1153.6666666666667</ele><time>2026-04-29T13:02:52Z</time></trkpt><trkpt lat="42.27347929115378" lon="13.364317343361435"><ele>1150.3333333333333</ele><time>2026-04-29T13:02:53Z</time></trkpt><trkpt lat="42.27366062734211" lon="13.364197746352207"><ele>1147.0</ele><time>2026-04-29T13:02:53.999Z</time></trkpt><trkpt lat="42.27383795424604" lon="13.364074189314056"><ele>1144.5</ele><time>2026-04-29T13:02:54.999Z</time></trkpt><trkpt lat="42.27399189330324" lon="13.363873435231348"><ele>1142.0</ele><time>2026-04-29T13:02:55.999Z</time></trkpt><trkpt lat="42.27416040544483" lon="13.363636256697928"><ele>1142.0</ele><time>2026-04-29T13:02:56.999Z</time></trkpt><trkpt lat="42.27433283440952" lon="13.363442784369889"><ele>1142.0</ele><time>2026-04-29T13:02:57.999Z</time></trkpt><trkpt lat="42.27449520355079" lon="13.363270226624403"><ele>1142.0</ele><time>2026-04-29T13:02:58.999Z</time></trkpt><trkpt lat="42.274630559473074" lon="13.363081245005585"><ele>1140.6666666666667</ele><time>2026-04-29T13:02:59.999Z</time></trkpt><trkpt lat="42.27474409524911" lon="13.362889430054947"><ele>1139.3333333333333</ele><time>2026-04-29T13:03:00.999Z</time></trkpt><trkpt lat="42.274863452676286" lon="13.362722244855735"><ele>1138.0</ele><time>2026-04-29T13:03:01.999Z</time></trkpt><trkpt lat="42.27501400512512" lon="13.36257648809779"><ele>1138.0</ele><time>2026-04-29T13:03:02.999Z</time></trkpt><trkpt lat="42.27518733199071" lon="13.362450871525835"><ele>1138.0</ele><time>2026-04-29T13:03:03.999Z</time></trkpt><trkpt lat="42.2753519311231" lon="13.362330634962174"><ele>1138.0</ele><time>2026-04-29T13:03:04.999Z</time></trkpt><trkpt lat="42.27550023728747" lon="13.362196806145766"><ele>1134.3333333333333</ele><time>2026-04-29T13:03:05.999Z</time></trkpt><trkpt lat="42.275656039704074" lon="13.362113557612162"><ele>1130.6666666666667</ele><time>2026-04-29T13:03:06.999Z</time></trkpt><trkpt lat="42.27580950843183" lon="13.362027730158186"><ele>1127.0</ele><time>2026-04-29T13:03:07.999Z</time></trkpt><trkpt lat="42.27595097371023" lon="13.36186231942212"><ele>1127.0</ele><time>2026-04-29T13:03:08.999Z</time></trkpt><trkpt lat="42.2760968375514" lon="13.361608028704294"><ele>1127.0</ele><time>2026-04-29T13:03:09.999Z</time></trkpt><trkpt lat="42.27622197442249" lon="13.361363603484154"><ele>1128.3333333333335</ele><time>2026-04-29T13:03:10.999Z</time></trkpt><trkpt lat="42.27634009157774" lon="13.361145049013894"><ele>1129.6666666666667</ele><time>2026-04-29T13:03:11.999Z</time></trkpt><trkpt lat="42.27644191289454" lon="13.360931923761678"><ele>1131.0</ele><time>2026-04-29T13:03:12.999Z</time></trkpt><trkpt lat="42.27651839136015" lon="13.360733103317877"><ele>1131.0</ele><time>2026-04-29T13:03:13.999Z</time></trkpt><trkpt lat="42.27658220912386" lon="13.360552638359199"><ele>1131.0</ele><time>2026-04-29T13:03:14.999Z</time></trkpt><trkpt lat="42.27666335424384" lon="13.36039245436442"><ele>1131.0</ele><time>2026-04-29T13:03:15.999Z</time></trkpt><trkpt lat="42.276782360372486" lon="13.360277676994556"><ele>1131.0</ele><time>2026-04-29T13:03:16.999Z</time></trkpt><trkpt lat="42.27693008649865" lon="13.360168738033387"><ele>1128.75</ele><time>2026-04-29T13:03:17.999Z</time></trkpt><trkpt lat="42.277051860622564" lon="13.360040799816757"><ele>1126.5</ele><time>2026-04-29T13:03:18.999Z</time></trkpt><trkpt lat="42.27716204296091" lon="13.359918008282317"><ele>1124.25</ele><time>2026-04-29T13:03:19.999Z</time></trkpt><trkpt lat="42.27726943108058" lon="13.359801013956993"><ele>1122.0</ele><time>2026-04-29T13:03:20.999Z</time></trkpt><trkpt lat="42.27739282322913" lon="13.359707652726485"><ele>1115.25</ele><time>2026-04-29T13:03:21.999Z</time></trkpt><trkpt lat="42.27753135117512" lon="13.359642229735387"><ele>1108.5</ele><time>2026-04-29T13:03:22.999Z</time></trkpt><trkpt lat="42.27768245756687" lon="13.359625849061132"><ele>1101.75</ele><time>2026-04-29T13:03:23.999Z</time></trkpt><trkpt lat="42.27782857324477" lon="13.359607268053693"><ele>1095.0</ele><time>2026-04-29T13:03:24.999Z</time></trkpt><trkpt lat="42.27795770069185" lon="13.359548701866045"><ele>1095.0</ele><time>2026-04-29T13:03:25.999Z</time></trkpt><trkpt lat="42.27807565014152" lon="13.359444081385604"><ele>1095.0</ele><time>2026-04-29T13:03:26.999Z</time></trkpt><trkpt lat="42.2781842693748" lon="13.359297533324549"><ele>1095.0</ele><time>2026-04-29T13:03:27.999Z</time></trkpt><trkpt lat="42.27825107156258" lon="13.3591245672443"><ele>1095.0</ele><time>2026-04-29T13:03:28.999Z</time></trkpt><trkpt lat="42.2782755988918" lon="13.358936866523525"><ele>1095.0</ele><time>2026-04-29T13:03:29.999Z</time></trkpt><trkpt lat="42.2782650867937" lon="13.358747470629412"><ele>1095.0</ele><time>2026-04-29T13:03:30.999Z</time></trkpt><trkpt lat="42.278259810843664" lon="13.358557008480643"><ele>1095.0</ele><time>2026-04-29T13:03:31.999Z</time></trkpt><trkpt lat="42.27829836116423" lon="13.358364301362792"><ele>1095.0</ele><time>2026-04-29T13:03:32.999Z</time></trkpt><trkpt lat="42.27838555964585" lon="13.358174779683933"><ele>1088.6666666666667</ele><time>2026-04-29T13:03:33.999Z</time></trkpt><trkpt lat="42.278519557150034" lon="13.357997172099546"><ele>1082.3333333333335</ele><time>2026-04-29T13:03:35Z</time></trkpt><trkpt lat="42.27868351676003" lon="13.357811533047679"><ele>1076.0</ele><time>2026-04-29T13:03:36Z</time></trkpt><trkpt lat="42.27880446967619" lon="13.357660793574777"><ele>1076.0</ele><time>2026-04-29T13:03:37Z</time></trkpt><trkpt lat="42.27890211921098" lon="13.357541358703752"><ele>1076.0</ele><time>2026-04-29T13:03:38Z</time></trkpt><trkpt lat="42.27901141315241" lon="13.357433266513965"><ele>1076.0</ele><time>2026-04-29T13:03:39Z</time></trkpt><trkpt lat="42.27914460248104" lon="13.357380409064486"><ele>1076.0</ele><time>2026-04-29T13:03:40Z</time></trkpt><trkpt lat="42.27930910658226" lon="13.357369582780496"><ele>1081.3333333333335</ele><time>2026-04-29T13:03:41Z</time></trkpt><trkpt lat="42.27948062266465" lon="13.357354692217191"><ele>1086.6666666666667</ele><time>2026-04-29T13:03:42Z</time></trkpt><trkpt lat="42.27963654090844" lon="13.357368449340091"><ele>1092.0</ele><time>2026-04-29T13:03:43Z</time></trkpt><trkpt lat="42.27978837925744" lon="13.3573523739691"><ele>1093.25</ele><time>2026-04-29T13:03:44Z</time></trkpt><trkpt lat="42.279925917087574" lon="13.357306174806462"><ele>1094.5</ele><time>2026-04-29T13:03:45Z</time></trkpt><trkpt lat="42.28005576403324" lon="13.357246349683999"><ele>1095.75</ele><time>2026-04-29T13:03:46Z</time></trkpt><trkpt lat="42.28017247568525" lon="13.357179304847207"><ele>1097.0</ele><time>2026-04-29T13:03:47Z</time></trkpt><trkpt lat="42.28028877577318" lon="13.357096141836674"><ele>1091.0</ele><time>2026-04-29T13:03:48Z</time></trkpt><trkpt lat="42.28037966709296" lon="13.3569683561728"><ele>1085.0</ele><time>2026-04-29T13:03:49Z</time></trkpt><trkpt lat="42.280432004949496" lon="13.35679254426877"><ele>1079.0</ele><time>2026-04-29T13:03:50Z</time></trkpt><trkpt lat="42.28044474523386" lon="13.356599821644696"><ele>1073.0</ele><time>2026-04-29T13:03:51Z</time></trkpt><trkpt lat="42.28047935510809" lon="13.356400577414165"><ele>1074.0</ele><time>2026-04-29T13:03:52Z</time></trkpt><trkpt lat="42.28053282081291" lon="13.356201865871602"><ele>1075.0</ele><time>2026-04-29T13:03:53Z</time></trkpt><trkpt lat="42.28063335815457" lon="13.356019173355964"><ele>1076.0</ele><time>2026-04-29T13:03:54Z</time></trkpt><trkpt lat="42.280735843276965" lon="13.355846353996323"><ele>1076.0</ele><time>2026-04-29T13:03:55Z</time></trkpt><trkpt lat="42.28080932780453" lon="13.35567300802409"><ele>1076.0</ele><time>2026-04-29T13:03:56Z</time></trkpt><trkpt lat="42.280850260498646" lon="13.355521581751894"><ele>1076.0</ele><time>2026-04-29T13:03:57Z</time></trkpt><trkpt lat="42.280880853762646" lon="13.355376468069334"><ele>1076.0</ele><time>2026-04-29T13:03:58Z</time></trkpt><trkpt lat="42.280889278691326" lon="13.355257356123833"><ele>1074.0</ele><time>2026-04-29T13:03:59Z</time></trkpt><trkpt lat="42.280871486373" lon="13.355150730996948"><ele>1072.0</ele><time>2026-04-29T13:04:00Z</time></trkpt><trkpt lat="42.280822981684274" lon="13.355067323217643"><ele>1070.0</ele><time>2026-04-29T13:04:01Z</time></trkpt><trkpt lat="42.280745095924395" lon="13.355035515199539"><ele>1068.0</ele><time>2026-04-29T13:04:02Z</time></trkpt><trkpt lat="42.280642643465754" lon="13.355067412115615"><ele>1066.0</ele><time>2026-04-29T13:04:03Z</time></trkpt><trkpt lat="42.28053664604464" lon="13.355144703314224"><ele>1063.8</ele><time>2026-04-29T13:04:04Z</time></trkpt><trkpt lat="42.28042873512103" lon="13.355219995881942"><ele>1061.6</ele><time>2026-04-29T13:04:05Z</time></trkpt><trkpt lat="42.28032618388171" lon="13.355285318294568"><ele>1059.4</ele><time>2026-04-29T13:04:06Z</time></trkpt><trkpt lat="42.28023830962732" lon="13.355346159755461"><ele>1057.2</ele><time>2026-04-29T13:04:07Z</time></trkpt><trkpt lat="42.280156740000876" lon="13.355387805776582"><ele>1055.0</ele><time>2026-04-29T13:04:08Z</time></trkpt><trkpt lat="42.280068755414334" lon="13.35537572660423"><ele>1055.0</ele><time>2026-04-29T13:04:09Z</time></trkpt><trkpt lat="42.27999545762629" lon="13.355300111575353"><ele>1055.0</ele><time>2026-04-29T13:04:10Z</time></trkpt><trkpt lat="42.27993357073938" lon="13.355158872605779"><ele>1055.0</ele><time>2026-04-29T13:04:11Z</time></trkpt><trkpt lat="42.279882626978285" lon="13.354995600249618"><ele>1055.0</ele><time>2026-04-29T13:04:12Z</time></trkpt><trkpt lat="42.27984863416481" lon="13.354843881896851"><ele>1055.0</ele><time>2026-04-29T13:04:13Z</time></trkpt><trkpt lat="42.27980233286649" lon="13.354713959403881"><ele>1055.0</ele><time>2026-04-29T13:04:14Z</time></trkpt><trkpt lat="42.279816089727184" lon="13.354571209895836"><ele>1055.0</ele><time>2026-04-29T13:04:15Z</time></trkpt><trkpt lat="42.27988167941973" lon="13.354407850041351"><ele>1055.0</ele><time>2026-04-29T13:04:16Z</time></trkpt><trkpt lat="42.27997892129479" lon="13.354247146423774"><ele>1052.75</ele><time>2026-04-29T13:04:17Z</time></trkpt><trkpt lat="42.28006382209886" lon="13.354079554136506"><ele>1050.5</ele><time>2026-04-29T13:04:18Z</time></trkpt><trkpt lat="42.28013700908586" lon="13.353914142035338"><ele>1048.25</ele><time>2026-04-29T13:04:19Z</time></trkpt><trkpt lat="42.28019967541026" lon="13.35375137312503"><ele>1046.0</ele><time>2026-04-29T13:04:20Z</time></trkpt><trkpt lat="42.28023828664416" lon="13.353582141287633"><ele>1044.5</ele><time>2026-04-29T13:04:21Z</time></trkpt><trkpt lat="42.28024869949572" lon="13.353404722764507"><ele>1043.0</ele><time>2026-04-29T13:04:22Z</time></trkpt><trkpt lat="42.28026061675524" lon="13.353242310680002"><ele>1041.5</ele><time>2026-04-29T13:04:23Z</time></trkpt><trkpt lat="42.28030237304225" lon="13.353090259126574"><ele>1040.0</ele><time>2026-04-29T13:04:24Z</time></trkpt><trkpt lat="42.280391263619684" lon="13.352973653624076"><ele>1039.0</ele><time>2026-04-29T13:04:25Z</time></trkpt><trkpt lat="42.2805182870068" lon="13.352884356427582"><ele>1038.0</ele><time>2026-04-29T13:04:26Z</time></trkpt><trkpt lat="42.28069906511915" lon="13.35280017318431"><ele>1037.0</ele><time>2026-04-29T13:04:27Z</time></trkpt><trkpt lat="42.28088961031786" lon="13.352697564503304"><ele>1037.0</ele><time>2026-04-29T13:04:28Z</time></trkpt><trkpt lat="42.28104389817799" lon="13.352551449543517"><ele>1037.0</ele><time>2026-04-29T13:04:29Z</time></trkpt><trkpt lat="42.28118196925883" lon="13.35242707210607"><ele>1037.0</ele><time>2026-04-29T13:04:30Z</time></trkpt><trkpt lat="42.2813094230686" lon="13.352335852040259"><ele>1037.0</ele><time>2026-04-29T13:04:31Z</time></trkpt><trkpt lat="42.281449288396864" lon="13.352278009130352"><ele>1037.0</ele><time>2026-04-29T13:04:32Z</time></trkpt><trkpt lat="42.281594576910805" lon="13.352274717633158"><ele>1037.0</ele><time>2026-04-29T13:04:33Z</time></trkpt><trkpt lat="42.281752825586764" lon="13.352322916643981"><ele>1037.0</ele><time>2026-04-29T13:04:34Z</time></trkpt><trkpt lat="42.28190837805392" lon="13.35239965664499"><ele>1037.0</ele><time>2026-04-29T13:04:35Z</time></trkpt><trkpt lat="42.28206901599711" lon="13.35243791542896"><ele>1037.0</ele><time>2026-04-29T13:04:36Z</time></trkpt><trkpt lat="42.282215786506086" lon="13.352404676339285"><ele>1037.3333333333335</ele><time>2026-04-29T13:04:37Z</time></trkpt><trkpt lat="42.28237311409846" lon="13.352288646600991"><ele>1037.6666666666667</ele><time>2026-04-29T13:04:38Z</time></trkpt><trkpt lat="42.28254241673666" lon="13.352139243247002"><ele>1038.0</ele><time>2026-04-29T13:04:39Z</time></trkpt><trkpt lat="42.282695546248" lon="13.351944304444869"><ele>1030.5</ele><time>2026-04-29T13:04:40Z</time></trkpt><trkpt lat="42.28284050618606" lon="13.351693529283867"><ele>1023.0</ele><time>2026-04-29T13:04:41Z</time></trkpt><trkpt lat="42.28300181007786" lon="13.351406929812015"><ele>1022.5</ele><time>2026-04-29T13:04:42Z</time></trkpt><trkpt lat="42.283157185561755" lon="13.351162914224584"><ele>1022.0</ele><time>2026-04-29T13:04:43Z</time></trkpt><trkpt lat="42.28329382799153" lon="13.350927399017078"><ele>1022.0</ele><time>2026-04-29T13:04:44Z</time></trkpt><trkpt lat="42.28341442831357" lon="13.350712278545167"><ele>1022.0</ele><time>2026-04-29T13:04:45Z</time></trkpt><trkpt lat="42.283544252060835" lon="13.350535810642429"><ele>1022.0</ele><time>2026-04-29T13:04:46Z</time></trkpt><trkpt lat="42.28366870825342" lon="13.35036992236129"><ele>1020.0</ele><time>2026-04-29T13:04:47Z</time></trkpt><trkpt lat="42.283838041295006" lon="13.350291281901075"><ele>1018.0</ele><time>2026-04-29T13:04:48Z</time></trkpt><trkpt lat="42.28402598178416" lon="13.350229902173858"><ele>1016.0</ele><time>2026-04-29T13:04:49Z</time></trkpt><trkpt lat="42.28420336246499" lon="13.350173418952364"><ele>1016.0</ele><time>2026-04-29T13:04:50Z</time></trkpt><trkpt lat="42.284360942188016" lon="13.350120483929544"><ele>1016.0</ele><time>2026-04-29T13:04:51Z</time></trkpt><trkpt lat="42.28449504586484" lon="13.350049553021142"><ele>1016.0</ele><time>2026-04-29T13:04:52Z</time></trkpt><trkpt lat="42.2845991541343" lon="13.349968341190573"><ele>1016.0</ele><time>2026-04-29T13:04:53Z</time></trkpt><trkpt lat="42.2846618645443" lon="13.349837084224642"><ele>1012.75</ele><time>2026-04-29T13:04:54Z</time></trkpt><trkpt lat="42.28467798120068" lon="13.349660934753574"><ele>1009.5</ele><time>2026-04-29T13:04:55Z</time></trkpt><trkpt lat="42.2846789223224" lon="13.34944860652817"><ele>1006.25</ele><time>2026-04-29T13:04:55.999Z</time></trkpt><trkpt lat="42.28469437949576" lon="13.349237716741936"><ele>1003.0</ele><time>2026-04-29T13:04:56.999Z</time></trkpt><trkpt lat="42.284747856991544" lon="13.349037090937564"><ele>1003.3333333333333</ele><time>2026-04-29T13:04:57.999Z</time></trkpt><trkpt lat="42.284857788330726" lon="13.34884754744818"><ele>1003.6666666666667</ele><time>2026-04-29T13:04:58.999Z</time></trkpt><trkpt lat="42.28497140013865" lon="13.348653659804166"><ele>1004.0</ele><time>2026-04-29T13:04:59.999Z</time></trkpt><trkpt lat="42.28510574060649" lon="13.34845324125656"><ele>1004.0</ele><time>2026-04-29T13:05:00.999Z</time></trkpt><trkpt lat="42.28528134054685" lon="13.348232140504663"><ele>1004.0</ele><time>2026-04-29T13:05:01.999Z</time></trkpt><trkpt lat="42.28545044950735" lon="13.348021581710348"><ele>1002.3333333333334</ele><time>2026-04-29T13:05:02.999Z</time></trkpt><trkpt lat="42.28560313912335" lon="13.347824270964656"><ele>1000.6666666666667</ele><time>2026-04-29T13:05:03.999Z</time></trkpt><trkpt lat="42.285768865741204" lon="13.347641145138503"><ele>999.0</ele><time>2026-04-29T13:05:04.999Z</time></trkpt><trkpt lat="42.28593768070645" lon="13.347483309503666"><ele>999.0</ele><time>2026-04-29T13:05:05.999Z</time></trkpt><trkpt lat="42.286107134852756" lon="13.347345755328066"><ele>999.0</ele><time>2026-04-29T13:05:06.999Z</time></trkpt><trkpt lat="42.28627572827312" lon="13.34723713046658"><ele>999.0</ele><time>2026-04-29T13:05:07.999Z</time></trkpt><trkpt lat="42.286456999016046" lon="13.34714843176287"><ele>997.75</ele><time>2026-04-29T13:05:08.999Z</time></trkpt><trkpt lat="42.28662893950072" lon="13.347121035596818"><ele>996.5</ele><time>2026-04-29T13:05:09.999Z</time></trkpt><trkpt lat="42.286767240664005" lon="13.347083936781027"><ele>995.25</ele><time>2026-04-29T13:05:10.999Z</time></trkpt><trkpt lat="42.2868800605148" lon="13.347009673852625"><ele>994.0</ele><time>2026-04-29T13:05:11.999Z</time></trkpt><trkpt lat="42.28697322690807" lon="13.346905261841192"><ele>994.0</ele><time>2026-04-29T13:05:12.999Z</time></trkpt><trkpt lat="42.28702305215041" lon="13.34670754728202"><ele>994.0</ele><time>2026-04-29T13:05:13.999Z</time></trkpt><trkpt lat="42.28704860190956" lon="13.346457423753273"><ele>994.0</ele><time>2026-04-29T13:05:14.999Z</time></trkpt><trkpt lat="42.28707582670636" lon="13.346208529468333"><ele>993.0</ele><time>2026-04-29T13:05:15.999Z</time></trkpt><trkpt lat="42.28710211362827" lon="13.345989022248922"><ele>992.0</ele><time>2026-04-29T13:05:16.999Z</time></trkpt><trkpt lat="42.28719592089507" lon="13.345770128126935"><ele>991.0</ele><time>2026-04-29T13:05:17.999Z</time></trkpt><trkpt lat="42.28731694329514" lon="13.345540682042653"><ele>991.0</ele><time>2026-04-29T13:05:18.999Z</time></trkpt><trkpt lat="42.28747178063588" lon="13.345271547354438"><ele>991.0</ele><time>2026-04-29T13:05:19.999Z</time></trkpt><trkpt lat="42.28761386502861" lon="13.344999886201608"><ele>983.5</ele><time>2026-04-29T13:05:20.999Z</time></trkpt><trkpt lat="42.28779011627378" lon="13.344710377594541"><ele>976.0</ele><time>2026-04-29T13:05:21.999Z</time></trkpt><trkpt lat="42.28798998652272" lon="13.344392059952447"><ele>975.5</ele><time>2026-04-29T13:05:22.999Z</time></trkpt><trkpt lat="42.288212739151014" lon="13.344067202033836"><ele>975.0</ele><time>2026-04-29T13:05:23.999Z</time></trkpt><trkpt lat="42.288397890382306" lon="13.343741773953976"><ele>975.0</ele><time>2026-04-29T13:05:24.999Z</time></trkpt><trkpt lat="42.28856679204625" lon="13.343436036873337"><ele>975.0</ele><time>2026-04-29T13:05:25.999Z</time></trkpt><trkpt lat="42.28872141445244" lon="13.343133868772606"><ele>976.6666666666667</ele><time>2026-04-29T13:05:26.999Z</time></trkpt><trkpt lat="42.28885778010476" lon="13.34288279759849"><ele>978.3333333333334</ele><time>2026-04-29T13:05:27.999Z</time></trkpt><trkpt lat="42.28899016109594" lon="13.342657530186488"><ele>980.0</ele><time>2026-04-29T13:05:28.999Z</time></trkpt><trkpt lat="42.28911515800592" lon="13.34245999175179"><ele>980.0</ele><time>2026-04-29T13:05:29.999Z</time></trkpt><trkpt lat="42.28923710384339" lon="13.342277015652401"><ele>980.0</ele><time>2026-04-29T13:05:30.999Z</time></trkpt><trkpt lat="42.28936195016645" lon="13.342120667025638"><ele>980.0</ele><time>2026-04-29T13:05:31.999Z</time></trkpt><trkpt lat="42.28950020131524" lon="13.34201022731585"><ele>977.6666666666667</ele><time>2026-04-29T13:05:32.999Z</time></trkpt><trkpt lat="42.28967474262455" lon="13.341941466055664"><ele>975.3333333333333</ele><time>2026-04-29T13:05:33.999Z</time></trkpt><trkpt lat="42.28985761277937" lon="13.341853928424145"><ele>973.0</ele><time>2026-04-29T13:05:34.999Z</time></trkpt><trkpt lat="42.2900384146422" lon="13.341716880618918"><ele>973.0</ele><time>2026-04-29T13:05:35.999Z</time></trkpt><trkpt lat="42.29020311156244" lon="13.34154725749716"><ele>973.0</ele><time>2026-04-29T13:05:36.999Z</time></trkpt><trkpt lat="42.29036032838783" lon="13.341410034205712"><ele>973.0</ele><time>2026-04-29T13:05:37.999Z</time></trkpt><trkpt lat="42.29051181983094" lon="13.341279929781379"><ele>970.0</ele><time>2026-04-29T13:05:38.999Z</time></trkpt><trkpt lat="42.29066735786016" lon="13.341166772966861"><ele>967.0</ele><time>2026-04-29T13:05:40Z</time></trkpt><trkpt lat="42.2908051231946" lon="13.34103818325013"><ele>964.0</ele><time>2026-04-29T13:05:41Z</time></trkpt><trkpt lat="42.29091848576689" lon="13.34087996883928"><ele>964.0</ele><time>2026-04-29T13:05:42Z</time></trkpt><trkpt lat="42.29101678714918" lon="13.340716002918136"><ele>964.0</ele><time>2026-04-29T13:05:43Z</time></trkpt><trkpt lat="42.291100043828564" lon="13.340571367776903"><ele>964.0</ele><time>2026-04-29T13:05:44Z</time></trkpt><trkpt lat="42.291157992836474" lon="13.340419208822846"><ele>964.0</ele><time>2026-04-29T13:05:45Z</time></trkpt><trkpt lat="42.29117471828004" lon="13.340250552599601"><ele>961.75</ele><time>2026-04-29T13:05:46Z</time></trkpt><trkpt lat="42.291151642139994" lon="13.340057852596216"><ele>959.5</ele><time>2026-04-29T13:05:47Z</time></trkpt><trkpt lat="42.29109743446198" lon="13.339859218095041"><ele>957.25</ele><time>2026-04-29T13:05:48Z</time></trkpt><trkpt lat="42.291043739112574" lon="13.339679384264457"><ele>955.0</ele><time>2026-04-29T13:05:49Z</time></trkpt><trkpt lat="42.29099213643239" lon="13.339495193961842"><ele>954.75</ele><time>2026-04-29T13:05:50Z</time></trkpt><trkpt lat="42.290943889321056" lon="13.339320713562115"><ele>954.5</ele><time>2026-04-29T13:05:51Z</time></trkpt><trkpt lat="42.290900489698366" lon="13.339150583885509"><ele>954.25</ele><time>2026-04-29T13:05:52Z</time></trkpt><trkpt lat="42.290857129605854" lon="13.338993697050732"><ele>954.0</ele><time>2026-04-29T13:05:53Z</time></trkpt><trkpt lat="42.29081987803328" lon="13.338861735905487"><ele>954.0</ele><time>2026-04-29T13:05:54Z</time></trkpt><trkpt lat="42.29079833527237" lon="13.33874663259628"><ele>954.0</ele><time>2026-04-29T13:05:55Z</time></trkpt><trkpt lat="42.290806460806024" lon="13.338637116371494"><ele>954.0</ele><time>2026-04-29T13:05:56Z</time></trkpt><trkpt lat="42.29085048382811" lon="13.338558084584617"><ele>954.0</ele><time>2026-04-29T13:05:57Z</time></trkpt><trkpt lat="42.29091927867026" lon="13.338518041525894"><ele>954.0</ele><time>2026-04-29T13:05:58Z</time></trkpt><trkpt lat="42.29098600250153" lon="13.338458805870278"><ele>954.0</ele><time>2026-04-29T13:05:59Z</time></trkpt><trkpt lat="42.29105866391166" lon="13.338385518594025"><ele>954.0</ele><time>2026-04-29T13:06:00Z</time></trkpt><trkpt lat="42.291142564689075" lon="13.338338452846864"><ele>954.0</ele><time>2026-04-29T13:06:01Z</time></trkpt><trkpt lat="42.291231513046256" lon="13.338305018926896"><ele>954.0</ele><time>2026-04-29T13:06:02Z</time></trkpt><trkpt lat="42.29131661074979" lon="13.338270052735213"><ele>954.0</ele><time>2026-04-29T13:06:03Z</time></trkpt><trkpt lat="42.29139713504215" lon="13.338221078953984"><ele>954.0</ele><time>2026-04-29T13:06:04Z</time></trkpt><trkpt lat="42.29147735314643" lon="13.338184140422639"><ele>954.0</ele><time>2026-04-29T13:06:05Z</time></trkpt><trkpt lat="42.2915524509783" lon="13.3381771803658"><ele>953.75</ele><time>2026-04-29T13:06:06Z</time></trkpt><trkpt lat="42.291627690505265" lon="13.338196190420101"><ele>953.5</ele><time>2026-04-29T13:06:07Z</time></trkpt><trkpt lat="42.291709097580735" lon="13.33827000643218"><ele>953.25</ele><time>2026-04-29T13:06:08Z</time></trkpt><trkpt lat="42.29180765477933" lon="13.338384355681233"><ele>953.0</ele><time>2026-04-29T13:06:09Z</time></trkpt><trkpt lat="42.291925151923756" lon="13.338535666165999"><ele>953.0</ele><time>2026-04-29T13:06:10Z</time></trkpt><trkpt lat="42.29205607409456" lon="13.338706260103905"><ele>953.0</ele><time>2026-04-29T13:06:11Z</time></trkpt><trkpt lat="42.29217875550921" lon="13.33887606529697"><ele>953.0</ele><time>2026-04-29T13:06:12Z</time></trkpt><trkpt lat="42.29228472847126" lon="13.339042516387975"><ele>952.0</ele><time>2026-04-29T13:06:13Z</time></trkpt><trkpt lat="42.29235238853605" lon="13.339214279503853"><ele>951.0</ele><time>2026-04-29T13:06:14Z</time></trkpt><trkpt lat="42.292424047146866" lon="13.339367790037786"><ele>950.0</ele><time>2026-04-29T13:06:15Z</time></trkpt><trkpt lat="42.292504773986465" lon="13.339494906861566"><ele>949.0</ele><time>2026-04-29T13:06:16Z</time></trkpt><trkpt lat="42.29259889513244" lon="13.339599045055836"><ele>949.0</ele><time>2026-04-29T13:06:17Z</time></trkpt><trkpt lat="42.292702181739344" lon="13.339688481761087"><ele>949.0</ele><time>2026-04-29T13:06:18Z</time></trkpt><trkpt lat="42.29279021656256" lon="13.339764508255913"><ele>949.0</ele><time>2026-04-29T13:06:19Z</time></trkpt><trkpt lat="42.292904728128086" lon="13.339803014735406"><ele>949.0</ele><time>2026-04-29T13:06:20Z</time></trkpt><trkpt lat="42.29304095531604" lon="13.33981193180204"><ele>949.0</ele><time>2026-04-29T13:06:21Z</time></trkpt><trkpt lat="42.29319132423928" lon="13.339802607402008"><ele>949.0</ele><time>2026-04-29T13:06:22Z</time></trkpt><trkpt lat="42.293344573896476" lon="13.339799375156728"><ele>949.0</ele><time>2026-04-29T13:06:23Z</time></trkpt><trkpt lat="42.29348065125881" lon="13.339782788956404"><ele>949.0</ele><time>2026-04-29T13:06:24Z</time></trkpt><trkpt lat="42.29359377935784" lon="13.339720399254768"><ele>944.75</ele><time>2026-04-29T13:06:25Z</time></trkpt><trkpt lat="42.29369503975437" lon="13.339632951563082"><ele>940.5</ele><time>2026-04-29T13:06:26Z</time></trkpt><trkpt lat="42.29380448985186" lon="13.339540918361841"><ele>936.25</ele><time>2026-04-29T13:06:27Z</time></trkpt><trkpt lat="42.29392090305111" lon="13.339480557955794"><ele>932.0</ele><time>2026-04-29T13:06:28Z</time></trkpt><trkpt lat="42.29405917008475" lon="13.339485618909514"><ele>931.3333333333334</ele><time>2026-04-29T13:06:29Z</time></trkpt><trkpt lat="42.29421347546464" lon="13.339538100436135"><ele>930.6666666666667</ele><time>2026-04-29T13:06:30Z</time></trkpt><trkpt lat="42.29437253161514" lon="13.339609467932219"><ele>930.0</ele><time>2026-04-29T13:06:31Z</time></trkpt><trkpt lat="42.29449483548237" lon="13.339710581052657"><ele>931.25</ele><time>2026-04-29T13:06:32Z</time></trkpt><trkpt lat="42.294597137345505" lon="13.339848319623725"><ele>932.5</ele><time>2026-04-29T13:06:33Z</time></trkpt><trkpt lat="42.29470306442295" lon="13.339993734333428"><ele>933.75</ele><time>2026-04-29T13:06:34Z</time></trkpt><trkpt lat="42.294802199100296" lon="13.34012048997766"><ele>935.0</ele><time>2026-04-29T13:06:35Z</time></trkpt><trkpt lat="42.294897223829324" lon="13.340238178166985"><ele>935.0</ele><time>2026-04-29T13:06:36Z</time></trkpt><trkpt lat="42.29498175430644" lon="13.340346732804054"><ele>935.0</ele><time>2026-04-29T13:06:37Z</time></trkpt><trkpt lat="42.295055941594384" lon="13.340445846105128"><ele>935.0</ele><time>2026-04-29T13:06:38Z</time></trkpt><trkpt lat="42.29513592064021" lon="13.340518597085705"><ele>935.0</ele><time>2026-04-29T13:06:39Z</time></trkpt><trkpt lat="42.2952115289324" lon="13.340529266204065"><ele>935.0</ele><time>2026-04-29T13:06:40Z</time></trkpt><trkpt lat="42.29528571390803" lon="13.340471258795102"><ele>935.0</ele><time>2026-04-29T13:06:41Z</time></trkpt><trkpt lat="42.295353694620246" lon="13.340344116560944"><ele>935.0</ele><time>2026-04-29T13:06:42Z</time></trkpt><trkpt lat="42.295400591582144" lon="13.340165305533585"><ele>935.0</ele><time>2026-04-29T13:06:43Z</time></trkpt><trkpt lat="42.295448600948006" lon="13.339938618538557"><ele>935.0</ele><time>2026-04-29T13:06:44Z</time></trkpt><trkpt lat="42.29550506860036" lon="13.339683708458711"><ele>928.5</ele><time>2026-04-29T13:06:45Z</time></trkpt><trkpt lat="42.29554114712615" lon="13.33937923165888"><ele>922.0</ele><time>2026-04-29T13:06:46Z</time></trkpt><trkpt lat="42.29552923683829" lon="13.339060290278544"><ele>918.3333333333333</ele><time>2026-04-29T13:06:47Z</time></trkpt><trkpt lat="42.29554454594106" lon="13.338791102296828"><ele>914.6666666666667</ele><time>2026-04-29T13:06:48Z</time></trkpt><trkpt lat="42.29556956802801" lon="13.338546198191647"><ele>911.0</ele><time>2026-04-29T13:06:49Z</time></trkpt><trkpt lat="42.29554852204484" lon="13.338353111557794"><ele>911.0</ele><time>2026-04-29T13:06:50Z</time></trkpt><trkpt lat="42.295538629434006" lon="13.338173897880715"><ele>911.0</ele><time>2026-04-29T13:06:51Z</time></trkpt><trkpt lat="42.29552726685538" lon="13.337989841134057"><ele>911.0</ele><time>2026-04-29T13:06:52Z</time></trkpt><trkpt lat="42.295597554542056" lon="13.337873526837791"><ele>911.0</ele><time>2026-04-29T13:06:53Z</time></trkpt><trkpt lat="42.29566839812858" lon="13.337790571814656"><ele>916.3333333333334</ele><time>2026-04-29T13:06:54Z</time></trkpt><trkpt lat="42.2958106312692" lon="13.337680962995762"><ele>921.6666666666667</ele><time>2026-04-29T13:06:55Z</time></trkpt><trkpt lat="42.295999533132544" lon="13.337540451668906"><ele>927.0</ele><time>2026-04-29T13:06:56Z</time></trkpt><trkpt lat="42.29619083532194" lon="13.33739435112297"><ele>927.0</ele><time>2026-04-29T13:06:57Z</time></trkpt><trkpt lat="42.29636474323327" lon="13.337263872141598"><ele>927.0</ele><time>2026-04-29T13:06:58Z</time></trkpt><trkpt lat="42.296537848035285" lon="13.33713549480873"><ele>927.0</ele><time>2026-04-29T13:06:59Z</time></trkpt><trkpt lat="42.2967178004887" lon="13.336999270560346"><ele>923.3333333333333</ele><time>2026-04-29T13:07:00Z</time></trkpt><trkpt lat="42.296874153471826" lon="13.336877236797083"><ele>919.6666666666666</ele><time>2026-04-29T13:07:00.999Z</time></trkpt><trkpt lat="42.29699558768114" lon="13.336738893942107"><ele>916.0</ele><time>2026-04-29T13:07:01.999Z</time></trkpt><trkpt lat="42.29715805997991" lon="13.33665616725921"><ele>918.3333333333333</ele><time>2026-04-29T13:07:02.999Z</time></trkpt><trkpt lat="42.29734331626529" lon="13.336597101946692"><ele>920.6666666666667</ele><time>2026-04-29T13:07:03.999Z</time></trkpt><trkpt lat="42.297542353277485" lon="13.336601213749416"><ele>923.0</ele><time>2026-04-29T13:07:04.999Z</time></trkpt><trkpt lat="42.29773419701491" lon="13.336595705951328"><ele>923.0</ele><time>2026-04-29T13:07:05.999Z</time></trkpt><trkpt lat="42.29787241253334" lon="13.336537824885442"><ele>923.0</ele><time>2026-04-29T13:07:06.999Z</time></trkpt><trkpt lat="42.298005953257686" lon="13.336517819617677"><ele>923.0</ele><time>2026-04-29T13:07:07.999Z</time></trkpt><trkpt lat="42.2980954295978" lon="13.33645881706547"><ele>923.0</ele><time>2026-04-29T13:07:08.999Z</time></trkpt><trkpt lat="42.298200551589915" lon="13.33634652810821"><ele>922.3333333333334</ele><time>2026-04-29T13:07:09.999Z</time></trkpt><trkpt lat="42.29823757136414" lon="13.336148634241418"><ele>921.6666666666667</ele><time>2026-04-29T13:07:10.999Z</time></trkpt><trkpt lat="42.29822542183804" lon="13.335920316135548"><ele>921.0</ele><time>2026-04-29T13:07:11.999Z</time></trkpt><trkpt lat="42.29821420358531" lon="13.335744121816946"><ele>921.0</ele><time>2026-04-29T13:07:12.999Z</time></trkpt><trkpt lat="42.29821748990427" lon="13.335597227419418"><ele>921.0</ele><time>2026-04-29T13:07:13.999Z</time></trkpt><trkpt lat="42.29826273418829" lon="13.335444073536157"><ele>921.0</ele><time>2026-04-29T13:07:14.999Z</time></trkpt><trkpt lat="42.298349368723024" lon="13.335315590850714"><ele>921.0</ele><time>2026-04-29T13:07:15.999Z</time></trkpt><trkpt lat="42.298499886104345" lon="13.335172714982708"><ele>918.0</ele><time>2026-04-29T13:07:16.999Z</time></trkpt><trkpt lat="42.29863713401537" lon="13.335064060847838"><ele>915.0</ele><time>2026-04-29T13:07:17.999Z</time></trkpt><trkpt lat="42.29873687884177" lon="13.334994073413116"><ele>912.0</ele><time>2026-04-29T13:07:18.999Z</time></trkpt><trkpt lat="42.29885789329425" lon="13.334950642548812"><ele>909.0</ele><time>2026-04-29T13:07:19.999Z</time></trkpt><trkpt lat="42.29900742011036" lon="13.334956185697953"><ele>909.0</ele><time>2026-04-29T13:07:20.999Z</time></trkpt><trkpt lat="42.299177013458895" lon="13.33505192839632"><ele>909.0</ele><time>2026-04-29T13:07:21.999Z</time></trkpt><trkpt lat="42.29932154453765" lon="13.335119371341131"><ele>909.0</ele><time>2026-04-29T13:07:22.999Z</time></trkpt><trkpt lat="42.29950341783086" lon="13.335135001347696"><ele>909.0</ele><time>2026-04-29T13:07:23.999Z</time></trkpt><trkpt lat="42.29975323559053" lon="13.33504693119564"><ele>909.0</ele><time>2026-04-29T13:07:24.999Z</time></trkpt><trkpt lat="42.299924113616676" lon="13.335001506207075"><ele>909.0</ele><time>2026-04-29T13:07:25.999Z</time></trkpt><trkpt lat="42.30004799838864" lon="13.334965849479888"><ele>909.0</ele><time>2026-04-29T13:07:26.999Z</time></trkpt><trkpt lat="42.30017175042864" lon="13.33494001790931"><ele>909.0</ele><time>2026-04-29T13:07:27.999Z</time></trkpt><trkpt lat="42.30028466260945" lon="13.334864797011951"><ele>909.0</ele><time>2026-04-29T13:07:28.999Z</time></trkpt><trkpt lat="42.30033747289105" lon="13.334742553585762"><ele>909.0</ele><time>2026-04-29T13:07:29.999Z</time></trkpt><trkpt lat="42.30034568691802" lon="13.334561786523468"><ele>904.6666666666667</ele><time>2026-04-29T13:07:30.999Z</time></trkpt><trkpt lat="42.30031249326813" lon="13.334346520092252"><ele>900.3333333333334</ele><time>2026-04-29T13:07:31.999Z</time></trkpt><trkpt lat="42.300290550301035" lon="13.33409058039615"><ele>896.0</ele><time>2026-04-29T13:07:32.999Z</time></trkpt><trkpt lat="42.30033564857864" lon="13.333835434134906"><ele>893.25</ele><time>2026-04-29T13:07:33.999Z</time></trkpt><trkpt lat="42.30032426069698" lon="13.333621005620943"><ele>890.5</ele><time>2026-04-29T13:07:34.999Z</time></trkpt><trkpt lat="42.30033106184711" lon="13.333429324667607"><ele>887.75</ele><time>2026-04-29T13:07:35.999Z</time></trkpt><trkpt lat="42.30037397065913" lon="13.333258434343666"><ele>885.0</ele><time>2026-04-29T13:07:36.999Z</time></trkpt><trkpt lat="42.30046407125448" lon="13.333108495195072"><ele>884.0</ele><time>2026-04-29T13:07:37.999Z</time></trkpt><trkpt lat="42.300617423501336" lon="13.333040255558851"><ele>883.0</ele><time>2026-04-29T13:07:38.999Z</time></trkpt><trkpt lat="42.30079582096059" lon="13.332937776202865"><ele>882.0</ele><time>2026-04-29T13:07:39.999Z</time></trkpt><trkpt lat="42.30096037632809" lon="13.332843723812877"><ele>882.0</ele><time>2026-04-29T13:07:40.999Z</time></trkpt><trkpt lat="42.301127969079694" lon="13.33275922197231"><ele>882.0</ele><time>2026-04-29T13:07:41.999Z</time></trkpt><trkpt lat="42.301284784630134" lon="13.33271399103168"><ele>882.0</ele><time>2026-04-29T13:07:42.999Z</time></trkpt><trkpt lat="42.30142777990358" lon="13.332706686809324"><ele>884.3333333333333</ele><time>2026-04-29T13:07:43.999Z</time></trkpt><trkpt lat="42.30159180578979" lon="13.33269800522151"><ele>886.6666666666666</ele><time>2026-04-29T13:07:45Z</time></trkpt><trkpt lat="42.30174609101926" lon="13.332600540995822"><ele>889.0</ele><time>2026-04-29T13:07:46Z</time></trkpt><trkpt lat="42.30189225341118" lon="13.332417100641106"><ele>889.0</ele><time>2026-04-29T13:07:47Z</time></trkpt><trkpt lat="42.30204796634538" lon="13.332273399888363"><ele>889.0</ele><time>2026-04-29T13:07:48Z</time></trkpt><trkpt lat="42.30227760538522" lon="13.33214275450449"><ele>889.0</ele><time>2026-04-29T13:07:49Z</time></trkpt><trkpt lat="42.30244849703473" lon="13.332046132690692"><ele>886.0</ele><time>2026-04-29T13:07:50Z</time></trkpt><trkpt lat="42.30257767475994" lon="13.331964335209477"><ele>883.0</ele><time>2026-04-29T13:07:51Z</time></trkpt><trkpt lat="42.302714680419534" lon="13.331879742953525"><ele>880.0</ele><time>2026-04-29T13:07:52Z</time></trkpt><trkpt lat="42.30286189083414" lon="13.33182986502369"><ele>877.0</ele><time>2026-04-29T13:07:53Z</time></trkpt><trkpt lat="42.30303062772982" lon="13.331880527551048"><ele>878.6666666666666</ele><time>2026-04-29T13:07:54Z</time></trkpt><trkpt lat="42.30325728851829" lon="13.331901418404307"><ele>880.3333333333333</ele><time>2026-04-29T13:07:55Z</time></trkpt><trkpt lat="42.30344455634764" lon="13.331868321362585"><ele>882.0</ele><time>2026-04-29T13:07:56Z</time></trkpt><trkpt lat="42.30358714181357" lon="13.331840687105924"><ele>882.0</ele><time>2026-04-29T13:07:57Z</time></trkpt><trkpt lat="42.30374482353498" lon="13.331812428260982"><ele>882.0</ele><time>2026-04-29T13:07:58Z</time></trkpt><trkpt lat="42.3038630286436" lon="13.33181454209737"><ele>882.0</ele><time>2026-04-29T13:07:59Z</time></trkpt><trkpt lat="42.30397110474295" lon="13.331776272880914"><ele>882.0</ele><time>2026-04-29T13:08:00Z</time></trkpt><trkpt lat="42.30407482478932" lon="13.331709630482315"><ele>883.0</ele><time>2026-04-29T13:08:01Z</time></trkpt><trkpt lat="42.30411087519846" lon="13.33157901666793"><ele>884.0</ele><time>2026-04-29T13:08:02Z</time></trkpt><trkpt lat="42.304170507187465" lon="13.331417192825766"><ele>885.0</ele><time>2026-04-29T13:08:03Z</time></trkpt><trkpt lat="42.30418198926597" lon="13.331218111254383"><ele>886.0</ele><time>2026-04-29T13:08:04Z</time></trkpt><trkpt lat="42.304205122941696" lon="13.331047333496658"><ele>883.0</ele><time>2026-04-29T13:08:05Z</time></trkpt><trkpt lat="42.30424403138229" lon="13.330895565919715"><ele>879.9999999999999</ele><time>2026-04-29T13:08:06Z</time></trkpt><trkpt lat="42.30430800613208" lon="13.330790100271264"><ele>876.9999999999999</ele><time>2026-04-29T13:08:07Z</time></trkpt><trkpt lat="42.30438638879925" lon="13.330729105463808"><ele>874.0</ele><time>2026-04-29T13:08:08Z</time></trkpt><trkpt lat="42.304471074459855" lon="13.330729083132459"><ele>871.0</ele><time>2026-04-29T13:08:09Z</time></trkpt><trkpt lat="42.304559581932" lon="13.330788056927616"><ele>871.0</ele><time>2026-04-29T13:08:10Z</time></trkpt><trkpt lat="42.304640801148786" lon="13.330849138444705"><ele>871.0</ele><time>2026-04-29T13:08:11Z</time></trkpt><trkpt lat="42.30475529358346" lon="13.330879418923763"><ele>871.0</ele><time>2026-04-29T13:08:12Z</time></trkpt><trkpt lat="42.30491383729843" lon="13.330869320412168"><ele>871.0</ele><time>2026-04-29T13:08:13Z</time></trkpt><trkpt lat="42.305085120291054" lon="13.330822856769158"><ele>872.0</ele><time>2026-04-29T13:08:14Z</time></trkpt><trkpt lat="42.305232711109376" lon="13.330752023363043"><ele>873.0</ele><time>2026-04-29T13:08:15Z</time></trkpt><trkpt lat="42.30536891536808" lon="13.33064488731373"><ele>874.0</ele><time>2026-04-29T13:08:16Z</time></trkpt><trkpt lat="42.30551835825175" lon="13.330532981405408"><ele>866.6666666666666</ele><time>2026-04-29T13:08:17Z</time></trkpt><trkpt lat="42.305656818662115" lon="13.330406853485405"><ele>859.3333333333333</ele><time>2026-04-29T13:08:18Z</time></trkpt><trkpt lat="42.30579634320341" lon="13.330330345377176"><ele>852.0</ele><time>2026-04-29T13:08:19Z</time></trkpt><trkpt lat="42.30593444586039" lon="13.330279596046825"><ele>852.0</ele><time>2026-04-29T13:08:20Z</time></trkpt><trkpt lat="42.30606973194685" lon="13.330258920816826"><ele>852.0</ele><time>2026-04-29T13:08:21Z</time></trkpt><trkpt lat="42.306213529278516" lon="13.330257021267906"><ele>852.0</ele><time>2026-04-29T13:08:22Z</time></trkpt><trkpt lat="42.30635910659285" lon="13.330289515757336"><ele>852.0</ele><time>2026-04-29T13:08:23Z</time></trkpt><trkpt lat="42.3064969050202" lon="13.330330196930563"><ele>852.25</ele><time>2026-04-29T13:08:24Z</time></trkpt><trkpt lat="42.306639402864896" lon="13.330362076403013"><ele>852.5</ele><time>2026-04-29T13:08:25Z</time></trkpt><trkpt lat="42.306779387356066" lon="13.330384689614402"><ele>852.75</ele><time>2026-04-29T13:08:26Z</time></trkpt><trkpt lat="42.306903300117526" lon="13.330403105575606"><ele>853.0</ele><time>2026-04-29T13:08:27Z</time></trkpt><trkpt lat="42.307029158038326" lon="13.330432493058666"><ele>853.0</ele><time>2026-04-29T13:08:28Z</time></trkpt><trkpt lat="42.30713382893425" lon="13.330502956012742"><ele>853.0</ele><time>2026-04-29T13:08:29Z</time></trkpt><trkpt lat="42.30722838752609" lon="13.330606108655807"><ele>853.0</ele><time>2026-04-29T13:08:30Z</time></trkpt><trkpt lat="42.30730978169952" lon="13.330729315736322"><ele>853.0</ele><time>2026-04-29T13:08:31Z</time></trkpt><trkpt lat="42.30739117085018" lon="13.330850814229985"><ele>853.4</ele><time>2026-04-29T13:08:32Z</time></trkpt><trkpt lat="42.307468775113335" lon="13.33096502830493"><ele>853.8</ele><time>2026-04-29T13:08:33Z</time></trkpt><trkpt lat="42.30754741379745" lon="13.33107433597204"><ele>854.2</ele><time>2026-04-29T13:08:34Z</time></trkpt><trkpt lat="42.30762209894209" lon="13.331179360497872"><ele>854.6</ele><time>2026-04-29T13:08:35Z</time></trkpt><trkpt lat="42.30769395051498" lon="13.331267026781429"><ele>855.0</ele><time>2026-04-29T13:08:36Z</time></trkpt><trkpt lat="42.30777451911371" lon="13.33131032184455"><ele>855.0</ele><time>2026-04-29T13:08:37Z</time></trkpt><trkpt lat="42.30786251892897" lon="13.331288335157964"><ele>855.0</ele><time>2026-04-29T13:08:38Z</time></trkpt><trkpt lat="42.3079377853677" lon="13.331230919066218"><ele>855.0</ele><time>2026-04-29T13:08:39Z</time></trkpt><trkpt lat="42.308001081398594" lon="13.331133714048686"><ele>855.0</ele><time>2026-04-29T13:08:40Z</time></trkpt><trkpt lat="42.30805752413199" lon="13.331003739587342"><ele>855.0</ele><time>2026-04-29T13:08:41Z</time></trkpt><trkpt lat="42.30813365335847" lon="13.330861428414522"><ele>854.25</ele><time>2026-04-29T13:08:42Z</time></trkpt><trkpt lat="42.30818871277422" lon="13.33070087764111"><ele>853.5</ele><time>2026-04-29T13:08:43Z</time></trkpt><trkpt lat="42.30825973251836" lon="13.330573954682814"><ele>852.75</ele><time>2026-04-29T13:08:44Z</time></trkpt><trkpt lat="42.30834691677528" lon="13.330489416321912"><ele>852.0</ele><time>2026-04-29T13:08:45Z</time></trkpt><trkpt lat="42.30843614538122" lon="13.33042415086278"><ele>849.0</ele><time>2026-04-29T13:08:46Z</time></trkpt><trkpt lat="42.3085464754342" lon="13.330352276093295"><ele>846.0</ele><time>2026-04-29T13:08:47Z</time></trkpt><trkpt lat="42.30863013062977" lon="13.330197418260518"><ele>843.0</ele><time>2026-04-29T13:08:48Z</time></trkpt><trkpt lat="42.30870219501794" lon="13.330048638191096"><ele>840.0</ele><time>2026-04-29T13:08:49Z</time></trkpt><trkpt lat="42.30877363380591" lon="13.329922760165235"><ele>840.0</ele><time>2026-04-29T13:08:50Z</time></trkpt><trkpt lat="42.30885869437425" lon="13.32981323481507"><ele>840.0</ele><time>2026-04-29T13:08:51Z</time></trkpt><trkpt lat="42.30895250114595" lon="13.32973374297477"><ele>840.0</ele><time>2026-04-29T13:08:52Z</time></trkpt><trkpt lat="42.30904833848671" lon="13.329670830447304"><ele>840.0</ele><time>2026-04-29T13:08:53Z</time></trkpt><trkpt lat="42.30915733116436" lon="13.329666859193608"><ele>840.0</ele><time>2026-04-29T13:08:54Z</time></trkpt><trkpt lat="42.30927508668338" lon="13.329654570488694"><ele>839.5</ele><time>2026-04-29T13:08:55Z</time></trkpt><trkpt lat="42.30940516548153" lon="13.329644191030868"><ele>839.0</ele><time>2026-04-29T13:08:56Z</time></trkpt><trkpt lat="42.30953229979683" lon="13.329632801693332"><ele>838.5</ele><time>2026-04-29T13:08:57Z</time></trkpt><trkpt lat="42.309661196860546" lon="13.329610378062902"><ele>838.0</ele><time>2026-04-29T13:08:58Z</time></trkpt><trkpt lat="42.30978429293383" lon="13.329555657578227"><ele>838.0</ele><time>2026-04-29T13:08:59Z</time></trkpt><trkpt lat="42.30991060263461" lon="13.329456838434742"><ele>838.0</ele><time>2026-04-29T13:09:00Z</time></trkpt><trkpt lat="42.310025025236385" lon="13.32934776156714"><ele>838.0</ele><time>2026-04-29T13:09:01Z</time></trkpt><trkpt lat="42.31012104261085" lon="13.329259932234597"><ele>838.0</ele><time>2026-04-29T13:09:02Z</time></trkpt><trkpt lat="42.31023081708971" lon="13.329230177501753"><ele>838.0</ele><time>2026-04-29T13:09:02.999Z</time></trkpt><trkpt lat="42.31032362207421" lon="13.329214260229206"><ele>838.0</ele><time>2026-04-29T13:09:03.999Z</time></trkpt><trkpt lat="42.31041529923531" lon="13.329279136867285"><ele>838.0</ele><time>2026-04-29T13:09:04.999Z</time></trkpt><trkpt lat="42.31049020515049" lon="13.329413933711756"><ele>838.0</ele><time>2026-04-29T13:09:05.999Z</time></trkpt><trkpt lat="42.31056463380863" lon="13.329599747117431"><ele>839.5</ele><time>2026-04-29T13:09:06.999Z</time></trkpt><trkpt lat="42.31061615785731" lon="13.329773350249766"><ele>841.0</ele><time>2026-04-29T13:09:07.999Z</time></trkpt><trkpt lat="42.310660895309894" lon="13.3299324026183"><ele>842.5</ele><time>2026-04-29T13:09:08.999Z</time></trkpt><trkpt lat="42.31068585395468" lon="13.330072017829117"><ele>844.0</ele><time>2026-04-29T13:09:09.999Z</time></trkpt><trkpt lat="42.31070688901778" lon="13.330184980057638"><ele>844.0</ele><time>2026-04-29T13:09:10.999Z</time></trkpt><trkpt lat="42.31072875199075" lon="13.330276806326442"><ele>844.0</ele><time>2026-04-29T13:09:11.999Z</time></trkpt><trkpt lat="42.31076710304896" lon="13.330347025110314"><ele>844.0</ele><time>2026-04-29T13:09:12.999Z</time></trkpt><trkpt lat="42.310853394763484" lon="13.330447203997512"><ele>844.0</ele><time>2026-04-29T13:09:14.999Z</time></trkpt><trkpt lat="42.310943455049674" lon="13.330350896201104"><ele>844.0</ele><time>2026-04-29T13:09:15.999Z</time></trkpt><trkpt lat="42.3109982835928" lon="13.330253137839696"><ele>844.0</ele><time>2026-04-29T13:09:16.999Z</time></trkpt><trkpt lat="42.3110403812982" lon="13.330139888262842"><ele>844.0</ele><time>2026-04-29T13:09:17.999Z</time></trkpt><trkpt lat="42.31107409228476" lon="13.330006572851934"><ele>844.0</ele><time>2026-04-29T13:09:18.999Z</time></trkpt><trkpt lat="42.31113136336852" lon="13.32987398679214"><ele>844.0</ele><time>2026-04-29T13:09:19.999Z</time></trkpt><trkpt lat="42.31118427346637" lon="13.329716521263292"><ele>844.0</ele><time>2026-04-29T13:09:20.999Z</time></trkpt><trkpt lat="42.31121475658645" lon="13.329535890160036"><ele>842.0</ele><time>2026-04-29T13:09:21.999Z</time></trkpt><trkpt lat="42.3112357746587" lon="13.329363013661911"><ele>840.0</ele><time>2026-04-29T13:09:22.999Z</time></trkpt><trkpt lat="42.31126740911139" lon="13.329174552789397"><ele>838.0</ele><time>2026-04-29T13:09:23.999Z</time></trkpt><trkpt lat="42.31131231618358" lon="13.328969340984521"><ele>836.0</ele><time>2026-04-29T13:09:24.999Z</time></trkpt><trkpt lat="42.311375778095496" lon="13.328773433681377"><ele>836.0</ele><time>2026-04-29T13:09:25.999Z</time></trkpt><trkpt lat="42.311431120573154" lon="13.328596036648488"><ele>836.0</ele><time>2026-04-29T13:09:26.999Z</time></trkpt><trkpt lat="42.31148694580038" lon="13.328425890746882"><ele>836.0</ele><time>2026-04-29T13:09:27.999Z</time></trkpt><trkpt lat="42.3115569188734" lon="13.32827590325167"><ele>836.0</ele><time>2026-04-29T13:09:28.999Z</time></trkpt><trkpt lat="42.31164043566295" lon="13.328127554442975"><ele>830.3333333333334</ele><time>2026-04-29T13:09:29.999Z</time></trkpt><trkpt lat="42.31176276628288" lon="13.328003646086104"><ele>824.6666666666667</ele><time>2026-04-29T13:09:30.999Z</time></trkpt><trkpt lat="42.31189926547737" lon="13.327908864630224"><ele>819.0</ele><time>2026-04-29T13:09:31.999Z</time></trkpt><trkpt lat="42.312041103966834" lon="13.32784785637388"><ele>819.0</ele><time>2026-04-29T13:09:32.999Z</time></trkpt><trkpt lat="42.31217695212744" lon="13.327833649119123"><ele>819.0</ele><time>2026-04-29T13:09:33.999Z</time></trkpt><trkpt lat="42.31231173370893" lon="13.327877908279056"><ele>819.0</ele><time>2026-04-29T13:09:34.999Z</time></trkpt><trkpt lat="42.31245205251802" lon="13.327915834559276"><ele>819.0</ele><time>2026-04-29T13:09:35.999Z</time></trkpt><trkpt lat="42.31259888093843" lon="13.327912120820843"><ele>821.6666666666667</ele><time>2026-04-29T13:09:36.999Z</time></trkpt><trkpt lat="42.31273552848351" lon="13.327842533002924"><ele>824.3333333333334</ele><time>2026-04-29T13:09:37.999Z</time></trkpt><trkpt lat="42.31286858054031" lon="13.327714327389117"><ele>827.0</ele><time>2026-04-29T13:09:38.999Z</time></trkpt><trkpt lat="42.312982348450326" lon="13.327528608671"><ele>827.0</ele><time>2026-04-29T13:09:39.999Z</time></trkpt><trkpt lat="42.31306802586999" lon="13.327330338524641"><ele>827.0</ele><time>2026-04-29T13:09:40.999Z</time></trkpt><trkpt lat="42.31316268732786" lon="13.32715970589013"><ele>827.0</ele><time>2026-04-29T13:09:41.999Z</time></trkpt><trkpt lat="42.313290329392636" lon="13.327022883780467"><ele>824.6666666666667</ele><time>2026-04-29T13:09:42.999Z</time></trkpt><trkpt lat="42.31346844062543" lon="13.326925393264295"><ele>822.3333333333333</ele><time>2026-04-29T13:09:43.999Z</time></trkpt><trkpt lat="42.313681067176915" lon="13.326812356136655"><ele>820.0</ele><time>2026-04-29T13:09:44.999Z</time></trkpt><trkpt lat="42.313895866563925" lon="13.326694578090873"><ele>816.3333333333333</ele><time>2026-04-29T13:09:45.999Z</time></trkpt><trkpt lat="42.31407323843297" lon="13.326569644071329"><ele>812.6666666666667</ele><time>2026-04-29T13:09:46.999Z</time></trkpt><trkpt lat="42.31422475131372" lon="13.326447358191716"><ele>809.0</ele><time>2026-04-29T13:09:47.999Z</time></trkpt><trkpt lat="42.31438330966458" lon="13.326356876952463"><ele>809.0</ele><time>2026-04-29T13:09:48.999Z</time></trkpt><trkpt lat="42.31458240290708" lon="13.326304335782599"><ele>809.0</ele><time>2026-04-29T13:09:49.999Z</time></trkpt><trkpt lat="42.31479249668653" lon="13.326236576435488"><ele>809.0</ele><time>2026-04-29T13:09:51Z</time></trkpt><trkpt lat="42.31502311647219" lon="13.326070683305272"><ele>814.0</ele><time>2026-04-29T13:09:52Z</time></trkpt><trkpt lat="42.315209058540795" lon="13.325910634925922"><ele>819.0</ele><time>2026-04-29T13:09:53Z</time></trkpt><trkpt lat="42.31538624065894" lon="13.325771892492817"><ele>824.0</ele><time>2026-04-29T13:09:54Z</time></trkpt><trkpt lat="42.31555161647456" lon="13.325645081088387"><ele>819.3333333333334</ele><time>2026-04-29T13:09:55Z</time></trkpt><trkpt lat="42.31569841557998" lon="13.325533249055871"><ele>814.6666666666667</ele><time>2026-04-29T13:09:56Z</time></trkpt><trkpt lat="42.31585417226703" lon="13.325437107620877"><ele>810.0</ele><time>2026-04-29T13:09:57Z</time></trkpt><trkpt lat="42.315995709126526" lon="13.325368985428106"><ele>810.0</ele><time>2026-04-29T13:09:58Z</time></trkpt><trkpt lat="42.31613298807435" lon="13.32529758596037"><ele>810.0</ele><time>2026-04-29T13:09:59Z</time></trkpt><trkpt lat="42.316270025757305" lon="13.325150437962911"><ele>810.0</ele><time>2026-04-29T13:10:00Z</time></trkpt><trkpt lat="42.31636790078275" lon="13.324942051751574"><ele>807.0</ele><time>2026-04-29T13:10:01Z</time></trkpt><trkpt lat="42.31651630714762" lon="13.32477315446767"><ele>804.0</ele><time>2026-04-29T13:10:02Z</time></trkpt><trkpt lat="42.31671698882257" lon="13.324584021186253"><ele>801.0</ele><time>2026-04-29T13:10:03Z</time></trkpt><trkpt lat="42.3169047011312" lon="13.324408942353559"><ele>801.0</ele><time>2026-04-29T13:10:04Z</time></trkpt><trkpt lat="42.31706317635533" lon="13.324258804928178"><ele>801.0</ele><time>2026-04-29T13:10:05Z</time></trkpt><trkpt lat="42.31723702123985" lon="13.324099907544364"><ele>801.0</ele><time>2026-04-29T13:10:06Z</time></trkpt><trkpt lat="42.3174537606786" lon="13.323974393192902"><ele>795.5</ele><time>2026-04-29T13:10:07Z</time></trkpt><trkpt lat="42.31769168715021" lon="13.323877612492115"><ele>790.0</ele><time>2026-04-29T13:10:08Z</time></trkpt><trkpt lat="42.3179036344054" lon="13.323785134872555"><ele>792.6666666666666</ele><time>2026-04-29T13:10:09Z</time></trkpt><trkpt lat="42.318119182506656" lon="13.323704441945901"><ele>795.3333333333333</ele><time>2026-04-29T13:10:10Z</time></trkpt><trkpt lat="42.3183041189596" lon="13.32362993368174"><ele>798.0</ele><time>2026-04-29T13:10:11Z</time></trkpt><trkpt lat="42.318475040934274" lon="13.323533731671533"><ele>798.0</ele><time>2026-04-29T13:10:12Z</time></trkpt><trkpt lat="42.31863166663041" lon="13.32344703377774"><ele>798.0</ele><time>2026-04-29T13:10:13Z</time></trkpt><trkpt lat="42.318790292334064" lon="13.323371834273892"><ele>798.0</ele><time>2026-04-29T13:10:14Z</time></trkpt><trkpt lat="42.31893090301599" lon="13.323340981075951"><ele>797.6666666666667</ele><time>2026-04-29T13:10:15Z</time></trkpt><trkpt lat="42.31906397448244" lon="13.323422712286327"><ele>797.3333333333334</ele><time>2026-04-29T13:10:16Z</time></trkpt><trkpt lat="42.319217686245224" lon="13.323535721101443"><ele>797.0</ele><time>2026-04-29T13:10:17Z</time></trkpt><trkpt lat="42.31942327615041" lon="13.323581295337776"><ele>797.0</ele><time>2026-04-29T13:10:18Z</time></trkpt><trkpt lat="42.31961159050556" lon="13.323591026592974"><ele>797.0</ele><time>2026-04-29T13:10:19Z</time></trkpt><trkpt lat="42.31978219963522" lon="13.323596084706312"><ele>797.0</ele><time>2026-04-29T13:10:20Z</time></trkpt><trkpt lat="42.319941661055076" lon="13.323575909836554"><ele>795.0</ele><time>2026-04-29T13:10:21Z</time></trkpt><trkpt lat="42.320078066750575" lon="13.323499936460998"><ele>793.0</ele><time>2026-04-29T13:10:22Z</time></trkpt><trkpt lat="42.320224241002904" lon="13.323438970800328"><ele>791.0</ele><time>2026-04-29T13:10:23Z</time></trkpt><trkpt lat="42.320377818963536" lon="13.323449350651352"><ele>791.0</ele><time>2026-04-29T13:10:24Z</time></trkpt><trkpt lat="42.32052001745318" lon="13.323468733064733"><ele>791.0</ele><time>2026-04-29T13:10:25Z</time></trkpt><trkpt lat="42.32068448731165" lon="13.323424735614928"><ele>791.0</ele><time>2026-04-29T13:10:26Z</time></trkpt><trkpt lat="42.320843411563295" lon="13.323311023446855"><ele>792.0</ele><time>2026-04-29T13:10:27Z</time></trkpt><trkpt lat="42.32103742316404" lon="13.323174936560555"><ele>793.0</ele><time>2026-04-29T13:10:28Z</time></trkpt><trkpt lat="42.321275666798336" lon="13.32312738032577"><ele>797.5</ele><time>2026-04-29T13:10:29Z</time></trkpt><trkpt lat="42.321475933643136" lon="13.32306454411547"><ele>802.0</ele><time>2026-04-29T13:10:30Z</time></trkpt><trkpt lat="42.32171307367357" lon="13.322975076253387"><ele>793.3333333333333</ele><time>2026-04-29T13:10:31Z</time></trkpt><trkpt lat="42.3219083629781" lon="13.32291423835136"><ele>784.6666666666667</ele><time>2026-04-29T13:10:32Z</time></trkpt><trkpt lat="42.32213316079703" lon="13.322873791202577"><ele>776.0</ele><time>2026-04-29T13:10:33Z</time></trkpt><trkpt lat="42.32235200985338" lon="13.322836085677745"><ele>774.5</ele><time>2026-04-29T13:10:34Z</time></trkpt><trkpt lat="42.32258500458368" lon="13.32279158806456"><ele>773.0</ele><time>2026-04-29T13:10:35Z</time></trkpt><trkpt lat="42.32281641495905" lon="13.322773863585084"><ele>773.0</ele><time>2026-04-29T13:10:36Z</time></trkpt><trkpt lat="42.32304742123591" lon="13.322736055635739"><ele>773.0</ele><time>2026-04-29T13:10:37Z</time></trkpt><trkpt lat="42.323266024627515" lon="13.322751043343514"><ele>773.3333333333334</ele><time>2026-04-29T13:10:38Z</time></trkpt><trkpt lat="42.32346735262733" lon="13.322774615518412"><ele>773.6666666666667</ele><time>2026-04-29T13:10:39Z</time></trkpt><trkpt lat="42.32365094067704" lon="13.322799588964003"><ele>774.0</ele><time>2026-04-29T13:10:40Z</time></trkpt><trkpt lat="42.323832467293485" lon="13.32279517975044"><ele>775.6666666666667</ele><time>2026-04-29T13:10:41Z</time></trkpt><trkpt lat="42.323996901831784" lon="13.32273496571719"><ele>777.3333333333334</ele><time>2026-04-29T13:10:42Z</time></trkpt><trkpt lat="42.324170947274354" lon="13.322653509873847"><ele>779.0</ele><time>2026-04-29T13:10:43Z</time></trkpt><trkpt lat="42.32435314932542" lon="13.32252572770827"><ele>779.0</ele><time>2026-04-29T13:10:44Z</time></trkpt><trkpt lat="42.324535849522675" lon="13.322395820280741"><ele>779.0</ele><time>2026-04-29T13:10:45Z</time></trkpt><trkpt lat="42.324703871483415" lon="13.322294958474627"><ele>779.0</ele><time>2026-04-29T13:10:46Z</time></trkpt><trkpt lat="42.32486602696543" lon="13.32220128805395"><ele>775.3333333333334</ele><time>2026-04-29T13:10:47Z</time></trkpt><trkpt lat="42.32499192806206" lon="13.322085833016354"><ele>771.6666666666667</ele><time>2026-04-29T13:10:48Z</time></trkpt><trkpt lat="42.32510287267093" lon="13.321920279790495"><ele>768.0</ele><time>2026-04-29T13:10:49Z</time></trkpt><trkpt lat="42.32524856701203" lon="13.321703798275255"><ele>768.0</ele><time>2026-04-29T13:10:50Z</time></trkpt><trkpt lat="42.325436943818026" lon="13.321508260399934"><ele>768.0</ele><time>2026-04-29T13:10:51Z</time></trkpt><trkpt lat="42.32560300478051" lon="13.321352416001801"><ele>768.0</ele><time>2026-04-29T13:10:52Z</time></trkpt><trkpt lat="42.325753589332365" lon="13.321217648482712"><ele>766.25</ele><time>2026-04-29T13:10:53Z</time></trkpt><trkpt lat="42.32588671357375" lon="13.321101362577393"><ele>764.5</ele><time>2026-04-29T13:10:54Z</time></trkpt><trkpt lat="42.32601173208836" lon="13.32101071328025"><ele>762.75</ele><time>2026-04-29T13:10:55Z</time></trkpt><trkpt lat="42.32612172864735" lon="13.320962350919775"><ele>761.0</ele><time>2026-04-29T13:10:56Z</time></trkpt><trkpt lat="42.326220888411335" lon="13.321005646330661"><ele>761.0</ele><time>2026-04-29T13:10:57Z</time></trkpt><trkpt lat="42.326258863422915" lon="13.32112717533617"><ele>761.0</ele><time>2026-04-29T13:10:58Z</time></trkpt><trkpt lat="42.32631334455887" lon="13.321248381319224"><ele>761.0</ele><time>2026-04-29T13:10:59Z</time></trkpt><trkpt lat="42.32639499858782" lon="13.321423237224552"><ele>761.0</ele><time>2026-04-29T13:11:00Z</time></trkpt><trkpt lat="42.32652265057643" lon="13.321622460377132"><ele>761.6666666666666</ele><time>2026-04-29T13:11:01Z</time></trkpt><trkpt lat="42.3267046267804" lon="13.321787377933957"><ele>762.3333333333334</ele><time>2026-04-29T13:11:02Z</time></trkpt><trkpt lat="42.32687329054133" lon="13.32191134753751"><ele>763.0</ele><time>2026-04-29T13:11:03Z</time></trkpt><trkpt lat="42.3270285560597" lon="13.322023679716395"><ele>763.0</ele><time>2026-04-29T13:11:04Z</time></trkpt><trkpt lat="42.32715475612421" lon="13.322131358375152"><ele>763.0</ele><time>2026-04-29T13:11:05Z</time></trkpt><trkpt lat="42.327261090413444" lon="13.322268792537528"><ele>763.0</ele><time>2026-04-29T13:11:06Z</time></trkpt><trkpt lat="42.327354299452075" lon="13.322355596770214"><ele>763.0</ele><time>2026-04-29T13:11:07Z</time></trkpt><trkpt lat="42.32747021433604" lon="13.3223750372842"><ele>763.3333333333334</ele><time>2026-04-29T13:11:08Z</time></trkpt><trkpt lat="42.3276107817013" lon="13.32231827391509"><ele>763.6666666666666</ele><time>2026-04-29T13:11:08.999Z</time></trkpt><trkpt lat="42.32777420635669" lon="13.322190893398169"><ele>764.0</ele><time>2026-04-29T13:11:09.999Z</time></trkpt><trkpt lat="42.327960584164444" lon="13.322053091825769"><ele>757.0</ele><time>2026-04-29T13:11:10.999Z</time></trkpt><trkpt lat="42.328184124438785" lon="13.321972173241589"><ele>750.0</ele><time>2026-04-29T13:11:11.999Z</time></trkpt><trkpt lat="42.32842611193515" lon="13.32191372804401"><ele>750.0</ele><time>2026-04-29T13:11:12.999Z</time></trkpt><trkpt lat="42.328629107422074" lon="13.321878975826545"><ele>750.0</ele><time>2026-04-29T13:11:13.999Z</time></trkpt><trkpt lat="42.32884407736764" lon="13.321858076138401"><ele>750.0</ele><time>2026-04-29T13:11:14.999Z</time></trkpt><trkpt lat="42.32907905869694" lon="13.321885853801472"><ele>750.0</ele><time>2026-04-29T13:11:15.999Z</time></trkpt><trkpt lat="42.329331427213056" lon="13.321912039161916"><ele>750.0</ele><time>2026-04-29T13:11:16.999Z</time></trkpt><trkpt lat="42.32956327868012" lon="13.321933797318867"><ele>748.0</ele><time>2026-04-29T13:11:17.999Z</time></trkpt><trkpt lat="42.32978129401853" lon="13.321945902650652"><ele>746.0</ele><time>2026-04-29T13:11:18.999Z</time></trkpt><trkpt lat="42.33000139878683" lon="13.321923350401981"><ele>744.0</ele><time>2026-04-29T13:11:19.999Z</time></trkpt><trkpt lat="42.33020519116376" lon="13.321922991239504"><ele>744.0</ele><time>2026-04-29T13:11:20.999Z</time></trkpt><trkpt lat="42.33043368046855" lon="13.321996441451805"><ele>744.0</ele><time>2026-04-29T13:11:21.999Z</time></trkpt><trkpt lat="42.330686396629055" lon="13.32206628629043"><ele>742.0</ele><time>2026-04-29T13:11:22.999Z</time></trkpt><trkpt lat="42.33091835147838" lon="13.322141500595583"><ele>740.0</ele><time>2026-04-29T13:11:23.999Z</time></trkpt><trkpt lat="42.33114669598477" lon="13.322219216051925"><ele>739.5</ele><time>2026-04-29T13:11:24.999Z</time></trkpt><trkpt lat="42.33140294965711" lon="13.322227257551944"><ele>739.0</ele><time>2026-04-29T13:11:25.999Z</time></trkpt><trkpt lat="42.33169574860147" lon="13.32216135587776"><ele>739.0</ele><time>2026-04-29T13:11:26.999Z</time></trkpt><trkpt lat="42.33199815267362" lon="13.32211857345208"><ele>739.0</ele><time>2026-04-29T13:11:27.999Z</time></trkpt><trkpt lat="42.33232730935262" lon="13.322037134318103"><ele>738.0</ele><time>2026-04-29T13:11:28.999Z</time></trkpt><trkpt lat="42.33264964050937" lon="13.321983591258155"><ele>737.0</ele><time>2026-04-29T13:11:29.999Z</time></trkpt><trkpt lat="42.33294241078391" lon="13.321940485019228"><ele>734.5</ele><time>2026-04-29T13:11:30.999Z</time></trkpt><trkpt lat="42.33321782802753" lon="13.321890631143528"><ele>732.0</ele><time>2026-04-29T13:11:31.999Z</time></trkpt><trkpt lat="42.333485292451876" lon="13.321827731507648"><ele>732.0</ele><time>2026-04-29T13:11:32.999Z</time></trkpt><trkpt lat="42.33377528334478" lon="13.321712203882347"><ele>732.0</ele><time>2026-04-29T13:11:33.999Z</time></trkpt><trkpt lat="42.33406890857059" lon="13.321528981016433"><ele>731.5</ele><time>2026-04-29T13:11:34.999Z</time></trkpt><trkpt lat="42.33438102085154" lon="13.321339528912862"><ele>731.0</ele><time>2026-04-29T13:11:35.999Z</time></trkpt><trkpt lat="42.33470307352066" lon="13.321150768784255"><ele>733.0</ele><time>2026-04-29T13:11:36.999Z</time></trkpt><trkpt lat="42.334996228637955" lon="13.32097907702467"><ele>735.0</ele><time>2026-04-29T13:11:37.999Z</time></trkpt><trkpt lat="42.33526783371736" lon="13.320815477702615"><ele>735.0</ele><time>2026-04-29T13:11:38.999Z</time></trkpt><trkpt lat="42.335528675968" lon="13.320662665485072"><ele>735.0</ele><time>2026-04-29T13:11:39.999Z</time></trkpt><trkpt lat="42.335777689872614" lon="13.320519033473884"><ele>730.5</ele><time>2026-04-29T13:11:40.999Z</time></trkpt><trkpt lat="42.33601245293119" lon="13.32037875060321"><ele>726.0</ele><time>2026-04-29T13:11:41.999Z</time></trkpt><trkpt lat="42.33623633692647" lon="13.320242038845862"><ele>727.3333333333334</ele><time>2026-04-29T13:11:42.999Z</time></trkpt><trkpt lat="42.33643960507924" lon="13.320130281282244"><ele>728.6666666666667</ele><time>2026-04-29T13:11:43.999Z</time></trkpt><trkpt lat="42.33662542162062" lon="13.320042013922516"><ele>730.0</ele><time>2026-04-29T13:11:44.999Z</time></trkpt><trkpt lat="42.33680217562337" lon="13.319969365081533"><ele>730.0</ele><time>2026-04-29T13:11:45.999Z</time></trkpt><trkpt lat="42.33696935315672" lon="13.31990552688903"><ele>730.0</ele><time>2026-04-29T13:11:46.999Z</time></trkpt><trkpt lat="42.33712476852586" lon="13.319821798670558"><ele>730.0</ele><time>2026-04-29T13:11:47.999Z</time></trkpt><trkpt lat="42.33728298583713" lon="13.319672496012803"><ele>729.3333333333334</ele><time>2026-04-29T13:11:48.999Z</time></trkpt><trkpt lat="42.33743619309578" lon="13.31947086435332"><ele>728.6666666666666</ele><time>2026-04-29T13:11:49.999Z</time></trkpt><trkpt lat="42.337569103927144" lon="13.319287932589372"><ele>728.0</ele><time>2026-04-29T13:11:50.999Z</time></trkpt><trkpt lat="42.33771342442614" lon="13.319137114266907"><ele>728.0</ele><time>2026-04-29T13:11:51.999Z</time></trkpt><trkpt lat="42.33789678559988" lon="13.318996786354504"><ele>728.0</ele><time>2026-04-29T13:11:52.999Z</time></trkpt><trkpt lat="42.33806771563525" lon="13.318891058514376"><ele>728.0</ele><time>2026-04-29T13:11:53.999Z</time></trkpt><trkpt lat="42.33823261193942" lon="13.318805869545917"><ele>726.3333333333333</ele><time>2026-04-29T13:11:54.999Z</time></trkpt><trkpt lat="42.33841369223706" lon="13.318759938737784"><ele>724.6666666666666</ele><time>2026-04-29T13:11:55.999Z</time></trkpt><trkpt lat="42.33862314727301" lon="13.318762309444406"><ele>723.0</ele><time>2026-04-29T13:11:57Z</time></trkpt><trkpt lat="42.338858722348796" lon="13.318765475927657"><ele>721.0</ele><time>2026-04-29T13:11:58Z</time></trkpt><trkpt lat="42.33912535211547" lon="13.318766241608317"><ele>719.0</ele><time>2026-04-29T13:11:59Z</time></trkpt><trkpt lat="42.33936847588111" lon="13.31879703203797"><ele>719.0</ele><time>2026-04-29T13:12:00Z</time></trkpt><trkpt lat="42.33959448181536" lon="13.318850593115094"><ele>719.0</ele><time>2026-04-29T13:12:01Z</time></trkpt><trkpt lat="42.33980433865018" lon="13.318918739182635"><ele>719.0</ele><time>2026-04-29T13:12:02Z</time></trkpt><trkpt lat="42.34003475525353" lon="13.31903722670663"><ele>721.0</ele><time>2026-04-29T13:12:03Z</time></trkpt><trkpt lat="42.340287451809765" lon="13.319187401533288"><ele>723.0</ele><time>2026-04-29T13:12:04Z</time></trkpt><trkpt lat="42.34050535918534" lon="13.319325446495236"><ele>720.6666666666666</ele><time>2026-04-29T13:12:05Z</time></trkpt><trkpt lat="42.34071724604404" lon="13.319450284297345"><ele>718.3333333333333</ele><time>2026-04-29T13:12:06Z</time></trkpt><trkpt lat="42.34091164221974" lon="13.319544442189638"><ele>716.0</ele><time>2026-04-29T13:12:07Z</time></trkpt><trkpt lat="42.341124802817504" lon="13.319595381333244"><ele>716.0</ele><time>2026-04-29T13:12:08Z</time></trkpt><trkpt lat="42.341350140996106" lon="13.319589685838029"><ele>716.0</ele><time>2026-04-29T13:12:09Z</time></trkpt><trkpt lat="42.34157073299074" lon="13.319618829427172"><ele>716.0</ele><time>2026-04-29T13:12:10Z</time></trkpt><trkpt lat="42.341775475640205" lon="13.319696539691718"><ele>717.0</ele><time>2026-04-29T13:12:11Z</time></trkpt><trkpt lat="42.341977633158194" lon="13.319787895603563"><ele>718.0</ele><time>2026-04-29T13:12:12Z</time></trkpt><trkpt lat="42.34217274301111" lon="13.31982340877879"><ele>719.0</ele><time>2026-04-29T13:12:13Z</time></trkpt><trkpt lat="42.3423925102202" lon="13.31980115385062"><ele>720.0</ele><time>2026-04-29T13:12:14Z</time></trkpt><trkpt lat="42.3426427790465" lon="13.319823172577065"><ele>721.0</ele><time>2026-04-29T13:12:15Z</time></trkpt><trkpt lat="42.34289177503748" lon="13.319895479766432"><ele>720.6666666666667</ele><time>2026-04-29T13:12:16Z</time></trkpt><trkpt lat="42.34310534575338" lon="13.319945042864125"><ele>720.3333333333334</ele><time>2026-04-29T13:12:17Z</time></trkpt><trkpt lat="42.34330047797174" lon="13.31998463607837"><ele>720.0</ele><time>2026-04-29T13:12:18Z</time></trkpt><trkpt lat="42.343447308195174" lon="13.320008078922282"><ele>720.0</ele><time>2026-04-29T13:12:19Z</time></trkpt><trkpt lat="42.343571559543626" lon="13.320003621712136"><ele>720.0</ele><time>2026-04-29T13:12:20Z</time></trkpt><trkpt lat="42.343675343052965" lon="13.319942700128532"><ele>720.0</ele><time>2026-04-29T13:12:21Z</time></trkpt><trkpt lat="42.34375901269795" lon="13.319858878163508"><ele>720.0</ele><time>2026-04-29T13:12:22Z</time></trkpt><trkpt lat="42.343814838461306" lon="13.319730212297815"><ele>720.25</ele><time>2026-04-29T13:12:23Z</time></trkpt><trkpt lat="42.34385920603102" lon="13.319569484897878"><ele>720.5</ele><time>2026-04-29T13:12:24Z</time></trkpt><trkpt lat="42.34392023764699" lon="13.31942983477456"><ele>720.75</ele><time>2026-04-29T13:12:25Z</time></trkpt><trkpt lat="42.343998150124015" lon="13.319320579780326"><ele>721.0</ele><time>2026-04-29T13:12:26Z</time></trkpt><trkpt lat="42.34409291610794" lon="13.319232509891249"><ele>721.0</ele><time>2026-04-29T13:12:27Z</time></trkpt><trkpt lat="42.34421476710874" lon="13.319207351245566"><ele>721.0</ele><time>2026-04-29T13:12:28Z</time></trkpt><trkpt lat="42.34436396224778" lon="13.319195567102906"><ele>721.0</ele><time>2026-04-29T13:12:29Z</time></trkpt><trkpt lat="42.344502448861554" lon="13.319193119219426"><ele>721.0</ele><time>2026-04-29T13:12:30Z</time></trkpt><trkpt lat="42.34462257205723" lon="13.319173216889302"><ele>720.1999999999999</ele><time>2026-04-29T13:12:31Z</time></trkpt><trkpt lat="42.344725799131375" lon="13.319131758551581"><ele>719.4</ele><time>2026-04-29T13:12:32Z</time></trkpt><trkpt lat="42.34481035044456" lon="13.31907340468787"><ele>718.6</ele><time>2026-04-29T13:12:33Z</time></trkpt><trkpt lat="42.34488226575817" lon="13.318968348189372"><ele>717.8</ele><time>2026-04-29T13:12:34Z</time></trkpt><trkpt lat="42.34493207980272" lon="13.31882015757924"><ele>717.0</ele><time>2026-04-29T13:12:35Z</time></trkpt><trkpt lat="42.3449836722303" lon="13.318662998124749"><ele>716.5</ele><time>2026-04-29T13:12:36Z</time></trkpt><trkpt lat="42.34504695484864" lon="13.318511064472322"><ele>716.0</ele><time>2026-04-29T13:12:37Z</time></trkpt><trkpt lat="42.34514084610833" lon="13.318400474687877"><ele>715.5</ele><time>2026-04-29T13:12:38Z</time></trkpt><trkpt lat="42.34525018049864" lon="13.318309172491972"><ele>715.0</ele><time>2026-04-29T13:12:39Z</time></trkpt><trkpt lat="42.345362544213344" lon="13.318244006634002"><ele>715.0</ele><time>2026-04-29T13:12:40Z</time></trkpt><trkpt lat="42.34545159261613" lon="13.318173819218282"><ele>715.0</ele><time>2026-04-29T13:12:41Z</time></trkpt><trkpt lat="42.345508930207956" lon="13.318064030864361"><ele>715.0</ele><time>2026-04-29T13:12:42Z</time></trkpt><trkpt lat="42.3455414968367" lon="13.317932724170078"><ele>715.0</ele><time>2026-04-29T13:12:43Z</time></trkpt><trkpt lat="42.34560168234654" lon="13.31778792381637"><ele>715.0</ele><time>2026-04-29T13:12:44Z</time></trkpt><trkpt lat="42.34563685601329" lon="13.317658852236002"><ele>713.2</ele><time>2026-04-29T13:12:45Z</time></trkpt><trkpt lat="42.34569708311627" lon="13.31754415424327"><ele>711.4</ele><time>2026-04-29T13:12:46Z</time></trkpt><trkpt lat="42.345780987306426" lon="13.31743864114381"><ele>709.5999999999999</ele><time>2026-04-29T13:12:47Z</time></trkpt><trkpt lat="42.34587044566191" lon="13.317335728826333"><ele>707.8</ele><time>2026-04-29T13:12:48Z</time></trkpt><trkpt lat="42.34598012893168" lon="13.31729947676845"><ele>706.0</ele><time>2026-04-29T13:12:49Z</time></trkpt><trkpt lat="42.34608384969588" lon="13.317314491562597"><ele>706.0</ele><time>2026-04-29T13:12:50Z</time></trkpt><trkpt lat="42.34618338136898" lon="13.317378831227796"><ele>706.0</ele><time>2026-04-29T13:12:51Z</time></trkpt><trkpt lat="42.34629815596799" lon="13.317480465380733"><ele>706.0</ele><time>2026-04-29T13:12:52Z</time></trkpt><trkpt lat="42.34642696628073" lon="13.317550139583922"><ele>706.0</ele><time>2026-04-29T13:12:53Z</time></trkpt><trkpt lat="42.34657685148764" lon="13.317557108568105"><ele>704.25</ele><time>2026-04-29T13:12:54Z</time></trkpt><trkpt lat="42.34672844560199" lon="13.317532115708866"><ele>702.5</ele><time>2026-04-29T13:12:55Z</time></trkpt><trkpt lat="42.34685651988367" lon="13.31754653388346"><ele>700.75</ele><time>2026-04-29T13:12:56Z</time></trkpt><trkpt lat="42.346973001154694" lon="13.317595893119812"><ele>699.0</ele><time>2026-04-29T13:12:57Z</time></trkpt><trkpt lat="42.34707196507314" lon="13.317684608585568"><ele>699.0</ele><time>2026-04-29T13:12:58Z</time></trkpt><trkpt lat="42.34715889057791" lon="13.317825124473375"><ele>699.0</ele><time>2026-04-29T13:12:59Z</time></trkpt><trkpt lat="42.34724130242023" lon="13.318019218974245"><ele>699.0</ele><time>2026-04-29T13:13:00Z</time></trkpt><trkpt lat="42.3473038063393" lon="13.318228021223462"><ele>699.0</ele><time>2026-04-29T13:13:01Z</time></trkpt><trkpt lat="42.34734519306472" lon="13.318406130848269"><ele>699.0</ele><time>2026-04-29T13:13:02Z</time></trkpt><trkpt lat="42.34740304379111" lon="13.31856306914679"><ele>699.0</ele><time>2026-04-29T13:13:03Z</time></trkpt><trkpt lat="42.34748774769754" lon="13.318696076520881"><ele>699.0</ele><time>2026-04-29T13:13:04Z</time></trkpt><trkpt lat="42.34763375043739" lon="13.318789482408823"><ele>699.0</ele><time>2026-04-29T13:13:05Z</time></trkpt><trkpt lat="42.34780585815604" lon="13.318808363324814"><ele>699.0</ele><time>2026-04-29T13:13:06Z</time></trkpt><trkpt lat="42.34800037391034" lon="13.31875685729953"><ele>699.0</ele><time>2026-04-29T13:13:07Z</time></trkpt><trkpt lat="42.348213134878606" lon="13.318733317378895"><ele>701.0</ele><time>2026-04-29T13:13:08Z</time></trkpt><trkpt lat="42.34845805761202" lon="13.31871086233528"><ele>703.0</ele><time>2026-04-29T13:13:09Z</time></trkpt><trkpt lat="42.34869439915397" lon="13.318743115232408"><ele>702.0</ele><time>2026-04-29T13:13:10Z</time></trkpt><trkpt lat="42.34890604369031" lon="13.318795332767294"><ele>701.0</ele><time>2026-04-29T13:13:10.999Z</time></trkpt><trkpt lat="42.34912979899442" lon="13.318870087667426"><ele>700.0</ele><time>2026-04-29T13:13:11.999Z</time></trkpt><trkpt lat="42.3493565849483" lon="13.318985057135567"><ele>693.0</ele><time>2026-04-29T13:13:12.999Z</time></trkpt><trkpt lat="42.34958981357702" lon="13.31911286260356"><ele>686.0</ele><time>2026-04-29T13:13:13.999Z</time></trkpt><trkpt lat="42.34978369261622" lon="13.319270056704825"><ele>685.3333333333333</ele><time>2026-04-29T13:13:14.999Z</time></trkpt><trkpt lat="42.3499551963392" lon="13.31939510701647"><ele>684.6666666666666</ele><time>2026-04-29T13:13:15.999Z</time></trkpt><trkpt lat="42.350114426146334" lon="13.319525101971228"><ele>684.0</ele><time>2026-04-29T13:13:16.999Z</time></trkpt><trkpt lat="42.35025766651007" lon="13.31962430289106"><ele>683.0</ele><time>2026-04-29T13:13:17.999Z</time></trkpt><trkpt lat="42.35038284915743" lon="13.319741649317143"><ele>682.0</ele><time>2026-04-29T13:13:18.999Z</time></trkpt><trkpt lat="42.350487326621135" lon="13.319902880428995"><ele>681.0</ele><time>2026-04-29T13:13:19.999Z</time></trkpt><trkpt lat="42.350559613501126" lon="13.320121027109733"><ele>681.0</ele><time>2026-04-29T13:13:20.999Z</time></trkpt><trkpt lat="42.35060709661195" lon="13.32037092586766"><ele>681.0</ele><time>2026-04-29T13:13:21.999Z</time></trkpt><trkpt lat="42.35067422771693" lon="13.320620721315457"><ele>681.0</ele><time>2026-04-29T13:13:22.999Z</time></trkpt><trkpt lat="42.35077589665093" lon="13.320849239394935"><ele>680.3333333333334</ele><time>2026-04-29T13:13:23.999Z</time></trkpt><trkpt lat="42.350889853703826" lon="13.321054903417084"><ele>679.6666666666667</ele><time>2026-04-29T13:13:24.999Z</time></trkpt><trkpt lat="42.3510091949533" lon="13.321255078654694"><ele>679.0</ele><time>2026-04-29T13:13:25.999Z</time></trkpt><trkpt lat="42.35112906344333" lon="13.321437502737924"><ele>679.0</ele><time>2026-04-29T13:13:26.999Z</time></trkpt><trkpt lat="42.351247534323555" lon="13.321592875723606"><ele>679.0</ele><time>2026-04-29T13:13:27.999Z</time></trkpt><trkpt lat="42.35136562327088" lon="13.321745264472924"><ele>679.0</ele><time>2026-04-29T13:13:28.999Z</time></trkpt><trkpt lat="42.351476584647926" lon="13.321888737155357"><ele>677.5</ele><time>2026-04-29T13:13:29.999Z</time></trkpt><trkpt lat="42.35158171273897" lon="13.322014301450027"><ele>676.0</ele><time>2026-04-29T13:13:30.999Z</time></trkpt><trkpt lat="42.35167119578388" lon="13.322149456567713"><ele>674.5</ele><time>2026-04-29T13:13:31.999Z</time></trkpt><trkpt lat="42.351784247711244" lon="13.322237129912866"><ele>673.0</ele><time>2026-04-29T13:13:32.999Z</time></trkpt><trkpt lat="42.351897823270015" lon="13.322343487126473"><ele>671.6666666666667</ele><time>2026-04-29T13:13:33.999Z</time></trkpt><trkpt lat="42.352017665588015" lon="13.322444925116537"><ele>670.3333333333334</ele><time>2026-04-29T13:13:34.999Z</time></trkpt><trkpt lat="42.35215259552811" lon="13.322558990789227"><ele>669.0</ele><time>2026-04-29T13:13:35.999Z</time></trkpt><trkpt lat="42.352304764566284" lon="13.322650186025887"><ele>668.3333333333334</ele><time>2026-04-29T13:13:36.999Z</time></trkpt><trkpt lat="42.35246118390634" lon="13.32272153863954"><ele>667.6666666666667</ele><time>2026-04-29T13:13:37.999Z</time></trkpt><trkpt lat="42.35260754284839" lon="13.322767449215771"><ele>667.0</ele><time>2026-04-29T13:13:38.999Z</time></trkpt><trkpt lat="42.352741903631305" lon="13.322794145714914"><ele>667.0</ele><time>2026-04-29T13:13:39.999Z</time></trkpt><trkpt lat="42.352856762722105" lon="13.322814404449074"><ele>667.0</ele><time>2026-04-29T13:13:40.999Z</time></trkpt><trkpt lat="42.352955482231586" lon="13.322838754050485"><ele>667.0</ele><time>2026-04-29T13:13:41.999Z</time></trkpt><trkpt lat="42.35304836225865" lon="13.322867264186728"><ele>667.0</ele><time>2026-04-29T13:13:42.999Z</time></trkpt><trkpt lat="42.353133890665404" lon="13.32290771532227"><ele>667.0</ele><time>2026-04-29T13:13:43.999Z</time></trkpt><trkpt lat="42.35321112840935" lon="13.322953855959126"><ele>666.6</ele><time>2026-04-29T13:13:44.999Z</time></trkpt><trkpt lat="42.353279906254755" lon="13.323010129106013"><ele>666.2</ele><time>2026-04-29T13:13:45.999Z</time></trkpt><trkpt lat="42.35335917135575" lon="13.323057975812862"><ele>665.8</ele><time>2026-04-29T13:13:46.999Z</time></trkpt><trkpt lat="42.353418242753136" lon="13.323198859323702"><ele>665.4</ele><time>2026-04-29T13:13:47.999Z</time></trkpt><trkpt lat="42.35348590902587" lon="13.323345403688034"><ele>665.0</ele><time>2026-04-29T13:13:48.999Z</time></trkpt><trkpt lat="42.35355911056562" lon="13.323514921948883"><ele>664.0</ele><time>2026-04-29T13:13:49.999Z</time></trkpt><trkpt lat="42.35364556152376" lon="13.323711305910473"><ele>663.0</ele><time>2026-04-29T13:13:50.999Z</time></trkpt><trkpt lat="42.353754961132694" lon="13.323946673014873"><ele>662.0</ele><time>2026-04-29T13:13:51.999Z</time></trkpt><trkpt lat="42.353881213648485" lon="13.324221230959816"><ele>661.5</ele><time>2026-04-29T13:13:52.999Z</time></trkpt><trkpt lat="42.354019109059415" lon="13.324518206689449"><ele>661.0</ele><time>2026-04-29T13:13:53.999Z</time></trkpt><trkpt lat="42.354164603512146" lon="13.324815377925868"><ele>659.0</ele><time>2026-04-29T13:13:54.999Z</time></trkpt><trkpt lat="42.354295669541834" lon="13.32508281848505"><ele>657.0</ele><time>2026-04-29T13:13:55.999Z</time></trkpt><trkpt lat="42.354433352831784" lon="13.325338753827577"><ele>656.3333333333334</ele><time>2026-04-29T13:13:56.999Z</time></trkpt><trkpt lat="42.35455305009003" lon="13.32558876755699"><ele>655.6666666666667</ele><time>2026-04-29T13:13:57.999Z</time></trkpt><trkpt lat="42.35469129383543" lon="13.325806556878076"><ele>655.0</ele><time>2026-04-29T13:13:58.999Z</time></trkpt><trkpt lat="42.35480055563835" lon="13.32603965838254"><ele>655.0</ele><time>2026-04-29T13:13:59.999Z</time></trkpt><trkpt lat="42.35489227206012" lon="13.326242677207324"><ele>655.0</ele><time>2026-04-29T13:14:00.999Z</time></trkpt><trkpt lat="42.35498633665766" lon="13.32644213469906"><ele>655.0</ele><time>2026-04-29T13:14:02Z</time></trkpt><trkpt lat="42.35508051084827" lon="13.326609049374083"><ele>655.0</ele><time>2026-04-29T13:14:03Z</time></trkpt><trkpt lat="42.355173559309605" lon="13.326758084441863"><ele>655.0</ele><time>2026-04-29T13:14:04Z</time></trkpt><trkpt lat="42.35528446825388" lon="13.326906408337575"><ele>655.0</ele><time>2026-04-29T13:14:05Z</time></trkpt><trkpt lat="42.35539064740936" lon="13.327085454696332"><ele>654.6666666666667</ele><time>2026-04-29T13:14:06Z</time></trkpt><trkpt lat="42.355508344828536" lon="13.327281080732524"><ele>654.3333333333334</ele><time>2026-04-29T13:14:07Z</time></trkpt><trkpt lat="42.35561844139341" lon="13.327494987261613"><ele>654.0</ele><time>2026-04-29T13:14:08Z</time></trkpt><trkpt lat="42.355734328283575" lon="13.327708039916208"><ele>653.6666666666666</ele><time>2026-04-29T13:14:09Z</time></trkpt><trkpt lat="42.35583846628235" lon="13.32791146953383"><ele>653.3333333333333</ele><time>2026-04-29T13:14:10Z</time></trkpt><trkpt lat="42.355937494254505" lon="13.328110649907778"><ele>653.0</ele><time>2026-04-29T13:14:11Z</time></trkpt><trkpt lat="42.35603765388504" lon="13.328286900106129"><ele>652.75</ele><time>2026-04-29T13:14:12Z</time></trkpt><trkpt lat="42.356121084367885" lon="13.328440435264305"><ele>652.5</ele><time>2026-04-29T13:14:13Z</time></trkpt><trkpt lat="42.356192931241665" lon="13.328595093058723"><ele>652.25</ele><time>2026-04-29T13:14:14Z</time></trkpt><trkpt lat="42.35624803990678" lon="13.328754716126173"><ele>652.0</ele><time>2026-04-29T13:14:15Z</time></trkpt><trkpt lat="42.356272373790475" lon="13.328931694270572"><ele>651.3333333333334</ele><time>2026-04-29T13:14:16Z</time></trkpt><trkpt lat="42.35624206653221" lon="13.329138134946428"><ele>650.6666666666666</ele><time>2026-04-29T13:14:17Z</time></trkpt><trkpt lat="42.356210167957286" lon="13.329389144337974"><ele>650.0</ele><time>2026-04-29T13:14:18Z</time></trkpt><trkpt lat="42.3561492246198" lon="13.329629226506372"><ele>651.0</ele><time>2026-04-29T13:14:19Z</time></trkpt><trkpt lat="42.35610043501651" lon="13.329916779230594"><ele>652.0</ele><time>2026-04-29T13:14:20Z</time></trkpt><trkpt lat="42.35601847600693" lon="13.33022334427801"><ele>652.0</ele><time>2026-04-29T13:14:21Z</time></trkpt><trkpt lat="42.35595881737467" lon="13.330499016334443"><ele>652.0</ele><time>2026-04-29T13:14:22Z</time></trkpt><trkpt lat="42.3559207441463" lon="13.33074245681621"><ele>652.0</ele><time>2026-04-29T13:14:23Z</time></trkpt><trkpt lat="42.35587832007445" lon="13.330960647620998"><ele>652.0</ele><time>2026-04-29T13:14:24Z</time></trkpt><trkpt lat="42.35585953678025" lon="13.331173949621817"><ele>652.0</ele><time>2026-04-29T13:14:25Z</time></trkpt><trkpt lat="42.35585563296828" lon="13.331380968627364"><ele>652.0</ele><time>2026-04-29T13:14:26Z</time></trkpt><trkpt lat="42.35582949412704" lon="13.331622414259892"><ele>652.0</ele><time>2026-04-29T13:14:27Z</time></trkpt><trkpt lat="42.35581055043607" lon="13.331917301444916"><ele>652.0</ele><time>2026-04-29T13:14:28Z</time></trkpt><trkpt lat="42.35580043812555" lon="13.332285329073557"><ele>650.0</ele><time>2026-04-29T13:14:29Z</time></trkpt><trkpt lat="42.355777865357304" lon="13.332633775962885"><ele>648.0</ele><time>2026-04-29T13:14:30Z</time></trkpt><trkpt lat="42.3557510088997" lon="13.332955949940782"><ele>647.5</ele><time>2026-04-29T13:14:31Z</time></trkpt><trkpt lat="42.355727615088796" lon="13.333319258208018"><ele>647.0</ele><time>2026-04-29T13:14:32Z</time></trkpt><trkpt lat="42.35569870865508" lon="13.333634021153706"><ele>646.6666666666666</ele><time>2026-04-29T13:14:33Z</time></trkpt><trkpt lat="42.355678128543246" lon="13.333912098466994"><ele>646.3333333333334</ele><time>2026-04-29T13:14:34Z</time></trkpt><trkpt lat="42.35565804421489" lon="13.334182355689624"><ele>646.0</ele><time>2026-04-29T13:14:35Z</time></trkpt><trkpt lat="42.35564403613" lon="13.334421953593791"><ele>646.0</ele><time>2026-04-29T13:14:36Z</time></trkpt><trkpt lat="42.35564245661143" lon="13.334645784478187"><ele>646.0</ele><time>2026-04-29T13:14:37Z</time></trkpt><trkpt lat="42.35567343623641" lon="13.334838026900776"><ele>646.0</ele><time>2026-04-29T13:14:38Z</time></trkpt><trkpt lat="42.35571736169197" lon="13.335011361493477"><ele>646.0</ele><time>2026-04-29T13:14:39Z</time></trkpt><trkpt lat="42.35576327659725" lon="13.335125415649062"><ele>645.3333333333334</ele><time>2026-04-29T13:14:40Z</time></trkpt><trkpt lat="42.35580818556589" lon="13.3352408383077"><ele>644.6666666666667</ele><time>2026-04-29T13:14:41Z</time></trkpt><trkpt lat="42.35580784176809" lon="13.335328746332857"><ele>644.0</ele><time>2026-04-29T13:14:42Z</time></trkpt><trkpt lat="42.35585131945816" lon="13.335415352770758"><ele>643.3333333333334</ele><time>2026-04-29T13:14:43Z</time></trkpt><trkpt lat="42.355914580209166" lon="13.335468918595907"><ele>642.6666666666666</ele><time>2026-04-29T13:14:44Z</time></trkpt><trkpt lat="42.355990553232864" lon="13.335496950664972"><ele>642.0</ele><time>2026-04-29T13:14:45Z</time></trkpt><trkpt lat="42.3560771373383" lon="13.335521947407873"><ele>641.6</ele><time>2026-04-29T13:14:46Z</time></trkpt><trkpt lat="42.35615112416408" lon="13.335582900196535"><ele>641.2</ele><time>2026-04-29T13:14:47Z</time></trkpt><trkpt lat="42.356225161921394" lon="13.33565603752893"><ele>640.8</ele><time>2026-04-29T13:14:48Z</time></trkpt><trkpt lat="42.35630775244466" lon="13.33572479982708"><ele>640.4</ele><time>2026-04-29T13:14:49Z</time></trkpt><trkpt lat="42.35638393054941" lon="13.33579691023171"><ele>640.0</ele><time>2026-04-29T13:14:50Z</time></trkpt><trkpt lat="42.356455145484425" lon="13.335863978453133"><ele>639.6666666666667</ele><time>2026-04-29T13:14:51Z</time></trkpt><trkpt lat="42.356518226732256" lon="13.335915173696877"><ele>639.3333333333334</ele><time>2026-04-29T13:14:52Z</time></trkpt><trkpt lat="42.356585408186234" lon="13.335970832170222"><ele>639.0</ele><time>2026-04-29T13:14:53Z</time></trkpt><trkpt lat="42.35666411864514" lon="13.336033766169955"><ele>638.6666666666666</ele><time>2026-04-29T13:14:54Z</time></trkpt><trkpt lat="42.356748161985024" lon="13.336103883272088"><ele>638.3333333333333</ele><time>2026-04-29T13:14:55Z</time></trkpt><trkpt lat="42.35682334185903" lon="13.336195755460913"><ele>638.0</ele><time>2026-04-29T13:14:56Z</time></trkpt><trkpt lat="42.356895307727754" lon="13.336266322231252"><ele>638.0</ele><time>2026-04-29T13:14:57Z</time></trkpt><trkpt lat="42.35697015244828" lon="13.336317765674782"><ele>638.0</ele><time>2026-04-29T13:14:58Z</time></trkpt><trkpt lat="42.357019840230045" lon="13.336377210227386"><ele>638.0</ele><time>2026-04-29T13:14:59Z</time></trkpt><trkpt lat="42.35708190868348" lon="13.336507006357763"><ele>638.0</ele><time>2026-04-29T13:15:01Z</time></trkpt><trkpt lat="42.357083452352455" lon="13.3366091951335"><ele>638.0</ele><time>2026-04-29T13:15:02Z</time></trkpt><trkpt lat="42.357035643451816" lon="13.33671704300741"><ele>638.0</ele><time>2026-04-29T13:15:03Z</time></trkpt><trkpt lat="42.357009475482656" lon="13.336850028040807"><ele>639.0</ele><time>2026-04-29T13:15:04Z</time></trkpt><trkpt lat="42.35699000843612" lon="13.33701200922651"><ele>640.0</ele><time>2026-04-29T13:15:05Z</time></trkpt><trkpt lat="42.35694224626701" lon="13.337221021926858"><ele>641.0</ele><time>2026-04-29T13:15:06Z</time></trkpt><trkpt lat="42.35687288128537" lon="13.337530982052904"><ele>641.5</ele><time>2026-04-29T13:15:07Z</time></trkpt><trkpt lat="42.35680636295453" lon="13.337865513260562"><ele>642.0</ele><time>2026-04-29T13:15:08Z</time></trkpt><trkpt lat="42.35673395165814" lon="13.338228472686742"><ele>642.5</ele><time>2026-04-29T13:15:09Z</time></trkpt><trkpt lat="42.3566783722083" lon="13.338592913091516"><ele>643.0</ele><time>2026-04-29T13:15:10Z</time></trkpt><trkpt lat="42.35661742290774" lon="13.338980501393214"><ele>643.0</ele><time>2026-04-29T13:15:11Z</time></trkpt><trkpt lat="42.356513586302505" lon="13.339432690004129"><ele>643.0</ele><time>2026-04-29T13:15:12Z</time></trkpt><trkpt lat="42.356454475044494" lon="13.339835757784549"><ele>640.5</ele><time>2026-04-29T13:15:12.999Z</time></trkpt><trkpt lat="42.3563443841135" lon="13.3401726989858"><ele>638.0</ele><time>2026-04-29T13:15:13.999Z</time></trkpt><trkpt lat="42.3562731590239" lon="13.340537574402036"><ele>638.5</ele><time>2026-04-29T13:15:14.999Z</time></trkpt><trkpt lat="42.35620175939126" lon="13.3409008802708"><ele>639.0</ele><time>2026-04-29T13:15:15.999Z</time></trkpt><trkpt lat="42.35612445021342" lon="13.341303525259377"><ele>639.0</ele><time>2026-04-29T13:15:16.999Z</time></trkpt><trkpt lat="42.35606431390829" lon="13.341692877208198"><ele>639.0</ele><time>2026-04-29T13:15:17.999Z</time></trkpt><trkpt lat="42.35600056943941" lon="13.342042452318344"><ele>638.0</ele><time>2026-04-29T13:15:18.999Z</time></trkpt><trkpt lat="42.35593577622492" lon="13.342359653136871"><ele>637.0</ele><time>2026-04-29T13:15:19.999Z</time></trkpt><trkpt lat="42.355876611974125" lon="13.342663263951996"><ele>637.0</ele><time>2026-04-29T13:15:20.999Z</time></trkpt><trkpt lat="42.35582036477149" lon="13.342941402139786"><ele>637.0</ele><time>2026-04-29T13:15:21.999Z</time></trkpt><trkpt lat="42.35577261444353" lon="13.34320232859084"><ele>637.0</ele><time>2026-04-29T13:15:22.999Z</time></trkpt><trkpt lat="42.35573780305678" lon="13.343462827842934"><ele>637.5</ele><time>2026-04-29T13:15:23.999Z</time></trkpt><trkpt lat="42.35572822884971" lon="13.343760047173744"><ele>638.0</ele><time>2026-04-29T13:15:24.999Z</time></trkpt><trkpt lat="42.35576809140524" lon="13.344097496175415"><ele>636.5</ele><time>2026-04-29T13:15:25.999Z</time></trkpt><trkpt lat="42.35584896036822" lon="13.344471966510406"><ele>635.0</ele><time>2026-04-29T13:15:26.999Z</time></trkpt><trkpt lat="42.35594739698191" lon="13.344863122266643"><ele>633.5</ele><time>2026-04-29T13:15:27.999Z</time></trkpt><trkpt lat="42.356053406085564" lon="13.345269930949717"><ele>632.0</ele><time>2026-04-29T13:15:28.999Z</time></trkpt><trkpt lat="42.356139355921144" lon="13.345656690239231"><ele>632.0</ele><time>2026-04-29T13:15:29.999Z</time></trkpt><trkpt lat="42.35621883267483" lon="13.346008133083469"><ele>632.0</ele><time>2026-04-29T13:15:30.999Z</time></trkpt><trkpt lat="42.35629621194843" lon="13.3463318140863"><ele>632.0</ele><time>2026-04-29T13:15:31.999Z</time></trkpt><trkpt lat="42.35636885530773" lon="13.346643709453732"><ele>632.0</ele><time>2026-04-29T13:15:32.999Z</time></trkpt><trkpt lat="42.35643535172608" lon="13.346936839754571"><ele>633.6666666666666</ele><time>2026-04-29T13:15:33.999Z</time></trkpt><trkpt lat="42.356498156473386" lon="13.347214923608435"><ele>635.3333333333334</ele><time>2026-04-29T13:15:34.999Z</time></trkpt><trkpt lat="42.35655908383471" lon="13.347476011279678"><ele>637.0</ele><time>2026-04-29T13:15:35.999Z</time></trkpt><trkpt lat="42.35661721289138" lon="13.347721587318002"><ele>637.0</ele><time>2026-04-29T13:15:36.999Z</time></trkpt><trkpt lat="42.35667304200584" lon="13.34795280164193"><ele>637.0</ele><time>2026-04-29T13:15:37.999Z</time></trkpt><trkpt lat="42.35672571811394" lon="13.348159105117801"><ele>637.0</ele><time>2026-04-29T13:15:38.999Z</time></trkpt><trkpt lat="42.356772491433084" lon="13.348338791120137"><ele>636.4</ele><time>2026-04-29T13:15:39.999Z</time></trkpt><trkpt lat="42.35681520432522" lon="13.348488875609684"><ele>635.8000000000001</ele><time>2026-04-29T13:15:40.999Z</time></trkpt><trkpt lat="42.356851316873275" lon="13.348620457225408"><ele>635.2</ele><time>2026-04-29T13:15:41.999Z</time></trkpt><trkpt lat="42.35688328107379" lon="13.348739953726566"><ele>634.6</ele><time>2026-04-29T13:15:42.999Z</time></trkpt><trkpt lat="42.356911462882955" lon="13.348855218738048"><ele>634.0</ele><time>2026-04-29T13:15:43.999Z</time></trkpt><trkpt lat="42.35693881332255" lon="13.348968227486175"><ele>633.8333333333334</ele><time>2026-04-29T13:15:44.999Z</time></trkpt><trkpt lat="42.35696409593327" lon="13.349070123515538"><ele>633.6666666666667</ele><time>2026-04-29T13:15:45.999Z</time></trkpt><trkpt lat="42.356983135714195" lon="13.349167435476748"><ele>633.5</ele><time>2026-04-29T13:15:46.999Z</time></trkpt><trkpt lat="42.35699612104267" lon="13.349260851267731"><ele>633.3333333333334</ele><time>2026-04-29T13:15:47.999Z</time></trkpt><trkpt lat="42.35700382452734" lon="13.349351144890962"><ele>633.1666666666666</ele><time>2026-04-29T13:15:48.999Z</time></trkpt><trkpt lat="42.35697631668054" lon="13.349502681682358"><ele>633.0</ele><time>2026-04-29T13:15:50.999Z</time></trkpt><trkpt lat="42.3569196445764" lon="13.349659042805412"><ele>632.6666666666666</ele><time>2026-04-29T13:15:52.999Z</time></trkpt><trkpt lat="42.35689653781339" lon="13.34975928656816"><ele>632.3333333333334</ele><time>2026-04-29T13:15:53.999Z</time></trkpt><trkpt lat="42.35688960561133" lon="13.349863274157496"><ele>632.0</ele><time>2026-04-29T13:15:54.999Z</time></trkpt><trkpt lat="42.356900550765886" lon="13.349973116844527"><ele>631.6666666666667</ele><time>2026-04-29T13:15:55.999Z</time></trkpt><trkpt lat="42.356931693069214" lon="13.350071468922641"><ele>631.3333333333334</ele><time>2026-04-29T13:15:56.999Z</time></trkpt><trkpt lat="42.356978472925896" lon="13.350141099943425"><ele>631.0</ele><time>2026-04-29T13:15:57.999Z</time></trkpt><trkpt lat="42.35703674472566" lon="13.350197421403708"><ele>631.0</ele><time>2026-04-29T13:15:58.999Z</time></trkpt><trkpt lat="42.35710690184827" lon="13.350242213395052"><ele>631.0</ele><time>2026-04-29T13:15:59.999Z</time></trkpt><trkpt lat="42.35718848213258" lon="13.350265776035558"><ele>631.0</ele><time>2026-04-29T13:16:00.999Z</time></trkpt><trkpt lat="42.357274047599404" lon="13.350270403617532"><ele>631.0</ele><time>2026-04-29T13:16:01.999Z</time></trkpt><trkpt lat="42.35735931196515" lon="13.350272426787148"><ele>631.0</ele><time>2026-04-29T13:16:02.999Z</time></trkpt><trkpt lat="42.35744541380784" lon="13.350290774279781"><ele>631.0</ele><time>2026-04-29T13:16:03.999Z</time></trkpt><trkpt lat="42.35752531659457" lon="13.350322164783844"><ele>631.0</ele><time>2026-04-29T13:16:04.999Z</time></trkpt><trkpt lat="42.35760788178671" lon="13.35037281058072"><ele>631.0</ele><time>2026-04-29T13:16:05.999Z</time></trkpt><trkpt lat="42.35768901657828" lon="13.350450575607724"><ele>631.0</ele><time>2026-04-29T13:16:06.999Z</time></trkpt><trkpt lat="42.35776866342939" lon="13.350539406334095"><ele>631.0</ele><time>2026-04-29T13:16:08Z</time></trkpt><trkpt lat="42.357847486476146" lon="13.350631096685763"><ele>631.0</ele><time>2026-04-29T13:16:09Z</time></trkpt><trkpt lat="42.357925208562314" lon="13.350731875252027"><ele>631.0</ele><time>2026-04-29T13:16:10Z</time></trkpt><trkpt lat="42.35800681911361" lon="13.350833540379178"><ele>631.0</ele><time>2026-04-29T13:16:11Z</time></trkpt><trkpt lat="42.358086512767784" lon="13.350944152232184"><ele>631.0</ele><time>2026-04-29T13:16:12Z</time></trkpt><trkpt lat="42.35816048151031" lon="13.35105019049963"><ele>631.0</ele><time>2026-04-29T13:16:13Z</time></trkpt><trkpt lat="42.3582248053784" lon="13.351142969021316"><ele>631.0</ele><time>2026-04-29T13:16:14Z</time></trkpt><trkpt lat="42.35828390190914" lon="13.351237338655013"><ele>630.6666666666667</ele><time>2026-04-29T13:16:15Z</time></trkpt><trkpt lat="42.35832505954452" lon="13.351330082078261"><ele>630.3333333333334</ele><time>2026-04-29T13:16:16Z</time></trkpt><trkpt lat="42.358368058496836" lon="13.351417071781261"><ele>630.0</ele><time>2026-04-29T13:16:17Z</time></trkpt><trkpt lat="42.35840913421835" lon="13.35149958953603"><ele>629.6666666666666</ele><time>2026-04-29T13:16:18Z</time></trkpt><trkpt lat="42.358447812729985" lon="13.351571568571355"><ele>629.3333333333333</ele><time>2026-04-29T13:16:19Z</time></trkpt><trkpt lat="42.358485406615046" lon="13.351641050946625"><ele>629.0</ele><time>2026-04-29T13:16:20Z</time></trkpt><trkpt lat="42.35855236977721" lon="13.351780085286093"><ele>628.8</ele><time>2026-04-29T13:16:22Z</time></trkpt><trkpt lat="42.358587910344845" lon="13.351851721504968"><ele>628.5999999999999</ele><time>2026-04-29T13:16:23Z</time></trkpt><trkpt lat="42.35864723365166" lon="13.351989501033165"><ele>628.4</ele><time>2026-04-29T13:16:25Z</time></trkpt><trkpt lat="42.3586907453342" lon="13.352131538768422"><ele>628.1999999999999</ele><time>2026-04-29T13:16:27Z</time></trkpt><trkpt lat="42.35868998724195" lon="13.352278266493817"><ele>628.0</ele><time>2026-04-29T13:16:29Z</time></trkpt><trkpt lat="42.358678848605585" lon="13.352424306110255"><ele>628.0</ele><time>2026-04-29T13:16:31Z</time></trkpt><trkpt lat="42.35870015686098" lon="13.352521771258422"><ele>628.0</ele><time>2026-04-29T13:16:32Z</time></trkpt><trkpt lat="42.35874061414982" lon="13.352628057152975"><ele>628.0</ele><time>2026-04-29T13:16:33Z</time></trkpt><trkpt lat="42.358791149277366" lon="13.352717242007566"><ele>628.0</ele><time>2026-04-29T13:16:34Z</time></trkpt><trkpt lat="42.35884592672948" lon="13.352792332635351"><ele>628.0</ele><time>2026-04-29T13:16:35Z</time></trkpt><trkpt lat="42.35888834541466" lon="13.35287746435225"><ele>628.0</ele><time>2026-04-29T13:16:36Z</time></trkpt><trkpt lat="42.35892297875322" lon="13.352973797143513"><ele>628.4</ele><time>2026-04-29T13:16:37Z</time></trkpt><trkpt lat="42.35894832032257" lon="13.353081624819056"><ele>628.8</ele><time>2026-04-29T13:16:38Z</time></trkpt><trkpt lat="42.35897528560563" lon="13.353192711673515"><ele>629.2</ele><time>2026-04-29T13:16:39Z</time></trkpt><trkpt lat="42.35900626840072" lon="13.35330875391569"><ele>629.6</ele><time>2026-04-29T13:16:40Z</time></trkpt><trkpt lat="42.35904121997866" lon="13.353428144099693"><ele>630.0</ele><time>2026-04-29T13:16:41Z</time></trkpt><trkpt lat="42.359076242036274" lon="13.353550731383288"><ele>630.0</ele><time>2026-04-29T13:16:42Z</time></trkpt><trkpt lat="42.359113243501454" lon="13.353678184453127"><ele>630.0</ele><time>2026-04-29T13:16:43Z</time></trkpt><trkpt lat="42.359149615294555" lon="13.353807870648787"><ele>630.0</ele><time>2026-04-29T13:16:44Z</time></trkpt><trkpt lat="42.35918643105037" lon="13.353945538006037"><ele>630.0</ele><time>2026-04-29T13:16:45Z</time></trkpt><trkpt lat="42.35922904727235" lon="13.354099643076117"><ele>630.0</ele><time>2026-04-29T13:16:46Z</time></trkpt><trkpt lat="42.359276248092556" lon="13.354277970369651"><ele>629.3333333333334</ele><time>2026-04-29T13:16:47Z</time></trkpt><trkpt lat="42.359329960719755" lon="13.35447087927311"><ele>628.6666666666667</ele><time>2026-04-29T13:16:48Z</time></trkpt><trkpt lat="42.35938401367639" lon="13.354669729691924"><ele>628.0</ele><time>2026-04-29T13:16:49Z</time></trkpt><trkpt lat="42.35944237721155" lon="13.354882060188944"><ele>628.0</ele><time>2026-04-29T13:16:50Z</time></trkpt><trkpt lat="42.35950231599256" lon="13.355098409349203"><ele>628.0</ele><time>2026-04-29T13:16:51Z</time></trkpt><trkpt lat="42.35956125142503" lon="13.355308245311688"><ele>628.0</ele><time>2026-04-29T13:16:52Z</time></trkpt><trkpt lat="42.35961425066842" lon="13.355497560805679"><ele>627.5</ele><time>2026-04-29T13:16:53Z</time></trkpt><trkpt lat="42.35966427081185" lon="13.355674924798858"><ele>627.0</ele><time>2026-04-29T13:16:54Z</time></trkpt><trkpt lat="42.35971376299068" lon="13.355843388876547"><ele>626.5</ele><time>2026-04-29T13:16:55Z</time></trkpt><trkpt lat="42.35975714396288" lon="13.35600444358345"><ele>626.0</ele><time>2026-04-29T13:16:56Z</time></trkpt><trkpt lat="42.35979202380544" lon="13.356163809736547"><ele>626.0</ele><time>2026-04-29T13:16:57Z</time></trkpt><trkpt lat="42.35983524663454" lon="13.35633057667708"><ele>626.0</ele><time>2026-04-29T13:16:58Z</time></trkpt><trkpt lat="42.35987944278682" lon="13.356511368191597"><ele>626.0</ele><time>2026-04-29T13:16:59Z</time></trkpt><trkpt lat="42.35992580281744" lon="13.356707281895464"><ele>626.0</ele><time>2026-04-29T13:17:00Z</time></trkpt><trkpt lat="42.35997165309329" lon="13.35691212539194"><ele>626.0</ele><time>2026-04-29T13:17:01Z</time></trkpt><trkpt lat="42.36000260370149" lon="13.357110044385855"><ele>626.0</ele><time>2026-04-29T13:17:02Z</time></trkpt><trkpt lat="42.36001753052445" lon="13.3572954904744"><ele>626.0</ele><time>2026-04-29T13:17:03Z</time></trkpt><trkpt lat="42.36001474901723" lon="13.35747703800464"><ele>626.0</ele><time>2026-04-29T13:17:04Z</time></trkpt><trkpt lat="42.36001240787787" lon="13.357667849909053"><ele>626.0</ele><time>2026-04-29T13:17:05Z</time></trkpt><trkpt lat="42.36000461898382" lon="13.357861818399742"><ele>626.0</ele><time>2026-04-29T13:17:06Z</time></trkpt><trkpt lat="42.359990390840366" lon="13.35805300883242"><ele>626.0</ele><time>2026-04-29T13:17:07Z</time></trkpt><trkpt lat="42.35997256351342" lon="13.358233316371784"><ele>626.0</ele><time>2026-04-29T13:17:08Z</time></trkpt><trkpt lat="42.359944408008396" lon="13.358401443843961"><ele>626.0</ele><time>2026-04-29T13:17:09Z</time></trkpt><trkpt lat="42.35991339602855" lon="13.358561828316926"><ele>626.0</ele><time>2026-04-29T13:17:10Z</time></trkpt><trkpt lat="42.35987415218972" lon="13.358722664143887"><ele>626.0</ele><time>2026-04-29T13:17:11Z</time></trkpt><trkpt lat="42.35982784414773" lon="13.358892895134586"><ele>626.0</ele><time>2026-04-29T13:17:12Z</time></trkpt><trkpt lat="42.35977400952564" lon="13.35907540397695"><ele>625.3333333333333</ele><time>2026-04-29T13:17:13Z</time></trkpt><trkpt lat="42.359717450852045" lon="13.359267800540522"><ele>624.6666666666666</ele><time>2026-04-29T13:17:14Z</time></trkpt><trkpt lat="42.3596573410649" lon="13.35947249788854"><ele>624.0</ele><time>2026-04-29T13:17:15Z</time></trkpt><trkpt lat="42.35960134953966" lon="13.35967598362444"><ele>624.75</ele><time>2026-04-29T13:17:16Z</time></trkpt><trkpt lat="42.359552848234216" lon="13.359861445086135"><ele>625.5</ele><time>2026-04-29T13:17:16.999Z</time></trkpt><trkpt lat="42.35950577652605" lon="13.360038174709015"><ele>626.25</ele><time>2026-04-29T13:17:17.999Z</time></trkpt><trkpt lat="42.359459039624866" lon="13.36020803572582"><ele>627.0</ele><time>2026-04-29T13:17:18.999Z</time></trkpt><trkpt lat="42.35940946071162" lon="13.360374722778868"><ele>627.3333333333334</ele><time>2026-04-29T13:17:19.999Z</time></trkpt><trkpt lat="42.3593601162113" lon="13.360547203971691"><ele>627.6666666666667</ele><time>2026-04-29T13:17:20.999Z</time></trkpt><trkpt lat="42.35930595541701" lon="13.360728925246496"><ele>628.0</ele><time>2026-04-29T13:17:21.999Z</time></trkpt><trkpt lat="42.359249235189516" lon="13.36095055571185"><ele>628.0</ele><time>2026-04-29T13:17:22.999Z</time></trkpt><trkpt lat="42.35919308862333" lon="13.361169762368334"><ele>628.0</ele><time>2026-04-29T13:17:23.999Z</time></trkpt><trkpt lat="42.35913406389411" lon="13.36137309693303"><ele>628.0</ele><time>2026-04-29T13:17:24.999Z</time></trkpt><trkpt lat="42.35907717968912" lon="13.361567095693863"><ele>629.5</ele><time>2026-04-29T13:17:25.999Z</time></trkpt><trkpt lat="42.3590209708232" lon="13.361751252446961"><ele>631.0</ele><time>2026-04-29T13:17:26.999Z</time></trkpt><trkpt lat="42.35897040986406" lon="13.361928364378764"><ele>632.5</ele><time>2026-04-29T13:17:27.999Z</time></trkpt><trkpt lat="42.3589237861212" lon="13.362100097269435"><ele>634.0</ele><time>2026-04-29T13:17:28.999Z</time></trkpt><trkpt lat="42.35887116844486" lon="13.362261049934137"><ele>632.4</ele><time>2026-04-29T13:17:29.999Z</time></trkpt><trkpt lat="42.35882687706511" lon="13.362424867133441"><ele>630.8</ele><time>2026-04-29T13:17:30.999Z</time></trkpt><trkpt lat="42.35877734794523" lon="13.362552925503882"><ele>629.2</ele><time>2026-04-29T13:17:31.999Z</time></trkpt><trkpt lat="42.358738104183374" lon="13.362657280020853"><ele>627.6</ele><time>2026-04-29T13:17:32.999Z</time></trkpt><trkpt lat="42.35870499454521" lon="13.362766488463528"><ele>626.0</ele><time>2026-04-29T13:17:33.999Z</time></trkpt><trkpt lat="42.35867461790166" lon="13.362880483336456"><ele>626.0</ele><time>2026-04-29T13:17:34.999Z</time></trkpt><trkpt lat="42.35864209435702" lon="13.363013076677879"><ele>626.0</ele><time>2026-04-29T13:17:35.999Z</time></trkpt><trkpt lat="42.35859647511311" lon="13.363147338322035"><ele>626.0</ele><time>2026-04-29T13:17:36.999Z</time></trkpt><trkpt lat="42.35854584663379" lon="13.363280658111966"><ele>626.0</ele><time>2026-04-29T13:17:37.999Z</time></trkpt><trkpt lat="42.35850428514746" lon="13.363431058277225"><ele>626.0</ele><time>2026-04-29T13:17:38.999Z</time></trkpt><trkpt lat="42.35845309715121" lon="13.363585426651433"><ele>626.5</ele><time>2026-04-29T13:17:39.999Z</time></trkpt><trkpt lat="42.35841800285508" lon="13.363753231345253"><ele>627.0</ele><time>2026-04-29T13:17:40.999Z</time></trkpt><trkpt lat="42.358373733787595" lon="13.363894111591165"><ele>627.5</ele><time>2026-04-29T13:17:41.999Z</time></trkpt><trkpt lat="42.35834420283421" lon="13.364037194915"><ele>628.0</ele><time>2026-04-29T13:17:42.999Z</time></trkpt><trkpt lat="42.358312415921255" lon="13.364171443597"><ele>628.1999999999999</ele><time>2026-04-29T13:17:43.999Z</time></trkpt><trkpt lat="42.358287439017495" lon="13.364303454527183"><ele>628.4</ele><time>2026-04-29T13:17:44.999Z</time></trkpt><trkpt lat="42.35826212298478" lon="13.364404051931245"><ele>628.5999999999999</ele><time>2026-04-29T13:17:45.999Z</time></trkpt><trkpt lat="42.3582357890922" lon="13.364552582824194"><ele>628.8</ele><time>2026-04-29T13:17:47.999Z</time></trkpt><trkpt lat="42.35820995752154" lon="13.364720012222653"><ele>629.0</ele><time>2026-04-29T13:17:49.999Z</time></trkpt><trkpt lat="42.35819727589876" lon="13.364848345022256"><ele>629.0</ele><time>2026-04-29T13:17:50.999Z</time></trkpt><trkpt lat="42.358182890469486" lon="13.365003604599405"><ele>629.0</ele><time>2026-04-29T13:17:51.999Z</time></trkpt><trkpt lat="42.35817419802511" lon="13.365149563996278"><ele>629.0</ele><time>2026-04-29T13:17:52.999Z</time></trkpt><trkpt lat="42.358173015966834" lon="13.36528878305034"><ele>629.0</ele><time>2026-04-29T13:17:53.999Z</time></trkpt><trkpt lat="42.35817739738134" lon="13.36544250889759"><ele>629.0</ele><time>2026-04-29T13:17:54.999Z</time></trkpt><trkpt lat="42.358194704586985" lon="13.36560155050087"><ele>628.5</ele><time>2026-04-29T13:17:55.999Z</time></trkpt><trkpt lat="42.3582200933485" lon="13.365765808557375"><ele>628.0</ele><time>2026-04-29T13:17:56.999Z</time></trkpt><trkpt lat="42.358250074387755" lon="13.365928522828915"><ele>627.5</ele><time>2026-04-29T13:17:57.999Z</time></trkpt><trkpt lat="42.35828816888043" lon="13.366087919511058"><ele>627.0</ele><time>2026-04-29T13:17:58.999Z</time></trkpt><trkpt lat="42.35833438767848" lon="13.366244460867366"><ele>627.25</ele><time>2026-04-29T13:17:59.999Z</time></trkpt><trkpt lat="42.358385956167425" lon="13.36639508980123"><ele>627.5</ele><time>2026-04-29T13:18:00.999Z</time></trkpt><trkpt lat="42.35844901646872" lon="13.366533664019668"><ele>627.75</ele><time>2026-04-29T13:18:01.999Z</time></trkpt><trkpt lat="42.358517019316885" lon="13.36665885054692"><ele>628.0</ele><time>2026-04-29T13:18:02.999Z</time></trkpt><trkpt lat="42.358577928849556" lon="13.366786636935412"><ele>628.0</ele><time>2026-04-29T13:18:03.999Z</time></trkpt></trkseg><trkseg><trkpt lat="42.362275856084295" lon="13.373153072815393"><ele>645.25</ele><time>2026-04-29T13:39:19.998Z</time></trkpt><trkpt lat="42.36232675645738" lon="13.373002512613686"><ele>644.5</ele><time>2026-04-29T13:39:20.998Z</time></trkpt><trkpt lat="42.36238090532311" lon="13.372851230459972"><ele>643.75</ele><time>2026-04-29T13:39:21.998Z</time></trkpt><trkpt lat="42.36243138054964" lon="13.372703167985684"><ele>643.0</ele><time>2026-04-29T13:39:22.998Z</time></trkpt><trkpt lat="42.36248514563571" lon="13.372553974843974"><ele>643.0</ele><time>2026-04-29T13:39:23.998Z</time></trkpt><trkpt lat="42.3625397689472" lon="13.372416561337669"><ele>643.0</ele><time>2026-04-29T13:39:24.998Z</time></trkpt><trkpt lat="42.362594382032285" lon="13.372257617455592"><ele>643.0</ele><time>2026-04-29T13:39:25.998Z</time></trkpt><trkpt lat="42.36264538554838" lon="13.372111515964853"><ele>643.0</ele><time>2026-04-29T13:39:26.998Z</time></trkpt><trkpt lat="42.36268978429682" lon="13.371972195491903"><ele>643.0</ele><time>2026-04-29T13:39:27.998Z</time></trkpt><trkpt lat="42.36273727455184" lon="13.371818793754287"><ele>643.0</ele><time>2026-04-29T13:39:28.998Z</time></trkpt><trkpt lat="42.36278674023792" lon="13.371644499708125"><ele>643.0</ele><time>2026-04-29T13:39:29.998Z</time></trkpt><trkpt lat="42.36285861655494" lon="13.371485409746395"><ele>643.0</ele><time>2026-04-29T13:39:30.998Z</time></trkpt><trkpt lat="42.362913431546104" lon="13.37132450509336"><ele>643.0</ele><time>2026-04-29T13:39:31.998Z</time></trkpt><trkpt lat="42.3629517899592" lon="13.371169613879125"><ele>643.0</ele><time>2026-04-29T13:39:32.999Z</time></trkpt><trkpt lat="42.36299999477529" lon="13.371036367298398"><ele>643.0</ele><time>2026-04-29T13:39:33.999Z</time></trkpt><trkpt lat="42.36304458611467" lon="13.370913326196963"><ele>643.0</ele><time>2026-04-29T13:39:34.999Z</time></trkpt><trkpt lat="42.363084804182144" lon="13.370805543860847"><ele>643.0</ele><time>2026-04-29T13:39:35.999Z</time></trkpt><trkpt lat="42.36312188302651" lon="13.37070541790991"><ele>643.1666666666667</ele><time>2026-04-29T13:39:36.999Z</time></trkpt><trkpt lat="42.36315773466265" lon="13.370610818443318"><ele>643.3333333333334</ele><time>2026-04-29T13:39:37.999Z</time></trkpt><trkpt lat="42.36318511533804" lon="13.370529173306565"><ele>643.5</ele><time>2026-04-29T13:39:38.999Z</time></trkpt><trkpt lat="42.363215744947674" lon="13.370445940912736"><ele>643.6666666666666</ele><time>2026-04-29T13:39:39.999Z</time></trkpt><trkpt lat="42.36325149802616" lon="13.370335537024683"><ele>643.8333333333333</ele><time>2026-04-29T13:39:40.999Z</time></trkpt><trkpt lat="42.363293697738754" lon="13.370196222672803"><ele>644.0</ele><time>2026-04-29T13:39:41.999Z</time></trkpt><trkpt lat="42.36334546818291" lon="13.36999911098964"><ele>643.5</ele><time>2026-04-29T13:39:43Z</time></trkpt><trkpt lat="42.36342619611323" lon="13.369832088039583"><ele>643.0</ele><time>2026-04-29T13:39:44Z</time></trkpt><trkpt lat="42.363483767562855" lon="13.369667357303085"><ele>642.5</ele><time>2026-04-29T13:39:45Z</time></trkpt><trkpt lat="42.36352269191832" lon="13.369515676729513"><ele>642.0</ele><time>2026-04-29T13:39:46Z</time></trkpt><trkpt lat="42.363574317689846" lon="13.369385640187181"><ele>641.8333333333334</ele><time>2026-04-29T13:39:47Z</time></trkpt><trkpt lat="42.36361039838598" lon="13.369289924430987"><ele>641.6666666666666</ele><time>2026-04-29T13:39:48Z</time></trkpt><trkpt lat="42.363664666316026" lon="13.369157509531117"><ele>641.5</ele><time>2026-04-29T13:39:50Z</time></trkpt><trkpt lat="42.363701267020026" lon="13.36905190527121"><ele>641.3333333333333</ele><time>2026-04-29T13:39:52Z</time></trkpt><trkpt lat="42.3637315200652" lon="13.368974505935945"><ele>641.1666666666666</ele><time>2026-04-29T13:39:53Z</time></trkpt><trkpt lat="42.36376266362738" lon="13.368890598721299"><ele>641.0</ele><time>2026-04-29T13:39:54Z</time></trkpt><trkpt lat="42.36379502960271" lon="13.36880562034405"><ele>641.0</ele><time>2026-04-29T13:39:55Z</time></trkpt><trkpt lat="42.36382180299714" lon="13.368717715708804"><ele>641.0</ele><time>2026-04-29T13:39:56Z</time></trkpt><trkpt lat="42.36385408053465" lon="13.36862033355821"><ele>641.0</ele><time>2026-04-29T13:39:57Z</time></trkpt><trkpt lat="42.3638901196066" lon="13.368511310352096"><ele>641.0</ele><time>2026-04-29T13:39:58Z</time></trkpt><trkpt lat="42.36393053612914" lon="13.368404714475737"><ele>641.0</ele><time>2026-04-29T13:39:59Z</time></trkpt><trkpt lat="42.363965682372985" lon="13.368295628165484"><ele>641.0</ele><time>2026-04-29T13:40:00Z</time></trkpt><trkpt lat="42.36400596398312" lon="13.368176910934583"><ele>641.8</ele><time>2026-04-29T13:40:01Z</time></trkpt><trkpt lat="42.364045668293436" lon="13.368050067347875"><ele>642.5999999999999</ele><time>2026-04-29T13:40:02Z</time></trkpt><trkpt lat="42.364089748819374" lon="13.367925956637343"><ele>643.4</ele><time>2026-04-29T13:40:03Z</time></trkpt><trkpt lat="42.364137284540824" lon="13.367784908077747"><ele>644.2</ele><time>2026-04-29T13:40:04Z</time></trkpt><trkpt lat="42.364188693587295" lon="13.367626941644463"><ele>645.0</ele><time>2026-04-29T13:40:05Z</time></trkpt><trkpt lat="42.36425290399336" lon="13.367453022425197"><ele>645.0</ele><time>2026-04-29T13:40:06Z</time></trkpt><trkpt lat="42.36432097921666" lon="13.367272401436802"><ele>645.0</ele><time>2026-04-29T13:40:07Z</time></trkpt><trkpt lat="42.36437901948327" lon="13.367116328229557"><ele>645.0</ele><time>2026-04-29T13:40:08Z</time></trkpt><trkpt lat="42.36443512591091" lon="13.366951755384665"><ele>645.0</ele><time>2026-04-29T13:40:09Z</time></trkpt><trkpt lat="42.36449921298048" lon="13.36679578024121"><ele>645.0</ele><time>2026-04-29T13:40:10Z</time></trkpt><trkpt lat="42.36455226373987" lon="13.366656447650222"><ele>645.0</ele><time>2026-04-29T13:40:11Z</time></trkpt><trkpt lat="42.36459159896783" lon="13.366526495496432"><ele>645.0</ele><time>2026-04-29T13:40:12Z</time></trkpt><trkpt lat="42.36462105291399" lon="13.366400649273086"><ele>645.0</ele><time>2026-04-29T13:40:13Z</time></trkpt><trkpt lat="42.364666839986995" lon="13.366279461102897"><ele>645.0</ele><time>2026-04-29T13:40:14Z</time></trkpt><trkpt lat="42.364705765098385" lon="13.36615712976295"><ele>646.0</ele><time>2026-04-29T13:40:15Z</time></trkpt><trkpt lat="42.364747617507405" lon="13.366041016821962"><ele>647.0</ele><time>2026-04-29T13:40:16Z</time></trkpt><trkpt lat="42.364781505405205" lon="13.365939091529269"><ele>648.0</ele><time>2026-04-29T13:40:17Z</time></trkpt><trkpt lat="42.36480540187888" lon="13.365856176325469"><ele>649.0</ele><time>2026-04-29T13:40:18Z</time></trkpt><trkpt lat="42.368420713660996" lon="13.359343241923144"><ele>649.2</ele><time>2026-04-29T13:41:19.999Z</time></trkpt><trkpt lat="42.36849820811677" lon="13.359215404294543"><ele>649.4000000000001</ele><time>2026-04-29T13:41:20.999Z</time></trkpt><trkpt lat="42.36856883343262" lon="13.359091843308796"><ele>649.6</ele><time>2026-04-29T13:41:21.999Z</time></trkpt><trkpt lat="42.36863377915112" lon="13.358977673413708"><ele>649.8</ele><time>2026-04-29T13:41:22.999Z</time></trkpt><trkpt lat="42.368690307833326" lon="13.358865956785273"><ele>650.0</ele><time>2026-04-29T13:41:23.999Z</time></trkpt><trkpt lat="42.36874575930434" lon="13.358777312005511"><ele>650.5</ele><time>2026-04-29T13:41:24.999Z</time></trkpt><trkpt lat="42.36879976076739" lon="13.358686536424946"><ele>651.0</ele><time>2026-04-29T13:41:25.999Z</time></trkpt><trkpt lat="42.36885501545531" lon="13.358585540662121"><ele>651.5</ele><time>2026-04-29T13:41:26.999Z</time></trkpt><trkpt lat="42.3689026197366" lon="13.358486306374276"><ele>652.0</ele><time>2026-04-29T13:41:27.999Z</time></trkpt><trkpt lat="42.36895025409472" lon="13.358398598393313"><ele>652.5</ele><time>2026-04-29T13:41:28.999Z</time></trkpt><trkpt lat="42.36898115530834" lon="13.358316524916454"><ele>653.0</ele><time>2026-04-29T13:41:29.999Z</time></trkpt><trkpt lat="42.369028846010025" lon="13.358227266418018"><ele>653.0</ele><time>2026-04-29T13:41:31.999Z</time></trkpt><trkpt lat="42.36912431452658" lon="13.358173066736807"><ele>653.0</ele><time>2026-04-29T13:41:33.999Z</time></trkpt><trkpt lat="42.3691900598903" lon="13.358145512659307"><ele>653.0</ele><time>2026-04-29T13:41:34.999Z</time></trkpt><trkpt lat="42.36924761285793" lon="13.358095012913537"><ele>653.0</ele><time>2026-04-29T13:41:35.999Z</time></trkpt><trkpt lat="42.36928270918207" lon="13.358008904189346"><ele>653.0</ele><time>2026-04-29T13:41:36.999Z</time></trkpt><trkpt lat="42.36929704184811" lon="13.357907047988673"><ele>653.0</ele><time>2026-04-29T13:41:37.999Z</time></trkpt><trkpt lat="42.36930510323904" lon="13.35780295944558"><ele>652.6666666666666</ele><time>2026-04-29T13:41:39Z</time></trkpt><trkpt lat="42.36933641166287" lon="13.357703877660226"><ele>652.3333333333333</ele><time>2026-04-29T13:41:40Z</time></trkpt><trkpt lat="42.36939131335082" lon="13.357600415300228"><ele>652.0</ele><time>2026-04-29T13:41:41Z</time></trkpt><trkpt lat="42.36945525992183" lon="13.357505373583104"><ele>651.6666666666666</ele><time>2026-04-29T13:41:42Z</time></trkpt><trkpt lat="42.36951568836812" lon="13.35741908828282"><ele>651.3333333333334</ele><time>2026-04-29T13:41:43Z</time></trkpt><trkpt lat="42.36957499027585" lon="13.35732422470338"><ele>651.0</ele><time>2026-04-29T13:41:44Z</time></trkpt><trkpt lat="42.36962937969183" lon="13.357216856408925"><ele>651.1999999999999</ele><time>2026-04-29T13:41:45Z</time></trkpt><trkpt lat="42.369688095221115" lon="13.357103411872435"><ele>651.4</ele><time>2026-04-29T13:41:46Z</time></trkpt><trkpt lat="42.36974602272961" lon="13.356997531821532"><ele>651.6</ele><time>2026-04-29T13:41:47Z</time></trkpt><trkpt lat="42.36980772665788" lon="13.356884103495366"><ele>651.8</ele><time>2026-04-29T13:41:48Z</time></trkpt><trkpt lat="42.369872106950176" lon="13.356768085258024"><ele>652.0</ele><time>2026-04-29T13:41:49Z</time></trkpt><trkpt lat="42.36994113780218" lon="13.356648117730028"><ele>652.0</ele><time>2026-04-29T13:41:50Z</time></trkpt><trkpt lat="42.370012968545204" lon="13.356522223914075"><ele>652.0</ele><time>2026-04-29T13:41:51Z</time></trkpt><trkpt lat="42.37008539903469" lon="13.356388313554346"><ele>652.0</ele><time>2026-04-29T13:41:52Z</time></trkpt><trkpt lat="42.37015309301402" lon="13.356265399652797"><ele>652.0</ele><time>2026-04-29T13:41:53Z</time></trkpt><trkpt lat="42.370215269577635" lon="13.356153550523892"><ele>651.4000000000001</ele><time>2026-04-29T13:41:54Z</time></trkpt><trkpt lat="42.37027414675433" lon="13.356052164837182"><ele>650.8000000000001</ele><time>2026-04-29T13:41:55Z</time></trkpt><trkpt lat="42.37032465335539" lon="13.355955444443543"><ele>650.2</ele><time>2026-04-29T13:41:56Z</time></trkpt><trkpt lat="42.3703754687448" lon="13.355861731226895"><ele>649.6</ele><time>2026-04-29T13:41:57Z</time></trkpt><trkpt lat="42.37042949713708" lon="13.355764630510446"><ele>649.0</ele><time>2026-04-29T13:41:58Z</time></trkpt><trkpt lat="42.37049014581189" lon="13.355659511495423"><ele>649.2</ele><time>2026-04-29T13:41:59Z</time></trkpt><trkpt lat="42.370551365779114" lon="13.355552613682983"><ele>649.4000000000001</ele><time>2026-04-29T13:42:00Z</time></trkpt><trkpt lat="42.37061242954621" lon="13.355444171499832"><ele>649.6</ele><time>2026-04-29T13:42:01Z</time></trkpt><trkpt lat="42.37067808075331" lon="13.355334825536197"><ele>649.8</ele><time>2026-04-29T13:42:02Z</time></trkpt><trkpt lat="42.370744482515924" lon="13.355223142651202"><ele>650.0</ele><time>2026-04-29T13:42:03Z</time></trkpt><trkpt lat="42.37081375319712" lon="13.35510685199389"><ele>650.0</ele><time>2026-04-29T13:42:04Z</time></trkpt><trkpt lat="42.370888794284205" lon="13.354981279240137"><ele>650.0</ele><time>2026-04-29T13:42:05Z</time></trkpt><trkpt lat="42.370971944519255" lon="13.354836188516243"><ele>650.0</ele><time>2026-04-29T13:42:06Z</time></trkpt><trkpt lat="42.371057033451876" lon="13.35468034585799"><ele>650.0</ele><time>2026-04-29T13:42:07Z</time></trkpt><trkpt lat="42.371130960651435" lon="13.354529130635967"><ele>650.0</ele><time>2026-04-29T13:42:08Z</time></trkpt><trkpt lat="42.371208297248394" lon="13.354371130288628"><ele>650.0</ele><time>2026-04-29T13:42:09Z</time></trkpt><trkpt lat="42.371285946423804" lon="13.354207107283809"><ele>650.0</ele><time>2026-04-29T13:42:10Z</time></trkpt><trkpt lat="42.37136486896156" lon="13.354044181310025"><ele>650.0</ele><time>2026-04-29T13:42:11Z</time></trkpt><trkpt lat="42.37143448221781" lon="13.353893813710762"><ele>649.75</ele><time>2026-04-29T13:42:12Z</time></trkpt><trkpt lat="42.371500512757265" lon="13.353755101029536"><ele>649.5</ele><time>2026-04-29T13:42:13Z</time></trkpt><trkpt lat="42.3715604377206" lon="13.353626378392272"><ele>649.25</ele><time>2026-04-29T13:42:14Z</time></trkpt><trkpt lat="42.37161511222338" lon="13.35350313187826"><ele>649.0</ele><time>2026-04-29T13:42:15Z</time></trkpt><trkpt lat="42.371673372531774" lon="13.353377244921681"><ele>649.0</ele><time>2026-04-29T13:42:16Z</time></trkpt><trkpt lat="42.37173300118769" lon="13.353242024522087"><ele>649.0</ele><time>2026-04-29T13:42:17Z</time></trkpt><trkpt lat="42.37179780374793" lon="13.353098386102857"><ele>649.0</ele><time>2026-04-29T13:42:18Z</time></trkpt><trkpt lat="42.37186601597716" lon="13.352953379425347"><ele>649.0</ele><time>2026-04-29T13:42:19Z</time></trkpt><trkpt lat="42.378784972483345" lon="13.346253641804132"><ele>648.3333333333334</ele><time>2026-04-29T13:43:20Z</time></trkpt><trkpt lat="42.37899534039055" lon="13.346190564400148"><ele>647.6666666666666</ele><time>2026-04-29T13:43:21Z</time></trkpt><trkpt lat="42.379203723722455" lon="13.346086643665702"><ele>647.0</ele><time>2026-04-29T13:43:22Z</time></trkpt><trkpt lat="42.37941894269307" lon="13.345949668195576"><ele>647.0</ele><time>2026-04-29T13:43:23Z</time></trkpt><trkpt lat="42.37962788157636" lon="13.345767218034295"><ele>647.0</ele><time>2026-04-29T13:43:24Z</time></trkpt><trkpt lat="42.37985506852949" lon="13.345516062740057"><ele>646.0</ele><time>2026-04-29T13:43:25Z</time></trkpt><trkpt lat="42.38008082804909" lon="13.345265216218804"><ele>645.0</ele><time>2026-04-29T13:43:25.999Z</time></trkpt><trkpt lat="42.38035216511176" lon="13.345043544687838"><ele>647.0</ele><time>2026-04-29T13:43:26.999Z</time></trkpt><trkpt lat="42.380567458722645" lon="13.344751502976322"><ele>649.0</ele><time>2026-04-29T13:43:27.999Z</time></trkpt><trkpt lat="42.38077789431878" lon="13.344497145249266"><ele>649.0</ele><time>2026-04-29T13:43:28.999Z</time></trkpt><trkpt lat="42.380985806150484" lon="13.344267350257741"><ele>649.0</ele><time>2026-04-29T13:43:29.999Z</time></trkpt><trkpt lat="42.38119000804197" lon="13.344061532667608"><ele>648.5</ele><time>2026-04-29T13:43:30.999Z</time></trkpt><trkpt lat="42.381391346850904" lon="13.34389043394434"><ele>648.0</ele><time>2026-04-29T13:43:31.999Z</time></trkpt><trkpt lat="42.381572637169725" lon="13.343713404793967"><ele>648.0</ele><time>2026-04-29T13:43:32.999Z</time></trkpt><trkpt lat="42.381735429809815" lon="13.343530010830316"><ele>648.0</ele><time>2026-04-29T13:43:33.999Z</time></trkpt><trkpt lat="42.381873108834675" lon="13.343303361481516"><ele>648.0</ele><time>2026-04-29T13:43:34.999Z</time></trkpt><trkpt lat="42.38199784601808" lon="13.34305426892535"><ele>646.6666666666666</ele><time>2026-04-29T13:43:35.999Z</time></trkpt><trkpt lat="42.38212325385325" lon="13.342820866763788"><ele>645.3333333333333</ele><time>2026-04-29T13:43:36.999Z</time></trkpt><trkpt lat="42.38224146378326" lon="13.342614769549298"><ele>644.0</ele><time>2026-04-29T13:43:37.999Z</time></trkpt><trkpt lat="42.38236305702147" lon="13.34243074977466"><ele>644.3333333333333</ele><time>2026-04-29T13:43:38.999Z</time></trkpt><trkpt lat="42.38250539510322" lon="13.342263922121854"><ele>644.6666666666666</ele><time>2026-04-29T13:43:39.999Z</time></trkpt><trkpt lat="42.382643346304484" lon="13.342130849869331"><ele>645.0</ele><time>2026-04-29T13:43:40.999Z</time></trkpt><trkpt lat="42.38277124206967" lon="13.342023072090006"><ele>645.0</ele><time>2026-04-29T13:43:41.999Z</time></trkpt><trkpt lat="42.38288083229356" lon="13.341926468483708"><ele>645.0</ele><time>2026-04-29T13:43:42.999Z</time></trkpt><trkpt lat="42.382974930409446" lon="13.341840492749652"><ele>645.0</ele><time>2026-04-29T13:43:43.999Z</time></trkpt><trkpt lat="42.38306047110449" lon="13.341765884156613"><ele>645.0</ele><time>2026-04-29T13:43:45Z</time></trkpt><trkpt lat="42.383138130830154" lon="13.341708435887407"><ele>645.0</ele><time>2026-04-29T13:43:46Z</time></trkpt><trkpt lat="42.383215208648" lon="13.34167070800062"><ele>645.2</ele><time>2026-04-29T13:43:47Z</time></trkpt><trkpt lat="42.38329048738192" lon="13.341654627202914"><ele>645.4</ele><time>2026-04-29T13:43:48Z</time></trkpt><trkpt lat="42.38336316704715" lon="13.34171761424932"><ele>645.5999999999999</ele><time>2026-04-29T13:43:49Z</time></trkpt><trkpt lat="42.3834345460306" lon="13.34171870335973"><ele>645.8</ele><time>2026-04-29T13:43:50Z</time></trkpt><trkpt lat="42.38354266434453" lon="13.34149980853937"><ele>646.0</ele><time>2026-04-29T13:43:52Z</time></trkpt><trkpt lat="42.38356064324109" lon="13.341320912946546"><ele>646.0</ele><time>2026-04-29T13:43:53Z</time></trkpt><trkpt lat="42.38360440059696" lon="13.341107285079815"><ele>646.0</ele><time>2026-04-29T13:43:54Z</time></trkpt><trkpt lat="42.38370636006994" lon="13.340865609317524"><ele>646.0</ele><time>2026-04-29T13:43:55Z</time></trkpt><trkpt lat="42.38384111697261" lon="13.340600987438487"><ele>647.5</ele><time>2026-04-29T13:43:56Z</time></trkpt><trkpt lat="42.38398542855522" lon="13.340305795150119"><ele>649.0</ele><time>2026-04-29T13:43:57Z</time></trkpt><trkpt lat="42.384134321730464" lon="13.33998088563562"><ele>648.5</ele><time>2026-04-29T13:43:58Z</time></trkpt><trkpt lat="42.384290974465976" lon="13.339639161084847"><ele>648.0</ele><time>2026-04-29T13:43:59Z</time></trkpt><trkpt lat="42.38445516422373" lon="13.339284223160886"><ele>648.0</ele><time>2026-04-29T13:44:00Z</time></trkpt><trkpt lat="42.38462738313242" lon="13.338918916161832"><ele>648.0</ele><time>2026-04-29T13:44:01Z</time></trkpt><trkpt lat="42.384801015562616" lon="13.338536975761063"><ele>649.0</ele><time>2026-04-29T13:44:02Z</time></trkpt><trkpt lat="42.384986022290455" lon="13.338157884275661"><ele>650.0</ele><time>2026-04-29T13:44:03Z</time></trkpt><trkpt lat="42.38517723543627" lon="13.337739585385505"><ele>650.0</ele><time>2026-04-29T13:44:04Z</time></trkpt><trkpt lat="42.38537214273555" lon="13.337316615554272"><ele>650.0</ele><time>2026-04-29T13:44:05Z</time></trkpt><trkpt lat="42.38556279116854" lon="13.336908164329143"><ele>650.5</ele><time>2026-04-29T13:44:06Z</time></trkpt><trkpt lat="42.38573459261433" lon="13.336538135392777"><ele>651.0</ele><time>2026-04-29T13:44:07Z</time></trkpt><trkpt lat="42.38590240547216" lon="13.33618153704692"><ele>651.0</ele><time>2026-04-29T13:44:08Z</time></trkpt><trkpt lat="42.38607858784628" lon="13.33582533091059"><ele>651.0</ele><time>2026-04-29T13:44:09Z</time></trkpt><trkpt lat="42.38626472792621" lon="13.335477968568284"><ele>652.0</ele><time>2026-04-29T13:44:10Z</time></trkpt><trkpt lat="42.38645982345814" lon="13.335137472842936"><ele>653.0</ele><time>2026-04-29T13:44:11Z</time></trkpt><trkpt lat="42.38666799442406" lon="13.334801527995136"><ele>651.5</ele><time>2026-04-29T13:44:12Z</time></trkpt><trkpt lat="42.38689752673909" lon="13.334466996031923"><ele>650.0</ele><time>2026-04-29T13:44:13Z</time></trkpt><trkpt lat="42.38715231532247" lon="13.334137389461349"><ele>652.0</ele><time>2026-04-29T13:44:14Z</time></trkpt><trkpt lat="42.387411035896605" lon="13.333815564086903"><ele>654.0</ele><time>2026-04-29T13:44:15Z</time></trkpt><trkpt lat="42.387664340268486" lon="13.333509663471995"><ele>654.0</ele><time>2026-04-29T13:44:16Z</time></trkpt><trkpt lat="42.38791614450838" lon="13.333219820910998"><ele>654.0</ele><time>2026-04-29T13:44:17Z</time></trkpt><trkpt lat="42.388168423419486" lon="13.332948560927502"><ele>655.5</ele><time>2026-04-29T13:44:18Z</time></trkpt><trkpt lat="42.388421222468075" lon="13.332674225306834"><ele>657.0</ele><time>2026-04-29T13:44:19Z</time></trkpt><trkpt lat="42.394701132268516" lon="13.314710392914083"><ele>662.0</ele><time>2026-04-29T13:45:20Z</time></trkpt><trkpt lat="42.39473436218175" lon="13.31443371311161"><ele>667.0</ele><time>2026-04-29T13:45:21Z</time></trkpt><trkpt lat="42.39476043988705" lon="13.314172006731091"><ele>672.0</ele><time>2026-04-29T13:45:22Z</time></trkpt><trkpt lat="42.394771972181445" lon="13.313923751588522"><ele>671.6666666666666</ele><time>2026-04-29T13:45:23Z</time></trkpt><trkpt lat="42.39477532677758" lon="13.313691061431197"><ele>671.3333333333333</ele><time>2026-04-29T13:45:24Z</time></trkpt><trkpt lat="42.3947820752582" lon="13.31347849730792"><ele>671.0</ele><time>2026-04-29T13:45:25Z</time></trkpt><trkpt lat="42.39479630100565" lon="13.313294778956896"><ele>671.0</ele><time>2026-04-29T13:45:26Z</time></trkpt><trkpt lat="42.394814511859025" lon="13.313119222167838"><ele>671.0</ele><time>2026-04-29T13:45:27Z</time></trkpt><trkpt lat="42.39486626380414" lon="13.312946891052652"><ele>671.0</ele><time>2026-04-29T13:45:28Z</time></trkpt><trkpt lat="42.39495720638946" lon="13.312763054510677"><ele>671.0</ele><time>2026-04-29T13:45:29Z</time></trkpt><trkpt lat="42.395077297763095" lon="13.312583680985488"><ele>670.0</ele><time>2026-04-29T13:45:30Z</time></trkpt><trkpt lat="42.39522341435938" lon="13.312408493135864"><ele>669.0</ele><time>2026-04-29T13:45:31Z</time></trkpt><trkpt lat="42.39539109441898" lon="13.312234016299167"><ele>668.0</ele><time>2026-04-29T13:45:32Z</time></trkpt><trkpt lat="42.39556682719922" lon="13.312102700569634"><ele>667.3333333333333</ele><time>2026-04-29T13:45:33Z</time></trkpt><trkpt lat="42.39573260903286" lon="13.311995756175568"><ele>666.6666666666666</ele><time>2026-04-29T13:45:34Z</time></trkpt><trkpt lat="42.39589572617324" lon="13.311894514888722"><ele>666.0</ele><time>2026-04-29T13:45:35Z</time></trkpt><trkpt lat="42.396055277665084" lon="13.311858455032862"><ele>666.0</ele><time>2026-04-29T13:45:36Z</time></trkpt><trkpt lat="42.396215670604825" lon="13.311858036946957"><ele>666.0</ele><time>2026-04-29T13:45:37Z</time></trkpt><trkpt lat="42.39638763830267" lon="13.311891725347722"><ele>666.0</ele><time>2026-04-29T13:45:38Z</time></trkpt><trkpt lat="42.396559895582286" lon="13.31187362846625"><ele>667.0</ele><time>2026-04-29T13:45:39Z</time></trkpt><trkpt lat="42.39676366860466" lon="13.312061452589804"><ele>668.0</ele><time>2026-04-29T13:45:40Z</time></trkpt><trkpt lat="42.396955553069944" lon="13.312196146471596"><ele>669.3333333333333</ele><time>2026-04-29T13:45:41Z</time></trkpt><trkpt lat="42.39712411259063" lon="13.3123256622283"><ele>670.6666666666666</ele><time>2026-04-29T13:45:42Z</time></trkpt><trkpt lat="42.397292448623205" lon="13.312440607420926"><ele>672.0</ele><time>2026-04-29T13:45:43Z</time></trkpt><trkpt lat="42.39747910830074" lon="13.312523643459064"><ele>672.0</ele><time>2026-04-29T13:45:44Z</time></trkpt><trkpt lat="42.39767954745107" lon="13.31255069757165"><ele>672.0</ele><time>2026-04-29T13:45:45Z</time></trkpt><trkpt lat="42.39790833802632" lon="13.312500037906387"><ele>672.0</ele><time>2026-04-29T13:45:45.999Z</time></trkpt><trkpt lat="42.398161417134006" lon="13.312379961861785"><ele>672.0</ele><time>2026-04-29T13:45:46.999Z</time></trkpt><trkpt lat="42.39843564763508" lon="13.312245209379725"><ele>672.0</ele><time>2026-04-29T13:45:47.999Z</time></trkpt><trkpt lat="42.398712647586315" lon="13.31209697457482"><ele>670.5</ele><time>2026-04-29T13:45:48.999Z</time></trkpt><trkpt lat="42.398982624584306" lon="13.311951667705625"><ele>669.0</ele><time>2026-04-29T13:45:49.999Z</time></trkpt><trkpt lat="42.399226206151795" lon="13.311830526652955"><ele>669.0</ele><time>2026-04-29T13:45:51Z</time></trkpt><trkpt lat="42.399458527711026" lon="13.311714098887327"><ele>669.0</ele><time>2026-04-29T13:45:52Z</time></trkpt><trkpt lat="42.39965821285571" lon="13.311615841903242"><ele>669.0</ele><time>2026-04-29T13:45:53Z</time></trkpt><trkpt lat="42.39983496800905" lon="13.31152734220643"><ele>669.0</ele><time>2026-04-29T13:45:54Z</time></trkpt><trkpt lat="42.39999608665701" lon="13.311445520458848"><ele>669.0</ele><time>2026-04-29T13:45:55Z</time></trkpt><trkpt lat="42.40013411668509" lon="13.311374751431304"><ele>668.75</ele><time>2026-04-29T13:45:56Z</time></trkpt><trkpt lat="42.400256626457164" lon="13.31131820228661"><ele>668.5</ele><time>2026-04-29T13:45:57Z</time></trkpt><trkpt lat="42.40037247146989" lon="13.311282571760287"><ele>668.25</ele><time>2026-04-29T13:45:58Z</time></trkpt><trkpt lat="42.40047981180881" lon="13.31125506059519"><ele>668.0</ele><time>2026-04-29T13:45:59Z</time></trkpt><trkpt lat="42.400566388056035" lon="13.311180157360303"><ele>668.0</ele><time>2026-04-29T13:46:00Z</time></trkpt><trkpt lat="42.40065593763086" lon="13.311028765533935"><ele>668.0</ele><time>2026-04-29T13:46:01Z</time></trkpt><trkpt lat="42.40076532198072" lon="13.310820048650864"><ele>668.0</ele><time>2026-04-29T13:46:02Z</time></trkpt><trkpt lat="42.40091546240551" lon="13.310639412898105"><ele>668.5</ele><time>2026-04-29T13:46:03Z</time></trkpt><trkpt lat="42.4011267349727" lon="13.31045592786251"><ele>669.0</ele><time>2026-04-29T13:46:04Z</time></trkpt><trkpt lat="42.40135479203116" lon="13.310246335709373"><ele>669.5</ele><time>2026-04-29T13:46:05Z</time></trkpt><trkpt lat="42.401585302859154" lon="13.310011450559868"><ele>670.0</ele><time>2026-04-29T13:46:06Z</time></trkpt><trkpt lat="42.40182647449005" lon="13.309788335417968"><ele>669.5</ele><time>2026-04-29T13:46:07Z</time></trkpt><trkpt lat="42.40207135668824" lon="13.30956325992941"><ele>669.0</ele><time>2026-04-29T13:46:08Z</time></trkpt><trkpt lat="42.40230044834869" lon="13.30936282765308"><ele>670.5</ele><time>2026-04-29T13:46:09Z</time></trkpt><trkpt lat="42.40252853424663" lon="13.309178771180443"><ele>672.0</ele><time>2026-04-29T13:46:10Z</time></trkpt><trkpt lat="42.40273418368156" lon="13.309000762073746"><ele>671.5</ele><time>2026-04-29T13:46:11Z</time></trkpt><trkpt lat="42.40293088135105" lon="13.308822675397534"><ele>671.0</ele><time>2026-04-29T13:46:12Z</time></trkpt><trkpt lat="42.40312356298454" lon="13.308653053793599"><ele>672.3333333333333</ele><time>2026-04-29T13:46:13Z</time></trkpt><trkpt lat="42.403300705411446" lon="13.30849840759285"><ele>673.6666666666666</ele><time>2026-04-29T13:46:14Z</time></trkpt><trkpt lat="42.40347792556332" lon="13.308343681002217"><ele>675.0</ele><time>2026-04-29T13:46:15Z</time></trkpt><trkpt lat="42.40364091470363" lon="13.308198842388633"><ele>674.6666666666666</ele><time>2026-04-29T13:46:16Z</time></trkpt><trkpt lat="42.40379835637667" lon="13.308061424681988"><ele>674.3333333333333</ele><time>2026-04-29T13:46:17Z</time></trkpt><trkpt lat="42.403939096858686" lon="13.307938128761597"><ele>674.0</ele><time>2026-04-29T13:46:18Z</time></trkpt><trkpt lat="42.404076136337856" lon="13.30781578239671"><ele>694.0</ele><time>2026-04-29T13:46:19Z</time></trkpt><trkpt lat="42.40967655121343" lon="13.30775155874851"><ele>694.0</ele><time>2026-04-29T13:47:20Z</time></trkpt><trkpt lat="42.40977526377291" lon="13.307900711494996"><ele>694.0</ele><time>2026-04-29T13:47:21Z</time></trkpt><trkpt lat="42.409869322158606" lon="13.308048489754658"><ele>694.0</ele><time>2026-04-29T13:47:22Z</time></trkpt><trkpt lat="42.40997063122599" lon="13.308205473962715"><ele>694.0</ele><time>2026-04-29T13:47:23Z</time></trkpt><trkpt lat="42.41008054848168" lon="13.308378977638963"><ele>693.0</ele><time>2026-04-29T13:47:24Z</time></trkpt><trkpt lat="42.41019681529396" lon="13.308558005885873"><ele>692.0</ele><time>2026-04-29T13:47:25Z</time></trkpt><trkpt lat="42.410319668054505" lon="13.308749949366721"><ele>691.0</ele><time>2026-04-29T13:47:26Z</time></trkpt><trkpt lat="42.41044751685643" lon="13.30894974471827"><ele>694.0</ele><time>2026-04-29T13:47:27Z</time></trkpt><trkpt lat="42.41057772277553" lon="13.3091538655638"><ele>697.0</ele><time>2026-04-29T13:47:28Z</time></trkpt><trkpt lat="42.41071978852692" lon="13.309389273272986"><ele>700.0</ele><time>2026-04-29T13:47:29Z</time></trkpt><trkpt lat="42.41086835948244" lon="13.309667434245931"><ele>697.5</ele><time>2026-04-29T13:47:30Z</time></trkpt><trkpt lat="42.41100585827678" lon="13.309956583498797"><ele>695.0</ele><time>2026-04-29T13:47:31Z</time></trkpt><trkpt lat="42.41113805229261" lon="13.310247000158684"><ele>695.0</ele><time>2026-04-29T13:47:32Z</time></trkpt><trkpt lat="42.411287808343246" lon="13.310525130469076"><ele>695.0</ele><time>2026-04-29T13:47:33Z</time></trkpt><trkpt lat="42.41145757216391" lon="13.310790208848086"><ele>700.0</ele><time>2026-04-29T13:47:34Z</time></trkpt><trkpt lat="42.41163618154222" lon="13.311045734983457"><ele>705.0</ele><time>2026-04-29T13:47:35Z</time></trkpt><trkpt lat="42.41181018695855" lon="13.311293758591045"><ele>702.0</ele><time>2026-04-29T13:47:36Z</time></trkpt><trkpt lat="42.41196735447278" lon="13.31152953438689"><ele>699.0</ele><time>2026-04-29T13:47:37Z</time></trkpt><trkpt lat="42.412107820586385" lon="13.311761242081545"><ele>702.0</ele><time>2026-04-29T13:47:38Z</time></trkpt><trkpt lat="42.4122278914265" lon="13.312001496410376"><ele>705.0</ele><time>2026-04-29T13:47:39Z</time></trkpt><trkpt lat="42.41232575095964" lon="13.312263778820753"><ele>708.0</ele><time>2026-04-29T13:47:40Z</time></trkpt><trkpt lat="42.41241189669567" lon="13.312541200379597"><ele>708.0</ele><time>2026-04-29T13:47:41Z</time></trkpt><trkpt lat="42.41248074823726" lon="13.312830455140604"><ele>708.0</ele><time>2026-04-29T13:47:42Z</time></trkpt><trkpt lat="42.41252421205825" lon="13.313127356936693"><ele>708.0</ele><time>2026-04-29T13:47:43Z</time></trkpt><trkpt lat="42.41254181137049" lon="13.313419201542704"><ele>708.0</ele><time>2026-04-29T13:47:44Z</time></trkpt><trkpt lat="42.41254614725247" lon="13.313698371979859"><ele>708.0</ele><time>2026-04-29T13:47:45Z</time></trkpt><trkpt lat="42.41257050832431" lon="13.313963784726232"><ele>708.0</ele><time>2026-04-29T13:47:46Z</time></trkpt><trkpt lat="42.41262909974495" lon="13.31422895443958"><ele>708.0</ele><time>2026-04-29T13:47:47Z</time></trkpt><trkpt lat="42.41271236065286" lon="13.31448962106242"><ele>708.0</ele><time>2026-04-29T13:47:48Z</time></trkpt><trkpt lat="42.41279459880754" lon="13.314758170942774"><ele>708.0</ele><time>2026-04-29T13:47:49Z</time></trkpt><trkpt lat="42.412856352065006" lon="13.315017960414263"><ele>708.0</ele><time>2026-04-29T13:47:50Z</time></trkpt><trkpt lat="42.412901779103386" lon="13.315262091792963"><ele>708.0</ele><time>2026-04-29T13:47:51Z</time></trkpt><trkpt lat="42.41293303465688" lon="13.31549567115047"><ele>708.0</ele><time>2026-04-29T13:47:52Z</time></trkpt><trkpt lat="42.41293786735968" lon="13.315712351299808"><ele>708.25</ele><time>2026-04-29T13:47:53Z</time></trkpt><trkpt lat="42.41296407696914" lon="13.315908028001"><ele>708.5</ele><time>2026-04-29T13:47:54Z</time></trkpt><trkpt lat="42.41296574271643" lon="13.316092153594811"><ele>708.75</ele><time>2026-04-29T13:47:55Z</time></trkpt><trkpt lat="42.41296734302908" lon="13.316258601034667"><ele>709.0</ele><time>2026-04-29T13:47:56.001Z</time></trkpt><trkpt lat="42.41295952509159" lon="13.316417920411673"><ele>710.0</ele><time>2026-04-29T13:47:57.001Z</time></trkpt><trkpt lat="42.41291337904165" lon="13.316575065102635"><ele>711.0</ele><time>2026-04-29T13:47:58.001Z</time></trkpt><trkpt lat="42.41284521239062" lon="13.316746335660774"><ele>712.0</ele><time>2026-04-29T13:47:59.001Z</time></trkpt><trkpt lat="42.412776091986395" lon="13.316935443170568"><ele>713.0</ele><time>2026-04-29T13:48:00.001Z</time></trkpt><trkpt lat="42.41272159074401" lon="13.31715955190492"><ele>713.6666666666666</ele><time>2026-04-29T13:48:01.001Z</time></trkpt><trkpt lat="42.41268585597179" lon="13.317418973691666"><ele>714.3333333333334</ele><time>2026-04-29T13:48:02.001Z</time></trkpt><trkpt lat="42.41265018586135" lon="13.317692558297681"><ele>715.0</ele><time>2026-04-29T13:48:03.001Z</time></trkpt><trkpt lat="42.412614758230134" lon="13.317968642769"><ele>716.3333333333334</ele><time>2026-04-29T13:48:04.001Z</time></trkpt><trkpt lat="42.41258581855626" lon="13.318246298644189"><ele>717.6666666666666</ele><time>2026-04-29T13:48:05.001Z</time></trkpt><trkpt lat="42.41257841730245" lon="13.318526638482659"><ele>719.0</ele><time>2026-04-29T13:48:06.001Z</time></trkpt><trkpt lat="42.412602040755466" lon="13.318811998345778"><ele>721.0</ele><time>2026-04-29T13:48:07Z</time></trkpt><trkpt lat="42.41262386487568" lon="13.319091941252676"><ele>723.0</ele><time>2026-04-29T13:48:08Z</time></trkpt><trkpt lat="42.4125912116019" lon="13.319341991460758"><ele>725.0</ele><time>2026-04-29T13:48:09Z</time></trkpt><trkpt lat="42.41255716631444" lon="13.319571804396677"><ele>725.6666666666666</ele><time>2026-04-29T13:48:10Z</time></trkpt><trkpt lat="42.41251129243802" lon="13.31979168680254"><ele>726.3333333333334</ele><time>2026-04-29T13:48:11Z</time></trkpt><trkpt lat="42.41253296071836" lon="13.320063180227216"><ele>727.0</ele><time>2026-04-29T13:48:12Z</time></trkpt><trkpt lat="42.41258499341006" lon="13.320358175140825"><ele>728.0</ele><time>2026-04-29T13:48:13Z</time></trkpt><trkpt lat="42.412641664819674" lon="13.320674901266361"><ele>729.0</ele><time>2026-04-29T13:48:14Z</time></trkpt><trkpt lat="42.41266521531568" lon="13.32098831201465"><ele>729.0</ele><time>2026-04-29T13:48:15Z</time></trkpt><trkpt lat="42.412683579803044" lon="13.32131088344647"><ele>729.0</ele><time>2026-04-29T13:48:16Z</time></trkpt><trkpt lat="42.412679833664235" lon="13.321677239627848"><ele>729.5</ele><time>2026-04-29T13:48:17Z</time></trkpt><trkpt lat="42.41267653269519" lon="13.3220267878663"><ele>730.0</ele><time>2026-04-29T13:48:18Z</time></trkpt><trkpt lat="42.412693498390844" lon="13.322371897525379"><ele>795.0</ele><time>2026-04-29T13:48:19Z</time></trkpt><trkpt lat="42.412612408230984" lon="13.33675118198914"><ele>795.0</ele><time>2026-04-29T13:49:20Z</time></trkpt><trkpt lat="42.412782764229384" lon="13.3368402842906"><ele>795.0</ele><time>2026-04-29T13:49:21Z</time></trkpt><trkpt lat="42.412953367746944" lon="13.33692969580429"><ele>795.0</ele><time>2026-04-29T13:49:22Z</time></trkpt><trkpt lat="42.41309639948455" lon="13.337024656640901"><ele>797.6666666666667</ele><time>2026-04-29T13:49:23Z</time></trkpt><trkpt lat="42.41321685455808" lon="13.337171407025167"><ele>800.3333333333334</ele><time>2026-04-29T13:49:24Z</time></trkpt><trkpt lat="42.41337016419488" lon="13.337299478696155"><ele>803.0</ele><time>2026-04-29T13:49:25Z</time></trkpt><trkpt lat="42.41341159021909" lon="13.33763285481605"><ele>803.0</ele><time>2026-04-29T13:49:26Z</time></trkpt><trkpt lat="42.413485507339914" lon="13.337890989563142"><ele>803.0</ele><time>2026-04-29T13:49:27Z</time></trkpt><trkpt lat="42.41357085216445" lon="13.33817652688862"><ele>803.0</ele><time>2026-04-29T13:49:28Z</time></trkpt><trkpt lat="42.41366899460804" lon="13.338471110421093"><ele>801.6666666666667</ele><time>2026-04-29T13:49:29Z</time></trkpt><trkpt lat="42.41375554490471" lon="13.338736439115339"><ele>800.3333333333333</ele><time>2026-04-29T13:49:30Z</time></trkpt><trkpt lat="42.41382590851345" lon="13.338969215211842"><ele>799.0</ele><time>2026-04-29T13:49:31Z</time></trkpt><trkpt lat="42.413900094766845" lon="13.339175957176407"><ele>805.3333333333333</ele><time>2026-04-29T13:49:32Z</time></trkpt><trkpt lat="42.413996231943536" lon="13.339350532733736"><ele>811.6666666666667</ele><time>2026-04-29T13:49:33Z</time></trkpt><trkpt lat="42.41412284904192" lon="13.339500244984878"><ele>818.0</ele><time>2026-04-29T13:49:34Z</time></trkpt><trkpt lat="42.414280447196454" lon="13.339617324489241"><ele>818.0</ele><time>2026-04-29T13:49:35Z</time></trkpt><trkpt lat="42.41445571918545" lon="13.339702457658605"><ele>818.0</ele><time>2026-04-29T13:49:36Z</time></trkpt><trkpt lat="42.414645859838984" lon="13.339761310826574"><ele>818.0</ele><time>2026-04-29T13:49:37Z</time></trkpt><trkpt lat="42.414837269436795" lon="13.339808347591584"><ele>817.6666666666667</ele><time>2026-04-29T13:49:38Z</time></trkpt><trkpt lat="42.415023554108686" lon="13.339897868234303"><ele>817.3333333333333</ele><time>2026-04-29T13:49:39Z</time></trkpt><trkpt lat="42.415191864259015" lon="13.340024850688408"><ele>817.0</ele><time>2026-04-29T13:49:40Z</time></trkpt><trkpt lat="42.41536887782417" lon="13.340187760622218"><ele>820.0</ele><time>2026-04-29T13:49:41Z</time></trkpt><trkpt lat="42.41554972079751" lon="13.340375181520367"><ele>823.0</ele><time>2026-04-29T13:49:42Z</time></trkpt><trkpt lat="42.415734242898516" lon="13.34056611853047"><ele>823.0</ele><time>2026-04-29T13:49:43Z</time></trkpt><trkpt lat="42.4159143374833" lon="13.340768634396891"><ele>823.0</ele><time>2026-04-29T13:49:44Z</time></trkpt><trkpt lat="42.41611784127419" lon="13.340917417051651"><ele>823.0</ele><time>2026-04-29T13:49:45Z</time></trkpt><trkpt lat="42.41631114743875" lon="13.341035546017126"><ele>823.0</ele><time>2026-04-29T13:49:46Z</time></trkpt><trkpt lat="42.4164820373832" lon="13.34113850980828"><ele>823.0</ele><time>2026-04-29T13:49:47Z</time></trkpt><trkpt lat="42.41662809248657" lon="13.34125632587039"><ele>824.6666666666666</ele><time>2026-04-29T13:49:48Z</time></trkpt><trkpt lat="42.41676645709603" lon="13.341398756440862"><ele>826.3333333333333</ele><time>2026-04-29T13:49:49Z</time></trkpt><trkpt lat="42.41687648753041" lon="13.341548516950224"><ele>828.0</ele><time>2026-04-29T13:49:50Z</time></trkpt><trkpt lat="42.41696542853887" lon="13.341705618106621"><ele>828.0</ele><time>2026-04-29T13:49:51Z</time></trkpt><trkpt lat="42.417024112935614" lon="13.341870339626398"><ele>828.0</ele><time>2026-04-29T13:49:52Z</time></trkpt><trkpt lat="42.41701711863515" lon="13.342048810697602"><ele>828.0</ele><time>2026-04-29T13:49:53Z</time></trkpt><trkpt lat="42.41697445823002" lon="13.342236855224073"><ele>828.0</ele><time>2026-04-29T13:49:54Z</time></trkpt><trkpt lat="42.41691527042848" lon="13.342450234204993"><ele>828.0</ele><time>2026-04-29T13:49:55Z</time></trkpt><trkpt lat="42.41685669244538" lon="13.34271383770196"><ele>828.0</ele><time>2026-04-29T13:49:56Z</time></trkpt><trkpt lat="42.4168113049914" lon="13.342996033429765"><ele>828.0</ele><time>2026-04-29T13:49:56.999Z</time></trkpt><trkpt lat="42.416794663904966" lon="13.343276074595556"><ele>829.0</ele><time>2026-04-29T13:49:57.999Z</time></trkpt><trkpt lat="42.41681236584024" lon="13.343556152523519"><ele>830.0</ele><time>2026-04-29T13:49:58.999Z</time></trkpt><trkpt lat="42.41687371818185" lon="13.34381270895728"><ele>831.0</ele><time>2026-04-29T13:49:59.999Z</time></trkpt><trkpt lat="42.41697181591224" lon="13.34403662039927"><ele>831.0</ele><time>2026-04-29T13:50:00.999Z</time></trkpt><trkpt lat="42.41708519596131" lon="13.344230812488464"><ele>831.0</ele><time>2026-04-29T13:50:02.001Z</time></trkpt><trkpt lat="42.41716740311869" lon="13.344384021987752"><ele>831.0</ele><time>2026-04-29T13:50:03.001Z</time></trkpt><trkpt lat="42.417193576755224" lon="13.344528789569258"><ele>831.0</ele><time>2026-04-29T13:50:04.001Z</time></trkpt><trkpt lat="42.41715996850773" lon="13.344672210548564"><ele>831.3333333333333</ele><time>2026-04-29T13:50:05.001Z</time></trkpt><trkpt lat="42.41709217886099" lon="13.344838856243237"><ele>831.6666666666666</ele><time>2026-04-29T13:50:06.001Z</time></trkpt><trkpt lat="42.41698586960325" lon="13.345022663418165"><ele>832.0</ele><time>2026-04-29T13:50:07.001Z</time></trkpt><trkpt lat="42.41689174842854" lon="13.345224560701324"><ele>832.0</ele><time>2026-04-29T13:50:08.001Z</time></trkpt><trkpt lat="42.416806618773414" lon="13.345399714396885"><ele>832.0</ele><time>2026-04-29T13:50:09.001Z</time></trkpt><trkpt lat="42.41675762901091" lon="13.345572040069243"><ele>832.0</ele><time>2026-04-29T13:50:10Z</time></trkpt><trkpt lat="42.416776394451674" lon="13.345784665344967"><ele>832.0</ele><time>2026-04-29T13:50:11Z</time></trkpt><trkpt lat="42.41685431854355" lon="13.345998578288453"><ele>832.75</ele><time>2026-04-29T13:50:12Z</time></trkpt><trkpt lat="42.41695199198129" lon="13.346197842604301"><ele>833.5</ele><time>2026-04-29T13:50:13Z</time></trkpt><trkpt lat="42.417030491043185" lon="13.346368145078639"><ele>834.25</ele><time>2026-04-29T13:50:14Z</time></trkpt><trkpt lat="42.41705339665392" lon="13.346525415501377"><ele>835.0</ele><time>2026-04-29T13:50:15Z</time></trkpt><trkpt lat="42.41700106191581" lon="13.346717756778396"><ele>835.0</ele><time>2026-04-29T13:50:16Z</time></trkpt><trkpt lat="42.41690685519549" lon="13.34690684814677"><ele>835.0</ele><time>2026-04-29T13:50:17Z</time></trkpt><trkpt lat="42.4168067312932" lon="13.34709764506673"><ele>835.0</ele><time>2026-04-29T13:50:18Z</time></trkpt><trkpt lat="42.416722287988215" lon="13.347293464997426"><ele>913.0</ele><time>2026-04-29T13:50:19Z</time></trkpt><trkpt lat="42.419364016897326" lon="13.354788700021384"><ele>922.5</ele><time>2026-04-29T13:51:20Z</time></trkpt><trkpt lat="42.41923342025588" lon="13.35452678352566"><ele>932.0</ele><time>2026-04-29T13:51:21Z</time></trkpt><trkpt lat="42.41912314056563" lon="13.35427031603244"><ele>932.0</ele><time>2026-04-29T13:51:22Z</time></trkpt><trkpt lat="42.41897437761122" lon="13.354010533543573"><ele>932.0</ele><time>2026-04-29T13:51:23Z</time></trkpt><trkpt lat="42.41883029264857" lon="13.353817762621556"><ele>932.0</ele><time>2026-04-29T13:51:24Z</time></trkpt><trkpt lat="42.41869165761759" lon="13.353665067336564"><ele>930.3333333333334</ele><time>2026-04-29T13:51:25Z</time></trkpt><trkpt lat="42.41854152677865" lon="13.353559409811036"><ele>928.6666666666667</ele><time>2026-04-29T13:51:26Z</time></trkpt><trkpt lat="42.418400833354816" lon="13.353467227311947"><ele>927.0</ele><time>2026-04-29T13:51:27Z</time></trkpt><trkpt lat="42.418267987590994" lon="13.353368820622961"><ele>927.0</ele><time>2026-04-29T13:51:28Z</time></trkpt><trkpt lat="42.41819293851461" lon="13.353273840955383"><ele>927.0</ele><time>2026-04-29T13:51:29Z</time></trkpt><trkpt lat="42.41823715416884" lon="13.35311804029507"><ele>927.0</ele><time>2026-04-29T13:51:30Z</time></trkpt><trkpt lat="42.41827195893616" lon="13.35294070639195"><ele>927.0</ele><time>2026-04-29T13:51:31Z</time></trkpt><trkpt lat="42.41825635137899" lon="13.352779222467651"><ele>931.0</ele><time>2026-04-29T13:51:32Z</time></trkpt><trkpt lat="42.41818289672513" lon="13.352396807874944"><ele>935.0</ele><time>2026-04-29T13:51:33Z</time></trkpt><trkpt lat="42.41815314963094" lon="13.3521114423796"><ele>935.0</ele><time>2026-04-29T13:51:34Z</time></trkpt><trkpt lat="42.41811793734334" lon="13.35188694086428"><ele>935.0</ele><time>2026-04-29T13:51:35Z</time></trkpt><trkpt lat="42.41814890086033" lon="13.351712243996225"><ele>935.0</ele><time>2026-04-29T13:51:36Z</time></trkpt><trkpt lat="42.41818686384969" lon="13.35154377323559"><ele>935.0</ele><time>2026-04-29T13:51:37Z</time></trkpt><trkpt lat="42.41828255941624" lon="13.35143636373237"><ele>931.6666666666667</ele><time>2026-04-29T13:51:38Z</time></trkpt><trkpt lat="42.41841326605287" lon="13.35131913555985"><ele>928.3333333333333</ele><time>2026-04-29T13:51:39Z</time></trkpt><trkpt lat="42.418563237147154" lon="13.3511557784454"><ele>925.0</ele><time>2026-04-29T13:51:40Z</time></trkpt><trkpt lat="42.41873207809039" lon="13.350922568531328"><ele>933.5</ele><time>2026-04-29T13:51:41Z</time></trkpt><trkpt lat="42.418857409924804" lon="13.350645293565613"><ele>942.0</ele><time>2026-04-29T13:51:42Z</time></trkpt><trkpt lat="42.41900073370373" lon="13.350352533970268"><ele>942.0</ele><time>2026-04-29T13:51:43Z</time></trkpt><trkpt lat="42.419126139295436" lon="13.350081569735528"><ele>942.0</ele><time>2026-04-29T13:51:44Z</time></trkpt><trkpt lat="42.41928138359878" lon="13.34982455695544"><ele>946.0</ele><time>2026-04-29T13:51:45Z</time></trkpt><trkpt lat="42.419415091401945" lon="13.349597492138598"><ele>950.0</ele><time>2026-04-29T13:51:46Z</time></trkpt><trkpt lat="42.41955801824059" lon="13.349405090617802"><ele>954.0</ele><time>2026-04-29T13:51:47Z</time></trkpt><trkpt lat="42.419754780172795" lon="13.34922679049049"><ele>954.0</ele><time>2026-04-29T13:51:48Z</time></trkpt><trkpt lat="42.41995123041806" lon="13.349063452576155"><ele>954.0</ele><time>2026-04-29T13:51:49Z</time></trkpt><trkpt lat="42.420136397434824" lon="13.348905213131227"><ele>954.0</ele><time>2026-04-29T13:51:50Z</time></trkpt><trkpt lat="42.420368421285225" lon="13.348638957438924"><ele>955.6666666666667</ele><time>2026-04-29T13:51:51Z</time></trkpt><trkpt lat="42.42048126363151" lon="13.348450022389878"><ele>957.3333333333334</ele><time>2026-04-29T13:51:52Z</time></trkpt><trkpt lat="42.42059700589469" lon="13.348281185694239"><ele>959.0</ele><time>2026-04-29T13:51:53Z</time></trkpt><trkpt lat="42.42071259406338" lon="13.348144132567924"><ele>949.6666666666667</ele><time>2026-04-29T13:51:54Z</time></trkpt><trkpt lat="42.42085991100554" lon="13.34801896566066"><ele>940.3333333333333</ele><time>2026-04-29T13:51:55Z</time></trkpt><trkpt lat="42.420999895274775" lon="13.347977533057326"><ele>931.0</ele><time>2026-04-29T13:51:56Z</time></trkpt><trkpt lat="42.421141378164144" lon="13.34796785926214"><ele>931.0</ele><time>2026-04-29T13:51:56.999Z</time></trkpt><trkpt lat="42.42127635564973" lon="13.348013723100953"><ele>931.0</ele><time>2026-04-29T13:51:57.999Z</time></trkpt><trkpt lat="42.42141978566377" lon="13.348077275163151"><ele>931.0</ele><time>2026-04-29T13:51:58.999Z</time></trkpt><trkpt lat="42.42173073519986" lon="13.348293093657697"><ele>946.5</ele><time>2026-04-29T13:51:59.999Z</time></trkpt><trkpt lat="42.42193791682599" lon="13.34849047531869"><ele>962.0</ele><time>2026-04-29T13:52:00.999Z</time></trkpt><trkpt lat="42.422136209489295" lon="13.34870361995304"><ele>968.0</ele><time>2026-04-29T13:52:01.999Z</time></trkpt><trkpt lat="42.422278453556665" lon="13.348893143442686"><ele>974.0</ele><time>2026-04-29T13:52:02.999Z</time></trkpt><trkpt lat="42.42241758419284" lon="13.349203165323706"><ele>974.0</ele><time>2026-04-29T13:52:03.999Z</time></trkpt><trkpt lat="42.42258864487295" lon="13.349347631292375"><ele>974.0</ele><time>2026-04-29T13:52:04.999Z</time></trkpt><trkpt lat="42.4227600568438" lon="13.349450770027987"><ele>974.0</ele><time>2026-04-29T13:52:05.999Z</time></trkpt><trkpt lat="42.42296721810815" lon="13.34916591329151"><ele>972.75</ele><time>2026-04-29T13:52:07.001Z</time></trkpt><trkpt lat="42.42307386544552" lon="13.349192409833677"><ele>971.5</ele><time>2026-04-29T13:52:08.001Z</time></trkpt><trkpt lat="42.42321117150183" lon="13.349226523816663"><ele>970.25</ele><time>2026-04-29T13:52:09.001Z</time></trkpt><trkpt lat="42.42335043932956" lon="13.349171689778474"><ele>969.0</ele><time>2026-04-29T13:52:11.001Z</time></trkpt><trkpt lat="42.42343160823407" lon="13.349199359625096"><ele>969.0</ele><time>2026-04-29T13:52:12.001Z</time></trkpt><trkpt lat="42.42350258427209" lon="13.349226670937528"><ele>969.0000000000001</ele><time>2026-04-29T13:52:13.001Z</time></trkpt><trkpt lat="42.42364026773141" lon="13.349268693858074"><ele>969.0000000000001</ele><time>2026-04-29T13:52:14.001Z</time></trkpt><trkpt lat="42.42372027056558" lon="13.349292722690008"><ele>969.0</ele><time>2026-04-29T13:52:15.001Z</time></trkpt><trkpt lat="42.423798682393326" lon="13.349315092397154"><ele>969.0</ele><time>2026-04-29T13:52:16Z</time></trkpt><trkpt lat="42.42416315540776" lon="13.349498572418657"><ele>973.0</ele><time>2026-04-29T13:52:17Z</time></trkpt><trkpt lat="42.42431114336371" lon="13.34953050530136"><ele>977.0</ele><time>2026-04-29T13:52:18Z</time></trkpt><trkpt lat="42.42442986980826" lon="13.349476629378081"><ele>981.0</ele><time>2026-04-29T13:52:19Z</time></trkpt><trkpt lat="42.423578069220625" lon="13.34707402850769"><ele>985.3333333333333</ele><time>2026-04-29T13:52:30Z</time></trkpt><trkpt lat="42.42346284289081" lon="13.34690135642746"><ele>989.6666666666666</ele><time>2026-04-29T13:52:31Z</time></trkpt><trkpt lat="42.42334452363163" lon="13.34675756664455"><ele>994.0</ele><time>2026-04-29T13:52:32Z</time></trkpt><trkpt lat="42.42320884369351" lon="13.346672683031121"><ele>994.0</ele><time>2026-04-29T13:52:33Z</time></trkpt><trkpt lat="42.42316102166341" lon="13.346570775749946"><ele>994.0</ele><time>2026-04-29T13:52:34Z</time></trkpt><trkpt lat="42.42314711664324" lon="13.34644519850416"><ele>994.0</ele><time>2026-04-29T13:52:35Z</time></trkpt><trkpt lat="42.42320514827406" lon="13.346331802917364"><ele>994.0</ele><time>2026-04-29T13:52:36Z</time></trkpt><trkpt lat="42.423239541644044" lon="13.346085384472786"><ele>994.6666666666666</ele><time>2026-04-29T13:52:37Z</time></trkpt><trkpt lat="42.423253368601735" lon="13.345841840501892"><ele>995.3333333333333</ele><time>2026-04-29T13:52:38Z</time></trkpt><trkpt lat="42.423280030206655" lon="13.345615469402494"><ele>996.0</ele><time>2026-04-29T13:52:39Z</time></trkpt><trkpt lat="42.42330309704355" lon="13.34546305375412"><ele>998.1999999999999</ele><time>2026-04-29T13:52:40Z</time></trkpt><trkpt lat="42.42335784335587" lon="13.345332070693312"><ele>1000.3999999999999</ele><time>2026-04-29T13:52:41Z</time></trkpt><trkpt lat="42.42344217470378" lon="13.345238289384035"><ele>1002.6</ele><time>2026-04-29T13:52:42Z</time></trkpt><trkpt lat="42.42351741080399" lon="13.34525706428187"><ele>1004.8</ele><time>2026-04-29T13:52:43Z</time></trkpt><trkpt lat="42.42365717156943" lon="13.34529802279444"><ele>1007.0</ele><time>2026-04-29T13:52:44Z</time></trkpt><trkpt lat="42.42383632870149" lon="13.345264363873136"><ele>1007.0</ele><time>2026-04-29T13:52:45Z</time></trkpt><trkpt lat="42.423949719315104" lon="13.34519773201847"><ele>1007.0</ele><time>2026-04-29T13:52:46Z</time></trkpt><trkpt lat="42.42404408684623" lon="13.345060472197202"><ele>1007.0</ele><time>2026-04-29T13:52:47Z</time></trkpt><trkpt lat="42.42414216010381" lon="13.344859625607489"><ele>1007.0</ele><time>2026-04-29T13:52:48Z</time></trkpt><trkpt lat="42.42420663162423" lon="13.344665442635154"><ele>1006.0</ele><time>2026-04-29T13:52:49Z</time></trkpt><trkpt lat="42.424321966637336" lon="13.34449724719007"><ele>1005.0</ele><time>2026-04-29T13:52:50Z</time></trkpt><trkpt lat="42.42449115723687" lon="13.34439509292776"><ele>1004.0</ele><time>2026-04-29T13:52:51Z</time></trkpt><trkpt lat="42.424683716635855" lon="13.344318229805358"><ele>1004.0</ele><time>2026-04-29T13:52:52Z</time></trkpt><trkpt lat="42.424871543054046" lon="13.3442979564808"><ele>1004.0</ele><time>2026-04-29T13:52:53Z</time></trkpt><trkpt lat="42.425058196336835" lon="13.34431853346913"><ele>1004.0</ele><time>2026-04-29T13:52:54Z</time></trkpt><trkpt lat="42.42523399790041" lon="13.344386135976059"><ele>1004.0</ele><time>2026-04-29T13:52:55Z</time></trkpt><trkpt lat="42.42541011895138" lon="13.344505257240336"><ele>1004.0</ele><time>2026-04-29T13:52:56Z</time></trkpt><trkpt lat="42.425568885670906" lon="13.344750941702639"><ele>1004.0</ele><time>2026-04-29T13:52:57Z</time></trkpt><trkpt lat="42.42569308052311" lon="13.344971873346445"><ele>1008.3333333333334</ele><time>2026-04-29T13:52:58Z</time></trkpt><trkpt lat="42.42582548206107" lon="13.345176903767083"><ele>1012.6666666666667</ele><time>2026-04-29T13:52:59Z</time></trkpt><trkpt lat="42.42602175141061" lon="13.345329723609517"><ele>1017.0</ele><time>2026-04-29T13:53:00Z</time></trkpt><trkpt lat="42.42621275093782" lon="13.345468942036847"><ele>1015.3333333333333</ele><time>2026-04-29T13:53:01Z</time></trkpt><trkpt lat="42.42633466123116" lon="13.345706645415659"><ele>1013.6666666666666</ele><time>2026-04-29T13:53:02Z</time></trkpt><trkpt lat="42.42642741144361" lon="13.345968064028462"><ele>1012.0</ele><time>2026-04-29T13:53:03Z</time></trkpt><trkpt lat="42.426526620715514" lon="13.346296010821492"><ele>1019.0</ele><time>2026-04-29T13:53:04Z</time></trkpt><trkpt lat="42.42662288078296" lon="13.34662047932991"><ele>1026.0</ele><time>2026-04-29T13:53:05Z</time></trkpt><trkpt lat="42.42671071968451" lon="13.346883660073368"><ele>1026.0</ele><time>2026-04-29T13:53:06Z</time></trkpt><trkpt lat="42.426778061827065" lon="13.34713330870742"><ele>1026.0</ele><time>2026-04-29T13:53:07Z</time></trkpt><trkpt lat="42.42684604299565" lon="13.347325265072964"><ele>1026.0</ele><time>2026-04-29T13:53:08Z</time></trkpt><trkpt lat="42.42692876963866" lon="13.347507710570293"><ele>1026.0</ele><time>2026-04-29T13:53:09Z</time></trkpt><trkpt lat="42.42701408492045" lon="13.347694512114668"><ele>1026.0</ele><time>2026-04-29T13:53:10Z</time></trkpt><trkpt lat="42.42712398615823" lon="13.347814866092778"><ele>1026.0</ele><time>2026-04-29T13:53:11Z</time></trkpt><trkpt lat="42.42725469086572" lon="13.347860250425708"><ele>1026.0</ele><time>2026-04-29T13:53:12Z</time></trkpt><trkpt lat="42.42734174916549" lon="13.347878304893936"><ele>1026.0</ele><time>2026-04-29T13:53:13Z</time></trkpt><trkpt lat="42.42740537889972" lon="13.347874249884905"><ele>1026.0</ele><time>2026-04-29T13:53:14Z</time></trkpt><trkpt lat="42.42749125103215" lon="13.347844763472299"><ele>1026.0</ele><time>2026-04-29T13:53:16Z</time></trkpt><trkpt lat="42.42757644467725" lon="13.34777994896422"><ele>1026.0</ele><time>2026-04-29T13:53:17Z</time></trkpt><trkpt lat="42.42779708037293" lon="13.347297515860406"><ele>1026.5</ele><time>2026-04-29T13:53:18Z</time></trkpt><trkpt lat="42.42779094406553" lon="13.34712023359561"><ele>1027.0</ele><time>2026-04-29T13:53:19Z</time></trkpt><trkpt lat="42.4284916336905" lon="13.34599359975819"><ele>1027.0</ele><time>2026-04-29T13:53:30Z</time></trkpt><trkpt lat="42.428646008607" lon="13.345943782810544"><ele>1027.0</ele><time>2026-04-29T13:53:31Z</time></trkpt><trkpt lat="42.42876789511337" lon="13.345846440870526"><ele>1027.0</ele><time>2026-04-29T13:53:32Z</time></trkpt><trkpt lat="42.4288531425816" lon="13.345755086581331"><ele>1027.0</ele><time>2026-04-29T13:53:33Z</time></trkpt><trkpt lat="42.42891035924955" lon="13.34561624642604"><ele>1038.0</ele><time>2026-04-29T13:53:34Z</time></trkpt><trkpt lat="42.428907765884986" lon="13.345449823572702"><ele>1049.0</ele><time>2026-04-29T13:53:35Z</time></trkpt><trkpt lat="42.42886014445618" lon="13.345217109202787"><ele>1060.0</ele><time>2026-04-29T13:53:36Z</time></trkpt><trkpt lat="42.42882205324779" lon="13.344888017524392"><ele>1042.0</ele><time>2026-04-29T13:53:37Z</time></trkpt><trkpt lat="42.42878492846927" lon="13.34445541768369"><ele>1024.0</ele><time>2026-04-29T13:53:38Z</time></trkpt><trkpt lat="42.42872207334156" lon="13.344058125794616"><ele>1024.3333333333333</ele><time>2026-04-29T13:53:39Z</time></trkpt><trkpt lat="42.42866165687294" lon="13.343788102725904"><ele>1024.6666666666667</ele><time>2026-04-29T13:53:40Z</time></trkpt><trkpt lat="42.42860772237905" lon="13.343578319254148"><ele>1025.0</ele><time>2026-04-29T13:53:41Z</time></trkpt><trkpt lat="42.428664340132116" lon="13.343367841536892"><ele>1025.0</ele><time>2026-04-29T13:53:42Z</time></trkpt><trkpt lat="42.428706885291405" lon="13.343115872186567"><ele>1025.0</ele><time>2026-04-29T13:53:43Z</time></trkpt><trkpt lat="42.428667573443526" lon="13.342864712315045"><ele>1025.0</ele><time>2026-04-29T13:53:44Z</time></trkpt><trkpt lat="42.428651922142365" lon="13.342604670596947"><ele>1025.25</ele><time>2026-04-29T13:53:45Z</time></trkpt><trkpt lat="42.42863767044246" lon="13.342414437440489"><ele>1025.5</ele><time>2026-04-29T13:53:46Z</time></trkpt><trkpt lat="42.42861040170853" lon="13.342205872425183"><ele>1025.75</ele><time>2026-04-29T13:53:47Z</time></trkpt><trkpt lat="42.42856428953217" lon="13.342015511548587"><ele>1026.0</ele><time>2026-04-29T13:53:48Z</time></trkpt><trkpt lat="42.42862805286532" lon="13.341851262323708"><ele>1026.0</ele><time>2026-04-29T13:53:48.999Z</time></trkpt><trkpt lat="42.42864984288718" lon="13.34168439127536"><ele>1026.0</ele><time>2026-04-29T13:53:49.999Z</time></trkpt><trkpt lat="42.42864681807377" lon="13.341507740978185"><ele>1026.0</ele><time>2026-04-29T13:53:50.999Z</time></trkpt><trkpt lat="42.428663695488424" lon="13.341326352652445"><ele>1026.0</ele><time>2026-04-29T13:53:51.999Z</time></trkpt><trkpt lat="42.42874910818638" lon="13.341240857354201"><ele>1029.75</ele><time>2026-04-29T13:53:52.999Z</time></trkpt><trkpt lat="42.42883192659296" lon="13.341210335458129"><ele>1033.5</ele><time>2026-04-29T13:53:53.999Z</time></trkpt><trkpt lat="42.428980222218286" lon="13.341182707903732"><ele>1037.25</ele><time>2026-04-29T13:53:54.999Z</time></trkpt><trkpt lat="42.42916684980109" lon="13.34111460926592"><ele>1041.0</ele><time>2026-04-29T13:53:55.999Z</time></trkpt><trkpt lat="42.429333566191865" lon="13.340964014644372"><ele>1041.0</ele><time>2026-04-29T13:53:56.999Z</time></trkpt><trkpt lat="42.42946284988438" lon="13.340908509748687"><ele>1041.0</ele><time>2026-04-29T13:53:57.999Z</time></trkpt><trkpt lat="42.42956036547919" lon="13.340906753723807"><ele>1041.0</ele><time>2026-04-29T13:53:58.999Z</time></trkpt><trkpt lat="42.42973183832839" lon="13.340996441277875"><ele>1041.0</ele><time>2026-04-29T13:53:59.999Z</time></trkpt><trkpt lat="42.42991714457551" lon="13.341064375213875"><ele>1045.5</ele><time>2026-04-29T13:54:00.999Z</time></trkpt><trkpt lat="42.43012900906737" lon="13.341196907248328"><ele>1050.0</ele><time>2026-04-29T13:54:01.999Z</time></trkpt><trkpt lat="42.43033274103197" lon="13.341377427636017"><ele>1061.5</ele><time>2026-04-29T13:54:02.999Z</time></trkpt><trkpt lat="42.43056114643887" lon="13.341551909751757"><ele>1073.0</ele><time>2026-04-29T13:54:03.999Z</time></trkpt><trkpt lat="42.43080651846486" lon="13.341638720834235"><ele>1073.0</ele><time>2026-04-29T13:54:04.999Z</time></trkpt><trkpt lat="42.43109277049031" lon="13.341700421964353"><ele>1073.0</ele><time>2026-04-29T13:54:05.999Z</time></trkpt><trkpt lat="42.43132451080666" lon="13.341834549723673"><ele>1072.0</ele><time>2026-04-29T13:54:06.999Z</time></trkpt><trkpt lat="42.431548086655525" lon="13.341841907559497"><ele>1071.0</ele><time>2026-04-29T13:54:07.999Z</time></trkpt><trkpt lat="42.43176184880581" lon="13.34180582616652"><ele>1070.0</ele><time>2026-04-29T13:54:08.999Z</time></trkpt><trkpt lat="42.43195953439428" lon="13.341836816645174"><ele>1066.0</ele><time>2026-04-29T13:54:09.999Z</time></trkpt><trkpt lat="42.4321723953697" lon="13.341970728059923"><ele>1062.0</ele><time>2026-04-29T13:54:10.999Z</time></trkpt><trkpt lat="42.432390833008796" lon="13.342163660529506"><ele>1073.0</ele><time>2026-04-29T13:54:11.999Z</time></trkpt><trkpt lat="42.43263836573959" lon="13.342358899020315"><ele>1084.0</ele><time>2026-04-29T13:54:13Z</time></trkpt><trkpt lat="42.43289828818449" lon="13.342575105011358"><ele>1087.0</ele><time>2026-04-29T13:54:14Z</time></trkpt><trkpt lat="42.43316231470599" lon="13.342869465452688"><ele>1090.0</ele><time>2026-04-29T13:54:15Z</time></trkpt><trkpt lat="42.43342565676987" lon="13.343146605267695"><ele>1090.0</ele><time>2026-04-29T13:54:16Z</time></trkpt><trkpt lat="42.43369509646541" lon="13.343411588602972"><ele>1090.0</ele><time>2026-04-29T13:54:17Z</time></trkpt><trkpt lat="42.433952778044564" lon="13.343641006950392"><ele>1101.0</ele><time>2026-04-29T13:54:18Z</time></trkpt><trkpt lat="42.43458076118312" lon="13.344245937607013"><ele>1099.6666666666667</ele><time>2026-04-29T13:54:21Z</time></trkpt><trkpt lat="42.434748298962845" lon="13.344405164175638"><ele>1098.3333333333335</ele><time>2026-04-29T13:54:22Z</time></trkpt><trkpt lat="42.434897700120075" lon="13.344575794565573"><ele>1097.0</ele><time>2026-04-29T13:54:23Z</time></trkpt><trkpt lat="42.43500218430802" lon="13.344744148718801"><ele>1097.0</ele><time>2026-04-29T13:54:24Z</time></trkpt><trkpt lat="42.4350750996079" lon="13.34495877309797"><ele>1097.0</ele><time>2026-04-29T13:54:25Z</time></trkpt><trkpt lat="42.435079475476826" lon="13.34516755904703"><ele>1097.0</ele><time>2026-04-29T13:54:26Z</time></trkpt><trkpt lat="42.43508211781408" lon="13.345424306237778"><ele>1102.5</ele><time>2026-04-29T13:54:27Z</time></trkpt><trkpt lat="42.43508368396097" lon="13.345720319616934"><ele>1108.0</ele><time>2026-04-29T13:54:28Z</time></trkpt><trkpt lat="42.43508921136996" lon="13.346044096248646"><ele>1108.0</ele><time>2026-04-29T13:54:29Z</time></trkpt><trkpt lat="42.43511176560821" lon="13.346352226272405"><ele>1108.0</ele><time>2026-04-29T13:54:30Z</time></trkpt><trkpt lat="42.435115264123255" lon="13.346598244283634"><ele>1108.0</ele><time>2026-04-29T13:54:31Z</time></trkpt><trkpt lat="42.43513193445483" lon="13.346817562427711"><ele>1110.0</ele><time>2026-04-29T13:54:32Z</time></trkpt><trkpt lat="42.43512982706936" lon="13.347005450690444"><ele>1112.0</ele><time>2026-04-29T13:54:33Z</time></trkpt><trkpt lat="42.435161955075976" lon="13.347157605720197"><ele>1114.0</ele><time>2026-04-29T13:54:34Z</time></trkpt><trkpt lat="42.435211674886716" lon="13.347269837697402"><ele>1116.0</ele><time>2026-04-29T13:54:35Z</time></trkpt><trkpt lat="42.4353077577462" lon="13.347335815800653"><ele>1118.25</ele><time>2026-04-29T13:54:36Z</time></trkpt><trkpt lat="42.43541492627618" lon="13.347339138252346"><ele>1120.5</ele><time>2026-04-29T13:54:37Z</time></trkpt><trkpt lat="42.43552517545187" lon="13.34730887561374"><ele>1122.75</ele><time>2026-04-29T13:54:38Z</time></trkpt><trkpt lat="42.43567327266708" lon="13.347245969097123"><ele>1125.0</ele><time>2026-04-29T13:54:39Z</time></trkpt><trkpt lat="42.4358302019342" lon="13.347147370749948"><ele>1121.6666666666667</ele><time>2026-04-29T13:54:40Z</time></trkpt><trkpt lat="42.43598217673013" lon="13.347072803451294"><ele>1118.3333333333335</ele><time>2026-04-29T13:54:41Z</time></trkpt><trkpt lat="42.43616168329603" lon="13.346942870162954"><ele>1115.0</ele><time>2026-04-29T13:54:42Z</time></trkpt><trkpt lat="42.43634012355044" lon="13.346813042824227"><ele>1115.0</ele><time>2026-04-29T13:54:43Z</time></trkpt><trkpt lat="42.436477298578076" lon="13.346712270399747"><ele>1115.0</ele><time>2026-04-29T13:54:44Z</time></trkpt><trkpt lat="42.43661359341893" lon="13.346602624830668"><ele>1115.0</ele><time>2026-04-29T13:54:45Z</time></trkpt><trkpt lat="42.43709193545655" lon="13.34643870900214"><ele>1119.6666666666667</ele><time>2026-04-29T13:54:46Z</time></trkpt><trkpt lat="42.43722855843095" lon="13.346489550286854"><ele>1124.3333333333333</ele><time>2026-04-29T13:54:47Z</time></trkpt><trkpt lat="42.43738428492747" lon="13.34654623918971"><ele>1129.0</ele><time>2026-04-29T13:54:48Z</time></trkpt><trkpt lat="42.43754874036174" lon="13.346583764901885"><ele>1129.0</ele><time>2026-04-29T13:54:49Z</time></trkpt><trkpt lat="42.43769088169932" lon="13.346565453540403"><ele>1129.0</ele><time>2026-04-29T13:54:50Z</time></trkpt><trkpt lat="42.43782640393779" lon="13.346452765183667"><ele>1129.0</ele><time>2026-04-29T13:54:51Z</time></trkpt><trkpt lat="42.43796851359246" lon="13.346396338351978"><ele>1133.75</ele><time>2026-04-29T13:54:52Z</time></trkpt><trkpt lat="42.438093641374174" lon="13.346286080703077"><ele>1138.5</ele><time>2026-04-29T13:54:53Z</time></trkpt><trkpt lat="42.43816935592792" lon="13.346152071828797"><ele>1143.25</ele><time>2026-04-29T13:54:54Z</time></trkpt><trkpt lat="42.438178159022804" lon="13.345968226102002"><ele>1148.0</ele><time>2026-04-29T13:54:55Z</time></trkpt><trkpt lat="42.4381303151845" lon="13.345863311654039"><ele>1148.0</ele><time>2026-04-29T13:54:56Z</time></trkpt><trkpt lat="42.43805681615597" lon="13.345653281387"><ele>1148.0</ele><time>2026-04-29T13:54:57Z</time></trkpt><trkpt lat="42.43794322637629" lon="13.345383171108136"><ele>1148.0</ele><time>2026-04-29T13:54:58Z</time></trkpt><trkpt lat="42.43782584299202" lon="13.345070034945836"><ele>1132.0</ele><time>2026-04-29T13:54:59Z</time></trkpt><trkpt lat="42.43773673116722" lon="13.34477838533624"><ele>1116.0</ele><time>2026-04-29T13:55:00Z</time></trkpt><trkpt lat="42.43765069619392" lon="13.344491736280391"><ele>1116.0</ele><time>2026-04-29T13:55:01Z</time></trkpt><trkpt lat="42.437586685687194" lon="13.344277688776248"><ele>1116.0</ele><time>2026-04-29T13:55:02Z</time></trkpt><trkpt lat="42.43758283468108" lon="13.344068697859628"><ele>1116.0</ele><time>2026-04-29T13:55:03Z</time></trkpt><trkpt lat="42.43761607230737" lon="13.34384803796857"><ele>1116.3333333333333</ele><time>2026-04-29T13:55:04Z</time></trkpt><trkpt lat="42.43765577187029" lon="13.343563422519988"><ele>1116.6666666666665</ele><time>2026-04-29T13:55:05Z</time></trkpt><trkpt lat="42.437668474749586" lon="13.343298825219108"><ele>1117.0</ele><time>2026-04-29T13:55:06Z</time></trkpt><trkpt lat="42.437686498274886" lon="13.343046397120856"><ele>1115.0</ele><time>2026-04-29T13:55:07Z</time></trkpt><trkpt lat="42.43765439366285" lon="13.342810827895514"><ele>1113.0</ele><time>2026-04-29T13:55:08Z</time></trkpt><trkpt lat="42.43762388909281" lon="13.342633555801473"><ele>1111.0</ele><time>2026-04-29T13:55:09Z</time></trkpt><trkpt lat="42.43767561646359" lon="13.342525367127223"><ele>1109.0</ele><time>2026-04-29T13:55:10Z</time></trkpt><trkpt lat="42.437773687141814" lon="13.342447959884105"><ele>1109.0</ele><time>2026-04-29T13:55:11Z</time></trkpt><trkpt lat="42.437868125617875" lon="13.342397930304385"><ele>1109.0</ele><time>2026-04-29T13:55:12Z</time></trkpt><trkpt lat="42.43805865244524" lon="13.342302440589982"><ele>1109.0</ele><time>2026-04-29T13:55:13Z</time></trkpt><trkpt lat="42.43810956424375" lon="13.342246630130173"><ele>1109.0</ele><time>2026-04-29T13:55:14Z</time></trkpt><trkpt lat="42.438171811443674" lon="13.342091904918648"><ele>1125.3333333333335</ele><time>2026-04-29T13:55:15Z</time></trkpt><trkpt lat="42.438139549858846" lon="13.341893903130076"><ele>1141.6666666666667</ele><time>2026-04-29T13:55:16Z</time></trkpt><trkpt lat="42.43811702433481" lon="13.341704691242898"><ele>1158.0</ele><time>2026-04-29T13:55:17Z</time></trkpt><trkpt lat="42.43804698769859" lon="13.34140437427217"><ele>1140.0</ele><time>2026-04-29T13:55:18Z</time></trkpt><trkpt lat="42.43803195124068" lon="13.339986345612873"><ele>1140.0</ele><time>2026-04-29T13:55:29Z</time></trkpt><trkpt lat="42.43814895251881" lon="13.340121576758198"><ele>1140.0</ele><time>2026-04-29T13:55:30Z</time></trkpt><trkpt lat="42.43830193285636" lon="13.340300359928571"><ele>1140.0</ele><time>2026-04-29T13:55:31Z</time></trkpt><trkpt lat="42.43849046952239" lon="13.340458980041644"><ele>1146.0</ele><time>2026-04-29T13:55:32Z</time></trkpt><trkpt lat="42.438724758499404" lon="13.340681931314885"><ele>1152.0</ele><time>2026-04-29T13:55:33Z</time></trkpt><trkpt lat="42.43890891537027" lon="13.34076967510893"><ele>1155.25</ele><time>2026-04-29T13:55:34Z</time></trkpt><trkpt lat="42.43904341048859" lon="13.340827153968362"><ele>1158.5</ele><time>2026-04-29T13:55:35Z</time></trkpt><trkpt lat="42.43919966303428" lon="13.340879233223774"><ele>1161.75</ele><time>2026-04-29T13:55:36Z</time></trkpt><trkpt lat="42.4393230799523" lon="13.34082255534334"><ele>1165.0</ele><time>2026-04-29T13:55:37Z</time></trkpt><trkpt lat="42.43938451031695" lon="13.340743746931883"><ele>1165.0</ele><time>2026-04-29T13:55:38Z</time></trkpt><trkpt lat="42.439404273463715" lon="13.34059593928925"><ele>1165.0</ele><time>2026-04-29T13:55:39Z</time></trkpt><trkpt lat="42.439408979958266" lon="13.340485553439075"><ele>1165.0</ele><time>2026-04-29T13:55:40Z</time></trkpt><trkpt lat="42.439402491909576" lon="13.34024652440913"><ele>1165.0</ele><time>2026-04-29T13:55:41Z</time></trkpt><trkpt lat="42.43939371583385" lon="13.340005484793823"><ele>1161.25</ele><time>2026-04-29T13:55:41.999Z</time></trkpt><trkpt lat="42.43939390122265" lon="13.339788204197827"><ele>1157.5</ele><time>2026-04-29T13:55:42.999Z</time></trkpt><trkpt lat="42.43940510725504" lon="13.33958271315203"><ele>1153.75</ele><time>2026-04-29T13:55:43.999Z</time></trkpt><trkpt lat="42.439474186112406" lon="13.33945465902956"><ele>1150.0</ele><time>2026-04-29T13:55:44.999Z</time></trkpt><trkpt lat="42.4395917022325" lon="13.339373433477357"><ele>1148.6666666666665</ele><time>2026-04-29T13:55:45.999Z</time></trkpt><trkpt lat="42.439711267906134" lon="13.339510589504263"><ele>1147.3333333333333</ele><time>2026-04-29T13:55:46.999Z</time></trkpt><trkpt lat="42.43984185588663" lon="13.339584006203975"><ele>1146.0</ele><time>2026-04-29T13:55:47.999Z</time></trkpt><trkpt lat="42.439993283430674" lon="13.339727346701325"><ele>1156.0</ele><time>2026-04-29T13:55:48.999Z</time></trkpt><trkpt lat="42.44017127608549" lon="13.340021922269486"><ele>1166.0</ele><time>2026-04-29T13:55:49.999Z</time></trkpt><trkpt lat="42.44032246950797" lon="13.34030992787172"><ele>1166.0</ele><time>2026-04-29T13:55:50.999Z</time></trkpt><trkpt lat="42.44047475917883" lon="13.34059970734281"><ele>1166.0</ele><time>2026-04-29T13:55:51.999Z</time></trkpt><trkpt lat="42.440644940967935" lon="13.340870528564059"><ele>1166.0</ele><time>2026-04-29T13:55:52.999Z</time></trkpt><trkpt lat="42.44081184846234" lon="13.341081952620518"><ele>1166.0</ele><time>2026-04-29T13:55:53.999Z</time></trkpt><trkpt lat="42.44097026642188" lon="13.341266666042085"><ele>1166.0</ele><time>2026-04-29T13:55:54.999Z</time></trkpt><trkpt lat="42.441139970187784" lon="13.34138497289391"><ele>1168.3333333333335</ele><time>2026-04-29T13:55:55.999Z</time></trkpt><trkpt lat="42.441290487865636" lon="13.341443724886945"><ele>1170.6666666666667</ele><time>2026-04-29T13:55:56.999Z</time></trkpt><trkpt lat="42.4414367920461" lon="13.341519258754106"><ele>1173.0</ele><time>2026-04-29T13:55:57.999Z</time></trkpt><trkpt lat="42.441559187799875" lon="13.341638799717026"><ele>1173.0</ele><time>2026-04-29T13:55:58.999Z</time></trkpt><trkpt lat="42.441599047930545" lon="13.341775199164497"><ele>1173.0</ele><time>2026-04-29T13:55:59.999Z</time></trkpt><trkpt lat="42.44164475649886" lon="13.341958953219343"><ele>1173.0</ele><time>2026-04-29T13:56:00.999Z</time></trkpt><trkpt lat="42.44170479337476" lon="13.342186636445238"><ele>1173.0</ele><time>2026-04-29T13:56:01.999Z</time></trkpt><trkpt lat="42.44176460880105" lon="13.342426510165515"><ele>1181.3333333333333</ele><time>2026-04-29T13:56:02.999Z</time></trkpt><trkpt lat="42.44181563276151" lon="13.342679956065423"><ele>1189.6666666666665</ele><time>2026-04-29T13:56:03.999Z</time></trkpt><trkpt lat="42.441865698647575" lon="13.342859438591582"><ele>1198.0</ele><time>2026-04-29T13:56:04.999Z</time></trkpt><trkpt lat="42.44195533455755" lon="13.343042745449276"><ele>1204.6666666666665</ele><time>2026-04-29T13:56:05.999Z</time></trkpt><trkpt lat="42.44205326321098" lon="13.343210232427786"><ele>1211.3333333333333</ele><time>2026-04-29T13:56:06.999Z</time></trkpt><trkpt lat="42.44218249320096" lon="13.343419884804398"><ele>1218.0</ele><time>2026-04-29T13:56:07.999Z</time></trkpt><trkpt lat="42.44229263994099" lon="13.3436187394437"><ele>1207.6666666666667</ele><time>2026-04-29T13:56:08.999Z</time></trkpt><trkpt lat="42.44234009794394" lon="13.34385789193744"><ele>1197.3333333333335</ele><time>2026-04-29T13:56:09.999Z</time></trkpt><trkpt lat="42.44231419099882" lon="13.344086413792903"><ele>1187.0</ele><time>2026-04-29T13:56:10.999Z</time></trkpt><trkpt lat="42.44232523750934" lon="13.344339863163333"><ele>1187.0</ele><time>2026-04-29T13:56:11.999Z</time></trkpt><trkpt lat="42.44236784986684" lon="13.344611959339629"><ele>1187.0</ele><time>2026-04-29T13:56:12.999Z</time></trkpt><trkpt lat="42.44241552758601" lon="13.3449530047615"><ele>1189.6666666666667</ele><time>2026-04-29T13:56:13.999Z</time></trkpt><trkpt lat="42.442455399411145" lon="13.345168351862963"><ele>1192.3333333333333</ele><time>2026-04-29T13:56:14.999Z</time></trkpt><trkpt lat="42.44248092595757" lon="13.345399702748997"><ele>1195.0</ele><time>2026-04-29T13:56:15.999Z</time></trkpt><trkpt lat="42.44250347646712" lon="13.345556800641667"><ele>1203.0</ele><time>2026-04-29T13:56:16.999Z</time></trkpt><trkpt lat="42.442594269920725" lon="13.345607441682363"><ele>1211.0</ele><time>2026-04-29T13:56:17.999Z</time></trkpt><trkpt lat="42.444888392533734" lon="13.34590123307148"><ele>1211.0</ele><time>2026-04-29T13:56:30Z</time></trkpt><trkpt lat="42.44503173276541" lon="13.34583353716474"><ele>1211.0</ele><time>2026-04-29T13:56:31Z</time></trkpt><trkpt lat="42.44514738218782" lon="13.345712193166776"><ele>1211.0</ele><time>2026-04-29T13:56:32Z</time></trkpt><trkpt lat="42.44521850103176" lon="13.345516038131919"><ele>1208.0</ele><time>2026-04-29T13:56:33Z</time></trkpt><trkpt lat="42.44523917434501" lon="13.345277927129812"><ele>1205.0</ele><time>2026-04-29T13:56:34Z</time></trkpt><trkpt lat="42.44526233137588" lon="13.344970601746548"><ele>1202.0</ele><time>2026-04-29T13:56:35Z</time></trkpt><trkpt lat="42.44528686140499" lon="13.344649428970124"><ele>1200.5</ele><time>2026-04-29T13:56:36Z</time></trkpt><trkpt lat="42.44533120065797" lon="13.344297129776663"><ele>1199.0</ele><time>2026-04-29T13:56:37Z</time></trkpt><trkpt lat="42.445398698555735" lon="13.343934341966378"><ele>1195.0</ele><time>2026-04-29T13:56:38Z</time></trkpt><trkpt lat="42.4454491448087" lon="13.343578461311898"><ele>1191.0</ele><time>2026-04-29T13:56:39Z</time></trkpt><trkpt lat="42.44548892665429" lon="13.343229541748501"><ele>1201.3333333333333</ele><time>2026-04-29T13:56:40Z</time></trkpt><trkpt lat="42.44552670977641" lon="13.342916733161509"><ele>1211.6666666666665</ele><time>2026-04-29T13:56:41Z</time></trkpt><trkpt lat="42.44562496804164" lon="13.342661388874715"><ele>1222.0</ele><time>2026-04-29T13:56:42Z</time></trkpt><trkpt lat="42.44572958573452" lon="13.342511808592505"><ele>1222.0</ele><time>2026-04-29T13:56:43Z</time></trkpt><trkpt lat="42.44586896428161" lon="13.342367185146514"><ele>1222.0</ele><time>2026-04-29T13:56:44Z</time></trkpt><trkpt lat="42.446033921858955" lon="13.342200132809257"><ele>1222.0</ele><time>2026-04-29T13:56:45Z</time></trkpt><trkpt lat="42.44616345606032" lon="13.342084408323139"><ele>1219.3333333333333</ele><time>2026-04-29T13:56:46Z</time></trkpt><trkpt lat="42.44629487152242" lon="13.341997501875811"><ele>1216.6666666666667</ele><time>2026-04-29T13:56:47Z</time></trkpt><trkpt lat="42.44650879460291" lon="13.342103025642261"><ele>1214.0</ele><time>2026-04-29T13:56:50Z</time></trkpt><trkpt lat="42.44667832012803" lon="13.342222508032284"><ele>1221.5</ele><time>2026-04-29T13:56:51Z</time></trkpt><trkpt lat="42.44693719295661" lon="13.342414846105404"><ele>1229.0</ele><time>2026-04-29T13:56:52Z</time></trkpt><trkpt lat="42.44716924806469" lon="13.342577736595805"><ele>1229.0</ele><time>2026-04-29T13:56:53Z</time></trkpt><trkpt lat="42.447415450467524" lon="13.342723973731278"><ele>1229.0</ele><time>2026-04-29T13:56:54Z</time></trkpt><trkpt lat="42.44767319490782" lon="13.342853182035679"><ele>1226.5</ele><time>2026-04-29T13:56:55Z</time></trkpt><trkpt lat="42.44797925327237" lon="13.34291575516581"><ele>1224.0</ele><time>2026-04-29T13:56:56Z</time></trkpt><trkpt lat="42.448294570125505" lon="13.342939597424799"><ele>1224.0</ele><time>2026-04-29T13:56:57Z</time></trkpt><trkpt lat="42.44862845817683" lon="13.342976737734716"><ele>1224.0</ele><time>2026-04-29T13:56:58Z</time></trkpt><trkpt lat="42.44892468609766" lon="13.342999976459213"><ele>1239.5</ele><time>2026-04-29T13:56:59Z</time></trkpt><trkpt lat="42.44918184002992" lon="13.343060400991673"><ele>1255.0</ele><time>2026-04-29T13:57:00Z</time></trkpt><trkpt lat="42.44943395873267" lon="13.343050674438755"><ele>1248.0</ele><time>2026-04-29T13:57:01Z</time></trkpt><trkpt lat="42.44971637509108" lon="13.342992471041729"><ele>1241.0</ele><time>2026-04-29T13:57:02Z</time></trkpt><trkpt lat="42.44999965872796" lon="13.34288153240518"><ele>1241.0</ele><time>2026-04-29T13:57:03Z</time></trkpt><trkpt lat="42.45024717545754" lon="13.34276629613282"><ele>1241.0</ele><time>2026-04-29T13:57:04Z</time></trkpt><trkpt lat="42.45048060041234" lon="13.342679589212102"><ele>1241.0</ele><time>2026-04-29T13:57:05Z</time></trkpt><trkpt lat="42.450670475501994" lon="13.342540439471266"><ele>1241.0</ele><time>2026-04-29T13:57:06Z</time></trkpt><trkpt lat="42.45084369893318" lon="13.342332559840365"><ele>1241.0</ele><time>2026-04-29T13:57:07Z</time></trkpt><trkpt lat="42.451056807032" lon="13.342172946834276"><ele>1241.0</ele><time>2026-04-29T13:57:08Z</time></trkpt><trkpt lat="42.451244101422645" lon="13.342010541739707"><ele>1241.0</ele><time>2026-04-29T13:57:09Z</time></trkpt><trkpt lat="42.45139274886869" lon="13.341895537047478"><ele>1241.0</ele><time>2026-04-29T13:57:10Z</time></trkpt><trkpt lat="42.45157515624075" lon="13.341892682499525"><ele>1245.3333333333335</ele><time>2026-04-29T13:57:11Z</time></trkpt><trkpt lat="42.451717144065604" lon="13.341902578212403"><ele>1249.6666666666667</ele><time>2026-04-29T13:57:12Z</time></trkpt><trkpt lat="42.451920628543306" lon="13.34193524077675"><ele>1254.0</ele><time>2026-04-29T13:57:13Z</time></trkpt><trkpt lat="42.452170761964425" lon="13.342003278790852"><ele>1259.5</ele><time>2026-04-29T13:57:14Z</time></trkpt><trkpt lat="42.45244854735126" lon="13.342093702892498"><ele>1265.0</ele><time>2026-04-29T13:57:15Z</time></trkpt><trkpt lat="42.4527534260658" lon="13.342196709630873"><ele>1263.5</ele><time>2026-04-29T13:57:16Z</time></trkpt><trkpt lat="42.45308415529046" lon="13.342315729511448"><ele>1262.0</ele><time>2026-04-29T13:57:17Z</time></trkpt><trkpt lat="42.45343761149665" lon="13.342443822146066"><ele>1262.0</ele><time>2026-04-29T13:57:18Z</time></trkpt><trkpt lat="42.453764821399204" lon="13.342556289894764"><ele>1262.0</ele><time>2026-04-29T13:57:19Z</time></trkpt><trkpt lat="42.454868339857434" lon="13.342969915523847"><ele>1265.0</ele><time>2026-04-29T13:57:23Z</time></trkpt><trkpt lat="42.455100131322595" lon="13.343087031551688"><ele>1268.0</ele><time>2026-04-29T13:57:24Z</time></trkpt><trkpt lat="42.455292570475876" lon="13.343229205435222"><ele>1271.6666666666667</ele><time>2026-04-29T13:57:25Z</time></trkpt><trkpt lat="42.455464078132614" lon="13.34336929265728"><ele>1275.3333333333333</ele><time>2026-04-29T13:57:26Z</time></trkpt><trkpt lat="42.45561460574029" lon="13.343514586464185"><ele>1279.0</ele><time>2026-04-29T13:57:27Z</time></trkpt><trkpt lat="42.45575064609412" lon="13.343666695355214"><ele>1279.0</ele><time>2026-04-29T13:57:28Z</time></trkpt><trkpt lat="42.455866495949145" lon="13.343826523031966"><ele>1279.0</ele><time>2026-04-29T13:57:29Z</time></trkpt><trkpt lat="42.455966671692956" lon="13.344027196891085"><ele>1279.0</ele><time>2026-04-29T13:57:30Z</time></trkpt><trkpt lat="42.456018213714394" lon="13.34433607107203"><ele>1277.0</ele><time>2026-04-29T13:57:31Z</time></trkpt><trkpt lat="42.456016257780426" lon="13.344703648655589"><ele>1275.0</ele><time>2026-04-29T13:57:32Z</time></trkpt><trkpt lat="42.4560214100173" lon="13.34506188605118"><ele>1275.0</ele><time>2026-04-29T13:57:33Z</time></trkpt><trkpt lat="42.456011677275384" lon="13.345384716880911"><ele>1275.0</ele><time>2026-04-29T13:57:34Z</time></trkpt><trkpt lat="42.456003657440306" lon="13.345692906623366"><ele>1276.3333333333333</ele><time>2026-04-29T13:57:35Z</time></trkpt><trkpt lat="42.45598069016845" lon="13.345993758837347"><ele>1277.6666666666665</ele><time>2026-04-29T13:57:36Z</time></trkpt><trkpt lat="42.45602572014276" lon="13.346245651114335"><ele>1279.0</ele><time>2026-04-29T13:57:36.999Z</time></trkpt><trkpt lat="42.45614142507502" lon="13.34642544821322"><ele>1281.3333333333333</ele><time>2026-04-29T13:57:37.999Z</time></trkpt><trkpt lat="42.45629241202654" lon="13.346591925161807"><ele>1283.6666666666667</ele><time>2026-04-29T13:57:38.999Z</time></trkpt><trkpt lat="42.45651283309787" lon="13.346734645068192"><ele>1286.0</ele><time>2026-04-29T13:57:39.999Z</time></trkpt><trkpt lat="42.45673551824181" lon="13.346896450764174"><ele>1286.0</ele><time>2026-04-29T13:57:40.999Z</time></trkpt><trkpt lat="42.45698111373961" lon="13.34700970464466"><ele>1286.0</ele><time>2026-04-29T13:57:41.999Z</time></trkpt><trkpt lat="42.45730390994898" lon="13.34706397796488"><ele>1285.6666666666667</ele><time>2026-04-29T13:57:42.999Z</time></trkpt><trkpt lat="42.45749390340646" lon="13.347208714860983"><ele>1285.3333333333333</ele><time>2026-04-29T13:57:43.999Z</time></trkpt><trkpt lat="42.457635763364365" lon="13.34741226255175"><ele>1285.0</ele><time>2026-04-29T13:57:44.999Z</time></trkpt><trkpt lat="42.45776906868484" lon="13.347680856498743"><ele>1285.0</ele><time>2026-04-29T13:57:45.999Z</time></trkpt><trkpt lat="42.457869063705466" lon="13.34802087705661"><ele>1285.0</ele><time>2026-04-29T13:57:46.999Z</time></trkpt><trkpt lat="42.45796484254651" lon="13.348332265403268"><ele>1290.5</ele><time>2026-04-29T13:57:47.999Z</time></trkpt><trkpt lat="42.45810967772017" lon="13.348619001462733"><ele>1296.0</ele><time>2026-04-29T13:57:48.999Z</time></trkpt><trkpt lat="42.45831766354318" lon="13.348862071935924"><ele>1292.5</ele><time>2026-04-29T13:57:49.999Z</time></trkpt><trkpt lat="42.458522942988814" lon="13.349031360491823"><ele>1289.0</ele><time>2026-04-29T13:57:50.999Z</time></trkpt><trkpt lat="42.45868442116208" lon="13.349284589267311"><ele>1294.5</ele><time>2026-04-29T13:57:51.999Z</time></trkpt><trkpt lat="42.458810081889176" lon="13.34957507846073"><ele>1300.0</ele><time>2026-04-29T13:57:52.999Z</time></trkpt><trkpt lat="42.4589311145327" lon="13.349908269852408"><ele>1300.0</ele><time>2026-04-29T13:57:53.999Z</time></trkpt><trkpt lat="42.459021032591906" lon="13.350283251063903"><ele>1300.0</ele><time>2026-04-29T13:57:54.999Z</time></trkpt><trkpt lat="42.459098228627134" lon="13.350643024478446"><ele>1299.5</ele><time>2026-04-29T13:57:55.999Z</time></trkpt><trkpt lat="42.45919576210187" lon="13.35102042465559"><ele>1299.0</ele><time>2026-04-29T13:57:56.999Z</time></trkpt><trkpt lat="42.45931965390879" lon="13.351422917230984"><ele>1299.0</ele><time>2026-04-29T13:57:57.999Z</time></trkpt><trkpt lat="42.459455653818544" lon="13.351815109481137"><ele>1299.0</ele><time>2026-04-29T13:57:58.999Z</time></trkpt><trkpt lat="42.45958550572574" lon="13.35218778015702"><ele>1301.5</ele><time>2026-04-29T13:57:59.999Z</time></trkpt><trkpt lat="42.45972607621248" lon="13.352510860563994"><ele>1304.0</ele><time>2026-04-29T13:58:00.999Z</time></trkpt><trkpt lat="42.45988389581015" lon="13.352796782328769"><ele>1303.5</ele><time>2026-04-29T13:58:01.999Z</time></trkpt><trkpt lat="42.460032713692925" lon="13.353061910083923"><ele>1303.0</ele><time>2026-04-29T13:58:02.999Z</time></trkpt><trkpt lat="42.46017195370708" lon="13.353309928394792"><ele>1303.0</ele><time>2026-04-29T13:58:03.999Z</time></trkpt><trkpt lat="42.46030840264413" lon="13.353530874544948"><ele>1303.0</ele><time>2026-04-29T13:58:04.999Z</time></trkpt><trkpt lat="42.46042673388581" lon="13.35376199437048"><ele>1303.0</ele><time>2026-04-29T13:58:05.999Z</time></trkpt><trkpt lat="42.46052503118975" lon="13.354037634672235"><ele>1301.0</ele><time>2026-04-29T13:58:06.999Z</time></trkpt><trkpt lat="42.460600033537574" lon="13.35436899856105"><ele>1299.0</ele><time>2026-04-29T13:58:07.999Z</time></trkpt><trkpt lat="42.46066132832588" lon="13.354718245914523"><ele>1299.0</ele><time>2026-04-29T13:58:08.999Z</time></trkpt><trkpt lat="42.46070557757571" lon="13.35503073803873"><ele>1299.0</ele><time>2026-04-29T13:58:09.999Z</time></trkpt><trkpt lat="42.460753275540974" lon="13.355308838898972"><ele>1299.0</ele><time>2026-04-29T13:58:10.999Z</time></trkpt><trkpt lat="42.46081485609345" lon="13.355569478534328"><ele>1300.0</ele><time>2026-04-29T13:58:11.999Z</time></trkpt><trkpt lat="42.460861144336704" lon="13.35581708364492"><ele>1301.0</ele><time>2026-04-29T13:58:12.999Z</time></trkpt><trkpt lat="42.46086397480294" lon="13.35606022171606"><ele>1302.0</ele><time>2026-04-29T13:58:13.999Z</time></trkpt><trkpt lat="42.460832267283855" lon="13.35629866577416"><ele>1300.6666666666667</ele><time>2026-04-29T13:58:14.999Z</time></trkpt><trkpt lat="42.460776871697604" lon="13.356526726436595"><ele>1299.3333333333335</ele><time>2026-04-29T13:58:15.999Z</time></trkpt><trkpt lat="42.460691913154115" lon="13.356753719250209"><ele>1298.0</ele><time>2026-04-29T13:58:16.999Z</time></trkpt><trkpt lat="42.460588080988316" lon="13.356970356310663"><ele>1298.0</ele><time>2026-04-29T13:58:17.999Z</time></trkpt><trkpt lat="42.46046430965398" lon="13.357147432994713"><ele>1298.0</ele><time>2026-04-29T13:58:18.999Z</time></trkpt><trkpt lat="42.46863725335511" lon="13.353824685176386"><ele>1293.3333333333335</ele><time>2026-04-29T13:59:20Z</time></trkpt><trkpt lat="42.46874909250331" lon="13.353720866158755"><ele>1288.6666666666667</ele><time>2026-04-29T13:59:21Z</time></trkpt><trkpt lat="42.468923953724676" lon="13.353646238113281"><ele>1284.0</ele><time>2026-04-29T13:59:22Z</time></trkpt><trkpt lat="42.469137402559845" lon="13.353580073872562"><ele>1284.0</ele><time>2026-04-29T13:59:23Z</time></trkpt><trkpt lat="42.46936660482706" lon="13.353526688503338"><ele>1284.0</ele><time>2026-04-29T13:59:24Z</time></trkpt><trkpt lat="42.46961382167276" lon="13.353502776156137"><ele>1281.0</ele><time>2026-04-29T13:59:25Z</time></trkpt><trkpt lat="42.469853626316244" lon="13.353510630110595"><ele>1278.0</ele><time>2026-04-29T13:59:26Z</time></trkpt><trkpt lat="42.470071191933584" lon="13.353554728889433"><ele>1278.0</ele><time>2026-04-29T13:59:27Z</time></trkpt><trkpt lat="42.47027851011201" lon="13.353625802980135"><ele>1278.0</ele><time>2026-04-29T13:59:28Z</time></trkpt><trkpt lat="42.470473428686105" lon="13.353724420765605"><ele>1278.0</ele><time>2026-04-29T13:59:29Z</time></trkpt><trkpt lat="42.47066475623688" lon="13.353912871337105"><ele>1280.0</ele><time>2026-04-29T13:59:30Z</time></trkpt><trkpt lat="42.47091020602352" lon="13.354202703523649"><ele>1282.0</ele><time>2026-04-29T13:59:31Z</time></trkpt><trkpt lat="42.471205818059154" lon="13.354542628161262"><ele>1280.5</ele><time>2026-04-29T13:59:32Z</time></trkpt><trkpt lat="42.47147224034498" lon="13.354847469389748"><ele>1279.0</ele><time>2026-04-29T13:59:33Z</time></trkpt><trkpt lat="42.47173700209743" lon="13.355139597761626"><ele>1279.0</ele><time>2026-04-29T13:59:34Z</time></trkpt><trkpt lat="42.472020585734526" lon="13.355451552714651"><ele>1279.0</ele><time>2026-04-29T13:59:35Z</time></trkpt><trkpt lat="42.47229446291526" lon="13.355756678953506"><ele>1278.5</ele><time>2026-04-29T13:59:36Z</time></trkpt><trkpt lat="42.47251326149239" lon="13.356002949896608"><ele>1278.0</ele><time>2026-04-29T13:59:37Z</time></trkpt><trkpt lat="42.47273680176698" lon="13.356253235730572"><ele>1274.5</ele><time>2026-04-29T13:59:38Z</time></trkpt><trkpt lat="42.47294987737815" lon="13.356479503673675"><ele>1271.0</ele><time>2026-04-29T13:59:38.999Z</time></trkpt><trkpt lat="42.47316258352791" lon="13.356673848042327"><ele>1271.0</ele><time>2026-04-29T13:59:39.999Z</time></trkpt><trkpt lat="42.473388342417394" lon="13.356811388293892"><ele>1271.0</ele><time>2026-04-29T13:59:40.999Z</time></trkpt><trkpt lat="42.47361802312611" lon="13.356899277598584"><ele>1271.3333333333335</ele><time>2026-04-29T13:59:41.999Z</time></trkpt><trkpt lat="42.47383874674179" lon="13.356974233379182"><ele>1271.6666666666667</ele><time>2026-04-29T13:59:42.999Z</time></trkpt><trkpt lat="42.474044063442804" lon="13.357063997008792"><ele>1272.0</ele><time>2026-04-29T13:59:43.999Z</time></trkpt><trkpt lat="42.47423841337655" lon="13.357151447558591"><ele>1275.6666666666667</ele><time>2026-04-29T13:59:44.999Z</time></trkpt><trkpt lat="42.47439838529797" lon="13.357310946285901"><ele>1279.3333333333335</ele><time>2026-04-29T13:59:45.999Z</time></trkpt><trkpt lat="42.47454829219052" lon="13.357535806421964"><ele>1283.0</ele><time>2026-04-29T13:59:46.999Z</time></trkpt><trkpt lat="42.47469816352354" lon="13.357796625485125"><ele>1272.5</ele><time>2026-04-29T13:59:47.999Z</time></trkpt><trkpt lat="42.47484909671116" lon="13.358057125574803"><ele>1262.0</ele><time>2026-04-29T13:59:48.999Z</time></trkpt><trkpt lat="42.475037626119445" lon="13.358307384897884"><ele>1262.0</ele><time>2026-04-29T13:59:49.999Z</time></trkpt><trkpt lat="42.47527180657796" lon="13.358547967004677"><ele>1262.0</ele><time>2026-04-29T13:59:50.999Z</time></trkpt><trkpt lat="42.47554040159851" lon="13.358811162827596"><ele>1257.5</ele><time>2026-04-29T13:59:51.999Z</time></trkpt><trkpt lat="42.47580948667952" lon="13.359090964786889"><ele>1253.0</ele><time>2026-04-29T13:59:52.999Z</time></trkpt><trkpt lat="42.476090206500764" lon="13.35938558635435"><ele>1249.5</ele><time>2026-04-29T13:59:53.999Z</time></trkpt><trkpt lat="42.4763775071284" lon="13.359709108806456"><ele>1246.0</ele><time>2026-04-29T13:59:54.999Z</time></trkpt><trkpt lat="42.476653765890546" lon="13.359991461069384"><ele>1246.0</ele><time>2026-04-29T13:59:55.999Z</time></trkpt><trkpt lat="42.4769188845676" lon="13.360244348489832"><ele>1246.0</ele><time>2026-04-29T13:59:56.999Z</time></trkpt><trkpt lat="42.477162161276084" lon="13.360499755189105"><ele>1241.5</ele><time>2026-04-29T13:59:57.999Z</time></trkpt><trkpt lat="42.477417050016996" lon="13.360765934503275"><ele>1237.0</ele><time>2026-04-29T13:59:58.999Z</time></trkpt><trkpt lat="42.477662652001726" lon="13.361023174903332"><ele>1237.0</ele><time>2026-04-29T13:59:59.999Z</time></trkpt><trkpt lat="42.47790043858272" lon="13.361273996150338"><ele>1237.0</ele><time>2026-04-29T14:00:00.999Z</time></trkpt><trkpt lat="42.47811998129724" lon="13.361500565695707"><ele>1234.5</ele><time>2026-04-29T14:00:01.999Z</time></trkpt><trkpt lat="42.47831685271441" lon="13.361718281045743"><ele>1232.0</ele><time>2026-04-29T14:00:02.999Z</time></trkpt><trkpt lat="42.47852242913808" lon="13.361940212028687"><ele>1232.0</ele><time>2026-04-29T14:00:03.999Z</time></trkpt><trkpt lat="42.47875745116355" lon="13.362110960657043"><ele>1232.0</ele><time>2026-04-29T14:00:04.999Z</time></trkpt><trkpt lat="42.47900599791161" lon="13.362243379661335"><ele>1228.5</ele><time>2026-04-29T14:00:05.999Z</time></trkpt><trkpt lat="42.479233801612246" lon="13.362347683451759"><ele>1225.0</ele><time>2026-04-29T14:00:06.999Z</time></trkpt><trkpt lat="42.479438822372096" lon="13.362477288752483"><ele>1229.0</ele><time>2026-04-29T14:00:07.999Z</time></trkpt><trkpt lat="42.479616435762416" lon="13.362666823328045"><ele>1233.0</ele><time>2026-04-29T14:00:08.999Z</time></trkpt><trkpt lat="42.47980250252238" lon="13.36290653692427"><ele>1225.5</ele><time>2026-04-29T14:00:09.999Z</time></trkpt><trkpt lat="42.47998641200834" lon="13.363173592384065"><ele>1218.0</ele><time>2026-04-29T14:00:10.999Z</time></trkpt><trkpt lat="42.48018610084007" lon="13.363413856430494"><ele>1218.0</ele><time>2026-04-29T14:00:11.999Z</time></trkpt><trkpt lat="42.48039202003452" lon="13.363599335031203"><ele>1218.0</ele><time>2026-04-29T14:00:12.999Z</time></trkpt><trkpt lat="42.48057758800547" lon="13.363750970584356"><ele>1215.6666666666667</ele><time>2026-04-29T14:00:13.999Z</time></trkpt><trkpt lat="42.480722240916435" lon="13.36387323348565"><ele>1213.3333333333335</ele><time>2026-04-29T14:00:14.999Z</time></trkpt><trkpt lat="42.480862820541276" lon="13.363986689603106"><ele>1211.0</ele><time>2026-04-29T14:00:15.999Z</time></trkpt><trkpt lat="42.4809951572461" lon="13.36406190541059"><ele>1211.0</ele><time>2026-04-29T14:00:16.999Z</time></trkpt><trkpt lat="42.48112780166403" lon="13.364089812759708"><ele>1211.0</ele><time>2026-04-29T14:00:17.999Z</time></trkpt><trkpt lat="42.49154429414444" lon="13.367890808835874"><ele>1178.0</ele><time>2026-04-29T14:01:20Z</time></trkpt><trkpt lat="42.49181467677544" lon="13.368011008510134"><ele>1145.0</ele><time>2026-04-29T14:01:21Z</time></trkpt><trkpt lat="42.49204170738937" lon="13.368109312385608"><ele>1145.0</ele><time>2026-04-29T14:01:22Z</time></trkpt><trkpt lat="42.492244901542215" lon="13.368268140182286"><ele>1145.0</ele><time>2026-04-29T14:01:23Z</time></trkpt><trkpt lat="42.49244501970154" lon="13.36845059261064"><ele>1145.0</ele><time>2026-04-29T14:01:24Z</time></trkpt><trkpt lat="42.49265594258872" lon="13.36869080363188"><ele>1145.0</ele><time>2026-04-29T14:01:25Z</time></trkpt><trkpt lat="42.49287935348874" lon="13.368972474824934"><ele>1145.0</ele><time>2026-04-29T14:01:26Z</time></trkpt><trkpt lat="42.49309610418609" lon="13.369264832335748"><ele>1145.0</ele><time>2026-04-29T14:01:27Z</time></trkpt><trkpt lat="42.4932759273457" lon="13.369524297047949"><ele>1142.5</ele><time>2026-04-29T14:01:28Z</time></trkpt><trkpt lat="42.493452526206475" lon="13.369796176770539"><ele>1140.0</ele><time>2026-04-29T14:01:29Z</time></trkpt><trkpt lat="42.49360510722726" lon="13.370042056492915"><ele>1140.0</ele><time>2026-04-29T14:01:30Z</time></trkpt><trkpt lat="42.49374322825596" lon="13.370279403690153"><ele>1140.0</ele><time>2026-04-29T14:01:31Z</time></trkpt><trkpt lat="42.493854458566126" lon="13.370520571581261"><ele>1140.0</ele><time>2026-04-29T14:01:32Z</time></trkpt><trkpt lat="42.493930033522865" lon="13.370763594812265"><ele>1141.6666666666667</ele><time>2026-04-29T14:01:33Z</time></trkpt><trkpt lat="42.4939514139971" lon="13.371026993482841"><ele>1143.3333333333335</ele><time>2026-04-29T14:01:34Z</time></trkpt><trkpt lat="42.493915574649094" lon="13.371319367031589"><ele>1145.0</ele><time>2026-04-29T14:01:35Z</time></trkpt><trkpt lat="42.49382817808658" lon="13.371656286541969"><ele>1143.5</ele><time>2026-04-29T14:01:36Z</time></trkpt><trkpt lat="42.493715771681956" lon="13.372025238445953"><ele>1142.0</ele><time>2026-04-29T14:01:37Z</time></trkpt><trkpt lat="42.49361082327472" lon="13.372412384988026"><ele>1142.0</ele><time>2026-04-29T14:01:38Z</time></trkpt><trkpt lat="42.49347968243253" lon="13.372815532059711"><ele>1142.0</ele><time>2026-04-29T14:01:38.999Z</time></trkpt><trkpt lat="42.49336369223621" lon="13.373198003656121"><ele>1141.5</ele><time>2026-04-29T14:01:39.999Z</time></trkpt><trkpt lat="42.493247284557164" lon="13.373533883741656"><ele>1141.0</ele><time>2026-04-29T14:01:40.999Z</time></trkpt><trkpt lat="42.493146686922884" lon="13.373849994530005"><ele>1142.0</ele><time>2026-04-29T14:01:41.999Z</time></trkpt><trkpt lat="42.493077227831805" lon="13.374156750220898"><ele>1143.0</ele><time>2026-04-29T14:01:42.999Z</time></trkpt><trkpt lat="42.49304742317763" lon="13.374517637042441"><ele>1143.5</ele><time>2026-04-29T14:01:43.999Z</time></trkpt><trkpt lat="42.49305138015638" lon="13.374909705363311"><ele>1144.0</ele><time>2026-04-29T14:01:44.999Z</time></trkpt><trkpt lat="42.4930584140783" lon="13.375260816036134"><ele>1146.0</ele><time>2026-04-29T14:01:45.999Z</time></trkpt><trkpt lat="42.49305686985537" lon="13.375571293033225"><ele>1148.0</ele><time>2026-04-29T14:01:46.999Z</time></trkpt><trkpt lat="42.49305683746126" lon="13.375874700717905"><ele>1148.0</ele><time>2026-04-29T14:01:47.999Z</time></trkpt><trkpt lat="42.49308669700828" lon="13.376186511228733"><ele>1148.0</ele><time>2026-04-29T14:01:48.999Z</time></trkpt><trkpt lat="42.49318473941561" lon="13.376516795096961"><ele>1147.0</ele><time>2026-04-29T14:01:49.999Z</time></trkpt><trkpt lat="42.49331560171685" lon="13.376858450981095"><ele>1146.0</ele><time>2026-04-29T14:01:50.999Z</time></trkpt><trkpt lat="42.4934377539782" lon="13.377234981028455"><ele>1143.0</ele><time>2026-04-29T14:01:51.999Z</time></trkpt><trkpt lat="42.493516234359035" lon="13.377653966294586"><ele>1140.0</ele><time>2026-04-29T14:01:52.999Z</time></trkpt><trkpt lat="42.493585072281135" lon="13.378113840794578"><ele>1139.0</ele><time>2026-04-29T14:01:53.999Z</time></trkpt><trkpt lat="42.49364856131301" lon="13.378534701485993"><ele>1138.0</ele><time>2026-04-29T14:01:54.999Z</time></trkpt><trkpt lat="42.493694836525236" lon="13.378944884763648"><ele>1140.5</ele><time>2026-04-29T14:01:55.999Z</time></trkpt><trkpt lat="42.493756638657686" lon="13.37932652439118"><ele>1143.0</ele><time>2026-04-29T14:01:56.999Z</time></trkpt><trkpt lat="42.49383879318362" lon="13.379711264810524"><ele>1143.0</ele><time>2026-04-29T14:01:57.999Z</time></trkpt><trkpt lat="42.49393087321969" lon="13.380080428411738"><ele>1143.0</ele><time>2026-04-29T14:01:58.999Z</time></trkpt><trkpt lat="42.494037268145185" lon="13.380410988160842"><ele>1140.0</ele><time>2026-04-29T14:01:59.999Z</time></trkpt><trkpt lat="42.49415912709743" lon="13.38070778029297"><ele>1137.0</ele><time>2026-04-29T14:02:00.999Z</time></trkpt><trkpt lat="42.494293165516396" lon="13.380982405724962"><ele>1137.0</ele><time>2026-04-29T14:02:01.999Z</time></trkpt><trkpt lat="42.494427516425795" lon="13.381252869936914"><ele>1137.0</ele><time>2026-04-29T14:02:02.999Z</time></trkpt><trkpt lat="42.494539325429606" lon="13.381543222839746"><ele>1143.0</ele><time>2026-04-29T14:02:03.999Z</time></trkpt><trkpt lat="42.494634731461545" lon="13.381836247582772"><ele>1149.0</ele><time>2026-04-29T14:02:04.999Z</time></trkpt><trkpt lat="42.494723156215535" lon="13.382107113328134"><ele>1147.3333333333333</ele><time>2026-04-29T14:02:05.999Z</time></trkpt><trkpt lat="42.49479310860075" lon="13.382365167012772"><ele>1145.6666666666665</ele><time>2026-04-29T14:02:06.999Z</time></trkpt><trkpt lat="42.494819810748226" lon="13.382626800082454"><ele>1144.0</ele><time>2026-04-29T14:02:07.999Z</time></trkpt><trkpt lat="42.494811532158884" lon="13.382907953074287"><ele>1143.0</ele><time>2026-04-29T14:02:08.999Z</time></trkpt><trkpt lat="42.49479174229939" lon="13.383223502965746"><ele>1142.0</ele><time>2026-04-29T14:02:09.999Z</time></trkpt><trkpt lat="42.494742987743" lon="13.383544508692781"><ele>1142.0</ele><time>2026-04-29T14:02:10.999Z</time></trkpt><trkpt lat="42.49468764809175" lon="13.383822124425524"><ele>1142.0</ele><time>2026-04-29T14:02:11.999Z</time></trkpt><trkpt lat="42.49462984892397" lon="13.384087329404172"><ele>1142.0</ele><time>2026-04-29T14:02:12.999Z</time></trkpt><trkpt lat="42.494589653168276" lon="13.384341013304425"><ele>1141.3333333333335</ele><time>2026-04-29T14:02:13.999Z</time></trkpt><trkpt lat="42.49458971774037" lon="13.384584732152135"><ele>1140.6666666666667</ele><time>2026-04-29T14:02:14.999Z</time></trkpt><trkpt lat="42.49463804313851" lon="13.384814759913285"><ele>1140.0</ele><time>2026-04-29T14:02:15.999Z</time></trkpt><trkpt lat="42.49472314535715" lon="13.385014841492508"><ele>1135.5</ele><time>2026-04-29T14:02:16.999Z</time></trkpt><trkpt lat="42.494842388226324" lon="13.385159288452403"><ele>1131.0</ele><time>2026-04-29T14:02:17.999Z</time></trkpt><trkpt lat="42.50025466895851" lon="13.391261669794618"><ele>1128.8333333333333</ele><time>2026-04-29T14:03:21Z</time></trkpt><trkpt lat="42.50031468590729" lon="13.391290454244386"><ele>1126.6666666666667</ele><time>2026-04-29T14:03:32Z</time></trkpt><trkpt lat="42.5003785742795" lon="13.391333509413741"><ele>1124.5</ele><time>2026-04-29T14:03:33Z</time></trkpt><trkpt lat="42.50045969979848" lon="13.391399965936026"><ele>1122.3333333333335</ele><time>2026-04-29T14:03:34Z</time></trkpt><trkpt lat="42.500536355610755" lon="13.391470362961993"><ele>1120.1666666666667</ele><time>2026-04-29T14:03:35Z</time></trkpt><trkpt lat="42.500600314234234" lon="13.391537546050738"><ele>1118.0</ele><time>2026-04-29T14:03:36Z</time></trkpt><trkpt lat="42.50065563779585" lon="13.391605133939"><ele>1116.5</ele><time>2026-04-29T14:03:37Z</time></trkpt><trkpt lat="42.50070367016437" lon="13.391687044321245"><ele>1115.0</ele><time>2026-04-29T14:03:38Z</time></trkpt><trkpt lat="42.50075031814475" lon="13.391777653280226"><ele>1113.5</ele><time>2026-04-29T14:03:39Z</time></trkpt><trkpt lat="42.50079233572533" lon="13.391878861369886"><ele>1112.0</ele><time>2026-04-29T14:03:40Z</time></trkpt><trkpt lat="42.500825970655086" lon="13.39198837914082"><ele>1110.5</ele><time>2026-04-29T14:03:40.999Z</time></trkpt><trkpt lat="42.50085488381474" lon="13.392108529736836"><ele>1109.0</ele><time>2026-04-29T14:03:41.999Z</time></trkpt><trkpt lat="42.5008743668348" lon="13.392244374457652"><ele>1108.75</ele><time>2026-04-29T14:03:42.999Z</time></trkpt><trkpt lat="42.500888526887834" lon="13.392385187770165"><ele>1108.5</ele><time>2026-04-29T14:03:43.999Z</time></trkpt><trkpt lat="42.50090111629643" lon="13.392534671469285"><ele>1108.25</ele><time>2026-04-29T14:03:44.999Z</time></trkpt><trkpt lat="42.50090487892994" lon="13.392698481118785"><ele>1108.0</ele><time>2026-04-29T14:03:45.999Z</time></trkpt><trkpt lat="42.50090147594301" lon="13.392872065699288"><ele>1107.5</ele><time>2026-04-29T14:03:46.999Z</time></trkpt><trkpt lat="42.50090310135017" lon="13.393048004792169"><ele>1107.0</ele><time>2026-04-29T14:03:47.999Z</time></trkpt><trkpt lat="42.500950072695424" lon="13.393207833532742"><ele>1106.5</ele><time>2026-04-29T14:03:48.999Z</time></trkpt><trkpt lat="42.50107207880933" lon="13.393316561896706"><ele>1106.0</ele><time>2026-04-29T14:03:49.999Z</time></trkpt><trkpt lat="42.501214951628874" lon="13.393411090540393"><ele>1114.3333333333335</ele><time>2026-04-29T14:03:50.999Z</time></trkpt><trkpt lat="42.5013655096939" lon="13.393503043691824"><ele>1122.6666666666667</ele><time>2026-04-29T14:03:51.999Z</time></trkpt><trkpt lat="42.501513059318576" lon="13.393612174306696"><ele>1131.0</ele><time>2026-04-29T14:03:52.999Z</time></trkpt><trkpt lat="42.50165282246975" lon="13.393764879044005"><ele>1124.0</ele><time>2026-04-29T14:03:53.999Z</time></trkpt><trkpt lat="42.50178371355811" lon="13.393970105793533"><ele>1117.0</ele><time>2026-04-29T14:03:54.999Z</time></trkpt><trkpt lat="42.50190308299334" lon="13.394161883416714"><ele>1110.0</ele><time>2026-04-29T14:03:55.999Z</time></trkpt><trkpt lat="42.50197921411394" lon="13.394401664761252"><ele>1110.0</ele><time>2026-04-29T14:03:56.999Z</time></trkpt><trkpt lat="42.502017013446334" lon="13.394648282995924"><ele>1110.0</ele><time>2026-04-29T14:03:57.999Z</time></trkpt><trkpt lat="42.50205238439425" lon="13.394887059093804"><ele>1110.0</ele><time>2026-04-29T14:03:58.999Z</time></trkpt><trkpt lat="42.50214667612669" lon="13.39509458216469"><ele>1116.3333333333333</ele><time>2026-04-29T14:03:59.999Z</time></trkpt><trkpt lat="42.502260775520504" lon="13.395325271970117"><ele>1122.6666666666665</ele><time>2026-04-29T14:04:00.999Z</time></trkpt><trkpt lat="42.502341918831846" lon="13.395607086427328"><ele>1129.0</ele><time>2026-04-29T14:04:01.999Z</time></trkpt><trkpt lat="42.50239108669129" lon="13.39590144024202"><ele>1129.0</ele><time>2026-04-29T14:04:02.999Z</time></trkpt><trkpt lat="42.502426115997565" lon="13.396182277230437"><ele>1129.0</ele><time>2026-04-29T14:04:03.999Z</time></trkpt><trkpt lat="42.50244547450678" lon="13.396449998800128"><ele>1129.0</ele><time>2026-04-29T14:04:04.999Z</time></trkpt><trkpt lat="42.502458089645735" lon="13.396720039786864"><ele>1124.6666666666665</ele><time>2026-04-29T14:04:05.999Z</time></trkpt><trkpt lat="42.502486547952444" lon="13.396971175497669"><ele>1120.3333333333333</ele><time>2026-04-29T14:04:06.999Z</time></trkpt><trkpt lat="42.502526594005026" lon="13.397185691707062"><ele>1116.0</ele><time>2026-04-29T14:04:07.999Z</time></trkpt><trkpt lat="42.50256791985037" lon="13.397395279310548"><ele>1114.0</ele><time>2026-04-29T14:04:08.999Z</time></trkpt><trkpt lat="42.50262614627531" lon="13.397590288566244"><ele>1112.0</ele><time>2026-04-29T14:04:09.999Z</time></trkpt><trkpt lat="42.50273675650166" lon="13.397765233435981"><ele>1110.0</ele><time>2026-04-29T14:04:10.999Z</time></trkpt><trkpt lat="42.50290555511451" lon="13.39792709684952"><ele>1112.0</ele><time>2026-04-29T14:04:11.999Z</time></trkpt><trkpt lat="42.503108581345366" lon="13.398106801740258"><ele>1114.0</ele><time>2026-04-29T14:04:12.999Z</time></trkpt><trkpt lat="42.50332805526789" lon="13.39831312800873"><ele>1114.0</ele><time>2026-04-29T14:04:13.999Z</time></trkpt><trkpt lat="42.503520775196606" lon="13.398509245071471"><ele>1114.0</ele><time>2026-04-29T14:04:14.999Z</time></trkpt><trkpt lat="42.5036905546164" lon="13.398689001290057"><ele>1114.6666666666665</ele><time>2026-04-29T14:04:15.999Z</time></trkpt><trkpt lat="42.503847082947786" lon="13.398879474317432"><ele>1115.3333333333333</ele><time>2026-04-29T14:04:16.999Z</time></trkpt><trkpt lat="42.50398896633741" lon="13.399055222448812"><ele>1116.0</ele><time>2026-04-29T14:04:17.999Z</time></trkpt><trkpt lat="42.51001290284116" lon="13.409595162259016"><ele>1103.25</ele><time>2026-04-29T14:05:20Z</time></trkpt><trkpt lat="42.51003176546188" lon="13.409768268768303"><ele>1090.5</ele><time>2026-04-29T14:05:21Z</time></trkpt><trkpt lat="42.510059669257586" lon="13.40993126551893"><ele>1077.75</ele><time>2026-04-29T14:05:22Z</time></trkpt><trkpt lat="42.51012434514674" lon="13.410070998919442"><ele>1065.0</ele><time>2026-04-29T14:05:23Z</time></trkpt><trkpt lat="42.510233981991774" lon="13.410187670468332"><ele>1065.0</ele><time>2026-04-29T14:05:24Z</time></trkpt><trkpt lat="42.510379969666715" lon="13.410284127277858"><ele>1065.0</ele><time>2026-04-29T14:05:25Z</time></trkpt><trkpt lat="42.510541637347124" lon="13.41036764052941"><ele>1065.0</ele><time>2026-04-29T14:05:26Z</time></trkpt><trkpt lat="42.51069050441753" lon="13.410449255837777"><ele>1064.75</ele><time>2026-04-29T14:05:27Z</time></trkpt><trkpt lat="42.510829382557944" lon="13.410529414425442"><ele>1064.5</ele><time>2026-04-29T14:05:28Z</time></trkpt><trkpt lat="42.51096094882215" lon="13.410616090932864"><ele>1064.25</ele><time>2026-04-29T14:05:29Z</time></trkpt><trkpt lat="42.511076082337354" lon="13.410719680408762"><ele>1064.0</ele><time>2026-04-29T14:05:30Z</time></trkpt><trkpt lat="42.51116661061102" lon="13.410844826828104"><ele>1064.0</ele><time>2026-04-29T14:05:31Z</time></trkpt><trkpt lat="42.511234714692705" lon="13.410993559682941"><ele>1064.0</ele><time>2026-04-29T14:05:32Z</time></trkpt><trkpt lat="42.51128984213591" lon="13.411130935087558"><ele>1064.0</ele><time>2026-04-29T14:05:33Z</time></trkpt><trkpt lat="42.511348552485465" lon="13.411262794066046"><ele>1064.0</ele><time>2026-04-29T14:05:34Z</time></trkpt><trkpt lat="42.51140458647136" lon="13.41139689001492"><ele>1064.5</ele><time>2026-04-29T14:05:35Z</time></trkpt><trkpt lat="42.51146206266406" lon="13.411534007284587"><ele>1065.0</ele><time>2026-04-29T14:05:36Z</time></trkpt><trkpt lat="42.511515556131684" lon="13.411675611805409"><ele>1065.5</ele><time>2026-04-29T14:05:37Z</time></trkpt><trkpt lat="42.51155943693591" lon="13.411828236299522"><ele>1066.0</ele><time>2026-04-29T14:05:38Z</time></trkpt><trkpt lat="42.511591532573966" lon="13.41197769581762"><ele>1066.0</ele><time>2026-04-29T14:05:39Z</time></trkpt><trkpt lat="42.511636491468266" lon="13.412107971869311"><ele>1066.0</ele><time>2026-04-29T14:05:39.999Z</time></trkpt><trkpt lat="42.51172120766668" lon="13.412193742588249"><ele>1066.0</ele><time>2026-04-29T14:05:40.999Z</time></trkpt><trkpt lat="42.51185253329908" lon="13.412229957778724"><ele>1066.0</ele><time>2026-04-29T14:05:41.999Z</time></trkpt><trkpt lat="42.51201463265851" lon="13.412202802270759"><ele>1070.3333333333333</ele><time>2026-04-29T14:05:42.999Z</time></trkpt><trkpt lat="42.51220392395233" lon="13.412142780602709"><ele>1074.6666666666667</ele><time>2026-04-29T14:05:43.999Z</time></trkpt><trkpt lat="42.51237549530583" lon="13.412095604700356"><ele>1079.0</ele><time>2026-04-29T14:05:44.999Z</time></trkpt><trkpt lat="42.512530618175944" lon="13.412074330612624"><ele>1079.0</ele><time>2026-04-29T14:05:45.999Z</time></trkpt><trkpt lat="42.51268721284624" lon="13.41207157641518"><ele>1079.0</ele><time>2026-04-29T14:05:46.999Z</time></trkpt><trkpt lat="42.51283214721177" lon="13.412093343363633"><ele>1079.0</ele><time>2026-04-29T14:05:47.999Z</time></trkpt><trkpt lat="42.51296529505495" lon="13.412145391704607"><ele>1079.0</ele><time>2026-04-29T14:05:48.999Z</time></trkpt><trkpt lat="42.51309256908461" lon="13.412217996227723"><ele>1075.5</ele><time>2026-04-29T14:05:49.999Z</time></trkpt><trkpt lat="42.51321183882985" lon="13.412317771621517"><ele>1072.0</ele><time>2026-04-29T14:05:50.999Z</time></trkpt><trkpt lat="42.51330896942013" lon="13.41245088546841"><ele>1068.5</ele><time>2026-04-29T14:05:51.999Z</time></trkpt><trkpt lat="42.51338317420036" lon="13.412618492026482"><ele>1065.0</ele><time>2026-04-29T14:05:52.999Z</time></trkpt><trkpt lat="42.5134392871853" lon="13.412857177777624"><ele>1058.3333333333333</ele><time>2026-04-29T14:05:53.999Z</time></trkpt><trkpt lat="42.51348979603611" lon="13.413101778092809"><ele>1051.6666666666665</ele><time>2026-04-29T14:05:54.999Z</time></trkpt><trkpt lat="42.51352268474302" lon="13.413369264498174"><ele>1045.0</ele><time>2026-04-29T14:05:55.999Z</time></trkpt><trkpt lat="42.51354927778067" lon="13.41363397225358"><ele>1041.3333333333333</ele><time>2026-04-29T14:05:56.999Z</time></trkpt><trkpt lat="42.51358479655228" lon="13.413887713361804"><ele>1037.6666666666667</ele><time>2026-04-29T14:05:57.999Z</time></trkpt><trkpt lat="42.51365746340936" lon="13.414150804215916"><ele>1034.0</ele><time>2026-04-29T14:05:58.999Z</time></trkpt><trkpt lat="42.513775543503684" lon="13.414439807141116"><ele>1042.5</ele><time>2026-04-29T14:05:59.999Z</time></trkpt><trkpt lat="42.5139175040409" lon="13.414739638652064"><ele>1051.0</ele><time>2026-04-29T14:06:00.999Z</time></trkpt><trkpt lat="42.51404713191314" lon="13.415003199010435"><ele>1051.0</ele><time>2026-04-29T14:06:01.999Z</time></trkpt><trkpt lat="42.514164742011246" lon="13.4152470596625"><ele>1051.0</ele><time>2026-04-29T14:06:02.999Z</time></trkpt><trkpt lat="42.51427763567797" lon="13.41547026593463"><ele>1051.0</ele><time>2026-04-29T14:06:03.999Z</time></trkpt><trkpt lat="42.51438846097007" lon="13.415671100416672"><ele>1055.3333333333333</ele><time>2026-04-29T14:06:04.999Z</time></trkpt><trkpt lat="42.51450223199313" lon="13.415851777122008"><ele>1059.6666666666667</ele><time>2026-04-29T14:06:05.999Z</time></trkpt><trkpt lat="42.51462140119995" lon="13.416009619946337"><ele>1064.0</ele><time>2026-04-29T14:06:06.999Z</time></trkpt><trkpt lat="42.514779821237774" lon="13.41613185291966"><ele>1064.0</ele><time>2026-04-29T14:06:07.999Z</time></trkpt><trkpt lat="42.514968544411055" lon="13.416204928827177"><ele>1064.0</ele><time>2026-04-29T14:06:08.999Z</time></trkpt><trkpt lat="42.5151670305189" lon="13.416285046965513"><ele>1064.0</ele><time>2026-04-29T14:06:09.999Z</time></trkpt><trkpt lat="42.51534419578352" lon="13.41640812629928"><ele>1065.3333333333335</ele><time>2026-04-29T14:06:10.999Z</time></trkpt><trkpt lat="42.515490752897776" lon="13.416564762678835"><ele>1066.6666666666667</ele><time>2026-04-29T14:06:11.999Z</time></trkpt><trkpt lat="42.515609208560114" lon="13.416741928915565"><ele>1068.0</ele><time>2026-04-29T14:06:12.999Z</time></trkpt><trkpt lat="42.51571232415026" lon="13.416996067423835"><ele>1051.5</ele><time>2026-04-29T14:06:13.999Z</time></trkpt><trkpt lat="42.5158121429869" lon="13.417300469794982"><ele>1035.0</ele><time>2026-04-29T14:06:14.999Z</time></trkpt><trkpt lat="42.51595958096584" lon="13.417608559555513"><ele>1035.0</ele><time>2026-04-29T14:06:15.999Z</time></trkpt><trkpt lat="42.51613519555764" lon="13.417904390424248"><ele>1035.0</ele><time>2026-04-29T14:06:16.999Z</time></trkpt><trkpt lat="42.51629569569519" lon="13.418159486704848"><ele>1041.5</ele><time>2026-04-29T14:06:17.999Z</time></trkpt><trkpt lat="42.516575825452485" lon="13.418624119801569"><ele>1048.0</ele><time>2026-04-29T14:06:19.999Z</time></trkpt><trkpt lat="42.51674725385816" lon="13.418798332713601"><ele>1046.5</ele><time>2026-04-29T14:06:20.999Z</time></trkpt><trkpt lat="42.516959781446175" lon="13.418958492129397"><ele>1045.0</ele><time>2026-04-29T14:06:21.999Z</time></trkpt><trkpt lat="42.51718933362441" lon="13.419091622051047"><ele>1045.0</ele><time>2026-04-29T14:06:22.999Z</time></trkpt><trkpt lat="42.5173871871694" lon="13.419241149122405"><ele>1045.0</ele><time>2026-04-29T14:06:23.999Z</time></trkpt><trkpt lat="42.5175565639764" lon="13.41941158436813"><ele>1045.0</ele><time>2026-04-29T14:06:24.999Z</time></trkpt><trkpt lat="42.51770186576277" lon="13.419563914039246"><ele>1052.6666666666665</ele><time>2026-04-29T14:06:25.999Z</time></trkpt><trkpt lat="42.517831336895156" lon="13.419707697929727"><ele>1060.3333333333333</ele><time>2026-04-29T14:06:26.999Z</time></trkpt><trkpt lat="42.51794835499787" lon="13.419862883849193"><ele>1068.0</ele><time>2026-04-29T14:06:27.999Z</time></trkpt><trkpt lat="42.51800913885859" lon="13.420090782345168"><ele>1068.0</ele><time>2026-04-29T14:06:28.999Z</time></trkpt><trkpt lat="42.51807620748212" lon="13.420365171513533"><ele>1068.0</ele><time>2026-04-29T14:06:29.999Z</time></trkpt><trkpt lat="42.518150471917345" lon="13.42065783710625"><ele>1068.0</ele><time>2026-04-29T14:06:30.999Z</time></trkpt><trkpt lat="42.518241882794776" lon="13.42095732763975"><ele>1061.0</ele><time>2026-04-29T14:06:31.999Z</time></trkpt><trkpt lat="42.51832230516353" lon="13.421226936784343"><ele>1054.0</ele><time>2026-04-29T14:06:32.999Z</time></trkpt><trkpt lat="42.518418007349105" lon="13.421435570024805"><ele>1047.0</ele><time>2026-04-29T14:06:33.999Z</time></trkpt><trkpt lat="42.51850815108269" lon="13.421622640722221"><ele>1041.0</ele><time>2026-04-29T14:06:34.999Z</time></trkpt><trkpt lat="42.51856096802785" lon="13.421807006132983"><ele>1035.0</ele><time>2026-04-29T14:06:35.999Z</time></trkpt><trkpt lat="42.518570522002655" lon="13.42199406488678"><ele>1029.0</ele><time>2026-04-29T14:06:36.999Z</time></trkpt><trkpt lat="42.518598996914804" lon="13.42216037900278"><ele>1023.0</ele><time>2026-04-29T14:06:37.999Z</time></trkpt><trkpt lat="42.51868819513665" lon="13.42230504005579"><ele>1022.75</ele><time>2026-04-29T14:06:38.999Z</time></trkpt><trkpt lat="42.51882351554684" lon="13.422400856841808"><ele>1022.5</ele><time>2026-04-29T14:06:39.999Z</time></trkpt><trkpt lat="42.51896351370549" lon="13.422461333251007"><ele>1022.25</ele><time>2026-04-29T14:06:40.999Z</time></trkpt><trkpt lat="42.51911109022998" lon="13.422470692167979"><ele>1022.0</ele><time>2026-04-29T14:06:41.999Z</time></trkpt><trkpt lat="42.519265607324876" lon="13.422403969665119"><ele>1022.0</ele><time>2026-04-29T14:06:42.999Z</time></trkpt><trkpt lat="42.519400128240626" lon="13.422289850240237"><ele>1022.0</ele><time>2026-04-29T14:06:43.999Z</time></trkpt><trkpt lat="42.51949160155162" lon="13.422182816744137"><ele>1022.0</ele><time>2026-04-29T14:06:44.999Z</time></trkpt><trkpt lat="42.5195619884976" lon="13.422074553508795"><ele>1022.0</ele><time>2026-04-29T14:06:45.999Z</time></trkpt><trkpt lat="42.51963265879292" lon="13.422017671553633"><ele>1024.8</ele><time>2026-04-29T14:06:46.999Z</time></trkpt><trkpt lat="42.519715958886245" lon="13.422018120145689"><ele>1027.6</ele><time>2026-04-29T14:06:47.999Z</time></trkpt><trkpt lat="42.51979582763509" lon="13.422073876461974"><ele>1030.3999999999999</ele><time>2026-04-29T14:06:49Z</time></trkpt><trkpt lat="42.51984736916445" lon="13.422186445036152"><ele>1033.2</ele><time>2026-04-29T14:06:50Z</time></trkpt><trkpt lat="42.51983794017013" lon="13.42232201913199"><ele>1036.0</ele><time>2026-04-29T14:06:51Z</time></trkpt><trkpt lat="42.51978288743071" lon="13.42245023111634"><ele>1036.0</ele><time>2026-04-29T14:06:52Z</time></trkpt><trkpt lat="42.519712135864545" lon="13.422601504036482"><ele>1036.0</ele><time>2026-04-29T14:06:53Z</time></trkpt><trkpt lat="42.519649519452294" lon="13.422790995405785"><ele>1036.0</ele><time>2026-04-29T14:06:54Z</time></trkpt><trkpt lat="42.51959632681216" lon="13.423012544623877"><ele>1028.0</ele><time>2026-04-29T14:06:55Z</time></trkpt><trkpt lat="42.51956463388597" lon="13.42322710256533"><ele>1020.0</ele><time>2026-04-29T14:06:56Z</time></trkpt><trkpt lat="42.51952039764948" lon="13.423422836994401"><ele>1012.0</ele><time>2026-04-29T14:06:57Z</time></trkpt><trkpt lat="42.51948029725263" lon="13.423610605899635"><ele>1012.0</ele><time>2026-04-29T14:06:58Z</time></trkpt><trkpt lat="42.519446552427794" lon="13.423777655422539"><ele>1012.0</ele><time>2026-04-29T14:06:59Z</time></trkpt><trkpt lat="42.51940558318964" lon="13.423932315237913"><ele>1012.0</ele><time>2026-04-29T14:07:00Z</time></trkpt><trkpt lat="42.519372347947915" lon="13.42408107610266"><ele>1012.0</ele><time>2026-04-29T14:07:01Z</time></trkpt><trkpt lat="42.519347572919116" lon="13.42422922319897"><ele>1011.25</ele><time>2026-04-29T14:07:02Z</time></trkpt><trkpt lat="42.519350154998726" lon="13.424378874101901"><ele>1010.5</ele><time>2026-04-29T14:07:03Z</time></trkpt><trkpt lat="42.519393855975686" lon="13.424538321845347"><ele>1009.75</ele><time>2026-04-29T14:07:04Z</time></trkpt><trkpt lat="42.51948216435983" lon="13.424698475252335"><ele>1009.0</ele><time>2026-04-29T14:07:05Z</time></trkpt><trkpt lat="42.51958414912935" lon="13.424852536312063"><ele>1013.0</ele><time>2026-04-29T14:07:06Z</time></trkpt><trkpt lat="42.51966642452538" lon="13.42500428376105"><ele>1017.0</ele><time>2026-04-29T14:07:07Z</time></trkpt><trkpt lat="42.519729024896044" lon="13.425166412142866"><ele>1021.0</ele><time>2026-04-29T14:07:08Z</time></trkpt><trkpt lat="42.5197741856896" lon="13.425327976927091"><ele>1025.0</ele><time>2026-04-29T14:07:09Z</time></trkpt><trkpt lat="42.519792434138246" lon="13.425500265943956"><ele>1025.0</ele><time>2026-04-29T14:07:10Z</time></trkpt><trkpt lat="42.51978114232587" lon="13.42569356834552"><ele>1025.0</ele><time>2026-04-29T14:07:11Z</time></trkpt><trkpt lat="42.51973531505131" lon="13.425907729581112"><ele>1025.0</ele><time>2026-04-29T14:07:12Z</time></trkpt><trkpt lat="42.5196781713034" lon="13.426138448543329"><ele>1032.0</ele><time>2026-04-29T14:07:13Z</time></trkpt><trkpt lat="42.51961871685676" lon="13.42640605785696"><ele>1039.0</ele><time>2026-04-29T14:07:14Z</time></trkpt><trkpt lat="42.51957155407869" lon="13.426721538239198"><ele>1046.0</ele><time>2026-04-29T14:07:15Z</time></trkpt><trkpt lat="42.519532861302" lon="13.427013431134306"><ele>1028.3333333333335</ele><time>2026-04-29T14:07:16Z</time></trkpt><trkpt lat="42.519498275661796" lon="13.427284241433554"><ele>1010.6666666666667</ele><time>2026-04-29T14:07:17Z</time></trkpt><trkpt lat="42.51948250321153" lon="13.427545482193246"><ele>993.0</ele><time>2026-04-29T14:07:18Z</time></trkpt><trkpt lat="42.527743835220825" lon="13.440776878754354"><ele>983.75</ele><time>2026-04-29T14:08:19.999Z</time></trkpt><trkpt lat="42.52788740156275" lon="13.44087954971688"><ele>974.5</ele><time>2026-04-29T14:08:20.999Z</time></trkpt><trkpt lat="42.52800753721439" lon="13.44099924203493"><ele>965.25</ele><time>2026-04-29T14:08:21.999Z</time></trkpt><trkpt lat="42.52807487676658" lon="13.441145847618191"><ele>956.0</ele><time>2026-04-29T14:08:22.999Z</time></trkpt><trkpt lat="42.52808719368385" lon="13.441295637679932"><ele>954.25</ele><time>2026-04-29T14:08:23.999Z</time></trkpt><trkpt lat="42.52810413103314" lon="13.44149218993705"><ele>952.5</ele><time>2026-04-29T14:08:24.999Z</time></trkpt><trkpt lat="42.52812050735914" lon="13.441695943107785"><ele>950.75</ele><time>2026-04-29T14:08:25.999Z</time></trkpt><trkpt lat="42.528147701828885" lon="13.44188183768724"><ele>949.0</ele><time>2026-04-29T14:08:26.999Z</time></trkpt><trkpt lat="42.528175921750034" lon="13.442082270460737"><ele>941.0</ele><time>2026-04-29T14:08:27.999Z</time></trkpt><trkpt lat="42.52824698298971" lon="13.442359686984755"><ele>933.0</ele><time>2026-04-29T14:08:28.999Z</time></trkpt><trkpt lat="42.528371044833584" lon="13.442607875770364"><ele>925.0</ele><time>2026-04-29T14:08:29.999Z</time></trkpt><trkpt lat="42.52853616223479" lon="13.442803928560284"><ele>925.0</ele><time>2026-04-29T14:08:30.999Z</time></trkpt><trkpt lat="42.5287190044987" lon="13.442945776492063"><ele>925.0</ele><time>2026-04-29T14:08:31.999Z</time></trkpt><trkpt lat="42.52888410445656" lon="13.443046430450437"><ele>925.0</ele><time>2026-04-29T14:08:32.999Z</time></trkpt><trkpt lat="42.528979131353594" lon="13.4431647075143"><ele>929.0</ele><time>2026-04-29T14:08:33.999Z</time></trkpt><trkpt lat="42.52907459098235" lon="13.443303695420411"><ele>933.0</ele><time>2026-04-29T14:08:34.999Z</time></trkpt><trkpt lat="42.52912742656047" lon="13.44352728823322"><ele>937.0</ele><time>2026-04-29T14:08:35.999Z</time></trkpt><trkpt lat="42.5292019464249" lon="13.443766553814497"><ele>930.6666666666666</ele><time>2026-04-29T14:08:36.999Z</time></trkpt><trkpt lat="42.52926227516572" lon="13.443998849908814"><ele>924.3333333333333</ele><time>2026-04-29T14:08:37.999Z</time></trkpt><trkpt lat="42.52934820001595" lon="13.444171092325597"><ele>918.0</ele><time>2026-04-29T14:08:38.999Z</time></trkpt><trkpt lat="42.529467999693985" lon="13.444309671098292"><ele>913.3333333333333</ele><time>2026-04-29T14:08:39.999Z</time></trkpt><trkpt lat="42.5296442932227" lon="13.444433894545602"><ele>908.6666666666666</ele><time>2026-04-29T14:08:40.999Z</time></trkpt><trkpt lat="42.52984677778176" lon="13.444555010414707"><ele>904.0</ele><time>2026-04-29T14:08:41.999Z</time></trkpt><trkpt lat="42.53001221472428" lon="13.444727085830879"><ele>904.0</ele><time>2026-04-29T14:08:42.999Z</time></trkpt><trkpt lat="42.530147757761995" lon="13.444914018989648"><ele>904.0</ele><time>2026-04-29T14:08:43.999Z</time></trkpt><trkpt lat="42.53027016341515" lon="13.445133459026234"><ele>904.0</ele><time>2026-04-29T14:08:44.999Z</time></trkpt><trkpt lat="42.530401595969934" lon="13.445366096322424"><ele>908.0</ele><time>2026-04-29T14:08:45.999Z</time></trkpt><trkpt lat="42.530518560994274" lon="13.445617658998843"><ele>912.0</ele><time>2026-04-29T14:08:46.999Z</time></trkpt><trkpt lat="42.53061157651119" lon="13.44586824967928"><ele>916.0</ele><time>2026-04-29T14:08:47.999Z</time></trkpt><trkpt lat="42.53072103606948" lon="13.446126498923745"><ele>909.5</ele><time>2026-04-29T14:08:48.999Z</time></trkpt><trkpt lat="42.530856745398054" lon="13.446392359398864"><ele>903.0</ele><time>2026-04-29T14:08:49.999Z</time></trkpt><trkpt lat="42.530971936283294" lon="13.446666521240765"><ele>903.0</ele><time>2026-04-29T14:08:51.07Z</time></trkpt><trkpt lat="42.53108980077655" lon="13.446894814094069"><ele>903.0</ele><time>2026-04-29T14:08:52.051Z</time></trkpt><trkpt lat="42.53121984992538" lon="13.44712509343973"><ele>903.0</ele><time>2026-04-29T14:08:53.052Z</time></trkpt><trkpt lat="42.53134591297362" lon="13.447355045770202"><ele>899.3333333333333</ele><time>2026-04-29T14:08:54.052Z</time></trkpt><trkpt lat="42.53147545651242" lon="13.447573366834979"><ele>895.6666666666666</ele><time>2026-04-29T14:08:55.044Z</time></trkpt><trkpt lat="42.53159812142397" lon="13.44779299455024"><ele>892.0</ele><time>2026-04-29T14:08:56.027Z</time></trkpt><trkpt lat="42.531707372493656" lon="13.448021221161408"><ele>892.0</ele><time>2026-04-29T14:08:57.022Z</time></trkpt><trkpt lat="42.53177840998357" lon="13.448255798121156"><ele>892.0</ele><time>2026-04-29T14:08:58.022Z</time></trkpt><trkpt lat="42.53192915178689" lon="13.448495857107229"><ele>892.0</ele><time>2026-04-29T14:08:59.022Z</time></trkpt><trkpt lat="42.532077421730634" lon="13.448667820510241"><ele>889.0</ele><time>2026-04-29T14:09:00.022Z</time></trkpt><trkpt lat="42.53223988479825" lon="13.44882146789993"><ele>886.0</ele><time>2026-04-29T14:09:01.023Z</time></trkpt><trkpt lat="42.53312200391675" lon="13.449866778991312"><ele>884.0</ele><time>2026-04-29T14:09:06.999Z</time></trkpt><trkpt lat="42.533188575848285" lon="13.450087996179416"><ele>882.0</ele><time>2026-04-29T14:09:07.999Z</time></trkpt><trkpt lat="42.53327859820592" lon="13.450412790125666"><ele>880.0</ele><time>2026-04-29T14:09:08.998Z</time></trkpt><trkpt lat="42.53336133871392" lon="13.450644137776344"><ele>880.0</ele><time>2026-04-29T14:09:09.998Z</time></trkpt><trkpt lat="42.53349288700815" lon="13.45080156207635"><ele>880.0</ele><time>2026-04-29T14:09:11Z</time></trkpt><trkpt lat="42.533610646360756" lon="13.450999844581633"><ele>880.0</ele><time>2026-04-29T14:09:12Z</time></trkpt><trkpt lat="42.53368492688332" lon="13.451201626246693"><ele>880.25</ele><time>2026-04-29T14:09:13Z</time></trkpt><trkpt lat="42.533732752507696" lon="13.451421836508533"><ele>880.5</ele><time>2026-04-29T14:09:14Z</time></trkpt><trkpt lat="42.53377931905879" lon="13.451623404673413"><ele>880.75</ele><time>2026-04-29T14:09:15Z</time></trkpt><trkpt lat="42.53381872070054" lon="13.45174547825622"><ele>881.0</ele><time>2026-04-29T14:09:16Z</time></trkpt><trkpt lat="42.53387585346035" lon="13.45191270179951"><ele>881.0</ele><time>2026-04-29T14:09:17Z</time></trkpt><trkpt lat="42.53399535055499" lon="13.452035414236082"><ele>881.0</ele><time>2026-04-29T14:09:18Z</time></trkpt><trkpt lat="42.54460528819489" lon="13.463707063020767"><ele>861.25</ele><time>2026-04-29T14:10:22.999Z</time></trkpt><trkpt lat="42.54470521955753" lon="13.463858990302223"><ele>841.5</ele><time>2026-04-29T14:10:23.999Z</time></trkpt><trkpt lat="42.5448165042944" lon="13.46398760119392"><ele>821.75</ele><time>2026-04-29T14:10:24.999Z</time></trkpt><trkpt lat="42.5449293230777" lon="13.464088573074408"><ele>802.0</ele><time>2026-04-29T14:10:25.999Z</time></trkpt><trkpt lat="42.54505958073816" lon="13.464150143450357"><ele>802.0</ele><time>2026-04-29T14:10:26.999Z</time></trkpt><trkpt lat="42.54518414441321" lon="13.46416676116839"><ele>802.0</ele><time>2026-04-29T14:10:27.999Z</time></trkpt><trkpt lat="42.54533016150734" lon="13.464237967329337"><ele>802.0</ele><time>2026-04-29T14:10:28.999Z</time></trkpt><trkpt lat="42.545507488392076" lon="13.4643712864763"><ele>800.3333333333333</ele><time>2026-04-29T14:10:29.999Z</time></trkpt><trkpt lat="42.54565498416645" lon="13.464511169331507"><ele>798.6666666666667</ele><time>2026-04-29T14:10:30.999Z</time></trkpt><trkpt lat="42.54585385530507" lon="13.46471106467586"><ele>797.0</ele><time>2026-04-29T14:10:31.999Z</time></trkpt><trkpt lat="42.545982703525326" lon="13.464813840823702"><ele>787.0</ele><time>2026-04-29T14:10:32.999Z</time></trkpt><trkpt lat="42.54625780207406" lon="13.46515724390278"><ele>777.0</ele><time>2026-04-29T14:10:33.999Z</time></trkpt><trkpt lat="42.54646882562131" lon="13.46542095148105"><ele>784.5</ele><time>2026-04-29T14:10:34.999Z</time></trkpt><trkpt lat="42.54667663132523" lon="13.465699302999909"><ele>792.0</ele><time>2026-04-29T14:10:35.999Z</time></trkpt><trkpt lat="42.54681150165205" lon="13.465920732472746"><ele>792.0</ele><time>2026-04-29T14:10:36.999Z</time></trkpt><trkpt lat="42.546995317305786" lon="13.466087932956473"><ele>792.0</ele><time>2026-04-29T14:10:37.999Z</time></trkpt><trkpt lat="42.5472084749368" lon="13.466210065157249"><ele>789.0</ele><time>2026-04-29T14:10:38.999Z</time></trkpt><trkpt lat="42.54742918182658" lon="13.466395408791024"><ele>786.0</ele><time>2026-04-29T14:10:39.999Z</time></trkpt><trkpt lat="42.547651173624416" lon="13.466643386584451"><ele>786.0</ele><time>2026-04-29T14:10:40.999Z</time></trkpt><trkpt lat="42.54783858328136" lon="13.466824034286015"><ele>786.0</ele><time>2026-04-29T14:10:41.999Z</time></trkpt><trkpt lat="42.54801958178491" lon="13.467024155824035"><ele>787.0</ele><time>2026-04-29T14:10:42.999Z</time></trkpt><trkpt lat="42.548213592199566" lon="13.467179911194972"><ele>788.0</ele><time>2026-04-29T14:10:43.999Z</time></trkpt><trkpt lat="42.54840748002025" lon="13.467311011815365"><ele>789.0</ele><time>2026-04-29T14:10:44.999Z</time></trkpt><trkpt lat="42.54860083932652" lon="13.467430399384881"><ele>782.0</ele><time>2026-04-29T14:10:45.999Z</time></trkpt><trkpt lat="42.54880888867428" lon="13.467514014643188"><ele>775.0</ele><time>2026-04-29T14:10:46.999Z</time></trkpt><trkpt lat="42.5489994179673" lon="13.467605123982153"><ele>768.0</ele><time>2026-04-29T14:10:47.999Z</time></trkpt><trkpt lat="42.54918041063037" lon="13.467633472110716"><ele>768.0</ele><time>2026-04-29T14:10:48.999Z</time></trkpt><trkpt lat="42.54936666859267" lon="13.467724096330002"><ele>768.0</ele><time>2026-04-29T14:10:49.999Z</time></trkpt><trkpt lat="42.54955829161394" lon="13.467876961616744"><ele>768.0</ele><time>2026-04-29T14:10:50.999Z</time></trkpt><trkpt lat="42.549754568981385" lon="13.468060480807871"><ele>765.6666666666666</ele><time>2026-04-29T14:10:51.999Z</time></trkpt><trkpt lat="42.549921728729935" lon="13.468222578080304"><ele>763.3333333333333</ele><time>2026-04-29T14:10:52.999Z</time></trkpt><trkpt lat="42.55005678981144" lon="13.468394199918235"><ele>761.0</ele><time>2026-04-29T14:10:53.999Z</time></trkpt><trkpt lat="42.550188166261115" lon="13.46854536976344"><ele>761.0</ele><time>2026-04-29T14:10:54.999Z</time></trkpt><trkpt lat="42.55026593930638" lon="13.468692024569298"><ele>761.0</ele><time>2026-04-29T14:10:55.999Z</time></trkpt><trkpt lat="42.550370186299624" lon="13.468854798234645"><ele>761.0</ele><time>2026-04-29T14:10:56.999Z</time></trkpt><trkpt lat="42.550475718758" lon="13.468992840505996"><ele>761.0</ele><time>2026-04-29T14:10:57.999Z</time></trkpt><trkpt lat="42.55055876310429" lon="13.469125839558332"><ele>762.1999999999999</ele><time>2026-04-29T14:10:58.999Z</time></trkpt><trkpt lat="42.550644104837716" lon="13.469238905980351"><ele>763.4</ele><time>2026-04-29T14:10:59.999Z</time></trkpt><trkpt lat="42.55071341547181" lon="13.469339108594511"><ele>764.6</ele><time>2026-04-29T14:11:00.999Z</time></trkpt><trkpt lat="42.550770398883124" lon="13.469422822665415"><ele>765.8</ele><time>2026-04-29T14:11:01.999Z</time></trkpt><trkpt lat="42.550839087683386" lon="13.469556923363756"><ele>767.0</ele><time>2026-04-29T14:11:03.999Z</time></trkpt><trkpt lat="42.55087346545409" lon="13.469631136941874"><ele>767.0</ele><time>2026-04-29T14:11:04.999Z</time></trkpt><trkpt lat="42.55090801862045" lon="13.469718465129862"><ele>767.0</ele><time>2026-04-29T14:11:05.999Z</time></trkpt><trkpt lat="42.55096910091257" lon="13.469851545605334"><ele>767.0</ele><time>2026-04-29T14:11:07.999Z</time></trkpt><trkpt lat="42.55102718159548" lon="13.469981114372768"><ele>767.0</ele><time>2026-04-29T14:11:09.999Z</time></trkpt><trkpt lat="42.55108125388271" lon="13.470097420675302"><ele>767.0</ele><time>2026-04-29T14:11:11.999Z</time></trkpt><trkpt lat="42.55114305077167" lon="13.470238876099378"><ele>767.0</ele><time>2026-04-29T14:11:13.999Z</time></trkpt><trkpt lat="42.55117618471867" lon="13.470319680183303"><ele>767.0</ele><time>2026-04-29T14:11:14.999Z</time></trkpt><trkpt lat="42.55121117538797" lon="13.470401982508978"><ele>767.0</ele><time>2026-04-29T14:11:16Z</time></trkpt><trkpt lat="42.551245042158016" lon="13.47048013803658"><ele>767.0</ele><time>2026-04-29T14:11:17Z</time></trkpt><trkpt lat="42.55127909406816" lon="13.470572443735751"><ele>767.0</ele><time>2026-04-29T14:11:18Z</time></trkpt><trkpt lat="42.55084153908204" lon="13.482198194075801"><ele>734.5</ele><time>2026-04-29T14:12:18.999Z</time></trkpt><trkpt lat="42.55069697918018" lon="13.482433979766808"><ele>702.0</ele><time>2026-04-29T14:12:19.999Z</time></trkpt><trkpt lat="42.55054098976534" lon="13.482671056638909"><ele>702.0</ele><time>2026-04-29T14:12:20.999Z</time></trkpt><trkpt lat="42.55040583608562" lon="13.48290809259284"><ele>702.0</ele><time>2026-04-29T14:12:21.999Z</time></trkpt><trkpt lat="42.550277237239946" lon="13.483097179960435"><ele>702.0</ele><time>2026-04-29T14:12:22.999Z</time></trkpt><trkpt lat="42.55014886222847" lon="13.483292896844905"><ele>706.3333333333334</ele><time>2026-04-29T14:12:23.999Z</time></trkpt><trkpt lat="42.550028762272895" lon="13.48347680418327"><ele>710.6666666666667</ele><time>2026-04-29T14:12:24.999Z</time></trkpt><trkpt lat="42.54991703144722" lon="13.483583870348605"><ele>715.0</ele><time>2026-04-29T14:12:25.999Z</time></trkpt><trkpt lat="42.54979818218454" lon="13.48368019888392"><ele>715.0</ele><time>2026-04-29T14:12:26.999Z</time></trkpt><trkpt lat="42.549671495969996" lon="13.483706907999212"><ele>715.0</ele><time>2026-04-29T14:12:27.999Z</time></trkpt><trkpt lat="42.54951279223137" lon="13.483701989506706"><ele>715.0</ele><time>2026-04-29T14:12:28.999Z</time></trkpt><trkpt lat="42.549319705652366" lon="13.48367218511874"><ele>719.0</ele><time>2026-04-29T14:12:29.999Z</time></trkpt><trkpt lat="42.54914191570951" lon="13.483615538182"><ele>723.0</ele><time>2026-04-29T14:12:30.999Z</time></trkpt><trkpt lat="42.54898748228118" lon="13.48353629136696"><ele>727.0</ele><time>2026-04-29T14:12:31.999Z</time></trkpt><trkpt lat="42.5488353270956" lon="13.483431250875139"><ele>718.6666666666667</ele><time>2026-04-29T14:12:32.999Z</time></trkpt><trkpt lat="42.548703951904244" lon="13.483341844394154"><ele>710.3333333333334</ele><time>2026-04-29T14:12:33.999Z</time></trkpt><trkpt lat="42.5485458942625" lon="13.483261308822737"><ele>702.0</ele><time>2026-04-29T14:12:34.999Z</time></trkpt><trkpt lat="42.5484050290318" lon="13.483211970155804"><ele>702.0</ele><time>2026-04-29T14:12:35.999Z</time></trkpt><trkpt lat="42.54827094433265" lon="13.483178422864485"><ele>702.0</ele><time>2026-04-29T14:12:36.999Z</time></trkpt><trkpt lat="42.548155338201525" lon="13.483164699639692"><ele>702.0</ele><time>2026-04-29T14:12:37.999Z</time></trkpt><trkpt lat="42.548066780763534" lon="13.483137210596684"><ele>702.0</ele><time>2026-04-29T14:12:38.999Z</time></trkpt><trkpt lat="42.54799676166961" lon="13.483205525042303"><ele>702.0</ele><time>2026-04-29T14:12:39.999Z</time></trkpt><trkpt lat="42.547934087219815" lon="13.483313591165592"><ele>702.0</ele><time>2026-04-29T14:12:40.999Z</time></trkpt><trkpt lat="42.54788731416685" lon="13.483439952187927"><ele>702.0</ele><time>2026-04-29T14:12:41.999Z</time></trkpt><trkpt lat="42.547831038052465" lon="13.4835470578763"><ele>702.0</ele><time>2026-04-29T14:12:42.999Z</time></trkpt><trkpt lat="42.54780812992868" lon="13.48365379954232"><ele>702.0</ele><time>2026-04-29T14:12:43.999Z</time></trkpt><trkpt lat="42.54784314310329" lon="13.483775647783975"><ele>702.0</ele><time>2026-04-29T14:12:44.999Z</time></trkpt><trkpt lat="42.54790731907018" lon="13.483895403396595"><ele>701.0</ele><time>2026-04-29T14:12:45.999Z</time></trkpt><trkpt lat="42.54802553985016" lon="13.484003721672032"><ele>700.0</ele><time>2026-04-29T14:12:46.999Z</time></trkpt><trkpt lat="42.5481919800089" lon="13.484131456200794"><ele>699.0</ele><time>2026-04-29T14:12:47.999Z</time></trkpt><trkpt lat="42.54833973949679" lon="13.484212771799434"><ele>699.0</ele><time>2026-04-29T14:12:48.999Z</time></trkpt><trkpt lat="42.54848638440547" lon="13.48433385192521"><ele>699.0</ele><time>2026-04-29T14:12:49.999Z</time></trkpt><trkpt lat="42.54861165564371" lon="13.48448823957657"><ele>699.0</ele><time>2026-04-29T14:12:50.999Z</time></trkpt><trkpt lat="42.54870547090792" lon="13.48461623868165"><ele>693.0</ele><time>2026-04-29T14:12:51.999Z</time></trkpt><trkpt lat="42.548792044030805" lon="13.484745583713915"><ele>687.0</ele><time>2026-04-29T14:12:52.999Z</time></trkpt><trkpt lat="42.548863664730064" lon="13.484933760159317"><ele>681.0</ele><time>2026-04-29T14:12:53.999Z</time></trkpt><trkpt lat="42.54893547552047" lon="13.485145952170965"><ele>681.0</ele><time>2026-04-29T14:12:54.999Z</time></trkpt><trkpt lat="42.54901853915959" lon="13.485345390823774"><ele>681.0</ele><time>2026-04-29T14:12:55.999Z</time></trkpt><trkpt lat="42.5490874772398" lon="13.485533529172127"><ele>681.0</ele><time>2026-04-29T14:12:56.999Z</time></trkpt><trkpt lat="42.549144551152445" lon="13.485730828956562"><ele>687.6666666666666</ele><time>2026-04-29T14:12:57.999Z</time></trkpt><trkpt lat="42.5491702073439" lon="13.485955453274949"><ele>694.3333333333333</ele><time>2026-04-29T14:12:58.999Z</time></trkpt><trkpt lat="42.54918856375123" lon="13.486200793877492"><ele>701.0</ele><time>2026-04-29T14:12:59.999Z</time></trkpt><trkpt lat="42.549249945103284" lon="13.486452649181668"><ele>707.3333333333333</ele><time>2026-04-29T14:13:00.999Z</time></trkpt><trkpt lat="42.5493176473429" lon="13.48670290587937"><ele>713.6666666666666</ele><time>2026-04-29T14:13:01.999Z</time></trkpt><trkpt lat="42.54938525394626" lon="13.486924010889165"><ele>720.0</ele><time>2026-04-29T14:13:02.999Z</time></trkpt><trkpt lat="42.54946918893868" lon="13.48712717507347"><ele>708.0</ele><time>2026-04-29T14:13:03.999Z</time></trkpt><trkpt lat="42.54955565465659" lon="13.487317670619165"><ele>696.0</ele><time>2026-04-29T14:13:04.999Z</time></trkpt><trkpt lat="42.5496296934886" lon="13.487503331452453"><ele>684.0</ele><time>2026-04-29T14:13:05.999Z</time></trkpt><trkpt lat="42.54969508300133" lon="13.487693333393134"><ele>684.0</ele><time>2026-04-29T14:13:06.999Z</time></trkpt><trkpt lat="42.54976523217404" lon="13.487900465160463"><ele>684.0</ele><time>2026-04-29T14:13:07.999Z</time></trkpt><trkpt lat="42.54982256324452" lon="13.48809110154119"><ele>684.0</ele><time>2026-04-29T14:13:08.999Z</time></trkpt><trkpt lat="42.5498548986475" lon="13.488279441444314"><ele>685.3333333333334</ele><time>2026-04-29T14:13:09.999Z</time></trkpt><trkpt lat="42.54986466354267" lon="13.488473567132152"><ele>686.6666666666667</ele><time>2026-04-29T14:13:10.999Z</time></trkpt><trkpt lat="42.54983218620589" lon="13.48868835326177"><ele>688.0</ele><time>2026-04-29T14:13:11.999Z</time></trkpt><trkpt lat="42.549775006411" lon="13.488918618937738"><ele>684.0</ele><time>2026-04-29T14:13:12.999Z</time></trkpt><trkpt lat="42.54966999564893" lon="13.489161402518256"><ele>680.0</ele><time>2026-04-29T14:13:13.999Z</time></trkpt><trkpt lat="42.54956158082092" lon="13.48938341876989"><ele>676.0</ele><time>2026-04-29T14:13:14.999Z</time></trkpt><trkpt lat="42.54947001935014" lon="13.489606983296088"><ele>687.3333333333334</ele><time>2026-04-29T14:13:15.999Z</time></trkpt><trkpt lat="42.54939544504889" lon="13.489819818153745"><ele>698.6666666666666</ele><time>2026-04-29T14:13:16.999Z</time></trkpt><trkpt lat="42.54933415641665" lon="13.490030120681268"><ele>710.0</ele><time>2026-04-29T14:13:17.999Z</time></trkpt><trkpt lat="42.54500063787734" lon="13.501194454248376"><ele>691.3333333333333</ele><time>2026-04-29T14:14:18.999Z</time></trkpt><trkpt lat="42.54510728785674" lon="13.501423113550395"><ele>672.6666666666666</ele><time>2026-04-29T14:14:19.999Z</time></trkpt><trkpt lat="42.54522476502247" lon="13.501635283651538"><ele>654.0</ele><time>2026-04-29T14:14:20.999Z</time></trkpt><trkpt lat="42.545336136395264" lon="13.501841641301443"><ele>649.6666666666666</ele><time>2026-04-29T14:14:21.999Z</time></trkpt><trkpt lat="42.545488224877" lon="13.502028514509064"><ele>645.3333333333333</ele><time>2026-04-29T14:14:22.999Z</time></trkpt><trkpt lat="42.54565389659077" lon="13.50219205720346"><ele>641.0</ele><time>2026-04-29T14:14:23.999Z</time></trkpt><trkpt lat="42.545800616169" lon="13.50236634848833"><ele>641.0</ele><time>2026-04-29T14:14:24.999Z</time></trkpt><trkpt lat="42.54593287366026" lon="13.502558941084205"><ele>641.0</ele><time>2026-04-29T14:14:25.999Z</time></trkpt><trkpt lat="42.54604413524612" lon="13.502755320275378"><ele>641.0</ele><time>2026-04-29T14:14:26.999Z</time></trkpt><trkpt lat="42.546149224760434" lon="13.50294352494703"><ele>633.3333333333333</ele><time>2026-04-29T14:14:27.999Z</time></trkpt><trkpt lat="42.546250204344" lon="13.503166340482302"><ele>625.6666666666666</ele><time>2026-04-29T14:14:28.999Z</time></trkpt><trkpt lat="42.54633722665243" lon="13.503434578032385"><ele>618.0</ele><time>2026-04-29T14:14:29.999Z</time></trkpt><trkpt lat="42.54641812532248" lon="13.503723263244543"><ele>623.0</ele><time>2026-04-29T14:14:30.999Z</time></trkpt><trkpt lat="42.54648699965864" lon="13.504026648143387"><ele>628.0</ele><time>2026-04-29T14:14:31.999Z</time></trkpt><trkpt lat="42.54655138243891" lon="13.504364831400515"><ele>631.5</ele><time>2026-04-29T14:14:32.999Z</time></trkpt><trkpt lat="42.54660944804305" lon="13.504682919414062"><ele>635.0</ele><time>2026-04-29T14:14:33.999Z</time></trkpt><trkpt lat="42.54666331941193" lon="13.504995561353958"><ele>635.0</ele><time>2026-04-29T14:14:34.999Z</time></trkpt><trkpt lat="42.54671402152344" lon="13.505325018155089"><ele>635.0</ele><time>2026-04-29T14:14:35.999Z</time></trkpt><trkpt lat="42.546744744809125" lon="13.505699493383378"><ele>635.0</ele><time>2026-04-29T14:14:36.999Z</time></trkpt><trkpt lat="42.546772629873686" lon="13.506058735569262"><ele>635.0</ele><time>2026-04-29T14:14:37.999Z</time></trkpt><trkpt lat="42.54681687359639" lon="13.506394301696346"><ele>635.0</ele><time>2026-04-29T14:14:38.999Z</time></trkpt><trkpt lat="42.54684792156349" lon="13.506716981647708"><ele>635.0</ele><time>2026-04-29T14:14:39.999Z</time></trkpt><trkpt lat="42.54687007478083" lon="13.507020989752935"><ele>640.5</ele><time>2026-04-29T14:14:40.999Z</time></trkpt><trkpt lat="42.54688661056729" lon="13.507324525513402"><ele>646.0</ele><time>2026-04-29T14:14:41.999Z</time></trkpt><trkpt lat="42.54689652116453" lon="13.507650072511804"><ele>643.0</ele><time>2026-04-29T14:14:42.999Z</time></trkpt><trkpt lat="42.5469046032868" lon="13.507971295148053"><ele>640.0</ele><time>2026-04-29T14:14:43.999Z</time></trkpt><trkpt lat="42.54691138096174" lon="13.508268694133717"><ele>640.0</ele><time>2026-04-29T14:14:44.999Z</time></trkpt><trkpt lat="42.5469166475407" lon="13.508549656019007"><ele>640.0</ele><time>2026-04-29T14:14:45.999Z</time></trkpt><trkpt lat="42.54691682693635" lon="13.508823101336812"><ele>640.0</ele><time>2026-04-29T14:14:46.999Z</time></trkpt><trkpt lat="42.54690488316559" lon="13.509123265418788"><ele>638.0</ele><time>2026-04-29T14:14:47.999Z</time></trkpt><trkpt lat="42.54686691631357" lon="13.50939148185553"><ele>636.0</ele><time>2026-04-29T14:14:48.999Z</time></trkpt><trkpt lat="42.546822243199514" lon="13.509612058476023"><ele>634.0</ele><time>2026-04-29T14:14:49.999Z</time></trkpt><trkpt lat="42.5467731887497" lon="13.509801625965647"><ele>628.6666666666667</ele><time>2026-04-29T14:14:50.999Z</time></trkpt><trkpt lat="42.54671467391934" lon="13.509972871388849"><ele>623.3333333333334</ele><time>2026-04-29T14:14:51.999Z</time></trkpt><trkpt lat="42.546613708461514" lon="13.51010476295533"><ele>618.0</ele><time>2026-04-29T14:14:52.999Z</time></trkpt><trkpt lat="42.54646595619818" lon="13.510227250618017"><ele>618.0</ele><time>2026-04-29T14:14:53.999Z</time></trkpt><trkpt lat="42.54626346060529" lon="13.510383127164406"><ele>618.0</ele><time>2026-04-29T14:14:54.999Z</time></trkpt><trkpt lat="42.546064472191425" lon="13.510494282723606"><ele>618.0</ele><time>2026-04-29T14:14:55.999Z</time></trkpt><trkpt lat="42.54590862853565" lon="13.510612133119919"><ele>618.3333333333334</ele><time>2026-04-29T14:14:56.999Z</time></trkpt><trkpt lat="42.54577365280814" lon="13.51073493041241"><ele>618.6666666666667</ele><time>2026-04-29T14:14:57.999Z</time></trkpt><trkpt lat="42.545647184041584" lon="13.510845667974253"><ele>619.0</ele><time>2026-04-29T14:14:58.999Z</time></trkpt><trkpt lat="42.545540515049204" lon="13.51099635668003"><ele>619.0</ele><time>2026-04-29T14:14:59.999Z</time></trkpt><trkpt lat="42.545443432490565" lon="13.51119924367556"><ele>619.0</ele><time>2026-04-29T14:15:00.999Z</time></trkpt><trkpt lat="42.545366988654735" lon="13.51140403590518"><ele>619.0</ele><time>2026-04-29T14:15:01.999Z</time></trkpt><trkpt lat="42.545292864186884" lon="13.511605817602936"><ele>618.6666666666667</ele><time>2026-04-29T14:15:02.999Z</time></trkpt><trkpt lat="42.54521232707716" lon="13.511795795703954"><ele>618.3333333333334</ele><time>2026-04-29T14:15:03.999Z</time></trkpt><trkpt lat="42.54513945398877" lon="13.511983160565258"><ele>618.0</ele><time>2026-04-29T14:15:04.999Z</time></trkpt><trkpt lat="42.5450715058323" lon="13.51216349539988"><ele>618.0</ele><time>2026-04-29T14:15:05.999Z</time></trkpt><trkpt lat="42.545020484900064" lon="13.512332379050198"><ele>618.0</ele><time>2026-04-29T14:15:06.999Z</time></trkpt><trkpt lat="42.544990643568255" lon="13.51251716339202"><ele>618.0</ele><time>2026-04-29T14:15:07.999Z</time></trkpt><trkpt lat="42.544988985712806" lon="13.512684443439728"><ele>618.0</ele><time>2026-04-29T14:15:08.999Z</time></trkpt><trkpt lat="42.5450303544157" lon="13.512854092268283"><ele>621.3333333333334</ele><time>2026-04-29T14:15:09.999Z</time></trkpt><trkpt lat="42.54510359660239" lon="13.513045080192919"><ele>624.6666666666667</ele><time>2026-04-29T14:15:10.999Z</time></trkpt><trkpt lat="42.545177614718924" lon="13.513245344768041"><ele>628.0</ele><time>2026-04-29T14:15:11.999Z</time></trkpt><trkpt lat="42.545229698582084" lon="13.513444438844607"><ele>628.0</ele><time>2026-04-29T14:15:12.999Z</time></trkpt><trkpt lat="42.54527261129963" lon="13.513641806471721"><ele>628.0</ele><time>2026-04-29T14:15:13.999Z</time></trkpt><trkpt lat="42.54531235271991" lon="13.513834668376278"><ele>628.0</ele><time>2026-04-29T14:15:14.999Z</time></trkpt><trkpt lat="42.54530147591407" lon="13.514063498399864"><ele>627.3333333333334</ele><time>2026-04-29T14:15:15.999Z</time></trkpt><trkpt lat="42.54527900811935" lon="13.514288197746886"><ele>626.6666666666666</ele><time>2026-04-29T14:15:16.999Z</time></trkpt><trkpt lat="42.545239592297875" lon="13.514510641798415"><ele>626.0</ele><time>2026-04-29T14:15:17.999Z</time></trkpt><trkpt lat="42.54731324381496" lon="13.523708323455176"><ele>605.6666666666666</ele><time>2026-04-29T14:16:18.999Z</time></trkpt><trkpt lat="42.54750931750418" lon="13.523712785539791"><ele>585.3333333333334</ele><time>2026-04-29T14:16:19.999Z</time></trkpt><trkpt lat="42.54770236547278" lon="13.52367406473301"><ele>565.0</ele><time>2026-04-29T14:16:20.999Z</time></trkpt><trkpt lat="42.547865015938406" lon="13.523619424851475"><ele>561.75</ele><time>2026-04-29T14:16:21.999Z</time></trkpt><trkpt lat="42.547992413169354" lon="13.523551832125136"><ele>558.5</ele><time>2026-04-29T14:16:22.999Z</time></trkpt><trkpt lat="42.54812047986721" lon="13.52351514786575"><ele>555.25</ele><time>2026-04-29T14:16:23.999Z</time></trkpt><trkpt lat="42.548251207328654" lon="13.523535477324506"><ele>552.0</ele><time>2026-04-29T14:16:24.999Z</time></trkpt><trkpt lat="42.54838996345034" lon="13.523625850545859"><ele>552.75</ele><time>2026-04-29T14:16:25.999Z</time></trkpt><trkpt lat="42.548514641899004" lon="13.52373916624838"><ele>553.5</ele><time>2026-04-29T14:16:26.999Z</time></trkpt><trkpt lat="42.54863738453262" lon="13.523812402007303"><ele>554.25</ele><time>2026-04-29T14:16:27.999Z</time></trkpt><trkpt lat="42.548769628981425" lon="13.523810962494343"><ele>555.0</ele><time>2026-04-29T14:16:28.999Z</time></trkpt><trkpt lat="42.54889163014706" lon="13.523715986475015"><ele>555.0</ele><time>2026-04-29T14:16:29.999Z</time></trkpt><trkpt lat="42.54901089020061" lon="13.523568438180702"><ele>555.0</ele><time>2026-04-29T14:16:30.999Z</time></trkpt><trkpt lat="42.54915187529172" lon="13.523488682773872"><ele>555.0</ele><time>2026-04-29T14:16:31.999Z</time></trkpt><trkpt lat="42.549327951468356" lon="13.523442113767672"><ele>555.0</ele><time>2026-04-29T14:16:32.999Z</time></trkpt><trkpt lat="42.549521074924414" lon="13.52342326127878"><ele>555.0</ele><time>2026-04-29T14:16:33.999Z</time></trkpt><trkpt lat="42.54968620375149" lon="13.5234037305231"><ele>555.0</ele><time>2026-04-29T14:16:34.999Z</time></trkpt><trkpt lat="42.54982131294591" lon="13.523381463998536"><ele>556.0</ele><time>2026-04-29T14:16:35.999Z</time></trkpt><trkpt lat="42.549974822486654" lon="13.52334750046934"><ele>557.0</ele><time>2026-04-29T14:16:36.999Z</time></trkpt><trkpt lat="42.550150813371005" lon="13.523247463525449"><ele>558.0</ele><time>2026-04-29T14:16:37.999Z</time></trkpt><trkpt lat="42.550336232588975" lon="13.52309837082795"><ele>556.0</ele><time>2026-04-29T14:16:38.999Z</time></trkpt><trkpt lat="42.550482692731336" lon="13.522973583646948"><ele>554.0</ele><time>2026-04-29T14:16:39.999Z</time></trkpt><trkpt lat="42.55059956856137" lon="13.522836682156264"><ele>552.0</ele><time>2026-04-29T14:16:40.999Z</time></trkpt><trkpt lat="42.55072183078638" lon="13.522732595298075"><ele>552.0</ele><time>2026-04-29T14:16:41.999Z</time></trkpt><trkpt lat="42.550847964628794" lon="13.522642150528101"><ele>552.0</ele><time>2026-04-29T14:16:42.999Z</time></trkpt><trkpt lat="42.55095579623479" lon="13.522451390797702"><ele>552.0</ele><time>2026-04-29T14:16:43.999Z</time></trkpt><trkpt lat="42.55106974725209" lon="13.522259831607089"><ele>552.0</ele><time>2026-04-29T14:16:44.999Z</time></trkpt><trkpt lat="42.5511931889545" lon="13.52210343919372"><ele>552.0</ele><time>2026-04-29T14:16:45.999Z</time></trkpt><trkpt lat="42.551300362110894" lon="13.521927563533959"><ele>552.0</ele><time>2026-04-29T14:16:46.999Z</time></trkpt><trkpt lat="42.55137977956286" lon="13.521753732341878"><ele>554.25</ele><time>2026-04-29T14:16:47.999Z</time></trkpt><trkpt lat="42.55143729389272" lon="13.521579258496692"><ele>556.5</ele><time>2026-04-29T14:16:48.999Z</time></trkpt><trkpt lat="42.551500409390414" lon="13.52140961296176"><ele>558.75</ele><time>2026-04-29T14:16:49.999Z</time></trkpt><trkpt lat="42.55159702548524" lon="13.521280103642242"><ele>561.0</ele><time>2026-04-29T14:16:50.999Z</time></trkpt><trkpt lat="42.5517155214346" lon="13.521208100012469"><ele>553.0</ele><time>2026-04-29T14:16:51.999Z</time></trkpt><trkpt lat="42.55189363564774" lon="13.521155688796666"><ele>545.0</ele><time>2026-04-29T14:16:52.999Z</time></trkpt><trkpt lat="42.552096713748234" lon="13.521129034115274"><ele>537.0</ele><time>2026-04-29T14:16:53.999Z</time></trkpt><trkpt lat="42.55226763288252" lon="13.521114485862133"><ele>537.0</ele><time>2026-04-29T14:16:54.999Z</time></trkpt><trkpt lat="42.55240906805434" lon="13.52108052725639"><ele>537.0</ele><time>2026-04-29T14:16:55.999Z</time></trkpt><trkpt lat="42.55254317276901" lon="13.521061100054807"><ele>537.0</ele><time>2026-04-29T14:16:56.999Z</time></trkpt><trkpt lat="42.55267598231185" lon="13.521078442290568"><ele>537.0</ele><time>2026-04-29T14:16:57.999Z</time></trkpt><trkpt lat="42.55280364792297" lon="13.521137846829"><ele>534.2</ele><time>2026-04-29T14:16:58.999Z</time></trkpt><trkpt lat="42.55288302788721" lon="13.521223900156931"><ele>531.4000000000001</ele><time>2026-04-29T14:16:59.999Z</time></trkpt><trkpt lat="42.55291102412522" lon="13.521330635537634"><ele>528.5999999999999</ele><time>2026-04-29T14:17:00.999Z</time></trkpt><trkpt lat="42.55285303772364" lon="13.521459157586545"><ele>525.8</ele><time>2026-04-29T14:17:01.999Z</time></trkpt><trkpt lat="42.55283590124914" lon="13.521628637811665"><ele>523.0</ele><time>2026-04-29T14:17:02.999Z</time></trkpt><trkpt lat="42.552792777077656" lon="13.521829663089292"><ele>536.0</ele><time>2026-04-29T14:17:03.999Z</time></trkpt><trkpt lat="42.552762024424545" lon="13.522068412449372"><ele>549.0</ele><time>2026-04-29T14:17:04.999Z</time></trkpt><trkpt lat="42.55274843651602" lon="13.522278844397041"><ele>562.0</ele><time>2026-04-29T14:17:05.999Z</time></trkpt><trkpt lat="42.55274562997819" lon="13.52246116278012"><ele>562.0</ele><time>2026-04-29T14:17:06.999Z</time></trkpt><trkpt lat="42.55274745585864" lon="13.522624490638972"><ele>562.0</ele><time>2026-04-29T14:17:07.999Z</time></trkpt><trkpt lat="42.5527701853678" lon="13.522782370724538"><ele>562.0</ele><time>2026-04-29T14:17:08.999Z</time></trkpt><trkpt lat="42.552847169692576" lon="13.522932520390507"><ele>562.0</ele><time>2026-04-29T14:17:09.999Z</time></trkpt><trkpt lat="42.5529613481836" lon="13.523037624543674"><ele>555.6666666666667</ele><time>2026-04-29T14:17:10.999Z</time></trkpt><trkpt lat="42.55311660181364" lon="13.523112843155793"><ele>549.3333333333334</ele><time>2026-04-29T14:17:11.999Z</time></trkpt><trkpt lat="42.55329863963133" lon="13.52315945424606"><ele>543.0</ele><time>2026-04-29T14:17:12.999Z</time></trkpt><trkpt lat="42.55348035984812" lon="13.523227096139681"><ele>543.0</ele><time>2026-04-29T14:17:13.999Z</time></trkpt><trkpt lat="42.553649932843626" lon="13.523320396954697"><ele>543.0</ele><time>2026-04-29T14:17:14.999Z</time></trkpt><trkpt lat="42.55380052567576" lon="13.523412146470022"><ele>543.0</ele><time>2026-04-29T14:17:15.999Z</time></trkpt><trkpt lat="42.55394061996038" lon="13.5234935995268"><ele>538.0</ele><time>2026-04-29T14:17:16.999Z</time></trkpt><trkpt lat="42.554113120975074" lon="13.52349278529405"><ele>533.0</ele><time>2026-04-29T14:17:17.999Z</time></trkpt><trkpt lat="42.56243750342652" lon="13.530277278167617"><ele>525.0</ele><time>2026-04-29T14:18:18.999Z</time></trkpt><trkpt lat="42.56255949825357" lon="13.530410230813906"><ele>517.0</ele><time>2026-04-29T14:18:19.999Z</time></trkpt><trkpt lat="42.56267607060473" lon="13.530516163513733"><ele>509.0</ele><time>2026-04-29T14:18:20.999Z</time></trkpt><trkpt lat="42.56277076427072" lon="13.53061973448991"><ele>501.0</ele><time>2026-04-29T14:18:21.999Z</time></trkpt><trkpt lat="42.56283494858125" lon="13.530760974574148"><ele>500.25</ele><time>2026-04-29T14:18:22.999Z</time></trkpt><trkpt lat="42.562874189086635" lon="13.530946723734138"><ele>499.5</ele><time>2026-04-29T14:18:23.999Z</time></trkpt><trkpt lat="42.56288581191359" lon="13.531145526837857"><ele>498.75</ele><time>2026-04-29T14:18:24.999Z</time></trkpt><trkpt lat="42.56286163494642" lon="13.531346030326633"><ele>498.0</ele><time>2026-04-29T14:18:25.999Z</time></trkpt><trkpt lat="42.56280354390502" lon="13.531547827169927"><ele>498.0</ele><time>2026-04-29T14:18:26.999Z</time></trkpt><trkpt lat="42.56272399100152" lon="13.531758650879933"><ele>498.0</ele><time>2026-04-29T14:18:27.999Z</time></trkpt><trkpt lat="42.562656318960514" lon="13.53200717688176"><ele>498.0</ele><time>2026-04-29T14:18:28.999Z</time></trkpt><trkpt lat="42.56260706534235" lon="13.532324265800977"><ele>494.5</ele><time>2026-04-29T14:18:29.999Z</time></trkpt><trkpt lat="42.56255437777218" lon="13.532688009155455"><ele>491.0</ele><time>2026-04-29T14:18:30.999Z</time></trkpt><trkpt lat="42.56249596308648" lon="13.533078757581182"><ele>487.5</ele><time>2026-04-29T14:18:31.999Z</time></trkpt><trkpt lat="42.56244899118912" lon="13.533418893432799"><ele>484.0</ele><time>2026-04-29T14:18:32.999Z</time></trkpt><trkpt lat="42.56239408853051" lon="13.533746376967935"><ele>483.0</ele><time>2026-04-29T14:18:33.999Z</time></trkpt><trkpt lat="42.56234899885614" lon="13.534052800845075"><ele>482.0</ele><time>2026-04-29T14:18:34.999Z</time></trkpt><trkpt lat="42.56230794785745" lon="13.53433908467423"><ele>481.0</ele><time>2026-04-29T14:18:35.999Z</time></trkpt><trkpt lat="42.56226910696207" lon="13.534606338561938"><ele>479.0</ele><time>2026-04-29T14:18:36.999Z</time></trkpt><trkpt lat="42.562231527164656" lon="13.534853472203928"><ele>477.0</ele><time>2026-04-29T14:18:37.999Z</time></trkpt><trkpt lat="42.56220123790108" lon="13.535073640739403"><ele>475.0</ele><time>2026-04-29T14:18:38.999Z</time></trkpt><trkpt lat="42.56217377680597" lon="13.535278686320575"><ele>473.0</ele><time>2026-04-29T14:18:39.999Z</time></trkpt><trkpt lat="42.56214953740925" lon="13.535465901740006"><ele>471.0</ele><time>2026-04-29T14:18:40.999Z</time></trkpt><trkpt lat="42.562125881094154" lon="13.535636080028617"><ele>469.0</ele><time>2026-04-29T14:18:41.999Z</time></trkpt><trkpt lat="42.5620782592236" lon="13.535782228339825"><ele>467.0</ele><time>2026-04-29T14:18:42.999Z</time></trkpt><trkpt lat="42.561985094659704" lon="13.535905765230016"><ele>467.66666666666663</ele><time>2026-04-29T14:18:43.999Z</time></trkpt><trkpt lat="42.56184813274398" lon="13.53601373189271"><ele>468.33333333333337</ele><time>2026-04-29T14:18:44.999Z</time></trkpt><trkpt lat="42.56169659726277" lon="13.536145120575066"><ele>469.0</ele><time>2026-04-29T14:18:45.999Z</time></trkpt><trkpt lat="42.5615614587382" lon="13.536323420162706"><ele>469.0</ele><time>2026-04-29T14:18:46.999Z</time></trkpt><trkpt lat="42.56145762963344" lon="13.536560583668669"><ele>469.0</ele><time>2026-04-29T14:18:47.999Z</time></trkpt><trkpt lat="42.56135419220353" lon="13.536830515575625"><ele>469.0</ele><time>2026-04-29T14:18:48.999Z</time></trkpt><trkpt lat="42.56123389171677" lon="13.537043974169714"><ele>472.6666666666667</ele><time>2026-04-29T14:18:49.999Z</time></trkpt><trkpt lat="42.56111228443549" lon="13.5372409605214"><ele>476.33333333333337</ele><time>2026-04-29T14:18:50.999Z</time></trkpt><trkpt lat="42.56099968120723" lon="13.537428443112375"><ele>480.0</ele><time>2026-04-29T14:18:51.999Z</time></trkpt><trkpt lat="42.56090781609957" lon="13.53762262896035"><ele>480.0</ele><time>2026-04-29T14:18:52.999Z</time></trkpt><trkpt lat="42.56084149246214" lon="13.537844002745917"><ele>480.0</ele><time>2026-04-29T14:18:53.999Z</time></trkpt><trkpt lat="42.56080009162966" lon="13.53806436534631"><ele>480.0</ele><time>2026-04-29T14:18:54.999Z</time></trkpt><trkpt lat="42.56075526365939" lon="13.538255094372616"><ele>474.66666666666663</ele><time>2026-04-29T14:18:55.999Z</time></trkpt><trkpt lat="42.560687723353155" lon="13.538437426836238"><ele>469.3333333333333</ele><time>2026-04-29T14:18:56.999Z</time></trkpt><trkpt lat="42.56057470504721" lon="13.538610270061696"><ele>464.0</ele><time>2026-04-29T14:18:57.999Z</time></trkpt><trkpt lat="42.56042860394889" lon="13.538781086184239"><ele>468.0</ele><time>2026-04-29T14:18:58.999Z</time></trkpt><trkpt lat="42.560276828366526" lon="13.538944711883527"><ele>472.0</ele><time>2026-04-29T14:18:59.999Z</time></trkpt><trkpt lat="42.56015716232104" lon="13.539129084158951"><ele>476.0</ele><time>2026-04-29T14:19:00.999Z</time></trkpt><trkpt lat="42.560054104084855" lon="13.539295652704176"><ele>476.0</ele><time>2026-04-29T14:19:01.999Z</time></trkpt><trkpt lat="42.5599472403699" lon="13.539434187344991"><ele>476.0</ele><time>2026-04-29T14:19:02.999Z</time></trkpt><trkpt lat="42.559840112929585" lon="13.539553012901829"><ele>476.0</ele><time>2026-04-29T14:19:03.999Z</time></trkpt><trkpt lat="42.559716768090695" lon="13.539629604748637"><ele>476.0</ele><time>2026-04-29T14:19:04.999Z</time></trkpt><trkpt lat="42.55959805027262" lon="13.539665428676091"><ele>473.0</ele><time>2026-04-29T14:19:05.999Z</time></trkpt><trkpt lat="42.55946857526724" lon="13.539643262571245"><ele>470.0</ele><time>2026-04-29T14:19:06.999Z</time></trkpt><trkpt lat="42.559315655036514" lon="13.539667090938798"><ele>467.0</ele><time>2026-04-29T14:19:07.999Z</time></trkpt><trkpt lat="42.55916275846342" lon="13.539709188400803"><ele>464.0</ele><time>2026-04-29T14:19:08.999Z</time></trkpt><trkpt lat="42.559034102643906" lon="13.539761903614808"><ele>464.0</ele><time>2026-04-29T14:19:09.999Z</time></trkpt><trkpt lat="42.55893722145185" lon="13.539825392666453"><ele>464.0</ele><time>2026-04-29T14:19:10.999Z</time></trkpt><trkpt lat="42.55884899611592" lon="13.539963802989726"><ele>464.0</ele><time>2026-04-29T14:19:11.999Z</time></trkpt><trkpt lat="42.55877248462938" lon="13.540171780717408"><ele>464.0</ele><time>2026-04-29T14:19:12.999Z</time></trkpt><trkpt lat="42.55869383558118" lon="13.540432846545313"><ele>469.0</ele><time>2026-04-29T14:19:13.999Z</time></trkpt><trkpt lat="42.55863617818448" lon="13.540668701257864"><ele>474.0</ele><time>2026-04-29T14:19:14.999Z</time></trkpt><trkpt lat="42.55857841906535" lon="13.540868142084596"><ele>479.0</ele><time>2026-04-29T14:19:15.999Z</time></trkpt><trkpt lat="42.55856063358159" lon="13.541036103014413"><ele>466.0</ele><time>2026-04-29T14:19:16.999Z</time></trkpt><trkpt lat="42.55852652100254" lon="13.541217543958101"><ele>453.0</ele><time>2026-04-29T14:19:17.999Z</time></trkpt><trkpt lat="42.55436902438988" lon="13.551301635730145"><ele>453.0</ele><time>2026-04-29T14:20:18.999Z</time></trkpt><trkpt lat="42.55439966991228" lon="13.551521432246641"><ele>453.0</ele><time>2026-04-29T14:20:19.999Z</time></trkpt><trkpt lat="42.554461662799724" lon="13.551732859186599"><ele>453.0</ele><time>2026-04-29T14:20:20.999Z</time></trkpt><trkpt lat="42.55453901754404" lon="13.55190887970317"><ele>443.75</ele><time>2026-04-29T14:20:21.999Z</time></trkpt><trkpt lat="42.55462674863004" lon="13.55202896206436"><ele>434.5</ele><time>2026-04-29T14:20:22.999Z</time></trkpt><trkpt lat="42.55470283112951" lon="13.55213825203137"><ele>425.25</ele><time>2026-04-29T14:20:23.999Z</time></trkpt><trkpt lat="42.55474143094837" lon="13.552282404862027"><ele>416.0</ele><time>2026-04-29T14:20:24.999Z</time></trkpt><trkpt lat="42.55474331794761" lon="13.552460615143001"><ele>414.0</ele><time>2026-04-29T14:20:25.999Z</time></trkpt><trkpt lat="42.55472446429792" lon="13.552662606950776"><ele>412.0</ele><time>2026-04-29T14:20:26.999Z</time></trkpt><trkpt lat="42.55468537680404" lon="13.55286586646077"><ele>410.0</ele><time>2026-04-29T14:20:27.999Z</time></trkpt><trkpt lat="42.55463128475465" lon="13.553057362848682"><ele>410.0</ele><time>2026-04-29T14:20:28.999Z</time></trkpt><trkpt lat="42.55455452179421" lon="13.553248755245017"><ele>410.0</ele><time>2026-04-29T14:20:29.999Z</time></trkpt><trkpt lat="42.55443726281377" lon="13.553441379556292"><ele>410.0</ele><time>2026-04-29T14:20:30.999Z</time></trkpt><trkpt lat="42.55429655222218" lon="13.553632456548106"><ele>414.0</ele><time>2026-04-29T14:20:31.999Z</time></trkpt><trkpt lat="42.55417997130764" lon="13.553825561982833"><ele>418.0</ele><time>2026-04-29T14:20:32.999Z</time></trkpt><trkpt lat="42.55411622017957" lon="13.554024184034189"><ele>422.0</ele><time>2026-04-29T14:20:33.999Z</time></trkpt><trkpt lat="42.554064419638635" lon="13.554187808166654"><ele>422.0</ele><time>2026-04-29T14:20:34.999Z</time></trkpt><trkpt lat="42.55398154104562" lon="13.554316142107906"><ele>422.0</ele><time>2026-04-29T14:20:35.999Z</time></trkpt><trkpt lat="42.55382572237429" lon="13.554493716472928"><ele>422.0</ele><time>2026-04-29T14:20:36.999Z</time></trkpt><trkpt lat="42.55366294091593" lon="13.55469176361355"><ele>425.3333333333333</ele><time>2026-04-29T14:20:37.999Z</time></trkpt><trkpt lat="42.553526196328725" lon="13.554885944526196"><ele>428.66666666666663</ele><time>2026-04-29T14:20:38.999Z</time></trkpt><trkpt lat="42.55339014802765" lon="13.55505505218378"><ele>432.0</ele><time>2026-04-29T14:20:39.999Z</time></trkpt><trkpt lat="42.5532803552116" lon="13.555238166303571"><ele>425.0</ele><time>2026-04-29T14:20:40.999Z</time></trkpt><trkpt lat="42.55318908806883" lon="13.555427655516407"><ele>418.0</ele><time>2026-04-29T14:20:41.999Z</time></trkpt><trkpt lat="42.55313572216358" lon="13.55566527163266"><ele>411.0</ele><time>2026-04-29T14:20:42.999Z</time></trkpt><trkpt lat="42.553089158332575" lon="13.555908671577457"><ele>411.0</ele><time>2026-04-29T14:20:43.999Z</time></trkpt><trkpt lat="42.55303401713549" lon="13.556137476041563"><ele>411.0</ele><time>2026-04-29T14:20:44.999Z</time></trkpt><trkpt lat="42.55301594292771" lon="13.55635444273961"><ele>411.0</ele><time>2026-04-29T14:20:45.999Z</time></trkpt><trkpt lat="42.552973561105226" lon="13.556544025095011"><ele>409.20000000000005</ele><time>2026-04-29T14:20:46.999Z</time></trkpt><trkpt lat="42.55295224709402" lon="13.556714056195187"><ele>407.40000000000003</ele><time>2026-04-29T14:20:47.999Z</time></trkpt><trkpt lat="42.55294151903094" lon="13.556855424442766"><ele>405.6</ele><time>2026-04-29T14:20:48.999Z</time></trkpt><trkpt lat="42.55295409255116" lon="13.556979185144732"><ele>403.8</ele><time>2026-04-29T14:20:49.999Z</time></trkpt><trkpt lat="42.553015819697464" lon="13.557082871852487"><ele>402.0</ele><time>2026-04-29T14:20:50.999Z</time></trkpt><trkpt lat="42.55312304986973" lon="13.557163815303932"><ele>409.0</ele><time>2026-04-29T14:20:51.999Z</time></trkpt><trkpt lat="42.55327054088614" lon="13.557199275523402"><ele>416.0</ele><time>2026-04-29T14:20:52.999Z</time></trkpt><trkpt lat="42.55341850717414" lon="13.557257830396205"><ele>423.0</ele><time>2026-04-29T14:20:53.999Z</time></trkpt><trkpt lat="42.55353908236009" lon="13.557403951320065"><ele>423.0</ele><time>2026-04-29T14:20:54.999Z</time></trkpt><trkpt lat="42.55361889482182" lon="13.55759339655475"><ele>423.0</ele><time>2026-04-29T14:20:55.999Z</time></trkpt><trkpt lat="42.553736955916804" lon="13.557798241497178"><ele>423.0</ele><time>2026-04-29T14:20:56.999Z</time></trkpt><trkpt lat="42.553899262429795" lon="13.558003368068723"><ele>423.5</ele><time>2026-04-29T14:20:57.999Z</time></trkpt><trkpt lat="42.5540748797469" lon="13.558205326348503"><ele>424.0</ele><time>2026-04-29T14:20:58.999Z</time></trkpt><trkpt lat="42.55428382455039" lon="13.558370397413013"><ele>424.0</ele><time>2026-04-29T14:20:59.999Z</time></trkpt><trkpt lat="42.554447680886916" lon="13.558485782450933"><ele>424.0</ele><time>2026-04-29T14:21:00.999Z</time></trkpt><trkpt lat="42.55460560933111" lon="13.558569083283205"><ele>424.0</ele><time>2026-04-29T14:21:01.999Z</time></trkpt><trkpt lat="42.55476892760823" lon="13.558636539257531"><ele>422.6666666666667</ele><time>2026-04-29T14:21:02.999Z</time></trkpt><trkpt lat="42.554960857119696" lon="13.558650384234339"><ele>421.33333333333337</ele><time>2026-04-29T14:21:03.999Z</time></trkpt><trkpt lat="42.55517488953771" lon="13.558661184127676"><ele>420.0</ele><time>2026-04-29T14:21:04.999Z</time></trkpt><trkpt lat="42.555385109187036" lon="13.558731632935752"><ele>420.0</ele><time>2026-04-29T14:21:05.999Z</time></trkpt><trkpt lat="42.55555648788929" lon="13.558807140381939"><ele>420.0</ele><time>2026-04-29T14:21:06.999Z</time></trkpt><trkpt lat="42.55570437677624" lon="13.55887961079923"><ele>420.0</ele><time>2026-04-29T14:21:07.999Z</time></trkpt><trkpt lat="42.55583103374969" lon="13.558955741692454"><ele>420.0</ele><time>2026-04-29T14:21:08.999Z</time></trkpt><trkpt lat="42.555938175208766" lon="13.559054545308495"><ele>420.0</ele><time>2026-04-29T14:21:09.999Z</time></trkpt><trkpt lat="42.55603190865409" lon="13.55921815434788"><ele>420.0</ele><time>2026-04-29T14:21:10.999Z</time></trkpt><trkpt lat="42.55612870783131" lon="13.559442856767006"><ele>419.66666666666663</ele><time>2026-04-29T14:21:11.999Z</time></trkpt><trkpt lat="42.55626788336915" lon="13.559659446409848"><ele>419.3333333333333</ele><time>2026-04-29T14:21:12.999Z</time></trkpt><trkpt lat="42.55642464631272" lon="13.559859216709667"><ele>419.0</ele><time>2026-04-29T14:21:13.999Z</time></trkpt><trkpt lat="42.55657584120999" lon="13.560029275040257"><ele>419.0</ele><time>2026-04-29T14:21:14.999Z</time></trkpt><trkpt lat="42.55673121590148" lon="13.560173050825481"><ele>419.0</ele><time>2026-04-29T14:21:15.999Z</time></trkpt><trkpt lat="42.55688104142679" lon="13.560290003763143"><ele>419.0</ele><time>2026-04-29T14:21:16.999Z</time></trkpt><trkpt lat="42.557016365152066" lon="13.560383551904813"><ele>385.0</ele><time>2026-04-29T14:21:17.999Z</time></trkpt><trkpt lat="42.56395159189121" lon="13.570832547443635"><ele>385.0</ele><time>2026-04-29T14:22:19Z</time></trkpt><trkpt lat="42.56407470854826" lon="13.57100961560133"><ele>385.0</ele><time>2026-04-29T14:22:20Z</time></trkpt><trkpt lat="42.56420761680307" lon="13.5711478787605"><ele>385.0</ele><time>2026-04-29T14:22:21Z</time></trkpt><trkpt lat="42.56435452884928" lon="13.571271433207743"><ele>381.75</ele><time>2026-04-29T14:22:22Z</time></trkpt><trkpt lat="42.56448265824428" lon="13.571382031463264"><ele>378.5</ele><time>2026-04-29T14:22:23Z</time></trkpt><trkpt lat="42.5645890377352" lon="13.571486720027305"><ele>375.25</ele><time>2026-04-29T14:22:24Z</time></trkpt><trkpt lat="42.56467643093274" lon="13.571606164368095"><ele>372.0</ele><time>2026-04-29T14:22:25Z</time></trkpt><trkpt lat="42.56473231039855" lon="13.571753623815876"><ele>372.0</ele><time>2026-04-29T14:22:26Z</time></trkpt><trkpt lat="42.56474282172023" lon="13.571922449485966"><ele>372.0</ele><time>2026-04-29T14:22:27Z</time></trkpt><trkpt lat="42.56472104997117" lon="13.572111611803818"><ele>372.0</ele><time>2026-04-29T14:22:28Z</time></trkpt><trkpt lat="42.5647030097032" lon="13.572317490691313"><ele>372.0</ele><time>2026-04-29T14:22:29Z</time></trkpt><trkpt lat="42.564697386825884" lon="13.572539467127607"><ele>373.0</ele><time>2026-04-29T14:22:30Z</time></trkpt><trkpt lat="42.564700545840914" lon="13.572748268223766"><ele>374.0</ele><time>2026-04-29T14:22:31Z</time></trkpt><trkpt lat="42.564728456775235" lon="13.572979958612219"><ele>375.0</ele><time>2026-04-29T14:22:32Z</time></trkpt><trkpt lat="42.564799506791964" lon="13.573219650610506"><ele>384.0</ele><time>2026-04-29T14:22:33Z</time></trkpt><trkpt lat="42.564910329302194" lon="13.573452280804217"><ele>393.0</ele><time>2026-04-29T14:22:34Z</time></trkpt><trkpt lat="42.56507568357505" lon="13.573700048439132"><ele>385.0</ele><time>2026-04-29T14:22:35Z</time></trkpt><trkpt lat="42.565247097191865" lon="13.573934671235836"><ele>377.0</ele><time>2026-04-29T14:22:36Z</time></trkpt><trkpt lat="42.56539747924451" lon="13.574131590083292"><ele>377.0</ele><time>2026-04-29T14:22:37Z</time></trkpt><trkpt lat="42.56552190818173" lon="13.57430772957007"><ele>377.0</ele><time>2026-04-29T14:22:38Z</time></trkpt><trkpt lat="42.565649174145626" lon="13.574460456423871"><ele>377.0</ele><time>2026-04-29T14:22:39Z</time></trkpt><trkpt lat="42.565801234576114" lon="13.574586879628779"><ele>394.5</ele><time>2026-04-29T14:22:40Z</time></trkpt><trkpt lat="42.56600445437197" lon="13.57467199718108"><ele>412.0</ele><time>2026-04-29T14:22:41Z</time></trkpt><trkpt lat="42.566267943653926" lon="13.57471636828406"><ele>412.0</ele><time>2026-04-29T14:22:42Z</time></trkpt><trkpt lat="42.566509433141526" lon="13.574741297154938"><ele>412.0</ele><time>2026-04-29T14:22:42.999Z</time></trkpt><trkpt lat="42.56670963916185" lon="13.574804866437846"><ele>412.0</ele><time>2026-04-29T14:22:43.999Z</time></trkpt><trkpt lat="42.56689846728702" lon="13.574870564719363"><ele>404.0</ele><time>2026-04-29T14:22:44.999Z</time></trkpt><trkpt lat="42.56708798126084" lon="13.574931527284045"><ele>396.0</ele><time>2026-04-29T14:22:45.999Z</time></trkpt><trkpt lat="42.567285647081" lon="13.574959264393184"><ele>388.0</ele><time>2026-04-29T14:22:46.999Z</time></trkpt><trkpt lat="42.567485655162095" lon="13.574971506536077"><ele>388.0</ele><time>2026-04-29T14:22:47.999Z</time></trkpt><trkpt lat="42.56771249894254" lon="13.57492114657336"><ele>388.0</ele><time>2026-04-29T14:22:48.999Z</time></trkpt><trkpt lat="42.56794356946555" lon="13.57481602631762"><ele>388.0</ele><time>2026-04-29T14:22:49.999Z</time></trkpt><trkpt lat="42.56814899975379" lon="13.574696333066147"><ele>388.0</ele><time>2026-04-29T14:22:50.999Z</time></trkpt><trkpt lat="42.568355532545695" lon="13.574616123881125"><ele>388.0</ele><time>2026-04-29T14:22:51.999Z</time></trkpt><trkpt lat="42.56857007996463" lon="13.574567795461729"><ele>385.6666666666667</ele><time>2026-04-29T14:22:52.999Z</time></trkpt><trkpt lat="42.56878182490137" lon="13.57453830296376"><ele>383.33333333333337</ele><time>2026-04-29T14:22:53.999Z</time></trkpt><trkpt lat="42.568971049609914" lon="13.574500580850016"><ele>381.0</ele><time>2026-04-29T14:22:54.999Z</time></trkpt><trkpt lat="42.569166964660276" lon="13.574481249990054"><ele>376.3333333333333</ele><time>2026-04-29T14:22:55.999Z</time></trkpt><trkpt lat="42.569376876414516" lon="13.574492392478595"><ele>371.66666666666663</ele><time>2026-04-29T14:22:56.999Z</time></trkpt><trkpt lat="42.56956368656777" lon="13.57451873059709"><ele>367.0</ele><time>2026-04-29T14:22:57.999Z</time></trkpt><trkpt lat="42.569744141069684" lon="13.574550543919104"><ele>367.0</ele><time>2026-04-29T14:22:58.999Z</time></trkpt><trkpt lat="42.56992361272345" lon="13.574602466002652"><ele>367.0</ele><time>2026-04-29T14:22:59.999Z</time></trkpt><trkpt lat="42.57010845842866" lon="13.574707244895643"><ele>367.0</ele><time>2026-04-29T14:23:00.999Z</time></trkpt><trkpt lat="42.57024013297937" lon="13.574803279073283"><ele>365.0</ele><time>2026-04-29T14:23:01.999Z</time></trkpt><trkpt lat="42.570360002777534" lon="13.574891724581128"><ele>363.0</ele><time>2026-04-29T14:23:02.999Z</time></trkpt><trkpt lat="42.57046404880495" lon="13.574984949535565"><ele>361.0</ele><time>2026-04-29T14:23:03.999Z</time></trkpt><trkpt lat="42.57056660656734" lon="13.575133856457247"><ele>359.0</ele><time>2026-04-29T14:23:04.999Z</time></trkpt><trkpt lat="42.57064595742049" lon="13.575342933994795"><ele>360.25</ele><time>2026-04-29T14:23:05.999Z</time></trkpt><trkpt lat="42.5706974106262" lon="13.575579725298908"><ele>361.5</ele><time>2026-04-29T14:23:06.999Z</time></trkpt><trkpt lat="42.570733506466375" lon="13.57576978054117"><ele>362.75</ele><time>2026-04-29T14:23:07.999Z</time></trkpt><trkpt lat="42.57076683361716" lon="13.575923252189453"><ele>364.0</ele><time>2026-04-29T14:23:08.999Z</time></trkpt><trkpt lat="42.57081379323956" lon="13.576050370292247"><ele>364.0</ele><time>2026-04-29T14:23:09.999Z</time></trkpt><trkpt lat="42.570910024126256" lon="13.576154466793064"><ele>364.0</ele><time>2026-04-29T14:23:10.999Z</time></trkpt><trkpt lat="42.57106548574812" lon="13.576237663713224"><ele>364.0</ele><time>2026-04-29T14:23:11.999Z</time></trkpt><trkpt lat="42.57124970848337" lon="13.576317748614368"><ele>366.0</ele><time>2026-04-29T14:23:12.999Z</time></trkpt><trkpt lat="42.57139393218635" lon="13.576389162474353"><ele>368.0</ele><time>2026-04-29T14:23:13.999Z</time></trkpt><trkpt lat="42.57151907446121" lon="13.576455345403067"><ele>370.0</ele><time>2026-04-29T14:23:14.999Z</time></trkpt><trkpt lat="42.571650319570004" lon="13.576570566498587"><ele>372.0</ele><time>2026-04-29T14:23:15.999Z</time></trkpt><trkpt lat="42.57176195618702" lon="13.57675638886253"><ele>372.0</ele><time>2026-04-29T14:23:16.999Z</time></trkpt><trkpt lat="42.571875369736816" lon="13.576938447741346"><ele>372.0</ele><time>2026-04-29T14:23:17.999Z</time></trkpt><trkpt lat="42.57544063019406" lon="13.585277567134682"><ele>357.0</ele><time>2026-04-29T14:24:19Z</time></trkpt><trkpt lat="42.57547314779338" lon="13.58552449363738"><ele>342.0</ele><time>2026-04-29T14:24:20Z</time></trkpt><trkpt lat="42.57549253068063" lon="13.58580551569736"><ele>327.0</ele><time>2026-04-29T14:24:21Z</time></trkpt><trkpt lat="42.57551630110231" lon="13.586131705476271"><ele>327.6666666666667</ele><time>2026-04-29T14:24:22Z</time></trkpt><trkpt lat="42.575544480441735" lon="13.586422123964901"><ele>328.33333333333337</ele><time>2026-04-29T14:24:23Z</time></trkpt><trkpt lat="42.5755686126823" lon="13.586686138136328"><ele>329.0</ele><time>2026-04-29T14:24:24Z</time></trkpt><trkpt lat="42.57558857747209" lon="13.586936011388877"><ele>331.6666666666667</ele><time>2026-04-29T14:24:25Z</time></trkpt><trkpt lat="42.575609814413205" lon="13.587167251582173"><ele>334.3333333333333</ele><time>2026-04-29T14:24:26Z</time></trkpt><trkpt lat="42.575640551959836" lon="13.587383840621248"><ele>337.0</ele><time>2026-04-29T14:24:27Z</time></trkpt><trkpt lat="42.57568017512435" lon="13.58758460291636"><ele>337.0</ele><time>2026-04-29T14:24:28Z</time></trkpt><trkpt lat="42.575754490917696" lon="13.587794033068018"><ele>337.0</ele><time>2026-04-29T14:24:29Z</time></trkpt><trkpt lat="42.575874790731504" lon="13.588018685817618"><ele>337.0</ele><time>2026-04-29T14:24:30Z</time></trkpt><trkpt lat="42.576010114540175" lon="13.58824221245546"><ele>334.0</ele><time>2026-04-29T14:24:31Z</time></trkpt><trkpt lat="42.57612744313105" lon="13.588475933980495"><ele>331.0</ele><time>2026-04-29T14:24:32Z</time></trkpt><trkpt lat="42.576224329585536" lon="13.588715590560506"><ele>328.0</ele><time>2026-04-29T14:24:33Z</time></trkpt><trkpt lat="42.576314032083616" lon="13.588946905068036"><ele>328.0</ele><time>2026-04-29T14:24:34Z</time></trkpt><trkpt lat="42.57639926392438" lon="13.58916621799469"><ele>328.0</ele><time>2026-04-29T14:24:35Z</time></trkpt><trkpt lat="42.576479293714954" lon="13.589377031546789"><ele>328.0</ele><time>2026-04-29T14:24:36Z</time></trkpt><trkpt lat="42.57655178113346" lon="13.58958060683726"><ele>330.66666666666663</ele><time>2026-04-29T14:24:37Z</time></trkpt><trkpt lat="42.57660730489504" lon="13.58978747465431"><ele>333.3333333333333</ele><time>2026-04-29T14:24:38Z</time></trkpt><trkpt lat="42.576645165623184" lon="13.59001446135909"><ele>336.0</ele><time>2026-04-29T14:24:39Z</time></trkpt><trkpt lat="42.5766720393943" lon="13.590258060646699"><ele>338.6666666666667</ele><time>2026-04-29T14:24:40Z</time></trkpt><trkpt lat="42.57668858342741" lon="13.590513463043226"><ele>341.33333333333337</ele><time>2026-04-29T14:24:41Z</time></trkpt><trkpt lat="42.57669871377133" lon="13.590751453116084"><ele>344.0</ele><time>2026-04-29T14:24:42Z</time></trkpt><trkpt lat="42.57670753250702" lon="13.590964364504714"><ele>344.0</ele><time>2026-04-29T14:24:43Z</time></trkpt><trkpt lat="42.57672406692104" lon="13.591166526687863"><ele>344.0</ele><time>2026-04-29T14:24:43.999Z</time></trkpt><trkpt lat="42.576771037212076" lon="13.591352031049757"><ele>344.0</ele><time>2026-04-29T14:24:44.999Z</time></trkpt><trkpt lat="42.576846047955385" lon="13.591542467483753"><ele>344.0</ele><time>2026-04-29T14:24:45.999Z</time></trkpt><trkpt lat="42.576948432098625" lon="13.591729960987989"><ele>344.0</ele><time>2026-04-29T14:24:46.999Z</time></trkpt><trkpt lat="42.577040495511476" lon="13.59189797983728"><ele>344.0</ele><time>2026-04-29T14:24:47.999Z</time></trkpt><trkpt lat="42.57711873032237" lon="13.592066297607417"><ele>338.75</ele><time>2026-04-29T14:24:48.999Z</time></trkpt><trkpt lat="42.57718801017918" lon="13.592227794665153"><ele>333.5</ele><time>2026-04-29T14:24:49.999Z</time></trkpt><trkpt lat="42.57724754661588" lon="13.592402043391111"><ele>328.25</ele><time>2026-04-29T14:24:50.999Z</time></trkpt><trkpt lat="42.57728073329721" lon="13.592610934020412"><ele>323.0</ele><time>2026-04-29T14:24:51.999Z</time></trkpt><trkpt lat="42.57728778530525" lon="13.592871468329447"><ele>322.5</ele><time>2026-04-29T14:24:52.999Z</time></trkpt><trkpt lat="42.577280542060386" lon="13.593167585892772"><ele>322.0</ele><time>2026-04-29T14:24:53.999Z</time></trkpt><trkpt lat="42.577270506247594" lon="13.5934923545107"><ele>321.5</ele><time>2026-04-29T14:24:54.999Z</time></trkpt><trkpt lat="42.5772636075599" lon="13.593815970869098"><ele>321.0</ele><time>2026-04-29T14:24:55.999Z</time></trkpt><trkpt lat="42.577262416432106" lon="13.59413770505722"><ele>321.0</ele><time>2026-04-29T14:24:56.999Z</time></trkpt><trkpt lat="42.57726310312137" lon="13.594431073659418"><ele>321.0</ele><time>2026-04-29T14:24:57.999Z</time></trkpt><trkpt lat="42.57726323668503" lon="13.594705838489622"><ele>321.0</ele><time>2026-04-29T14:24:58.999Z</time></trkpt><trkpt lat="42.577265889531624" lon="13.59496489192341"><ele>321.3333333333333</ele><time>2026-04-29T14:24:59.999Z</time></trkpt><trkpt lat="42.577275566257725" lon="13.595204782601009"><ele>321.66666666666663</ele><time>2026-04-29T14:25:00.999Z</time></trkpt><trkpt lat="42.57731540764218" lon="13.595450719126891"><ele>322.0</ele><time>2026-04-29T14:25:01.999Z</time></trkpt><trkpt lat="42.57739277250714" lon="13.595700941319437"><ele>329.5</ele><time>2026-04-29T14:25:02.999Z</time></trkpt><trkpt lat="42.57750275408359" lon="13.59595686714345"><ele>337.0</ele><time>2026-04-29T14:25:03.999Z</time></trkpt><trkpt lat="42.57764982853883" lon="13.596217421638606"><ele>345.3333333333333</ele><time>2026-04-29T14:25:04.999Z</time></trkpt><trkpt lat="42.57779228215807" lon="13.59642667590595"><ele>353.6666666666667</ele><time>2026-04-29T14:25:05.999Z</time></trkpt><trkpt lat="42.5779132602724" lon="13.596593533770513"><ele>362.0</ele><time>2026-04-29T14:25:06.999Z</time></trkpt><trkpt lat="42.57802538806852" lon="13.596710458341793"><ele>353.20000000000005</ele><time>2026-04-29T14:25:07.999Z</time></trkpt><trkpt lat="42.57814202650986" lon="13.596802594170349"><ele>344.40000000000003</ele><time>2026-04-29T14:25:08.999Z</time></trkpt><trkpt lat="42.57823736112498" lon="13.596861104124438"><ele>335.6</ele><time>2026-04-29T14:25:09.999Z</time></trkpt><trkpt lat="42.57831128017068" lon="13.59692914623514"><ele>326.8</ele><time>2026-04-29T14:25:10.999Z</time></trkpt><trkpt lat="42.578343684785416" lon="13.597038168957088"><ele>318.0</ele><time>2026-04-29T14:25:11.999Z</time></trkpt><trkpt lat="42.578368336542695" lon="13.59714344189154"><ele>318.0</ele><time>2026-04-29T14:25:12.999Z</time></trkpt><trkpt lat="42.57836652326761" lon="13.597241316313479"><ele>318.0</ele><time>2026-04-29T14:25:13.999Z</time></trkpt><trkpt lat="42.57837100030715" lon="13.59733244447259"><ele>318.0</ele><time>2026-04-29T14:25:14.999Z</time></trkpt><trkpt lat="42.57835219850112" lon="13.597417681345886"><ele>318.0</ele><time>2026-04-29T14:25:15.999Z</time></trkpt><trkpt lat="42.578335845030786" lon="13.597508841523457"><ele>318.0</ele><time>2026-04-29T14:25:16.999Z</time></trkpt><trkpt lat="42.57831696717586" lon="13.59762338366017"><ele>318.0</ele><time>2026-04-29T14:25:17.999Z</time></trkpt><trkpt lat="42.57863610976393" lon="13.610492238904346"><ele>316.0</ele><time>2026-04-29T14:26:19Z</time></trkpt><trkpt lat="42.57850338095075" lon="13.61074485650422"><ele>314.0</ele><time>2026-04-29T14:26:20Z</time></trkpt><trkpt lat="42.57840130184887" lon="13.610990598737967"><ele>312.0</ele><time>2026-04-29T14:26:21Z</time></trkpt><trkpt lat="42.57830966656193" lon="13.611226574063018"><ele>307.6666666666667</ele><time>2026-04-29T14:26:22Z</time></trkpt><trkpt lat="42.57823852279209" lon="13.611444062780274"><ele>303.33333333333337</ele><time>2026-04-29T14:26:23Z</time></trkpt><trkpt lat="42.578203822833835" lon="13.611665420066705"><ele>299.0</ele><time>2026-04-29T14:26:24Z</time></trkpt><trkpt lat="42.57821730482299" lon="13.611916814822694"><ele>298.6666666666667</ele><time>2026-04-29T14:26:25Z</time></trkpt><trkpt lat="42.57827170976429" lon="13.612203475470094"><ele>298.3333333333333</ele><time>2026-04-29T14:26:26Z</time></trkpt><trkpt lat="42.57833725787074" lon="13.612496286788096"><ele>298.0</ele><time>2026-04-29T14:26:27Z</time></trkpt><trkpt lat="42.57839969268124" lon="13.612755315467918"><ele>299.0</ele><time>2026-04-29T14:26:28Z</time></trkpt><trkpt lat="42.578480473847826" lon="13.612991113792894"><ele>300.0</ele><time>2026-04-29T14:26:29Z</time></trkpt><trkpt lat="42.57860235160991" lon="13.61322342624371"><ele>301.0</ele><time>2026-04-29T14:26:30Z</time></trkpt><trkpt lat="42.57875717340707" lon="13.613424638103393"><ele>296.0</ele><time>2026-04-29T14:26:31Z</time></trkpt><trkpt lat="42.57888862773012" lon="13.613609523214887"><ele>291.0</ele><time>2026-04-29T14:26:32Z</time></trkpt><trkpt lat="42.5790058391145" lon="13.613810656110159"><ele>286.0</ele><time>2026-04-29T14:26:33Z</time></trkpt><trkpt lat="42.57909081362577" lon="13.614009072691411"><ele>286.0</ele><time>2026-04-29T14:26:34Z</time></trkpt><trkpt lat="42.579130246703485" lon="13.614194002773296"><ele>286.0</ele><time>2026-04-29T14:26:35Z</time></trkpt><trkpt lat="42.579127333493226" lon="13.614398687759747"><ele>286.0</ele><time>2026-04-29T14:26:36Z</time></trkpt><trkpt lat="42.579072559410456" lon="13.614594277471083"><ele>286.0</ele><time>2026-04-29T14:26:37Z</time></trkpt><trkpt lat="42.57897191434147" lon="13.61477540256088"><ele>285.0</ele><time>2026-04-29T14:26:38Z</time></trkpt><trkpt lat="42.57883246965498" lon="13.615006973469336"><ele>284.0</ele><time>2026-04-29T14:26:39Z</time></trkpt><trkpt lat="42.578698771704396" lon="13.615257967289786"><ele>283.0</ele><time>2026-04-29T14:26:40Z</time></trkpt><trkpt lat="42.578578764079346" lon="13.61552644163126"><ele>288.5</ele><time>2026-04-29T14:26:41Z</time></trkpt><trkpt lat="42.57848876082651" lon="13.61581649505883"><ele>294.0</ele><time>2026-04-29T14:26:42Z</time></trkpt><trkpt lat="42.57842475919868" lon="13.616116852692606"><ele>294.3333333333333</ele><time>2026-04-29T14:26:43Z</time></trkpt><trkpt lat="42.578383854934536" lon="13.616420605546606"><ele>294.66666666666663</ele><time>2026-04-29T14:26:44Z</time></trkpt><trkpt lat="42.578373085001424" lon="13.616701090657317"><ele>295.0</ele><time>2026-04-29T14:26:45Z</time></trkpt><trkpt lat="42.57837001917226" lon="13.616951658753747"><ele>293.66666666666663</ele><time>2026-04-29T14:26:46Z</time></trkpt><trkpt lat="42.57834916327126" lon="13.617214808817655"><ele>292.3333333333333</ele><time>2026-04-29T14:26:46.999Z</time></trkpt><trkpt lat="42.57826854191164" lon="13.617505041439356"><ele>291.0</ele><time>2026-04-29T14:26:47.999Z</time></trkpt><trkpt lat="42.578178252302564" lon="13.617806298398877"><ele>288.5</ele><time>2026-04-29T14:26:48.999Z</time></trkpt><trkpt lat="42.57812781126748" lon="13.618136236656495"><ele>286.0</ele><time>2026-04-29T14:26:49.999Z</time></trkpt><trkpt lat="42.57810111110005" lon="13.618444427087123"><ele>282.66666666666663</ele><time>2026-04-29T14:26:50.999Z</time></trkpt><trkpt lat="42.57809617539794" lon="13.618730246223864"><ele>279.3333333333333</ele><time>2026-04-29T14:26:51.999Z</time></trkpt><trkpt lat="42.57810225233155" lon="13.618985769673381"><ele>276.0</ele><time>2026-04-29T14:26:52.999Z</time></trkpt><trkpt lat="42.578100925770585" lon="13.619232907135048"><ele>274.6666666666667</ele><time>2026-04-29T14:26:53.999Z</time></trkpt><trkpt lat="42.578075208339826" lon="13.619492798416994"><ele>273.33333333333337</ele><time>2026-04-29T14:26:54.999Z</time></trkpt><trkpt lat="42.57801098581032" lon="13.619794545227418"><ele>272.0</ele><time>2026-04-29T14:26:55.999Z</time></trkpt><trkpt lat="42.5779163258747" lon="13.62011687600514"><ele>276.0</ele><time>2026-04-29T14:26:56.999Z</time></trkpt><trkpt lat="42.57783679704425" lon="13.62039514292306"><ele>280.0</ele><time>2026-04-29T14:26:57.999Z</time></trkpt><trkpt lat="42.57777586260187" lon="13.620637884116"><ele>284.0</ele><time>2026-04-29T14:26:58.999Z</time></trkpt><trkpt lat="42.577720859490945" lon="13.620861787888119"><ele>284.0</ele><time>2026-04-29T14:26:59.999Z</time></trkpt><trkpt lat="42.577687342133" lon="13.621091440729797"><ele>284.0</ele><time>2026-04-29T14:27:00.999Z</time></trkpt><trkpt lat="42.57768556814654" lon="13.62137449923298"><ele>284.0</ele><time>2026-04-29T14:27:01.999Z</time></trkpt><trkpt lat="42.57770552449619" lon="13.621710778257436"><ele>283.0</ele><time>2026-04-29T14:27:02.999Z</time></trkpt><trkpt lat="42.577760620832514" lon="13.622085404919515"><ele>282.0</ele><time>2026-04-29T14:27:03.999Z</time></trkpt><trkpt lat="42.57782214351517" lon="13.622422691908897"><ele>277.0</ele><time>2026-04-29T14:27:04.999Z</time></trkpt><trkpt lat="42.57787541877724" lon="13.622723291847672"><ele>272.0</ele><time>2026-04-29T14:27:05.999Z</time></trkpt><trkpt lat="42.577924742595" lon="13.622993105364625"><ele>267.0</ele><time>2026-04-29T14:27:06.999Z</time></trkpt><trkpt lat="42.577970291695785" lon="13.623249943049977"><ele>266.6666666666667</ele><time>2026-04-29T14:27:07.999Z</time></trkpt><trkpt lat="42.57800097634295" lon="13.623491735961125"><ele>266.33333333333337</ele><time>2026-04-29T14:27:08.999Z</time></trkpt><trkpt lat="42.5780135255204" lon="13.623722843701577"><ele>266.0</ele><time>2026-04-29T14:27:09.999Z</time></trkpt><trkpt lat="42.57800810620978" lon="13.623946725125913"><ele>264.33333333333337</ele><time>2026-04-29T14:27:10.999Z</time></trkpt><trkpt lat="42.577977255489586" lon="13.624180353054314"><ele>262.6666666666667</ele><time>2026-04-29T14:27:11.999Z</time></trkpt><trkpt lat="42.57793447826506" lon="13.624389293368989"><ele>261.0</ele><time>2026-04-29T14:27:12.999Z</time></trkpt><trkpt lat="42.57788771298908" lon="13.624568784896578"><ele>261.0</ele><time>2026-04-29T14:27:13.999Z</time></trkpt><trkpt lat="42.57785080388208" lon="13.624720916657077"><ele>261.0</ele><time>2026-04-29T14:27:14.999Z</time></trkpt><trkpt lat="42.577818080540005" lon="13.62485610941912"><ele>261.0</ele><time>2026-04-29T14:27:15.999Z</time></trkpt><trkpt lat="42.57782654709435" lon="13.624983860722367"><ele>261.0</ele><time>2026-04-29T14:27:16.999Z</time></trkpt><trkpt lat="42.577891266368034" lon="13.625105885024531"><ele>261.0</ele><time>2026-04-29T14:27:17.999Z</time></trkpt><trkpt lat="42.581357758407705" lon="13.6334980803789"><ele>259.2</ele><time>2026-04-29T14:28:18.998Z</time></trkpt><trkpt lat="42.58141200180297" lon="13.633643899413729"><ele>257.40000000000003</ele><time>2026-04-29T14:28:20.998Z</time></trkpt><trkpt lat="42.58145185402179" lon="13.633771923293766"><ele>255.6</ele><time>2026-04-29T14:28:22.998Z</time></trkpt><trkpt lat="42.58148488240758" lon="13.633874678056007"><ele>253.8</ele><time>2026-04-29T14:28:25Z</time></trkpt><trkpt lat="42.58151482404709" lon="13.633975587534923"><ele>252.0</ele><time>2026-04-29T14:28:27Z</time></trkpt><trkpt lat="42.58154786549636" lon="13.634081129238494"><ele>252.0</ele><time>2026-04-29T14:28:29Z</time></trkpt><trkpt lat="42.581581239712946" lon="13.63418948619304"><ele>252.0</ele><time>2026-04-29T14:28:31Z</time></trkpt><trkpt lat="42.58160974749521" lon="13.634305622174724"><ele>252.0</ele><time>2026-04-29T14:28:33Z</time></trkpt><trkpt lat="42.581659659424815" lon="13.634449841435298"><ele>252.0</ele><time>2026-04-29T14:28:35Z</time></trkpt><trkpt lat="42.581686088803146" lon="13.634532018218382"><ele>252.0</ele><time>2026-04-29T14:28:36Z</time></trkpt><trkpt lat="42.58171354852895" lon="13.634616601944552"><ele>252.0</ele><time>2026-04-29T14:28:37Z</time></trkpt><trkpt lat="42.58174080471105" lon="13.634702088950721"><ele>252.14285714285714</ele><time>2026-04-29T14:28:38Z</time></trkpt><trkpt lat="42.58176717741002" lon="13.63478759521892"><ele>252.28571428571428</ele><time>2026-04-29T14:28:39Z</time></trkpt><trkpt lat="42.58179701514012" lon="13.634876678970434"><ele>252.42857142857144</ele><time>2026-04-29T14:28:40Z</time></trkpt><trkpt lat="42.581828451185864" lon="13.634964782982667"><ele>252.57142857142858</ele><time>2026-04-29T14:28:41Z</time></trkpt><trkpt lat="42.58186036084383" lon="13.635054863398626"><ele>252.71428571428572</ele><time>2026-04-29T14:28:42Z</time></trkpt><trkpt lat="42.5818897924067" lon="13.63514770032667"><ele>252.8571428571429</ele><time>2026-04-29T14:28:43Z</time></trkpt><trkpt lat="42.581917422882825" lon="13.635233425724369"><ele>253.00000000000003</ele><time>2026-04-29T14:28:44Z</time></trkpt><trkpt lat="42.58194289513822" lon="13.63531312478103"><ele>252.2</ele><time>2026-04-29T14:28:45Z</time></trkpt><trkpt lat="42.5819729634936" lon="13.635461051411426"><ele>251.4</ele><time>2026-04-29T14:28:47Z</time></trkpt><trkpt lat="42.58200943043332" lon="13.63555452292776"><ele>250.59999999999997</ele><time>2026-04-29T14:28:49Z</time></trkpt><trkpt lat="42.58204056875218" lon="13.635637869052415"><ele>249.79999999999998</ele><time>2026-04-29T14:28:52.999Z</time></trkpt><trkpt lat="42.582086549468926" lon="13.635769378204861"><ele>249.0</ele><time>2026-04-29T14:28:55.999Z</time></trkpt><trkpt lat="42.582131297529465" lon="13.635913915429851"><ele>250.16666666666666</ele><time>2026-04-29T14:28:57.999Z</time></trkpt><trkpt lat="42.58216797027689" lon="13.636024517817185"><ele>251.33333333333331</ele><time>2026-04-29T14:28:59.999Z</time></trkpt><trkpt lat="42.58220052022775" lon="13.636127751347152"><ele>252.5</ele><time>2026-04-29T14:29:01.999Z</time></trkpt><trkpt lat="42.582251414345194" lon="13.636259982059196"><ele>253.66666666666666</ele><time>2026-04-29T14:29:03.999Z</time></trkpt><trkpt lat="42.58227974414045" lon="13.636353049851097"><ele>254.83333333333331</ele><time>2026-04-29T14:29:04.999Z</time></trkpt><trkpt lat="42.58231306631213" lon="13.636456517175723"><ele>256.0</ele><time>2026-04-29T14:29:05.999Z</time></trkpt><trkpt lat="42.58234724384716" lon="13.636566700551482"><ele>255.99999999999997</ele><time>2026-04-29T14:29:06.999Z</time></trkpt><trkpt lat="42.58238172191037" lon="13.636656341803281"><ele>256.0</ele><time>2026-04-29T14:29:07.999Z</time></trkpt><trkpt lat="42.582411653162474" lon="13.636751993749366"><ele>256.0</ele><time>2026-04-29T14:29:08.999Z</time></trkpt><trkpt lat="42.582441701543424" lon="13.636856020354971"><ele>256.0</ele><time>2026-04-29T14:29:09.999Z</time></trkpt><trkpt lat="42.582472939506246" lon="13.636967680112186"><ele>255.99999999999997</ele><time>2026-04-29T14:29:10.999Z</time></trkpt><trkpt lat="42.582501762424236" lon="13.637072910398814"><ele>256.0</ele><time>2026-04-29T14:29:11.999Z</time></trkpt><trkpt lat="42.58252930175446" lon="13.637171258671113"><ele>255.20000000000002</ele><time>2026-04-29T14:29:12.999Z</time></trkpt><trkpt lat="42.58255436182627" lon="13.637268023793355"><ele>254.40000000000003</ele><time>2026-04-29T14:29:13.999Z</time></trkpt><trkpt lat="42.582572275603525" lon="13.637362080855157"><ele>253.6</ele><time>2026-04-29T14:29:14.999Z</time></trkpt><trkpt lat="42.58257648676764" lon="13.637452938092084"><ele>252.8</ele><time>2026-04-29T14:29:15.999Z</time></trkpt><trkpt lat="42.582556682137685" lon="13.63762169020227"><ele>252.0</ele><time>2026-04-29T14:29:17.999Z</time></trkpt><trkpt lat="42.585537354635385" lon="13.649494220236999"><ele>262.0</ele><time>2026-04-29T14:30:18.998Z</time></trkpt><trkpt lat="42.58559255577631" lon="13.649758534956993"><ele>272.0</ele><time>2026-04-29T14:30:19.998Z</time></trkpt><trkpt lat="42.58567304209801" lon="13.650026428654176"><ele>282.0</ele><time>2026-04-29T14:30:20.998Z</time></trkpt><trkpt lat="42.58578215649671" lon="13.650279461234764"><ele>282.3333333333333</ele><time>2026-04-29T14:30:21.998Z</time></trkpt><trkpt lat="42.585905073449176" lon="13.650499575265997"><ele>282.66666666666663</ele><time>2026-04-29T14:30:22.998Z</time></trkpt><trkpt lat="42.58604937589573" lon="13.65070618848115"><ele>283.0</ele><time>2026-04-29T14:30:23.998Z</time></trkpt><trkpt lat="42.58621862874663" lon="13.650896004137303"><ele>283.0</ele><time>2026-04-29T14:30:24.998Z</time></trkpt><trkpt lat="42.58639238016458" lon="13.651051896390715"><ele>283.0</ele><time>2026-04-29T14:30:25.998Z</time></trkpt><trkpt lat="42.58656359506868" lon="13.651163177465547"><ele>283.0</ele><time>2026-04-29T14:30:26.998Z</time></trkpt><trkpt lat="42.586756931913264" lon="13.651256370684449"><ele>279.5</ele><time>2026-04-29T14:30:27.998Z</time></trkpt><trkpt lat="42.58698126858203" lon="13.65132524567557"><ele>276.0</ele><time>2026-04-29T14:30:28.998Z</time></trkpt><trkpt lat="42.5872140396774" lon="13.65136235182419"><ele>273.5</ele><time>2026-04-29T14:30:30Z</time></trkpt><trkpt lat="42.58745179804365" lon="13.651356829925382"><ele>271.0</ele><time>2026-04-29T14:30:31Z</time></trkpt><trkpt lat="42.58769420286318" lon="13.651305697166897"><ele>269.5</ele><time>2026-04-29T14:30:32Z</time></trkpt><trkpt lat="42.58793206804011" lon="13.651209488082577"><ele>268.0</ele><time>2026-04-29T14:30:33Z</time></trkpt><trkpt lat="42.588154346807684" lon="13.651068316259266"><ele>272.5</ele><time>2026-04-29T14:30:34Z</time></trkpt><trkpt lat="42.58838334020741" lon="13.65087568232042"><ele>277.0</ele><time>2026-04-29T14:30:35Z</time></trkpt><trkpt lat="42.58863057341964" lon="13.650649530083978"><ele>277.5</ele><time>2026-04-29T14:30:36Z</time></trkpt><trkpt lat="42.58886583994249" lon="13.650431756856756"><ele>278.0</ele><time>2026-04-29T14:30:37Z</time></trkpt><trkpt lat="42.589092441366276" lon="13.65022392613711"><ele>278.0</ele><time>2026-04-29T14:30:38Z</time></trkpt><trkpt lat="42.58930471544071" lon="13.650028273763075"><ele>278.0</ele><time>2026-04-29T14:30:39Z</time></trkpt><trkpt lat="42.58950300002463" lon="13.649850923441058"><ele>280.5</ele><time>2026-04-29T14:30:40Z</time></trkpt><trkpt lat="42.58969843285822" lon="13.649683637519912"><ele>283.0</ele><time>2026-04-29T14:30:41Z</time></trkpt><trkpt lat="42.58991306339958" lon="13.649523356074484"><ele>284.5</ele><time>2026-04-29T14:30:42Z</time></trkpt><trkpt lat="42.59016179844721" lon="13.64939554897983"><ele>286.0</ele><time>2026-04-29T14:30:43Z</time></trkpt><trkpt lat="42.59040502127846" lon="13.649318131297592"><ele>287.0</ele><time>2026-04-29T14:30:44Z</time></trkpt><trkpt lat="42.59063560945804" lon="13.649268525613932"><ele>288.0</ele><time>2026-04-29T14:30:45Z</time></trkpt><trkpt lat="42.59085289744215" lon="13.64925176038415"><ele>288.0</ele><time>2026-04-29T14:30:46Z</time></trkpt><trkpt lat="42.59106513087349" lon="13.649267087397128"><ele>288.0</ele><time>2026-04-29T14:30:47Z</time></trkpt><trkpt lat="42.59127334459553" lon="13.649310397835684"><ele>288.0</ele><time>2026-04-29T14:30:48Z</time></trkpt><trkpt lat="42.591471606616054" lon="13.649383757453995"><ele>291.6666666666667</ele><time>2026-04-29T14:30:49Z</time></trkpt><trkpt lat="42.59166134003106" lon="13.649459290937017"><ele>295.33333333333337</ele><time>2026-04-29T14:30:50Z</time></trkpt><trkpt lat="42.59182943259047" lon="13.649547582996828"><ele>299.0</ele><time>2026-04-29T14:30:51Z</time></trkpt><trkpt lat="42.591968928246025" lon="13.649641146831405"><ele>299.75</ele><time>2026-04-29T14:30:52Z</time></trkpt><trkpt lat="42.592085533823294" lon="13.649736665967053"><ele>300.5</ele><time>2026-04-29T14:30:53Z</time></trkpt><trkpt lat="42.59218372824559" lon="13.64984182710189"><ele>301.25</ele><time>2026-04-29T14:30:53.999Z</time></trkpt><trkpt lat="42.59225934488615" lon="13.64994931071772"><ele>302.0</ele><time>2026-04-29T14:30:54.999Z</time></trkpt><trkpt lat="42.59231857934773" lon="13.650057186234287"><ele>302.0</ele><time>2026-04-29T14:30:55.999Z</time></trkpt><trkpt lat="42.592363677392726" lon="13.650181820637124"><ele>302.0</ele><time>2026-04-29T14:30:56.999Z</time></trkpt><trkpt lat="42.59239267456954" lon="13.650306039038908"><ele>302.0</ele><time>2026-04-29T14:30:57.999Z</time></trkpt><trkpt lat="42.59243378867027" lon="13.650407210221374"><ele>302.0</ele><time>2026-04-29T14:30:58.999Z</time></trkpt><trkpt lat="42.59250618116624" lon="13.650461037786778"><ele>302.0</ele><time>2026-04-29T14:30:59.999Z</time></trkpt><trkpt lat="42.59260108772296" lon="13.650497010025035"><ele>302.25</ele><time>2026-04-29T14:31:00.999Z</time></trkpt><trkpt lat="42.59270446645596" lon="13.650538322533643"><ele>302.5</ele><time>2026-04-29T14:31:01.999Z</time></trkpt><trkpt lat="42.59280616454934" lon="13.650605902515048"><ele>302.75</ele><time>2026-04-29T14:31:02.999Z</time></trkpt><trkpt lat="42.59290867051445" lon="13.650707201466034"><ele>303.0</ele><time>2026-04-29T14:31:03.999Z</time></trkpt><trkpt lat="42.59301430782761" lon="13.650828544292768"><ele>305.0</ele><time>2026-04-29T14:31:04.999Z</time></trkpt><trkpt lat="42.59312649781708" lon="13.650964243007902"><ele>307.0</ele><time>2026-04-29T14:31:05.999Z</time></trkpt><trkpt lat="42.59325510752065" lon="13.651125348647579"><ele>309.0</ele><time>2026-04-29T14:31:06.999Z</time></trkpt><trkpt lat="42.59341822311682" lon="13.65130978618303"><ele>309.0</ele><time>2026-04-29T14:31:07.999Z</time></trkpt><trkpt lat="42.59360160522678" lon="13.651547662860564"><ele>309.0</ele><time>2026-04-29T14:31:08.999Z</time></trkpt><trkpt lat="42.59379473858808" lon="13.651806205841524"><ele>313.5</ele><time>2026-04-29T14:31:09.999Z</time></trkpt><trkpt lat="42.59401275615551" lon="13.652079879492865"><ele>318.0</ele><time>2026-04-29T14:31:10.999Z</time></trkpt><trkpt lat="42.59426200237487" lon="13.652354246731687"><ele>320.5</ele><time>2026-04-29T14:31:11.999Z</time></trkpt><trkpt lat="42.59451265142664" lon="13.652589908797326"><ele>323.0</ele><time>2026-04-29T14:31:12.999Z</time></trkpt><trkpt lat="42.59477389342976" lon="13.652800046878413"><ele>323.0</ele><time>2026-04-29T14:31:13.999Z</time></trkpt><trkpt lat="42.595064424518924" lon="13.653008062652065"><ele>323.0</ele><time>2026-04-29T14:31:14.999Z</time></trkpt><trkpt lat="42.595374418553725" lon="13.65317909377895"><ele>327.0</ele><time>2026-04-29T14:31:15.999Z</time></trkpt><trkpt lat="42.595645607180316" lon="13.653338354775313"><ele>331.0</ele><time>2026-04-29T14:31:16.999Z</time></trkpt><trkpt lat="42.59588767526288" lon="13.653487492108649"><ele>362.0</ele><time>2026-04-29T14:31:17.999Z</time></trkpt><trkpt lat="42.606618633061316" lon="13.655123112008415"><ele>362.0</ele><time>2026-04-29T14:32:18.998Z</time></trkpt><trkpt lat="42.6067618280856" lon="13.655021808616969"><ele>362.0</ele><time>2026-04-29T14:32:19.998Z</time></trkpt><trkpt lat="42.60690584429234" lon="13.65489813729571"><ele>362.0</ele><time>2026-04-29T14:32:20.998Z</time></trkpt><trkpt lat="42.6070409053671" lon="13.654755687194196"><ele>358.6666666666667</ele><time>2026-04-29T14:32:21.998Z</time></trkpt><trkpt lat="42.60717164525731" lon="13.654595515093613"><ele>355.3333333333333</ele><time>2026-04-29T14:32:22.998Z</time></trkpt><trkpt lat="42.60729774290044" lon="13.654425718098118"><ele>352.0</ele><time>2026-04-29T14:32:23.998Z</time></trkpt><trkpt lat="42.60741916452575" lon="13.654257810414832"><ele>352.0</ele><time>2026-04-29T14:32:24.998Z</time></trkpt><trkpt lat="42.60754240728458" lon="13.654090459679859"><ele>352.0</ele><time>2026-04-29T14:32:25.998Z</time></trkpt><trkpt lat="42.607665324308016" lon="13.65392296757517"><ele>352.0</ele><time>2026-04-29T14:32:26.998Z</time></trkpt><trkpt lat="42.60778752125909" lon="13.653756342075972"><ele>351.3333333333333</ele><time>2026-04-29T14:32:27.998Z</time></trkpt><trkpt lat="42.60791154663014" lon="13.653589896157818"><ele>350.6666666666667</ele><time>2026-04-29T14:32:28.998Z</time></trkpt><trkpt lat="42.608036619900496" lon="13.653421709176806"><ele>350.0</ele><time>2026-04-29T14:32:29.998Z</time></trkpt><trkpt lat="42.60816300351189" lon="13.653248038473231"><ele>350.0</ele><time>2026-04-29T14:32:30.998Z</time></trkpt><trkpt lat="42.60829216718958" lon="13.653072584062295"><ele>350.0</ele><time>2026-04-29T14:32:31.998Z</time></trkpt><trkpt lat="42.60842652144909" lon="13.65289480787491"><ele>350.0</ele><time>2026-04-29T14:32:32.998Z</time></trkpt><trkpt lat="42.608562482080536" lon="13.652712211512751"><ele>349.33333333333337</ele><time>2026-04-29T14:32:33.998Z</time></trkpt><trkpt lat="42.60869527266289" lon="13.652532140632278"><ele>348.6666666666667</ele><time>2026-04-29T14:32:34.998Z</time></trkpt><trkpt lat="42.608831121666384" lon="13.652347389494269"><ele>348.0</ele><time>2026-04-29T14:32:36Z</time></trkpt><trkpt lat="42.608968168032135" lon="13.652158646080013"><ele>348.0</ele><time>2026-04-29T14:32:37Z</time></trkpt><trkpt lat="42.609100079024586" lon="13.65198059976423"><ele>348.0</ele><time>2026-04-29T14:32:38Z</time></trkpt><trkpt lat="42.60922526239074" lon="13.651809146140227"><ele>348.0</ele><time>2026-04-29T14:32:39Z</time></trkpt><trkpt lat="42.60935142855116" lon="13.651637880340415"><ele>350.3333333333333</ele><time>2026-04-29T14:32:40Z</time></trkpt><trkpt lat="42.60947923923906" lon="13.651463019576036"><ele>352.66666666666663</ele><time>2026-04-29T14:32:41Z</time></trkpt><trkpt lat="42.609608893432494" lon="13.651284108698407"><ele>355.0</ele><time>2026-04-29T14:32:42Z</time></trkpt><trkpt lat="42.60973942875196" lon="13.651102228358768"><ele>359.66666666666663</ele><time>2026-04-29T14:32:43Z</time></trkpt><trkpt lat="42.60986863361641" lon="13.650914638082996"><ele>364.3333333333333</ele><time>2026-04-29T14:32:44Z</time></trkpt><trkpt lat="42.60999937513923" lon="13.650728614858423"><ele>369.0</ele><time>2026-04-29T14:32:45Z</time></trkpt><trkpt lat="42.610128302503995" lon="13.650554879203382"><ele>369.0</ele><time>2026-04-29T14:32:46Z</time></trkpt><trkpt lat="42.61025355114132" lon="13.650381207318937"><ele>369.0</ele><time>2026-04-29T14:32:47Z</time></trkpt><trkpt lat="42.610417457672995" lon="13.650169226606398"><ele>369.0</ele><time>2026-04-29T14:32:48Z</time></trkpt><trkpt lat="42.61060299287147" lon="13.649917038860519"><ele>368.0</ele><time>2026-04-29T14:32:49Z</time></trkpt><trkpt lat="42.61080439896881" lon="13.649644389068431"><ele>367.0</ele><time>2026-04-29T14:32:50Z</time></trkpt><trkpt lat="42.61102336246206" lon="13.649351559784547"><ele>359.0</ele><time>2026-04-29T14:32:51Z</time></trkpt><trkpt lat="42.61124509780995" lon="13.649031142672165"><ele>351.0</ele><time>2026-04-29T14:32:52Z</time></trkpt><trkpt lat="42.61144541080804" lon="13.64876598104811"><ele>350.0</ele><time>2026-04-29T14:32:53Z</time></trkpt><trkpt lat="42.6116445639208" lon="13.648486339194097"><ele>349.0</ele><time>2026-04-29T14:32:54Z</time></trkpt><trkpt lat="42.611835453963856" lon="13.648236337998597"><ele>351.5</ele><time>2026-04-29T14:32:55Z</time></trkpt><trkpt lat="42.61201166336477" lon="13.648002341141876"><ele>354.0</ele><time>2026-04-29T14:32:55.999Z</time></trkpt><trkpt lat="42.61217544734748" lon="13.647784537723913"><ele>354.0</ele><time>2026-04-29T14:32:56.999Z</time></trkpt><trkpt lat="42.61233712238518" lon="13.64756599513015"><ele>354.0</ele><time>2026-04-29T14:32:57.999Z</time></trkpt><trkpt lat="42.612481135622815" lon="13.647370822664314"><ele>354.0</ele><time>2026-04-29T14:32:58.999Z</time></trkpt><trkpt lat="42.612613360079216" lon="13.647201248802975"><ele>354.0</ele><time>2026-04-29T14:32:59.999Z</time></trkpt><trkpt lat="42.6127225884733" lon="13.647054914832006"><ele>354.0</ele><time>2026-04-29T14:33:00.999Z</time></trkpt><trkpt lat="42.612818430611455" lon="13.646910639758426"><ele>354.0</ele><time>2026-04-29T14:33:01.999Z</time></trkpt><trkpt lat="42.612915239973695" lon="13.646752041811823"><ele>354.0</ele><time>2026-04-29T14:33:02.999Z</time></trkpt><trkpt lat="42.613021830270945" lon="13.646619866267683"><ele>354.75</ele><time>2026-04-29T14:33:03.999Z</time></trkpt><trkpt lat="42.61312808072091" lon="13.646515351501339"><ele>355.5</ele><time>2026-04-29T14:33:04.999Z</time></trkpt><trkpt lat="42.61325169246124" lon="13.646418461253722"><ele>356.25</ele><time>2026-04-29T14:33:05.999Z</time></trkpt><trkpt lat="42.61338523036759" lon="13.646338026408419"><ele>357.0</ele><time>2026-04-29T14:33:06.999Z</time></trkpt><trkpt lat="42.61351454143065" lon="13.646259915965675"><ele>355.6666666666667</ele><time>2026-04-29T14:33:07.999Z</time></trkpt><trkpt lat="42.613662693130024" lon="13.646179045469928"><ele>354.33333333333337</ele><time>2026-04-29T14:33:08.999Z</time></trkpt><trkpt lat="42.61382893146547" lon="13.646116266541588"><ele>353.0</ele><time>2026-04-29T14:33:09.999Z</time></trkpt><trkpt lat="42.614007937680014" lon="13.646056958276636"><ele>355.33333333333337</ele><time>2026-04-29T14:33:10.999Z</time></trkpt><trkpt lat="42.61419480982889" lon="13.64600838114711"><ele>357.6666666666667</ele><time>2026-04-29T14:33:11.999Z</time></trkpt><trkpt lat="42.61438881415497" lon="13.645969104656432"><ele>360.0</ele><time>2026-04-29T14:33:12.999Z</time></trkpt><trkpt lat="42.61459668379313" lon="13.645920208001908"><ele>360.0</ele><time>2026-04-29T14:33:13.999Z</time></trkpt><trkpt lat="42.6148034919368" lon="13.645871280161176"><ele>360.0</ele><time>2026-04-29T14:33:14.999Z</time></trkpt><trkpt lat="42.615013875982555" lon="13.645818800033277"><ele>360.0</ele><time>2026-04-29T14:33:15.999Z</time></trkpt><trkpt lat="42.61522383976686" lon="13.64577081937135"><ele>357.5</ele><time>2026-04-29T14:33:16.999Z</time></trkpt><trkpt lat="42.615429308635406" lon="13.645730437812167"><ele>355.0</ele><time>2026-04-29T14:33:17.999Z</time></trkpt><trkpt lat="42.626801997295196" lon="13.653912818843075"><ele>355.0</ele><time>2026-04-29T14:34:18.999Z</time></trkpt><trkpt lat="42.62690172851532" lon="13.654189938768647"><ele>355.0</ele><time>2026-04-29T14:34:19.999Z</time></trkpt><trkpt lat="42.62700597317339" lon="13.654443992643895"><ele>355.0</ele><time>2026-04-29T14:34:20.999Z</time></trkpt><trkpt lat="42.62709934938858" lon="13.65469769679204"><ele>350.3333333333333</ele><time>2026-04-29T14:34:21.999Z</time></trkpt><trkpt lat="42.627181367448394" lon="13.654960228115991"><ele>345.6666666666667</ele><time>2026-04-29T14:34:22.998Z</time></trkpt><trkpt lat="42.627264334942744" lon="13.655218928672523"><ele>341.0</ele><time>2026-04-29T14:34:23.998Z</time></trkpt><trkpt lat="42.627347270106974" lon="13.655477765995023"><ele>341.0</ele><time>2026-04-29T14:34:24.998Z</time></trkpt><trkpt lat="42.62744120915955" lon="13.655742041266475"><ele>341.0</ele><time>2026-04-29T14:34:25.998Z</time></trkpt><trkpt lat="42.62756490137489" lon="13.65601989157272"><ele>342.5</ele><time>2026-04-29T14:34:26.998Z</time></trkpt><trkpt lat="42.62772140833796" lon="13.656305045190928"><ele>344.0</ele><time>2026-04-29T14:34:27.998Z</time></trkpt><trkpt lat="42.62787445803277" lon="13.656567451161914"><ele>341.6666666666667</ele><time>2026-04-29T14:34:28.998Z</time></trkpt><trkpt lat="42.62801868598698" lon="13.656807757822916"><ele>339.3333333333333</ele><time>2026-04-29T14:34:29.998Z</time></trkpt><trkpt lat="42.628157217481935" lon="13.65703519733546"><ele>337.0</ele><time>2026-04-29T14:34:30.998Z</time></trkpt><trkpt lat="42.62828711285723" lon="13.657244802050707"><ele>337.0</ele><time>2026-04-29T14:34:31.998Z</time></trkpt><trkpt lat="42.6284055107015" lon="13.657441988096878"><ele>337.0</ele><time>2026-04-29T14:34:32.998Z</time></trkpt><trkpt lat="42.62851809321233" lon="13.657634931619446"><ele>337.0</ele><time>2026-04-29T14:34:33.998Z</time></trkpt><trkpt lat="42.62862779332892" lon="13.657818860755532"><ele>333.3333333333333</ele><time>2026-04-29T14:34:34.998Z</time></trkpt><trkpt lat="42.62873442975532" lon="13.657992574075651"><ele>329.6666666666667</ele><time>2026-04-29T14:34:35.998Z</time></trkpt><trkpt lat="42.62884433643705" lon="13.658151603966063"><ele>326.0</ele><time>2026-04-29T14:34:36.998Z</time></trkpt><trkpt lat="42.628966075541065" lon="13.658276823664428"><ele>326.0</ele><time>2026-04-29T14:34:37.998Z</time></trkpt><trkpt lat="42.629107421887305" lon="13.658388528519408"><ele>326.0</ele><time>2026-04-29T14:34:38.998Z</time></trkpt><trkpt lat="42.62927531535836" lon="13.658478309059351"><ele>326.0</ele><time>2026-04-29T14:34:39.998Z</time></trkpt><trkpt lat="42.629458873107986" lon="13.65853550970184"><ele>320.6666666666667</ele><time>2026-04-29T14:34:40.998Z</time></trkpt><trkpt lat="42.62965450926235" lon="13.658522871911057"><ele>315.3333333333333</ele><time>2026-04-29T14:34:42Z</time></trkpt><trkpt lat="42.629850611856206" lon="13.658475226243983"><ele>310.0</ele><time>2026-04-29T14:34:43Z</time></trkpt><trkpt lat="42.63003006315682" lon="13.658459479591654"><ele>310.0</ele><time>2026-04-29T14:34:44Z</time></trkpt><trkpt lat="42.63018799387144" lon="13.658454798717818"><ele>310.0</ele><time>2026-04-29T14:34:45Z</time></trkpt><trkpt lat="42.630335944312684" lon="13.65845728154661"><ele>310.0</ele><time>2026-04-29T14:34:45.999Z</time></trkpt><trkpt lat="42.630472288722835" lon="13.658481387322826"><ele>310.0</ele><time>2026-04-29T14:34:46.999Z</time></trkpt><trkpt lat="42.63059293533184" lon="13.658534334826163"><ele>312.8</ele><time>2026-04-29T14:34:48Z</time></trkpt><trkpt lat="42.63069072803935" lon="13.65860699533978"><ele>315.6</ele><time>2026-04-29T14:34:49Z</time></trkpt><trkpt lat="42.63077974909661" lon="13.65867615949751"><ele>318.4</ele><time>2026-04-29T14:34:50Z</time></trkpt><trkpt lat="42.63086246649237" lon="13.658731489799704"><ele>321.2</ele><time>2026-04-29T14:34:51Z</time></trkpt><trkpt lat="42.630934111457314" lon="13.658782169007027"><ele>324.0</ele><time>2026-04-29T14:34:52Z</time></trkpt><trkpt lat="42.63099203812049" lon="13.658840713493488"><ele>324.0</ele><time>2026-04-29T14:34:53Z</time></trkpt><trkpt lat="42.63106661173974" lon="13.658886466443104"><ele>324.0</ele><time>2026-04-29T14:34:55Z</time></trkpt><trkpt lat="42.63114047915841" lon="13.658920024031033"><ele>324.0</ele><time>2026-04-29T14:35:00.999Z</time></trkpt><trkpt lat="42.63120402233226" lon="13.658976984028486"><ele>324.0</ele><time>2026-04-29T14:35:01.999Z</time></trkpt><trkpt lat="42.63129187093713" lon="13.659048225079538"><ele>324.0</ele><time>2026-04-29T14:35:02.999Z</time></trkpt><trkpt lat="42.63138247353055" lon="13.659105217110701"><ele>324.0</ele><time>2026-04-29T14:35:03.999Z</time></trkpt><trkpt lat="42.631478715624255" lon="13.659167485419664"><ele>323.79999999999995</ele><time>2026-04-29T14:35:04.999Z</time></trkpt><trkpt lat="42.63157496339774" lon="13.659255110357526"><ele>323.59999999999997</ele><time>2026-04-29T14:35:05.999Z</time></trkpt><trkpt lat="42.6316796275206" lon="13.659327986363348"><ele>323.4</ele><time>2026-04-29T14:35:06.999Z</time></trkpt><trkpt lat="42.63177875199996" lon="13.659388185738006"><ele>323.2</ele><time>2026-04-29T14:35:07.999Z</time></trkpt><trkpt lat="42.63186408944866" lon="13.659445958686428"><ele>323.0</ele><time>2026-04-29T14:35:08.999Z</time></trkpt><trkpt lat="42.63193864681551" lon="13.659497571855237"><ele>323.33333333333337</ele><time>2026-04-29T14:35:09.999Z</time></trkpt><trkpt lat="42.63201388004494" lon="13.659551560767795"><ele>323.6666666666667</ele><time>2026-04-29T14:35:10.999Z</time></trkpt><trkpt lat="42.63208109492686" lon="13.659596013120206"><ele>324.0</ele><time>2026-04-29T14:35:11.999Z</time></trkpt><trkpt lat="42.63215166355146" lon="13.659641002782799"><ele>324.3333333333333</ele><time>2026-04-29T14:35:12.999Z</time></trkpt><trkpt lat="42.632229687250295" lon="13.65968932752525"><ele>324.66666666666663</ele><time>2026-04-29T14:35:13.999Z</time></trkpt><trkpt lat="42.63231049530309" lon="13.6597397521398"><ele>325.0</ele><time>2026-04-29T14:35:14.999Z</time></trkpt><trkpt lat="42.63238930802166" lon="13.659793948137066"><ele>325.0</ele><time>2026-04-29T14:35:15.999Z</time></trkpt><trkpt lat="42.63247615693514" lon="13.659849808833544"><ele>325.0</ele><time>2026-04-29T14:35:16.999Z</time></trkpt><trkpt lat="42.63256596533366" lon="13.659907242298235"><ele>325.0</ele><time>2026-04-29T14:35:17.999Z</time></trkpt><trkpt lat="42.64073482345599" lon="13.667921044193237"><ele>322.66666666666663</ele><time>2026-04-29T14:36:18.999Z</time></trkpt><trkpt lat="42.640884744219655" lon="13.668046559808937"><ele>320.3333333333333</ele><time>2026-04-29T14:36:19.999Z</time></trkpt><trkpt lat="42.64102650132651" lon="13.668179451359043"><ele>318.0</ele><time>2026-04-29T14:36:20.999Z</time></trkpt><trkpt lat="42.64116672030752" lon="13.668309038094003"><ele>318.0</ele><time>2026-04-29T14:36:21.999Z</time></trkpt><trkpt lat="42.641303105377766" lon="13.66843581943348"><ele>318.0</ele><time>2026-04-29T14:36:22.999Z</time></trkpt><trkpt lat="42.64143509181506" lon="13.66856028858739"><ele>318.0</ele><time>2026-04-29T14:36:23.999Z</time></trkpt><trkpt lat="42.641560722256756" lon="13.668683911416313"><ele>309.0</ele><time>2026-04-29T14:36:24.999Z</time></trkpt><trkpt lat="42.641683150542775" lon="13.668798896633263"><ele>300.0</ele><time>2026-04-29T14:36:25.998Z</time></trkpt><trkpt lat="42.641807012440445" lon="13.668901580830639"><ele>291.0</ele><time>2026-04-29T14:36:26.998Z</time></trkpt><trkpt lat="42.64195294353524" lon="13.668994694339805"><ele>295.0</ele><time>2026-04-29T14:36:27.998Z</time></trkpt><trkpt lat="42.642114137524594" lon="13.669061793554954"><ele>299.0</ele><time>2026-04-29T14:36:28.998Z</time></trkpt><trkpt lat="42.64228506617118" lon="13.669123528686239"><ele>303.0</ele><time>2026-04-29T14:36:29.998Z</time></trkpt><trkpt lat="42.64245547097525" lon="13.669207087765821"><ele>303.0</ele><time>2026-04-29T14:36:30.998Z</time></trkpt><trkpt lat="42.64261574817552" lon="13.66931155820264"><ele>303.0</ele><time>2026-04-29T14:36:31.998Z</time></trkpt><trkpt lat="42.642760925576454" lon="13.669434542355885"><ele>303.0</ele><time>2026-04-29T14:36:32.998Z</time></trkpt><trkpt lat="42.642905870899185" lon="13.669571487962004"><ele>300.3333333333333</ele><time>2026-04-29T14:36:33.998Z</time></trkpt><trkpt lat="42.64305179138372" lon="13.669728852437725"><ele>297.66666666666663</ele><time>2026-04-29T14:36:34.998Z</time></trkpt><trkpt lat="42.64320632519713" lon="13.669909601436306"><ele>295.0</ele><time>2026-04-29T14:36:35.998Z</time></trkpt><trkpt lat="42.643371901449456" lon="13.670103209417753"><ele>293.3333333333333</ele><time>2026-04-29T14:36:36.998Z</time></trkpt><trkpt lat="42.6435193058687" lon="13.67027563302489"><ele>291.6666666666667</ele><time>2026-04-29T14:36:37.998Z</time></trkpt><trkpt lat="42.6436547536264" lon="13.670427796409838"><ele>290.0</ele><time>2026-04-29T14:36:38.998Z</time></trkpt><trkpt lat="42.643781013250816" lon="13.670574167122027"><ele>290.0</ele><time>2026-04-29T14:36:39.998Z</time></trkpt><trkpt lat="42.64389936219357" lon="13.670717166372116"><ele>290.0</ele><time>2026-04-29T14:36:40.998Z</time></trkpt><trkpt lat="42.64400810071755" lon="13.670848063145499"><ele>290.0</ele><time>2026-04-29T14:36:41.998Z</time></trkpt><trkpt lat="42.64410104263847" lon="13.670961588779535"><ele>290.0</ele><time>2026-04-29T14:36:42.998Z</time></trkpt><trkpt lat="42.64418577155575" lon="13.671066709004377"><ele>290.5</ele><time>2026-04-29T14:36:43.998Z</time></trkpt><trkpt lat="42.644254810573464" lon="13.671154301888203"><ele>291.0</ele><time>2026-04-29T14:36:44.998Z</time></trkpt><trkpt lat="42.64430476379702" lon="13.671240396401346"><ele>291.5</ele><time>2026-04-29T14:36:45.998Z</time></trkpt><trkpt lat="42.64433858402036" lon="13.671331809960497"><ele>292.0</ele><time>2026-04-29T14:36:46.998Z</time></trkpt><trkpt lat="42.64435780869713" lon="13.67144121379228"><ele>292.5</ele><time>2026-04-29T14:36:48Z</time></trkpt><trkpt lat="42.64435720688862" lon="13.671561415035523"><ele>293.0</ele><time>2026-04-29T14:36:49Z</time></trkpt><trkpt lat="42.6443307715937" lon="13.671683758692659"><ele>293.0</ele><time>2026-04-29T14:36:50Z</time></trkpt><trkpt lat="42.64433043877145" lon="13.6717979746426"><ele>293.0</ele><time>2026-04-29T14:36:51Z</time></trkpt><trkpt lat="42.644359463124424" lon="13.67190940747323"><ele>293.0</ele><time>2026-04-29T14:36:52Z</time></trkpt><trkpt lat="42.64441605016486" lon="13.672008509579571"><ele>293.0</ele><time>2026-04-29T14:36:53Z</time></trkpt><trkpt lat="42.644484613961275" lon="13.672090467991152"><ele>293.0</ele><time>2026-04-29T14:36:54Z</time></trkpt><trkpt lat="42.644547837056315" lon="13.672182252715753"><ele>293.0</ele><time>2026-04-29T14:36:55Z</time></trkpt><trkpt lat="42.6445938098817" lon="13.672303582530507"><ele>293.25</ele><time>2026-04-29T14:36:56Z</time></trkpt><trkpt lat="42.64463343670398" lon="13.672446009077039"><ele>293.5</ele><time>2026-04-29T14:36:57Z</time></trkpt><trkpt lat="42.64468218643614" lon="13.67260346411693"><ele>293.75</ele><time>2026-04-29T14:36:58Z</time></trkpt><trkpt lat="42.64475165002387" lon="13.672782806836533"><ele>294.0</ele><time>2026-04-29T14:36:59Z</time></trkpt><trkpt lat="42.64482630111203" lon="13.672967343034406"><ele>294.0</ele><time>2026-04-29T14:37:00Z</time></trkpt><trkpt lat="42.64489549588992" lon="13.673147159023161"><ele>294.0</ele><time>2026-04-29T14:37:01Z</time></trkpt><trkpt lat="42.64496382470733" lon="13.673317901749964"><ele>294.0</ele><time>2026-04-29T14:37:02Z</time></trkpt><trkpt lat="42.64503133020163" lon="13.673485057709359"><ele>294.0</ele><time>2026-04-29T14:37:03Z</time></trkpt><trkpt lat="42.64509390369398" lon="13.673646930097917"><ele>292.75</ele><time>2026-04-29T14:37:03.999Z</time></trkpt><trkpt lat="42.6451554048497" lon="13.673802887412759"><ele>291.5</ele><time>2026-04-29T14:37:04.999Z</time></trkpt><trkpt lat="42.64520855163982" lon="13.673957607212072"><ele>290.25</ele><time>2026-04-29T14:37:05.999Z</time></trkpt><trkpt lat="42.64525952222313" lon="13.674110057855176"><ele>289.0</ele><time>2026-04-29T14:37:06.999Z</time></trkpt><trkpt lat="42.645304804160816" lon="13.674266055692307"><ele>288.0</ele><time>2026-04-29T14:37:07.999Z</time></trkpt><trkpt lat="42.6453425018068" lon="13.674443596212134"><ele>287.0</ele><time>2026-04-29T14:37:08.999Z</time></trkpt><trkpt lat="42.645375095119306" lon="13.674676276700879"><ele>286.0</ele><time>2026-04-29T14:37:09.999Z</time></trkpt><trkpt lat="42.645407898050976" lon="13.674943919207537"><ele>286.0</ele><time>2026-04-29T14:37:10.999Z</time></trkpt><trkpt lat="42.645446672583304" lon="13.675216335701622"><ele>286.0</ele><time>2026-04-29T14:37:11.999Z</time></trkpt><trkpt lat="42.64548491909276" lon="13.675496123899517"><ele>286.0</ele><time>2026-04-29T14:37:12.999Z</time></trkpt><trkpt lat="42.64552146289252" lon="13.6757971863804"><ele>284.3333333333333</ele><time>2026-04-29T14:37:13.999Z</time></trkpt><trkpt lat="42.64556200626919" lon="13.676078510158383"><ele>282.6666666666667</ele><time>2026-04-29T14:37:14.999Z</time></trkpt><trkpt lat="42.64559697256545" lon="13.676347257249676"><ele>281.0</ele><time>2026-04-29T14:37:15.999Z</time></trkpt><trkpt lat="42.64563211956176" lon="13.676595659397924"><ele>278.5</ele><time>2026-04-29T14:37:16.999Z</time></trkpt><trkpt lat="42.645664700540735" lon="13.676841962979582"><ele>276.0</ele><time>2026-04-29T14:37:17.999Z</time></trkpt><trkpt lat="42.654932609775116" lon="13.692149970985946"><ele>259.0</ele><time>2026-04-29T14:38:19.999Z</time></trkpt><trkpt lat="42.6551108464339" lon="13.69230954060029"><ele>242.0</ele><time>2026-04-29T14:38:20.999Z</time></trkpt><trkpt lat="42.65532002240609" lon="13.692493532739052"><ele>241.5</ele><time>2026-04-29T14:38:21.999Z</time></trkpt><trkpt lat="42.65558763461657" lon="13.692621534171234"><ele>241.0</ele><time>2026-04-29T14:38:22.999Z</time></trkpt><trkpt lat="42.655780498871266" lon="13.692735329249816"><ele>241.66666666666666</ele><time>2026-04-29T14:38:23.999Z</time></trkpt><trkpt lat="42.655947472789244" lon="13.692832732170473"><ele>242.33333333333331</ele><time>2026-04-29T14:38:24.999Z</time></trkpt><trkpt lat="42.6561070460939" lon="13.692954610987833"><ele>243.0</ele><time>2026-04-29T14:38:25.999Z</time></trkpt><trkpt lat="42.656260022339794" lon="13.693075665477215"><ele>248.66666666666669</ele><time>2026-04-29T14:38:26.999Z</time></trkpt><trkpt lat="42.65641143451626" lon="13.693217076624135"><ele>254.33333333333334</ele><time>2026-04-29T14:38:27.999Z</time></trkpt><trkpt lat="42.6565481245211" lon="13.693400626394235"><ele>260.0</ele><time>2026-04-29T14:38:28.999Z</time></trkpt><trkpt lat="42.65668384035947" lon="13.693614519360208"><ele>260.33333333333337</ele><time>2026-04-29T14:38:29.998Z</time></trkpt><trkpt lat="42.65680413572622" lon="13.693845040054066"><ele>260.6666666666667</ele><time>2026-04-29T14:38:30.998Z</time></trkpt><trkpt lat="42.65689818629826" lon="13.6940725760104"><ele>261.0</ele><time>2026-04-29T14:38:31.998Z</time></trkpt><trkpt lat="42.656971555444656" lon="13.694305743780504"><ele>262.6666666666667</ele><time>2026-04-29T14:38:32.998Z</time></trkpt><trkpt lat="42.65702992287705" lon="13.69456287133276"><ele>264.33333333333337</ele><time>2026-04-29T14:38:33.998Z</time></trkpt><trkpt lat="42.657086466543106" lon="13.694843785660522"><ele>266.0</ele><time>2026-04-29T14:38:35.067Z</time></trkpt><trkpt lat="42.65714531358293" lon="13.695081785884298"><ele>266.33333333333337</ele><time>2026-04-29T14:38:36.062Z</time></trkpt><trkpt lat="42.657203561137116" lon="13.695315355921263"><ele>266.6666666666667</ele><time>2026-04-29T14:38:37.063Z</time></trkpt><trkpt lat="42.657257118228145" lon="13.69556031112879"><ele>267.0</ele><time>2026-04-29T14:38:38.062Z</time></trkpt><trkpt lat="42.656433859201066" lon="13.69897662634568"><ele>244.0</ele><time>2026-04-29T14:38:53.998Z</time></trkpt><trkpt lat="42.655242983350554" lon="13.699374877625763"><ele>242.5</ele><time>2026-04-29T14:38:54.998Z</time></trkpt><trkpt lat="42.655085549153924" lon="13.699616251857119"><ele>241.0</ele><time>2026-04-29T14:38:55.998Z</time></trkpt><trkpt lat="42.65495219204267" lon="13.699906509688919"><ele>241.0</ele><time>2026-04-29T14:38:56.998Z</time></trkpt><trkpt lat="42.65481668855533" lon="13.700177877187093"><ele>241.0</ele><time>2026-04-29T14:38:57.998Z</time></trkpt><trkpt lat="42.65471033323302" lon="13.700428608368908"><ele>241.0</ele><time>2026-04-29T14:38:58.999Z</time></trkpt><trkpt lat="42.65459693229629" lon="13.700664755460561"><ele>241.0</ele><time>2026-04-29T14:38:59.999Z</time></trkpt><trkpt lat="42.654490342264346" lon="13.700899418264889"><ele>241.0</ele><time>2026-04-29T14:39:00.999Z</time></trkpt><trkpt lat="42.654390901513096" lon="13.701121638281677"><ele>243.33333333333331</ele><time>2026-04-29T14:39:01.999Z</time></trkpt><trkpt lat="42.65429766653917" lon="13.701326890594085"><ele>245.66666666666669</ele><time>2026-04-29T14:39:02.999Z</time></trkpt><trkpt lat="42.65420912780548" lon="13.701517634189774"><ele>248.0</ele><time>2026-04-29T14:39:03.999Z</time></trkpt><trkpt lat="42.65412216473508" lon="13.701711723345376"><ele>245.33333333333334</ele><time>2026-04-29T14:39:04.999Z</time></trkpt><trkpt lat="42.65403855443454" lon="13.70192396510351"><ele>242.66666666666669</ele><time>2026-04-29T14:39:06Z</time></trkpt><trkpt lat="42.653960045606425" lon="13.702138336446708"><ele>240.0</ele><time>2026-04-29T14:39:06.999Z</time></trkpt><trkpt lat="42.653896194360094" lon="13.702360061470708"><ele>240.0</ele><time>2026-04-29T14:39:07.999Z</time></trkpt><trkpt lat="42.65384506492462" lon="13.702590415448597"><ele>240.0</ele><time>2026-04-29T14:39:09Z</time></trkpt><trkpt lat="42.65379587744" lon="13.702827100882628"><ele>240.0</ele><time>2026-04-29T14:39:09.999Z</time></trkpt><trkpt lat="42.65375425482547" lon="13.703050547245473"><ele>239.0</ele><time>2026-04-29T14:39:10.999Z</time></trkpt><trkpt lat="42.65370740946518" lon="13.703297219089803"><ele>238.0</ele><time>2026-04-29T14:39:12Z</time></trkpt><trkpt lat="42.65366044311494" lon="13.703562866419043"><ele>237.0</ele><time>2026-04-29T14:39:12.999Z</time></trkpt><trkpt lat="42.65361593454315" lon="13.703816347950124"><ele>247.33333333333331</ele><time>2026-04-29T14:39:13.999Z</time></trkpt><trkpt lat="42.65357576800218" lon="13.70405622555153"><ele>257.66666666666663</ele><time>2026-04-29T14:39:14.999Z</time></trkpt><trkpt lat="42.65351422922594" lon="13.704293041264947"><ele>268.0</ele><time>2026-04-29T14:39:16.069Z</time></trkpt><trkpt lat="42.653474402099555" lon="13.704504434390971"><ele>270.0</ele><time>2026-04-29T14:39:17.053Z</time></trkpt><trkpt lat="42.653434429570524" lon="13.70471022335331"><ele>272.0</ele><time>2026-04-29T14:39:18.052Z</time></trkpt><trkpt lat="42.65370470762334" lon="13.717459699904971"><ele>262.25</ele><time>2026-04-29T14:40:19Z</time></trkpt><trkpt lat="42.65378589696638" lon="13.717576104604476"><ele>252.5</ele><time>2026-04-29T14:40:20Z</time></trkpt><trkpt lat="42.65387195105186" lon="13.717687343086226"><ele>242.75</ele><time>2026-04-29T14:40:21Z</time></trkpt><trkpt lat="42.65396731799756" lon="13.717804698188866"><ele>233.0</ele><time>2026-04-29T14:40:22Z</time></trkpt><trkpt lat="42.65406770444985" lon="13.717932300559143"><ele>233.0</ele><time>2026-04-29T14:40:23Z</time></trkpt><trkpt lat="42.654192622931724" lon="13.718083576285416"><ele>233.0</ele><time>2026-04-29T14:40:24Z</time></trkpt><trkpt lat="42.65432867643905" lon="13.718252622917486"><ele>233.0</ele><time>2026-04-29T14:40:25Z</time></trkpt><trkpt lat="42.65444965219369" lon="13.718419688873107"><ele>227.66666666666669</ele><time>2026-04-29T14:40:26Z</time></trkpt><trkpt lat="42.654562497690456" lon="13.718570240990713"><ele>222.33333333333331</ele><time>2026-04-29T14:40:27Z</time></trkpt><trkpt lat="42.65467048660102" lon="13.718713286725809"><ele>217.0</ele><time>2026-04-29T14:40:28Z</time></trkpt><trkpt lat="42.6547736124496" lon="13.718849853702388"><ele>217.0</ele><time>2026-04-29T14:40:29Z</time></trkpt><trkpt lat="42.654869046866075" lon="13.718979700648791"><ele>217.0</ele><time>2026-04-29T14:40:30Z</time></trkpt><trkpt lat="42.65496187758534" lon="13.719106438619896"><ele>217.0</ele><time>2026-04-29T14:40:31Z</time></trkpt><trkpt lat="42.65505898278483" lon="13.719236011612628"><ele>217.0</ele><time>2026-04-29T14:40:32Z</time></trkpt><trkpt lat="42.65516388771685" lon="13.719372178057688"><ele>217.0</ele><time>2026-04-29T14:40:33Z</time></trkpt><trkpt lat="42.655272727710056" lon="13.719516397381332"><ele>217.0</ele><time>2026-04-29T14:40:34Z</time></trkpt><trkpt lat="42.65538142407344" lon="13.719658428280567"><ele>217.0</ele><time>2026-04-29T14:40:35Z</time></trkpt><trkpt lat="42.65548676770136" lon="13.719792953006621"><ele>217.0</ele><time>2026-04-29T14:40:36Z</time></trkpt><trkpt lat="42.655585794079734" lon="13.719919108275299"><ele>217.0</ele><time>2026-04-29T14:40:36.999Z</time></trkpt><trkpt lat="42.65568627528412" lon="13.72004605007561"><ele>217.0</ele><time>2026-04-29T14:40:37.999Z</time></trkpt><trkpt lat="42.65579626003178" lon="13.72018108762209"><ele>217.0</ele><time>2026-04-29T14:40:38.999Z</time></trkpt><trkpt lat="42.6559160073728" lon="13.720318604516544"><ele>217.0</ele><time>2026-04-29T14:40:39.999Z</time></trkpt><trkpt lat="42.65602765735504" lon="13.720448998046795"><ele>217.0</ele><time>2026-04-29T14:40:40.999Z</time></trkpt><trkpt lat="42.65614360816307" lon="13.720576434758437"><ele>217.0</ele><time>2026-04-29T14:40:41.999Z</time></trkpt><trkpt lat="42.65628841778995" lon="13.720717939811392"><ele>217.0</ele><time>2026-04-29T14:40:42.999Z</time></trkpt><trkpt lat="42.65646379592186" lon="13.720880658876654"><ele>217.0</ele><time>2026-04-29T14:40:43.999Z</time></trkpt><trkpt lat="42.656612554498764" lon="13.72102238586661"><ele>217.0</ele><time>2026-04-29T14:40:44.999Z</time></trkpt><trkpt lat="42.65675205366114" lon="13.721142905458654"><ele>217.0</ele><time>2026-04-29T14:40:45.999Z</time></trkpt><trkpt lat="42.65688775918583" lon="13.721254009385676"><ele>216.66666666666666</ele><time>2026-04-29T14:40:46.999Z</time></trkpt><trkpt lat="42.6570422423046" lon="13.721364453887599"><ele>216.33333333333331</ele><time>2026-04-29T14:40:47.999Z</time></trkpt><trkpt lat="42.657183434724885" lon="13.72145954007433"><ele>216.0</ele><time>2026-04-29T14:40:48.999Z</time></trkpt><trkpt lat="42.65730419782044" lon="13.721537961258942"><ele>216.0</ele><time>2026-04-29T14:40:49.999Z</time></trkpt><trkpt lat="42.65740593360451" lon="13.721606288215902"><ele>216.00000000000003</ele><time>2026-04-29T14:40:50.999Z</time></trkpt><trkpt lat="42.65749329361893" lon="13.72166730668567"><ele>216.00000000000003</ele><time>2026-04-29T14:40:51.999Z</time></trkpt><trkpt lat="42.65756743789223" lon="13.721718478890766"><ele>216.0</ele><time>2026-04-29T14:40:52.999Z</time></trkpt><trkpt lat="42.657668737597035" lon="13.721784472887608"><ele>216.0</ele><time>2026-04-29T14:40:54.999Z</time></trkpt><trkpt lat="42.657758695103595" lon="13.721849758300971"><ele>215.60000000000002</ele><time>2026-04-29T14:40:56.999Z</time></trkpt><trkpt lat="42.65783009451973" lon="13.721952347008095"><ele>215.20000000000002</ele><time>2026-04-29T14:40:58.999Z</time></trkpt><trkpt lat="42.65785176553133" lon="13.72215247564129"><ele>214.79999999999998</ele><time>2026-04-29T14:41:00.999Z</time></trkpt><trkpt lat="42.65785521808396" lon="13.722268111462318"><ele>214.39999999999998</ele><time>2026-04-29T14:41:01.999Z</time></trkpt><trkpt lat="42.657879297832245" lon="13.722365315904486"><ele>214.0</ele><time>2026-04-29T14:41:02.999Z</time></trkpt><trkpt lat="42.65793090962604" lon="13.722451368243883"><ele>213.99999999999997</ele><time>2026-04-29T14:41:04Z</time></trkpt><trkpt lat="42.65799902363476" lon="13.72251381421569"><ele>214.0</ele><time>2026-04-29T14:41:05Z</time></trkpt><trkpt lat="42.65807654433079" lon="13.722550319272496"><ele>214.0</ele><time>2026-04-29T14:41:06Z</time></trkpt><trkpt lat="42.65815015668717" lon="13.722588380481806"><ele>214.0</ele><time>2026-04-29T14:41:07Z</time></trkpt><trkpt lat="42.658216967764524" lon="13.72259356567282"><ele>213.99999999999997</ele><time>2026-04-29T14:41:08Z</time></trkpt><trkpt lat="42.658258457664736" lon="13.722741234914846"><ele>214.0</ele><time>2026-04-29T14:41:09Z</time></trkpt><trkpt lat="42.65828638858085" lon="13.722851260651812"><ele>214.0</ele><time>2026-04-29T14:41:10Z</time></trkpt><trkpt lat="42.658290069538495" lon="13.722972367502564"><ele>213.99999999999997</ele><time>2026-04-29T14:41:11Z</time></trkpt><trkpt lat="42.65829112150556" lon="13.723100544349935"><ele>213.99999999999997</ele><time>2026-04-29T14:41:12Z</time></trkpt><trkpt lat="42.65829540498142" lon="13.723237372193166"><ele>214.0</ele><time>2026-04-29T14:41:13Z</time></trkpt><trkpt lat="42.65829960106168" lon="13.723373717481062"><ele>214.0</ele><time>2026-04-29T14:41:14Z</time></trkpt><trkpt lat="42.6583122114794" lon="13.723519032644406"><ele>213.5</ele><time>2026-04-29T14:41:15Z</time></trkpt><trkpt lat="42.65834250881508" lon="13.723664448749137"><ele>213.0</ele><time>2026-04-29T14:41:16Z</time></trkpt><trkpt lat="42.65838654885054" lon="13.72382407672032"><ele>212.5</ele><time>2026-04-29T14:41:17Z</time></trkpt><trkpt lat="42.65845485744842" lon="13.723999464060425"><ele>212.0</ele><time>2026-04-29T14:41:18Z</time></trkpt><trkpt lat="42.66757282293873" lon="13.73489682292177"><ele>207.0</ele><time>2026-04-29T14:42:19Z</time></trkpt><trkpt lat="42.66756907337078" lon="13.735341531111745"><ele>202.0</ele><time>2026-04-29T14:42:20Z</time></trkpt><trkpt lat="42.66756194801935" lon="13.735806915659454"><ele>202.5</ele><time>2026-04-29T14:42:21Z</time></trkpt><trkpt lat="42.6675552815226" lon="13.736277648320343"><ele>203.0</ele><time>2026-04-29T14:42:22Z</time></trkpt><trkpt lat="42.66755039124125" lon="13.736717858899533"><ele>200.5</ele><time>2026-04-29T14:42:23Z</time></trkpt><trkpt lat="42.66754707925655" lon="13.737129218618097"><ele>198.0</ele><time>2026-04-29T14:42:24Z</time></trkpt><trkpt lat="42.667557040661016" lon="13.737546856484938"><ele>198.0</ele><time>2026-04-29T14:42:25Z</time></trkpt><trkpt lat="42.66758038174234" lon="13.737971019734614"><ele>198.0</ele><time>2026-04-29T14:42:26Z</time></trkpt><trkpt lat="42.667612199575615" lon="13.738416596579444"><ele>197.5</ele><time>2026-04-29T14:42:27Z</time></trkpt><trkpt lat="42.66765074910789" lon="13.738864624084846"><ele>197.0</ele><time>2026-04-29T14:42:28Z</time></trkpt><trkpt lat="42.667697094537154" lon="13.739315135800323"><ele>196.5</ele><time>2026-04-29T14:42:29Z</time></trkpt><trkpt lat="42.66775396552681" lon="13.739763355714887"><ele>196.0</ele><time>2026-04-29T14:42:30Z</time></trkpt><trkpt lat="42.66782477860333" lon="13.740199577770964"><ele>196.5</ele><time>2026-04-29T14:42:31Z</time></trkpt><trkpt lat="42.667905546880895" lon="13.74063278876293"><ele>197.0</ele><time>2026-04-29T14:42:32Z</time></trkpt><trkpt lat="42.66799330559866" lon="13.741070200991198"><ele>197.0</ele><time>2026-04-29T14:42:33Z</time></trkpt><trkpt lat="42.66810001661181" lon="13.741522635488638"><ele>197.0</ele><time>2026-04-29T14:42:34Z</time></trkpt><trkpt lat="42.66822682986253" lon="13.741990058652235"><ele>193.0</ele><time>2026-04-29T14:42:35Z</time></trkpt><trkpt lat="42.668364764369926" lon="13.74247294791515"><ele>189.0</ele><time>2026-04-29T14:42:36Z</time></trkpt><trkpt lat="42.66851540169969" lon="13.742965735883573"><ele>188.5</ele><time>2026-04-29T14:42:37Z</time></trkpt><trkpt lat="42.66868089565611" lon="13.743460303875384"><ele>188.0</ele><time>2026-04-29T14:42:38Z</time></trkpt><trkpt lat="42.66885976487426" lon="13.743954434077647"><ele>186.5</ele><time>2026-04-29T14:42:39Z</time></trkpt><trkpt lat="42.66903610846674" lon="13.744403329132968"><ele>185.0</ele><time>2026-04-29T14:42:39.999Z</time></trkpt><trkpt lat="42.66921781984719" lon="13.744838756373227"><ele>185.0</ele><time>2026-04-29T14:42:40.999Z</time></trkpt><trkpt lat="42.669411454644624" lon="13.745265390809303"><ele>185.0</ele><time>2026-04-29T14:42:41.999Z</time></trkpt><trkpt lat="42.669608751605956" lon="13.74567492405327"><ele>183.5</ele><time>2026-04-29T14:42:42.999Z</time></trkpt><trkpt lat="42.66980507313092" lon="13.746061651047707"><ele>182.0</ele><time>2026-04-29T14:42:43.999Z</time></trkpt><trkpt lat="42.67001198096601" lon="13.746437845848218"><ele>182.0</ele><time>2026-04-29T14:42:44.999Z</time></trkpt><trkpt lat="42.670233888035725" lon="13.746813405759779"><ele>182.0</ele><time>2026-04-29T14:42:45.999Z</time></trkpt><trkpt lat="42.670458396416095" lon="13.747170935726977"><ele>181.5</ele><time>2026-04-29T14:42:46.999Z</time></trkpt><trkpt lat="42.670692044740235" lon="13.747524965601471"><ele>181.0</ele><time>2026-04-29T14:42:47.999Z</time></trkpt><trkpt lat="42.67092998183505" lon="13.747878569434219"><ele>179.5</ele><time>2026-04-29T14:42:48.999Z</time></trkpt><trkpt lat="42.67116674921961" lon="13.748232960577903"><ele>178.0</ele><time>2026-04-29T14:42:49.999Z</time></trkpt><trkpt lat="42.67141002667812" lon="13.748593316727506"><ele>181.5</ele><time>2026-04-29T14:42:50.999Z</time></trkpt><trkpt lat="42.671647993390465" lon="13.748948746941332"><ele>185.0</ele><time>2026-04-29T14:42:51.999Z</time></trkpt><trkpt lat="42.671868037319655" lon="13.749273079856382"><ele>186.0</ele><time>2026-04-29T14:42:52.999Z</time></trkpt><trkpt lat="42.67209980087896" lon="13.749615091177088"><ele>187.0</ele><time>2026-04-29T14:42:53.999Z</time></trkpt><trkpt lat="42.67234188748391" lon="13.749975741644073"><ele>186.5</ele><time>2026-04-29T14:42:54.999Z</time></trkpt><trkpt lat="42.6725908593912" lon="13.750349785662863"><ele>186.0</ele><time>2026-04-29T14:42:55.999Z</time></trkpt><trkpt lat="42.67285049888387" lon="13.750734991583398"><ele>187.0</ele><time>2026-04-29T14:42:56.999Z</time></trkpt><trkpt lat="42.67310272188994" lon="13.751112177346592"><ele>188.0</ele><time>2026-04-29T14:42:57.999Z</time></trkpt><trkpt lat="42.67333531694465" lon="13.751455187539744"><ele>188.0</ele><time>2026-04-29T14:42:58.999Z</time></trkpt><trkpt lat="42.67355289683719" lon="13.751779148224268"><ele>188.0</ele><time>2026-04-29T14:42:59.999Z</time></trkpt><trkpt lat="42.67375765818296" lon="13.752083149020883"><ele>184.0</ele><time>2026-04-29T14:43:00.999Z</time></trkpt><trkpt lat="42.673954070813735" lon="13.752372734156017"><ele>180.0</ele><time>2026-04-29T14:43:01.999Z</time></trkpt><trkpt lat="42.67415268255501" lon="13.752664511461063"><ele>180.0</ele><time>2026-04-29T14:43:02.999Z</time></trkpt><trkpt lat="42.67435178899484" lon="13.752961567628912"><ele>180.0</ele><time>2026-04-29T14:43:03.999Z</time></trkpt><trkpt lat="42.67455448546079" lon="13.753263850957575"><ele>175.0</ele><time>2026-04-29T14:43:04.999Z</time></trkpt><trkpt lat="42.6747604069938" lon="13.753569720382533"><ele>170.0</ele><time>2026-04-29T14:43:05.999Z</time></trkpt><trkpt lat="42.674965072344754" lon="13.753878914837676"><ele>170.0</ele><time>2026-04-29T14:43:06.999Z</time></trkpt><trkpt lat="42.6751723330631" lon="13.754186960151324"><ele>170.0</ele><time>2026-04-29T14:43:07.999Z</time></trkpt><trkpt lat="42.675377168169454" lon="13.754487501010887"><ele>168.5</ele><time>2026-04-29T14:43:09Z</time></trkpt><trkpt lat="42.67557785264982" lon="13.754783410183547"><ele>167.0</ele><time>2026-04-29T14:43:10Z</time></trkpt><trkpt lat="42.67577514902039" lon="13.755076364752146"><ele>166.5</ele><time>2026-04-29T14:43:11Z</time></trkpt><trkpt lat="42.67596637408649" lon="13.755356332461139"><ele>166.0</ele><time>2026-04-29T14:43:12Z</time></trkpt><trkpt lat="42.67615831683954" lon="13.755640852565366"><ele>166.0</ele><time>2026-04-29T14:43:13Z</time></trkpt><trkpt lat="42.676345554257786" lon="13.75592104677895"><ele>166.0</ele><time>2026-04-29T14:43:14Z</time></trkpt><trkpt lat="42.676531541437505" lon="13.756201091339047"><ele>165.0</ele><time>2026-04-29T14:43:15Z</time></trkpt><trkpt lat="42.67672032720182" lon="13.756480289705694"><ele>164.0</ele><time>2026-04-29T14:43:16Z</time></trkpt><trkpt lat="42.67690978885254" lon="13.756760586101064"><ele>165.0</ele><time>2026-04-29T14:43:17Z</time></trkpt><trkpt lat="42.67710045238612" lon="13.757043939751856"><ele>166.0</ele><time>2026-04-29T14:43:18Z</time></trkpt><trkpt lat="42.68565268107675" lon="13.77716142923289"><ele>154.5</ele><time>2026-04-29T14:44:19Z</time></trkpt><trkpt lat="42.6858442289406" lon="13.777507142176086"><ele>143.0</ele><time>2026-04-29T14:44:20Z</time></trkpt><trkpt lat="42.68603449217784" lon="13.777849438123551"><ele>142.0</ele><time>2026-04-29T14:44:21Z</time></trkpt><trkpt lat="42.68622028651093" lon="13.778187549795257"><ele>141.0</ele><time>2026-04-29T14:44:22Z</time></trkpt><trkpt lat="42.68640039996579" lon="13.778515376173935"><ele>140.0</ele><time>2026-04-29T14:44:23Z</time></trkpt><trkpt lat="42.68657746245372" lon="13.778838883152986"><ele>139.0</ele><time>2026-04-29T14:44:24Z</time></trkpt><trkpt lat="42.686749013921194" lon="13.779157275382323"><ele>139.0</ele><time>2026-04-29T14:44:25Z</time></trkpt><trkpt lat="42.686916446455115" lon="13.779474694026788"><ele>139.0</ele><time>2026-04-29T14:44:26Z</time></trkpt><trkpt lat="42.687079485881895" lon="13.779787117995214"><ele>139.0</ele><time>2026-04-29T14:44:27Z</time></trkpt><trkpt lat="42.687236132259265" lon="13.78009347576484"><ele>139.0</ele><time>2026-04-29T14:44:28Z</time></trkpt><trkpt lat="42.687390371708695" lon="13.780397861977699"><ele>138.5</ele><time>2026-04-29T14:44:29Z</time></trkpt><trkpt lat="42.6875434128344" lon="13.780701313315664"><ele>138.0</ele><time>2026-04-29T14:44:30Z</time></trkpt><trkpt lat="42.68769882149502" lon="13.78101423741585"><ele>139.0</ele><time>2026-04-29T14:44:31Z</time></trkpt><trkpt lat="42.687855914464606" lon="13.781332492482854"><ele>140.0</ele><time>2026-04-29T14:44:32Z</time></trkpt><trkpt lat="42.68801000439363" lon="13.78164707060425"><ele>140.0</ele><time>2026-04-29T14:44:33Z</time></trkpt><trkpt lat="42.68816566791247" lon="13.7819714138219"><ele>140.0</ele><time>2026-04-29T14:44:34Z</time></trkpt><trkpt lat="42.68833233056539" lon="13.78232800496118"><ele>138.5</ele><time>2026-04-29T14:44:35Z</time></trkpt><trkpt lat="42.68850670700143" lon="13.782702689485605"><ele>137.0</ele><time>2026-04-29T14:44:36Z</time></trkpt><trkpt lat="42.68868509829243" lon="13.7830968876851"><ele>136.5</ele><time>2026-04-29T14:44:37Z</time></trkpt><trkpt lat="42.688869104697915" lon="13.783509739875452"><ele>136.0</ele><time>2026-04-29T14:44:38Z</time></trkpt><trkpt lat="42.689062601401275" lon="13.783934815270225"><ele>135.5</ele><time>2026-04-29T14:44:39Z</time></trkpt><trkpt lat="42.68926303766757" lon="13.784362741446483"><ele>135.0</ele><time>2026-04-29T14:44:40Z</time></trkpt><trkpt lat="42.68946525611175" lon="13.784796681739794"><ele>133.5</ele><time>2026-04-29T14:44:41Z</time></trkpt><trkpt lat="42.689669499435844" lon="13.785234993447713"><ele>132.0</ele><time>2026-04-29T14:44:42Z</time></trkpt><trkpt lat="42.689873645777226" lon="13.785680645135416"><ele>132.5</ele><time>2026-04-29T14:44:43Z</time></trkpt><trkpt lat="42.690076806532645" lon="13.786129435441477"><ele>133.0</ele><time>2026-04-29T14:44:44Z</time></trkpt><trkpt lat="42.6902768544577" lon="13.786571170430795"><ele>132.5</ele><time>2026-04-29T14:44:44.999Z</time></trkpt><trkpt lat="42.69046779125174" lon="13.786990371513335"><ele>132.0</ele><time>2026-04-29T14:44:45.999Z</time></trkpt><trkpt lat="42.69064727497995" lon="13.78738591230595"><ele>131.0</ele><time>2026-04-29T14:44:46.999Z</time></trkpt><trkpt lat="42.69082016363302" lon="13.787779723890768"><ele>130.0</ele><time>2026-04-29T14:44:47.999Z</time></trkpt><trkpt lat="42.69098101727248" lon="13.78816631218513"><ele>133.0</ele><time>2026-04-29T14:44:48.999Z</time></trkpt><trkpt lat="42.69112806142906" lon="13.78855176914066"><ele>136.0</ele><time>2026-04-29T14:44:49.999Z</time></trkpt><trkpt lat="42.691265899372716" lon="13.78894570028769"><ele>133.5</ele><time>2026-04-29T14:44:50.999Z</time></trkpt><trkpt lat="42.691393834561076" lon="13.789352128966124"><ele>131.0</ele><time>2026-04-29T14:44:51.999Z</time></trkpt><trkpt lat="42.691512269193296" lon="13.789770069691945"><ele>130.0</ele><time>2026-04-29T14:44:52.999Z</time></trkpt><trkpt lat="42.69162154281909" lon="13.790205427295614"><ele>129.0</ele><time>2026-04-29T14:44:53.999Z</time></trkpt><trkpt lat="42.69171810832578" lon="13.790663700380419"><ele>129.0</ele><time>2026-04-29T14:44:54.999Z</time></trkpt><trkpt lat="42.69179744515071" lon="13.791150226888659"><ele>129.0</ele><time>2026-04-29T14:44:55.999Z</time></trkpt><trkpt lat="42.69186877267485" lon="13.791652933368884"><ele>128.5</ele><time>2026-04-29T14:44:56.999Z</time></trkpt><trkpt lat="42.69193033475647" lon="13.792174408133972"><ele>128.0</ele><time>2026-04-29T14:44:57.999Z</time></trkpt><trkpt lat="42.691989897458264" lon="13.792691666585272"><ele>127.0</ele><time>2026-04-29T14:44:58.999Z</time></trkpt><trkpt lat="42.69204452253779" lon="13.793192913357627"><ele>126.0</ele><time>2026-04-29T14:44:59.999Z</time></trkpt><trkpt lat="42.69209707317749" lon="13.793680183121102"><ele>125.0</ele><time>2026-04-29T14:45:00.999Z</time></trkpt><trkpt lat="42.69214407563447" lon="13.794147651516454"><ele>124.0</ele><time>2026-04-29T14:45:01.999Z</time></trkpt><trkpt lat="42.69219130764099" lon="13.794616337126655"><ele>123.5</ele><time>2026-04-29T14:45:02.999Z</time></trkpt><trkpt lat="42.692243495242614" lon="13.795106299570346"><ele>123.0</ele><time>2026-04-29T14:45:03.999Z</time></trkpt><trkpt lat="42.69229697032607" lon="13.795608932975934"><ele>124.5</ele><time>2026-04-29T14:45:04.999Z</time></trkpt><trkpt lat="42.692347797963684" lon="13.796121242201988"><ele>126.0</ele><time>2026-04-29T14:45:05.999Z</time></trkpt><trkpt lat="42.69239313427202" lon="13.796597645476647"><ele>125.5</ele><time>2026-04-29T14:45:06.999Z</time></trkpt><trkpt lat="42.692438860482405" lon="13.797049026955078"><ele>125.0</ele><time>2026-04-29T14:45:07.999Z</time></trkpt><trkpt lat="42.692488022301696" lon="13.797513230392264"><ele>125.0</ele><time>2026-04-29T14:45:08.999Z</time></trkpt><trkpt lat="42.692542629561984" lon="13.797984347402624"><ele>125.0</ele><time>2026-04-29T14:45:09.999Z</time></trkpt><trkpt lat="42.69260398579343" lon="13.798467301676178"><ele>124.0</ele><time>2026-04-29T14:45:10.999Z</time></trkpt><trkpt lat="42.69267238970645" lon="13.798964097892354"><ele>123.0</ele><time>2026-04-29T14:45:11.999Z</time></trkpt><trkpt lat="42.69274987014679" lon="13.7994694855171"><ele>124.5</ele><time>2026-04-29T14:45:12.999Z</time></trkpt><trkpt lat="42.692833658072225" lon="13.799966375792756"><ele>126.0</ele><time>2026-04-29T14:45:13.999Z</time></trkpt><trkpt lat="42.692917365151985" lon="13.800425445416625"><ele>126.0</ele><time>2026-04-29T14:45:15Z</time></trkpt><trkpt lat="42.693003913420135" lon="13.800885398821508"><ele>126.0</ele><time>2026-04-29T14:45:16Z</time></trkpt><trkpt lat="42.69309968209354" lon="13.801334375323837"><ele>125.5</ele><time>2026-04-29T14:45:17Z</time></trkpt><trkpt lat="42.69320165413694" lon="13.801783468641684"><ele>125.0</ele><time>2026-04-29T14:45:18Z</time></trkpt><trkpt lat="42.70030394870325" lon="13.822822177917658"><ele>119.0</ele><time>2026-04-29T14:46:19Z</time></trkpt><trkpt lat="42.70037492903765" lon="13.823031957159298"><ele>113.0</ele><time>2026-04-29T14:46:20Z</time></trkpt><trkpt lat="42.70043789987462" lon="13.823232917770857"><ele>107.0</ele><time>2026-04-29T14:46:21Z</time></trkpt><trkpt lat="42.700498008022315" lon="13.823426412582103"><ele>106.0</ele><time>2026-04-29T14:46:22Z</time></trkpt><trkpt lat="42.70055395385296" lon="13.823616658963685"><ele>105.0</ele><time>2026-04-29T14:46:23Z</time></trkpt><trkpt lat="42.700612712497175" lon="13.823824154894048"><ele>104.0</ele><time>2026-04-29T14:46:24Z</time></trkpt><trkpt lat="42.70067558751395" lon="13.824048395650474"><ele>104.0</ele><time>2026-04-29T14:46:25Z</time></trkpt><trkpt lat="42.70073745911509" lon="13.824281578365744"><ele>104.0</ele><time>2026-04-29T14:46:26Z</time></trkpt><trkpt lat="42.7007953176398" lon="13.824518564950708"><ele>104.0</ele><time>2026-04-29T14:46:27Z</time></trkpt><trkpt lat="42.70084828807196" lon="13.82475459190298"><ele>103.66666666666666</ele><time>2026-04-29T14:46:28Z</time></trkpt><trkpt lat="42.70089568429803" lon="13.824982114348906"><ele>103.33333333333334</ele><time>2026-04-29T14:46:29Z</time></trkpt><trkpt lat="42.700936868923534" lon="13.825207011516701"><ele>103.0</ele><time>2026-04-29T14:46:30Z</time></trkpt><trkpt lat="42.70097626026545" lon="13.825427332432218"><ele>103.0</ele><time>2026-04-29T14:46:31Z</time></trkpt><trkpt lat="42.70101488259461" lon="13.825649280599173"><ele>103.0</ele><time>2026-04-29T14:46:32Z</time></trkpt><trkpt lat="42.70105203765816" lon="13.825877004156737"><ele>103.0</ele><time>2026-04-29T14:46:33Z</time></trkpt><trkpt lat="42.70108584911567" lon="13.826111144600825"><ele>102.33333333333334</ele><time>2026-04-29T14:46:34Z</time></trkpt><trkpt lat="42.70111643001693" lon="13.826340932937052"><ele>101.66666666666666</ele><time>2026-04-29T14:46:35Z</time></trkpt><trkpt lat="42.701142919837565" lon="13.82656867065907"><ele>101.0</ele><time>2026-04-29T14:46:36Z</time></trkpt><trkpt lat="42.70116670629515" lon="13.826800253403324"><ele>101.0</ele><time>2026-04-29T14:46:37Z</time></trkpt><trkpt lat="42.70118637086465" lon="13.827039340479972"><ele>101.0</ele><time>2026-04-29T14:46:38Z</time></trkpt><trkpt lat="42.701204974539706" lon="13.827285601457762"><ele>101.0</ele><time>2026-04-29T14:46:39Z</time></trkpt><trkpt lat="42.70122083611576" lon="13.82753864540647"><ele>100.33333333333333</ele><time>2026-04-29T14:46:40Z</time></trkpt><trkpt lat="42.70123489323896" lon="13.827795990545768"><ele>99.66666666666666</ele><time>2026-04-29T14:46:41Z</time></trkpt><trkpt lat="42.70124432440039" lon="13.828046076677023"><ele>99.0</ele><time>2026-04-29T14:46:42Z</time></trkpt><trkpt lat="42.70124976618547" lon="13.828294006808814"><ele>99.66666666666666</ele><time>2026-04-29T14:46:43Z</time></trkpt><trkpt lat="42.701252947079695" lon="13.828548363667672"><ele>100.33333333333333</ele><time>2026-04-29T14:46:44Z</time></trkpt><trkpt lat="42.701255718499304" lon="13.828808323138757"><ele>101.0</ele><time>2026-04-29T14:46:45Z</time></trkpt><trkpt lat="42.70125751543851" lon="13.829076996471363"><ele>101.0</ele><time>2026-04-29T14:46:46Z</time></trkpt><trkpt lat="42.70125975545597" lon="13.82935557930447"><ele>101.0</ele><time>2026-04-29T14:46:47Z</time></trkpt><trkpt lat="42.70126145094811" lon="13.829642298619222"><ele>101.0</ele><time>2026-04-29T14:46:48Z</time></trkpt><trkpt lat="42.70126137460056" lon="13.82993631151947"><ele>100.33333333333333</ele><time>2026-04-29T14:46:49Z</time></trkpt><trkpt lat="42.70126185362481" lon="13.830234706482814"><ele>99.66666666666666</ele><time>2026-04-29T14:46:50Z</time></trkpt><trkpt lat="42.70126347199432" lon="13.830538403314325"><ele>99.0</ele><time>2026-04-29T14:46:50.999Z</time></trkpt><trkpt lat="42.701264206649654" lon="13.83084561955101"><ele>98.66666666666666</ele><time>2026-04-29T14:46:51.999Z</time></trkpt><trkpt lat="42.70126493241185" lon="13.831147575786643"><ele>98.33333333333333</ele><time>2026-04-29T14:46:52.999Z</time></trkpt><trkpt lat="42.70126615548782" lon="13.83144251511105"><ele>98.0</ele><time>2026-04-29T14:46:53.999Z</time></trkpt><trkpt lat="42.70126669123986" lon="13.831741373969104"><ele>98.0</ele><time>2026-04-29T14:46:54.999Z</time></trkpt><trkpt lat="42.701265621906" lon="13.832043815808024"><ele>98.0</ele><time>2026-04-29T14:46:55.999Z</time></trkpt><trkpt lat="42.701264711993886" lon="13.832344291923446"><ele>98.0</ele><time>2026-04-29T14:46:56.999Z</time></trkpt><trkpt lat="42.701263395974976" lon="13.83264582212454"><ele>98.0</ele><time>2026-04-29T14:46:57.999Z</time></trkpt><trkpt lat="42.70125954203692" lon="13.832953564155066"><ele>98.0</ele><time>2026-04-29T14:46:58.999Z</time></trkpt><trkpt lat="42.70125508520447" lon="13.83326657726444"><ele>97.5</ele><time>2026-04-29T14:46:59.999Z</time></trkpt><trkpt lat="42.70124831792962" lon="13.833590818282527"><ele>97.0</ele><time>2026-04-29T14:47:00.999Z</time></trkpt><trkpt lat="42.701238643930765" lon="13.833923873832513"><ele>97.0</ele><time>2026-04-29T14:47:01.999Z</time></trkpt><trkpt lat="42.701224690824986" lon="13.834264722849063"><ele>97.0</ele><time>2026-04-29T14:47:02.999Z</time></trkpt><trkpt lat="42.7012091604551" lon="13.83460686427998"><ele>97.0</ele><time>2026-04-29T14:47:03.999Z</time></trkpt><trkpt lat="42.70118505563575" lon="13.83494905659339"><ele>97.0</ele><time>2026-04-29T14:47:04.999Z</time></trkpt><trkpt lat="42.70115185218593" lon="13.835314855521169"><ele>97.0</ele><time>2026-04-29T14:47:05.999Z</time></trkpt><trkpt lat="42.70111523186935" lon="13.83570392724932"><ele>97.0</ele><time>2026-04-29T14:47:06.999Z</time></trkpt><trkpt lat="42.70106784752937" lon="13.836129044585839"><ele>97.0</ele><time>2026-04-29T14:47:07.999Z</time></trkpt><trkpt lat="42.70101904153277" lon="13.836519050138644"><ele>97.0</ele><time>2026-04-29T14:47:08.999Z</time></trkpt><trkpt lat="42.70096743126746" lon="13.83688120263961"><ele>96.5</ele><time>2026-04-29T14:47:09.999Z</time></trkpt><trkpt lat="42.70091163903589" lon="13.83724757658544"><ele>96.0</ele><time>2026-04-29T14:47:10.999Z</time></trkpt><trkpt lat="42.700851475391964" lon="13.83761604507053"><ele>96.5</ele><time>2026-04-29T14:47:11.999Z</time></trkpt><trkpt lat="42.700789823263484" lon="13.837982175561423"><ele>97.0</ele><time>2026-04-29T14:47:12.999Z</time></trkpt><trkpt lat="42.700725651795786" lon="13.83834418780342"><ele>96.5</ele><time>2026-04-29T14:47:13.999Z</time></trkpt><trkpt lat="42.70065906340104" lon="13.838717531490875"><ele>96.0</ele><time>2026-04-29T14:47:14.999Z</time></trkpt><trkpt lat="42.7005879083781" lon="13.839107053165177"><ele>96.0</ele><time>2026-04-29T14:47:15.999Z</time></trkpt><trkpt lat="42.70051432945672" lon="13.839514837935141"><ele>96.0</ele><time>2026-04-29T14:47:16.999Z</time></trkpt><trkpt lat="42.700440669021916" lon="13.839937801357282"><ele>73.0</ele><time>2026-04-29T14:47:17.999Z</time></trkpt><trkpt lat="42.69962207404114" lon="13.869252594207875"><ele>72.5</ele><time>2026-04-29T14:48:19Z</time></trkpt><trkpt lat="42.69943447113846" lon="13.869721349462097"><ele>72.0</ele><time>2026-04-29T14:48:20Z</time></trkpt><trkpt lat="42.699249548066334" lon="13.870180545774529"><ele>72.0</ele><time>2026-04-29T14:48:21Z</time></trkpt><trkpt lat="42.699068194533794" lon="13.870635318744965"><ele>72.0</ele><time>2026-04-29T14:48:22Z</time></trkpt><trkpt lat="42.69889360399152" lon="13.871084360250636"><ele>72.0</ele><time>2026-04-29T14:48:23Z</time></trkpt><trkpt lat="42.69871962761245" lon="13.871538048599557"><ele>72.0</ele><time>2026-04-29T14:48:24Z</time></trkpt><trkpt lat="42.698541445200135" lon="13.872004864541058"><ele>72.5</ele><time>2026-04-29T14:48:25Z</time></trkpt><trkpt lat="42.698360295104536" lon="13.872471381432389"><ele>73.0</ele><time>2026-04-29T14:48:26Z</time></trkpt><trkpt lat="42.69817975321343" lon="13.872937640053628"><ele>73.0</ele><time>2026-04-29T14:48:27Z</time></trkpt><trkpt lat="42.697999819393516" lon="13.873403104181072"><ele>73.0</ele><time>2026-04-29T14:48:28Z</time></trkpt><trkpt lat="42.69783187328435" lon="13.873845599269423"><ele>73.5</ele><time>2026-04-29T14:48:29Z</time></trkpt><trkpt lat="42.69767461900149" lon="13.87426251937718"><ele>74.0</ele><time>2026-04-29T14:48:30Z</time></trkpt><trkpt lat="42.69752101755258" lon="13.874689382039753"><ele>72.0</ele><time>2026-04-29T14:48:31Z</time></trkpt><trkpt lat="42.69737499918319" lon="13.875125680760002"><ele>70.0</ele><time>2026-04-29T14:48:32Z</time></trkpt><trkpt lat="42.69723333481459" lon="13.875574261701647"><ele>69.0</ele><time>2026-04-29T14:48:33Z</time></trkpt><trkpt lat="42.69709623753744" lon="13.87603124215007"><ele>68.0</ele><time>2026-04-29T14:48:34Z</time></trkpt><trkpt lat="42.6969661958651" lon="13.876496406420655"><ele>67.0</ele><time>2026-04-29T14:48:35Z</time></trkpt><trkpt lat="42.69684452843347" lon="13.876969434520634"><ele>66.0</ele><time>2026-04-29T14:48:36Z</time></trkpt><trkpt lat="42.69672958474825" lon="13.877450082679538"><ele>65.5</ele><time>2026-04-29T14:48:37Z</time></trkpt><trkpt lat="42.696625117500936" lon="13.877940139677495"><ele>65.0</ele><time>2026-04-29T14:48:38Z</time></trkpt><trkpt lat="42.6965287851246" lon="13.878434617923087"><ele>65.0</ele><time>2026-04-29T14:48:39Z</time></trkpt><trkpt lat="42.69644536839627" lon="13.878919991463135"><ele>65.0</ele><time>2026-04-29T14:48:40Z</time></trkpt><trkpt lat="42.69637136750221" lon="13.879402753521624"><ele>65.0</ele><time>2026-04-29T14:48:41Z</time></trkpt><trkpt lat="42.69630378307611" lon="13.879896285166277"><ele>65.0</ele><time>2026-04-29T14:48:42Z</time></trkpt><trkpt lat="42.69624640307859" lon="13.880390773474666"><ele>64.5</ele><time>2026-04-29T14:48:43Z</time></trkpt><trkpt lat="42.696201033694024" lon="13.880889842132325"><ele>64.0</ele><time>2026-04-29T14:48:44Z</time></trkpt><trkpt lat="42.69616724825892" lon="13.881395144360974"><ele>64.5</ele><time>2026-04-29T14:48:45Z</time></trkpt><trkpt lat="42.69614520890068" lon="13.881902736847849"><ele>65.0</ele><time>2026-04-29T14:48:46Z</time></trkpt><trkpt lat="42.69613567967617" lon="13.882412378886873"><ele>65.0</ele><time>2026-04-29T14:48:47Z</time></trkpt><trkpt lat="42.69613327517371" lon="13.882920717442728"><ele>65.0</ele><time>2026-04-29T14:48:48Z</time></trkpt><trkpt lat="42.69614139189819" lon="13.883431639456633"><ele>65.0</ele><time>2026-04-29T14:48:49Z</time></trkpt><trkpt lat="42.69615872570028" lon="13.883945262164003"><ele>65.0</ele><time>2026-04-29T14:48:50Z</time></trkpt><trkpt lat="42.69618634050642" lon="13.884458717744186"><ele>64.5</ele><time>2026-04-29T14:48:51Z</time></trkpt><trkpt lat="42.69622465609948" lon="13.884967165817534"><ele>64.0</ele><time>2026-04-29T14:48:52Z</time></trkpt><trkpt lat="42.69627105485198" lon="13.88545512991605"><ele>63.0</ele><time>2026-04-29T14:48:53Z</time></trkpt><trkpt lat="42.69632625878552" lon="13.885933599289483"><ele>62.0</ele><time>2026-04-29T14:48:53.999Z</time></trkpt><trkpt lat="42.696389423996955" lon="13.886413600296834"><ele>62.0</ele><time>2026-04-29T14:48:54.999Z</time></trkpt><trkpt lat="42.696461468663955" lon="13.886893474882092"><ele>62.0</ele><time>2026-04-29T14:48:55.999Z</time></trkpt><trkpt lat="42.69655183979749" lon="13.887374999838364"><ele>61.0</ele><time>2026-04-29T14:48:56.999Z</time></trkpt><trkpt lat="42.6966523349293" lon="13.88786238724107"><ele>60.0</ele><time>2026-04-29T14:48:57.999Z</time></trkpt><trkpt lat="42.6967620325072" lon="13.88835090339815"><ele>59.0</ele><time>2026-04-29T14:48:58.999Z</time></trkpt><trkpt lat="42.69687773295101" lon="13.88884052944164"><ele>58.0</ele><time>2026-04-29T14:48:59.999Z</time></trkpt><trkpt lat="42.69699781938055" lon="13.889322015694049"><ele>58.0</ele><time>2026-04-29T14:49:00.999Z</time></trkpt><trkpt lat="42.69712385475092" lon="13.889802514075416"><ele>58.0</ele><time>2026-04-29T14:49:01.999Z</time></trkpt><trkpt lat="42.69725454416606" lon="13.890283627200883"><ele>58.0</ele><time>2026-04-29T14:49:02.999Z</time></trkpt><trkpt lat="42.69738464521886" lon="13.890766349669843"><ele>58.0</ele><time>2026-04-29T14:49:03.999Z</time></trkpt><trkpt lat="42.6975131191989" lon="13.89125196917708"><ele>58.0</ele><time>2026-04-29T14:49:04.999Z</time></trkpt><trkpt lat="42.69763996319994" lon="13.891740149995798"><ele>58.0</ele><time>2026-04-29T14:49:05.999Z</time></trkpt><trkpt lat="42.69776490157838" lon="13.892232319307178"><ele>57.0</ele><time>2026-04-29T14:49:06.999Z</time></trkpt><trkpt lat="42.697893561204786" lon="13.892723769877227"><ele>56.0</ele><time>2026-04-29T14:49:07.999Z</time></trkpt><trkpt lat="42.69802286515258" lon="13.893213231523976"><ele>56.5</ele><time>2026-04-29T14:49:08.999Z</time></trkpt><trkpt lat="42.698149429195745" lon="13.893698830001238"><ele>57.0</ele><time>2026-04-29T14:49:09.999Z</time></trkpt><trkpt lat="42.69827455252387" lon="13.89417968189398"><ele>56.5</ele><time>2026-04-29T14:49:10.999Z</time></trkpt><trkpt lat="42.69839783174956" lon="13.894670168045652"><ele>56.0</ele><time>2026-04-29T14:49:11.999Z</time></trkpt><trkpt lat="42.69852012146599" lon="13.895168940316339"><ele>55.0</ele><time>2026-04-29T14:49:12.999Z</time></trkpt><trkpt lat="42.69865178220264" lon="13.895677899453549"><ele>54.0</ele><time>2026-04-29T14:49:13.999Z</time></trkpt><trkpt lat="42.69878494358633" lon="13.896192077302455"><ele>54.0</ele><time>2026-04-29T14:49:14.999Z</time></trkpt><trkpt lat="42.69891467455834" lon="13.896687280934724"><ele>54.0</ele><time>2026-04-29T14:49:15.999Z</time></trkpt><trkpt lat="42.699044428336656" lon="13.897167782985395"><ele>55.0</ele><time>2026-04-29T14:49:16.999Z</time></trkpt><trkpt lat="42.69917054842591" lon="13.897641712857506"><ele>56.0</ele><time>2026-04-29T14:49:17.999Z</time></trkpt><trkpt lat="42.702140992296414" lon="13.912783078737519"><ele>54.16666666666667</ele><time>2026-04-29T14:50:19Z</time></trkpt><trkpt lat="42.7021533251364" lon="13.912874671399079"><ele>52.333333333333336</ele><time>2026-04-29T14:50:20Z</time></trkpt><trkpt lat="42.70216579717309" lon="13.91298282641049"><ele>50.5</ele><time>2026-04-29T14:50:21Z</time></trkpt><trkpt lat="42.70218064511189" lon="13.913097247267624"><ele>48.66666666666667</ele><time>2026-04-29T14:50:22Z</time></trkpt><trkpt lat="42.70219534644322" lon="13.913214703275145"><ele>46.833333333333336</ele><time>2026-04-29T14:50:23Z</time></trkpt><trkpt lat="42.70220814395482" lon="13.913324208472188"><ele>45.0</ele><time>2026-04-29T14:50:24Z</time></trkpt><trkpt lat="42.70221419921932" lon="13.913437651160278"><ele>44.8</ele><time>2026-04-29T14:50:25Z</time></trkpt><trkpt lat="42.70220776170188" lon="13.913553815609975"><ele>44.6</ele><time>2026-04-29T14:50:26Z</time></trkpt><trkpt lat="42.70218293098109" lon="13.91366916638672"><ele>44.400000000000006</ele><time>2026-04-29T14:50:27Z</time></trkpt><trkpt lat="42.702145587886356" lon="13.913786991704624"><ele>44.2</ele><time>2026-04-29T14:50:28Z</time></trkpt><trkpt lat="42.70209350276825" lon="13.913911431614483"><ele>44.0</ele><time>2026-04-29T14:50:29Z</time></trkpt><trkpt lat="42.702046738425835" lon="13.914043834065836"><ele>44.0</ele><time>2026-04-29T14:50:30Z</time></trkpt><trkpt lat="42.70202479941374" lon="13.91419079108953"><ele>44.0</ele><time>2026-04-29T14:50:31Z</time></trkpt><trkpt lat="42.70202800707912" lon="13.914343728627404"><ele>44.0</ele><time>2026-04-29T14:50:32Z</time></trkpt><trkpt lat="42.70205899812954" lon="13.914486110857844"><ele>44.0</ele><time>2026-04-29T14:50:33Z</time></trkpt><trkpt lat="42.70210567713602" lon="13.914614164006679"><ele>44.0</ele><time>2026-04-29T14:50:34Z</time></trkpt><trkpt lat="42.7021724871379" lon="13.914718318417878"><ele>43.6</ele><time>2026-04-29T14:50:35Z</time></trkpt><trkpt lat="42.70225243007856" lon="13.914792220924353"><ele>43.2</ele><time>2026-04-29T14:50:36Z</time></trkpt><trkpt lat="42.702342542010065" lon="13.91483929232058"><ele>42.800000000000004</ele><time>2026-04-29T14:50:37Z</time></trkpt><trkpt lat="42.70244236612249" lon="13.914861773169212"><ele>42.400000000000006</ele><time>2026-04-29T14:50:38Z</time></trkpt><trkpt lat="42.70253560190426" lon="13.914877798625918"><ele>42.0</ele><time>2026-04-29T14:50:39Z</time></trkpt><trkpt lat="42.70263156058613" lon="13.914868066745592"><ele>42.0</ele><time>2026-04-29T14:50:40Z</time></trkpt><trkpt lat="42.70272320111295" lon="13.914824374428209"><ele>42.0</ele><time>2026-04-29T14:50:41Z</time></trkpt><trkpt lat="42.70280303158448" lon="13.914752285068127"><ele>42.0</ele><time>2026-04-29T14:50:42Z</time></trkpt><trkpt lat="42.702871957464495" lon="13.914665359546072"><ele>42.0</ele><time>2026-04-29T14:50:43Z</time></trkpt><trkpt lat="42.70292029127782" lon="13.914571837863457"><ele>42.0</ele><time>2026-04-29T14:50:44Z</time></trkpt><trkpt lat="42.70295786261969" lon="13.914469543950116"><ele>42.0</ele><time>2026-04-29T14:50:45Z</time></trkpt><trkpt lat="42.70298723366238" lon="13.91436556708969"><ele>42.0</ele><time>2026-04-29T14:50:46Z</time></trkpt><trkpt lat="42.70302022275215" lon="13.914258187859575"><ele>42.0</ele><time>2026-04-29T14:50:47Z</time></trkpt><trkpt lat="42.70306905567604" lon="13.914158323862551"><ele>42.0</ele><time>2026-04-29T14:50:48Z</time></trkpt><trkpt lat="42.703131481044444" lon="13.914070557771163"><ele>42.0</ele><time>2026-04-29T14:50:49Z</time></trkpt><trkpt lat="42.70320939732124" lon="13.914004600687695"><ele>42.0</ele><time>2026-04-29T14:50:50Z</time></trkpt><trkpt lat="42.70330142454319" lon="13.91396372031128"><ele>42.2</ele><time>2026-04-29T14:50:51Z</time></trkpt><trkpt lat="42.703399291957126" lon="13.91392854475672"><ele>42.400000000000006</ele><time>2026-04-29T14:50:52Z</time></trkpt><trkpt lat="42.703498608776506" lon="13.913892307126904"><ele>42.599999999999994</ele><time>2026-04-29T14:50:53Z</time></trkpt><trkpt lat="42.7035963595235" lon="13.913852844994043"><ele>42.8</ele><time>2026-04-29T14:50:54Z</time></trkpt><trkpt lat="42.70369403468562" lon="13.913813389002724"><ele>43.0</ele><time>2026-04-29T14:50:55Z</time></trkpt><trkpt lat="42.703792356929846" lon="13.913774666061792"><ele>43.0</ele><time>2026-04-29T14:50:56Z</time></trkpt><trkpt lat="42.70389190961365" lon="13.91373604841338"><ele>43.0</ele><time>2026-04-29T14:50:57Z</time></trkpt><trkpt lat="42.703991502907854" lon="13.913698407686155"><ele>43.0</ele><time>2026-04-29T14:50:58Z</time></trkpt><trkpt lat="42.70409246125639" lon="13.913659510742663"><ele>43.0</ele><time>2026-04-29T14:50:58.999Z</time></trkpt><trkpt lat="42.7041941038442" lon="13.91362254731731"><ele>43.0</ele><time>2026-04-29T14:50:59.999Z</time></trkpt><trkpt lat="42.704298714230745" lon="13.91358430405716"><ele>43.0</ele><time>2026-04-29T14:51:00.999Z</time></trkpt><trkpt lat="42.70440413269726" lon="13.91354407194314"><ele>43.0</ele><time>2026-04-29T14:51:01.999Z</time></trkpt><trkpt lat="42.704510999240775" lon="13.913503039780295"><ele>43.0</ele><time>2026-04-29T14:51:02.999Z</time></trkpt><trkpt lat="42.70460624864042" lon="13.913466851259578"><ele>43.0</ele><time>2026-04-29T14:51:03.999Z</time></trkpt><trkpt lat="42.70470534534272" lon="13.913426450146051"><ele>43.0</ele><time>2026-04-29T14:51:04.999Z</time></trkpt><trkpt lat="42.70480836651298" lon="13.91338589237035"><ele>43.0</ele><time>2026-04-29T14:51:05.999Z</time></trkpt><trkpt lat="42.70490224927055" lon="13.913349043451236"><ele>43.0</ele><time>2026-04-29T14:51:06.999Z</time></trkpt><trkpt lat="42.70499710117123" lon="13.913307565852577"><ele>43.0</ele><time>2026-04-29T14:51:07.999Z</time></trkpt><trkpt lat="42.705088421431235" lon="13.913260208558807"><ele>43.0</ele><time>2026-04-29T14:51:08.999Z</time></trkpt><trkpt lat="42.705172481326265" lon="13.913182524898225"><ele>43.0</ele><time>2026-04-29T14:51:09.999Z</time></trkpt><trkpt lat="42.70527511962081" lon="13.913137902111124"><ele>43.4</ele><time>2026-04-29T14:51:10.999Z</time></trkpt><trkpt lat="42.705365094529746" lon="13.913074613514858"><ele>43.8</ele><time>2026-04-29T14:51:11.999Z</time></trkpt><trkpt lat="42.70543955617367" lon="13.912997973188938"><ele>44.2</ele><time>2026-04-29T14:51:12.999Z</time></trkpt><trkpt lat="42.70552034561457" lon="13.912943047784017"><ele>44.6</ele><time>2026-04-29T14:51:13.999Z</time></trkpt><trkpt lat="42.70560090241963" lon="13.91288930762753"><ele>45.0</ele><time>2026-04-29T14:51:14.999Z</time></trkpt><trkpt lat="42.70568829800727" lon="13.912852466475774"><ele>45.0</ele><time>2026-04-29T14:51:15.999Z</time></trkpt><trkpt lat="42.70576820251372" lon="13.912794211938923"><ele>45.0</ele><time>2026-04-29T14:51:16.999Z</time></trkpt><trkpt lat="42.70585268865071" lon="13.912739648266362"><ele>45.0</ele><time>2026-04-29T14:51:17.999Z</time></trkpt><trkpt lat="42.7101308778135" lon="13.912099600388636"><ele>45.8</ele><time>2026-04-29T14:52:19Z</time></trkpt><trkpt lat="42.71023074894116" lon="13.912118550728607"><ele>46.6</ele><time>2026-04-29T14:52:20Z</time></trkpt><trkpt lat="42.71033574054847" lon="13.912132413819439"><ele>47.400000000000006</ele><time>2026-04-29T14:52:21Z</time></trkpt><trkpt lat="42.71044520914955" lon="13.912122945382475"><ele>48.2</ele><time>2026-04-29T14:52:22Z</time></trkpt><trkpt lat="42.71056193286029" lon="13.912095248855815"><ele>49.0</ele><time>2026-04-29T14:52:23Z</time></trkpt><trkpt lat="42.7106829534757" lon="13.912046728161242"><ele>49.0</ele><time>2026-04-29T14:52:24Z</time></trkpt><trkpt lat="42.71081134858085" lon="13.911980762215633"><ele>49.0</ele><time>2026-04-29T14:52:25Z</time></trkpt><trkpt lat="42.710933012110836" lon="13.911899632642049"><ele>49.0</ele><time>2026-04-29T14:52:26Z</time></trkpt><trkpt lat="42.711046667881064" lon="13.911823571599909"><ele>49.0</ele><time>2026-04-29T14:52:27Z</time></trkpt><trkpt lat="42.71115226946362" lon="13.9117531031491"><ele>49.2</ele><time>2026-04-29T14:52:28Z</time></trkpt><trkpt lat="42.71125153932655" lon="13.91168622320508"><ele>49.400000000000006</ele><time>2026-04-29T14:52:29Z</time></trkpt><trkpt lat="42.7113525945548" lon="13.911618878795844"><ele>49.6</ele><time>2026-04-29T14:52:30Z</time></trkpt><trkpt lat="42.71144175725053" lon="13.911560776621556"><ele>49.8</ele><time>2026-04-29T14:52:31Z</time></trkpt><trkpt lat="42.711525806517045" lon="13.911508802573975"><ele>50.0</ele><time>2026-04-29T14:52:32Z</time></trkpt><trkpt lat="42.71158458935481" lon="13.91147247554135"><ele>50.00000000000001</ele><time>2026-04-29T14:52:33Z</time></trkpt><trkpt lat="42.71164571620893" lon="13.911434700036574"><ele>50.0</ele><time>2026-04-29T14:52:34Z</time></trkpt><trkpt lat="42.71173643270013" lon="13.911539679122098"><ele>50.0</ele><time>2026-04-29T14:52:35Z</time></trkpt><trkpt lat="42.711796251818676" lon="13.911581072953696"><ele>50.0</ele><time>2026-04-29T14:52:36Z</time></trkpt><trkpt lat="42.71185140926731" lon="13.911646830573883"><ele>50.00000000000001</ele><time>2026-04-29T14:52:37Z</time></trkpt><trkpt lat="42.711901170845884" lon="13.911722369960641"><ele>50.0</ele><time>2026-04-29T14:52:38Z</time></trkpt><trkpt lat="42.71192923237356" lon="13.911806233857577"><ele>50.00000000000001</ele><time>2026-04-29T14:52:39Z</time></trkpt><trkpt lat="42.711938581119384" lon="13.911945023736507"><ele>50.0</ele><time>2026-04-29T14:52:41Z</time></trkpt><trkpt lat="42.71192086508572" lon="13.912069487516385"><ele>50.0</ele><time>2026-04-29T14:52:43Z</time></trkpt><trkpt lat="42.711901315638045" lon="13.91217396703035"><ele>50.0</ele><time>2026-04-29T14:52:45Z</time></trkpt><trkpt lat="42.71186409234604" lon="13.912265050893257"><ele>50.00000000000001</ele><time>2026-04-29T14:52:47Z</time></trkpt><trkpt lat="42.711787039513034" lon="13.91232570852835"><ele>50.0</ele><time>2026-04-29T14:52:49Z</time></trkpt><trkpt lat="42.711715431184594" lon="13.912357711808792"><ele>50.0</ele><time>2026-04-29T14:52:51Z</time></trkpt><trkpt lat="42.7116181522605" lon="13.912374701970988"><ele>50.0</ele><time>2026-04-29T14:52:53Z</time></trkpt><trkpt lat="42.71149414277718" lon="13.91232266720144"><ele>50.0</ele><time>2026-04-29T14:52:55Z</time></trkpt><trkpt lat="42.7114274683471" lon="13.912298644137717"><ele>50.0</ele><time>2026-04-29T14:52:56Z</time></trkpt><trkpt lat="42.71131018556793" lon="13.912324448241579"><ele>50.0</ele><time>2026-04-29T14:52:58Z</time></trkpt><trkpt lat="42.71126113852228" lon="13.91238369438049"><ele>50.00000000000001</ele><time>2026-04-29T14:52:59Z</time></trkpt><trkpt lat="42.71123495285163" lon="13.912467310124383"><ele>50.0</ele><time>2026-04-29T14:52:59.999Z</time></trkpt><trkpt lat="42.71123873642359" lon="13.912560059702605"><ele>50.0</ele><time>2026-04-29T14:53:00.999Z</time></trkpt><trkpt lat="42.711270314683325" lon="13.912651286920555"><ele>50.0</ele><time>2026-04-29T14:53:01.999Z</time></trkpt><trkpt lat="42.71132378820979" lon="13.91273159812509"><ele>50.00000000000001</ele><time>2026-04-29T14:53:02.999Z</time></trkpt><trkpt lat="42.71138316137085" lon="13.912823734144192"><ele>50.0</ele><time>2026-04-29T14:53:03.999Z</time></trkpt><trkpt lat="42.711420832734646" lon="13.912934165361595"><ele>49.8</ele><time>2026-04-29T14:53:04.999Z</time></trkpt><trkpt lat="42.71144749292278" lon="13.913054124894254"><ele>49.6</ele><time>2026-04-29T14:53:05.999Z</time></trkpt><trkpt lat="42.71147552832846" lon="13.91319194306296"><ele>49.400000000000006</ele><time>2026-04-29T14:53:06.999Z</time></trkpt><trkpt lat="42.71150380905256" lon="13.913338140458494"><ele>49.2</ele><time>2026-04-29T14:53:07.999Z</time></trkpt><trkpt lat="42.711538947006595" lon="13.913495407769197"><ele>49.0</ele><time>2026-04-29T14:53:08.999Z</time></trkpt><trkpt lat="42.71157503478847" lon="13.913662473905221"><ele>49.0</ele><time>2026-04-29T14:53:09.999Z</time></trkpt><trkpt lat="42.711606568851835" lon="13.913831406861219"><ele>49.0</ele><time>2026-04-29T14:53:10.999Z</time></trkpt><trkpt lat="42.71163801332637" lon="13.913999623254236"><ele>49.0</ele><time>2026-04-29T14:53:11.999Z</time></trkpt><trkpt lat="42.71166594949854" lon="13.914162946862769"><ele>49.0</ele><time>2026-04-29T14:53:12.999Z</time></trkpt><trkpt lat="42.71170050402901" lon="13.914335362984664"><ele>49.0</ele><time>2026-04-29T14:53:13.999Z</time></trkpt><trkpt lat="42.711735147590915" lon="13.914506343007469"><ele>49.0</ele><time>2026-04-29T14:53:14.999Z</time></trkpt><trkpt lat="42.71176598513543" lon="13.914682652893612"><ele>49.0</ele><time>2026-04-29T14:53:15.999Z</time></trkpt><trkpt lat="42.71179435078727" lon="13.91484991700649"><ele>49.0</ele><time>2026-04-29T14:53:16.999Z</time></trkpt><trkpt lat="42.711824521651735" lon="13.915025787549732"><ele>44.0</ele><time>2026-04-29T14:53:17.999Z</time></trkpt><trkpt lat="42.716405916710976" lon="13.925292486780247"><ele>44.0</ele><time>2026-04-29T14:54:19Z</time></trkpt><trkpt lat="42.71651794602747" lon="13.925555308772323"><ele>44.0</ele><time>2026-04-29T14:54:20Z</time></trkpt><trkpt lat="42.71665406508449" lon="13.925843518962035"><ele>42.5</ele><time>2026-04-29T14:54:21Z</time></trkpt><trkpt lat="42.71680721883033" lon="13.926146953383844"><ele>41.0</ele><time>2026-04-29T14:54:22Z</time></trkpt><trkpt lat="42.71695818180485" lon="13.926487234272024"><ele>44.5</ele><time>2026-04-29T14:54:23Z</time></trkpt><trkpt lat="42.71711804649943" lon="13.926835357997415"><ele>48.0</ele><time>2026-04-29T14:54:24Z</time></trkpt><trkpt lat="42.717263886998744" lon="13.927146545872812"><ele>48.0</ele><time>2026-04-29T14:54:25Z</time></trkpt><trkpt lat="42.717410899924715" lon="13.927456171699722"><ele>48.0</ele><time>2026-04-29T14:54:26Z</time></trkpt><trkpt lat="42.71755743262143" lon="13.927771694338968"><ele>47.0</ele><time>2026-04-29T14:54:27Z</time></trkpt><trkpt lat="42.71770250657589" lon="13.9280799737644"><ele>46.0</ele><time>2026-04-29T14:54:28Z</time></trkpt><trkpt lat="42.71783354409351" lon="13.92836534461581"><ele>47.0</ele><time>2026-04-29T14:54:29Z</time></trkpt><trkpt lat="42.7179547287358" lon="13.928632222125925"><ele>48.0</ele><time>2026-04-29T14:54:30Z</time></trkpt><trkpt lat="42.71807030264405" lon="13.928881247097898"><ele>49.0</ele><time>2026-04-29T14:54:31Z</time></trkpt><trkpt lat="42.71817719806316" lon="13.929112071438404"><ele>48.33333333333333</ele><time>2026-04-29T14:54:32Z</time></trkpt><trkpt lat="42.71827747077236" lon="13.929328782167"><ele>47.666666666666664</ele><time>2026-04-29T14:54:33Z</time></trkpt><trkpt lat="42.71837516208304" lon="13.929539271733681"><ele>47.0</ele><time>2026-04-29T14:54:34Z</time></trkpt><trkpt lat="42.7184753439237" lon="13.929755894711032"><ele>47.33333333333333</ele><time>2026-04-29T14:54:35Z</time></trkpt><trkpt lat="42.718575391913284" lon="13.929975900421777"><ele>47.666666666666664</ele><time>2026-04-29T14:54:36Z</time></trkpt><trkpt lat="42.71867964511293" lon="13.930199286018643"><ele>48.0</ele><time>2026-04-29T14:54:37Z</time></trkpt><trkpt lat="42.71878653376742" lon="13.930427583617156"><ele>48.0</ele><time>2026-04-29T14:54:38Z</time></trkpt><trkpt lat="42.71889055253399" lon="13.930651019772"><ele>48.0</ele><time>2026-04-29T14:54:39Z</time></trkpt><trkpt lat="42.71898691025502" lon="13.930857142050742"><ele>48.0</ele><time>2026-04-29T14:54:40Z</time></trkpt><trkpt lat="42.71907741953239" lon="13.9310539108762"><ele>47.0</ele><time>2026-04-29T14:54:41Z</time></trkpt><trkpt lat="42.71916718967441" lon="13.931251443134803"><ele>46.0</ele><time>2026-04-29T14:54:42Z</time></trkpt><trkpt lat="42.71925698491799" lon="13.931450506494356"><ele>45.0</ele><time>2026-04-29T14:54:43Z</time></trkpt><trkpt lat="42.71934829599549" lon="13.931647789714619"><ele>44.666666666666664</ele><time>2026-04-29T14:54:44Z</time></trkpt><trkpt lat="42.71943779445651" lon="13.931840474460252"><ele>44.33333333333333</ele><time>2026-04-29T14:54:45Z</time></trkpt><trkpt lat="42.719522449394404" lon="13.932023116267361"><ele>44.0</ele><time>2026-04-29T14:54:46Z</time></trkpt><trkpt lat="42.71960692038538" lon="13.932206634886212"><ele>44.0</ele><time>2026-04-29T14:54:47Z</time></trkpt><trkpt lat="42.719692429115575" lon="13.932394100164206"><ele>44.0</ele><time>2026-04-29T14:54:48Z</time></trkpt><trkpt lat="42.719776764753135" lon="13.932578120884207"><ele>44.0</ele><time>2026-04-29T14:54:49Z</time></trkpt><trkpt lat="42.71985916802455" lon="13.932752269343013"><ele>43.0</ele><time>2026-04-29T14:54:50Z</time></trkpt><trkpt lat="42.71994103855262" lon="13.932924155428394"><ele>42.0</ele><time>2026-04-29T14:54:51Z</time></trkpt><trkpt lat="42.720019375968604" lon="13.933095866349596"><ele>41.0</ele><time>2026-04-29T14:54:52Z</time></trkpt><trkpt lat="42.72009978003718" lon="13.933269364749137"><ele>41.25</ele><time>2026-04-29T14:54:53Z</time></trkpt><trkpt lat="42.72018007871101" lon="13.933444285636384"><ele>41.5</ele><time>2026-04-29T14:54:54Z</time></trkpt><trkpt lat="42.72026033011264" lon="13.93361843049872"><ele>41.75</ele><time>2026-04-29T14:54:55Z</time></trkpt><trkpt lat="42.72033400210175" lon="13.933779253900308"><ele>42.0</ele><time>2026-04-29T14:54:56Z</time></trkpt><trkpt lat="42.72039459864458" lon="13.933918982647395"><ele>42.2</ele><time>2026-04-29T14:54:57Z</time></trkpt><trkpt lat="42.720452435836044" lon="13.934046739810238"><ele>42.400000000000006</ele><time>2026-04-29T14:54:58Z</time></trkpt><trkpt lat="42.72050657844272" lon="13.934165267098432"><ele>42.599999999999994</ele><time>2026-04-29T14:54:59Z</time></trkpt><trkpt lat="42.72056062576506" lon="13.934283201440845"><ele>42.8</ele><time>2026-04-29T14:55:00Z</time></trkpt><trkpt lat="42.72061371089707" lon="13.934401709415203"><ele>43.0</ele><time>2026-04-29T14:55:01Z</time></trkpt><trkpt lat="42.720670098343795" lon="13.934525245188082"><ele>43.0</ele><time>2026-04-29T14:55:02Z</time></trkpt><trkpt lat="42.72072965318616" lon="13.934656218679173"><ele>43.0</ele><time>2026-04-29T14:55:03Z</time></trkpt><trkpt lat="42.72079235113671" lon="13.934793788009735"><ele>43.0</ele><time>2026-04-29T14:55:04Z</time></trkpt><trkpt lat="42.720858809237875" lon="13.934938789168191"><ele>43.0</ele><time>2026-04-29T14:55:04.999Z</time></trkpt><trkpt lat="42.72092748877506" lon="13.935087453948812"><ele>42.599999999999994</ele><time>2026-04-29T14:55:05.999Z</time></trkpt><trkpt lat="42.720993497461116" lon="13.935230045663726"><ele>42.199999999999996</ele><time>2026-04-29T14:55:06.999Z</time></trkpt><trkpt lat="42.721055492519994" lon="13.935366056451867"><ele>41.8</ele><time>2026-04-29T14:55:07.999Z</time></trkpt><trkpt lat="42.72111416706905" lon="13.93549156575417"><ele>41.4</ele><time>2026-04-29T14:55:08.999Z</time></trkpt><trkpt lat="42.721164398181486" lon="13.935601750758508"><ele>41.0</ele><time>2026-04-29T14:55:09.999Z</time></trkpt><trkpt lat="42.72120474134788" lon="13.935693561019763"><ele>41.0</ele><time>2026-04-29T14:55:10.999Z</time></trkpt><trkpt lat="42.72122206304903" lon="13.935851890893709"><ele>41.0</ele><time>2026-04-29T14:55:12.999Z</time></trkpt><trkpt lat="42.72118929124631" lon="13.935988276925478"><ele>41.0</ele><time>2026-04-29T14:55:14.999Z</time></trkpt><trkpt lat="42.721201397440936" lon="13.936089671483336"><ele>41.0</ele><time>2026-04-29T14:55:16.999Z</time></trkpt><trkpt lat="42.72097269619166" lon="13.936527023214914"><ele>41.0</ele><time>2026-04-29T14:56:24Z</time></trkpt></trkseg></trk></gpx>